<?xml version="1.0" encoding="UTF-8" standalone="no" ?>
<gpx xmlns="http://www.topografix.com/GPX/1/1" xmlns:xsi="http://www.w3.org/2001/XMLSchema-instance" xsi:schemaLocation="http://www.topografix.com/GPX/1/1 http://www.topografix.com/GPX/1/1/gpx.xsd" version="1.1" creator="VisuGPX - https://www.visugpx.com">
  <metadata>
    <name>Road trip fait P/E</name>
  </metadata>
  <trk>
    <name><![CDATA[Road trip fait P/E_4]]></name>
    <extensions>
      <line xmlns="http://www.topografix.com/GPX/gpx_style/0/2">
        <color>888800</color>
        <width>4</width>
      </line>
    </extensions>
    <trkseg>
      <trkpt lat="40.38031" lon="-6.93158">
        <ele>801.8798</ele>
        <time>2021-07-08T19:43:00Z</time>
      </trkpt>
      <trkpt lat="40.38031" lon="-6.93158">
        <ele>801.8798</ele>
        <time>2021-07-08T19:43:00Z</time>
      </trkpt>
      <trkpt lat="40.38025" lon="-6.93166">
        <ele>805.5468</ele>
        <time>2021-07-09T08:13:18Z</time>
      </trkpt>
      <trkpt lat="40.38025" lon="-6.93166">
        <ele>805.9021</ele>
        <time>2021-07-09T08:14:18Z</time>
      </trkpt>
      <trkpt lat="40.38025" lon="-6.93166">
        <ele>805.9021</ele>
        <time>2021-07-09T08:15:18Z</time>
      </trkpt>
      <trkpt lat="40.38025" lon="-6.93166">
        <ele>805.9021</ele>
        <time>2021-07-09T08:16:18Z</time>
      </trkpt>
      <trkpt lat="40.38027" lon="-6.93163">
        <ele>806.6161</ele>
        <time>2021-07-09T08:17:18Z</time>
      </trkpt>
      <trkpt lat="40.38025" lon="-6.93166">
        <ele>805.816</ele>
        <time>2021-07-09T08:18:18Z</time>
      </trkpt>
      <trkpt lat="40.38025" lon="-6.93166">
        <ele>805.5795</ele>
        <time>2021-07-09T08:19:17Z</time>
      </trkpt>
      <trkpt lat="40.38031" lon="-6.93158">
        <ele>807.3607</ele>
        <time>2021-07-09T08:19:30Z</time>
      </trkpt>
      <trkpt lat="40.38042" lon="-6.93084">
        <ele>804.2538</ele>
        <time>2021-07-09T08:19:41Z</time>
      </trkpt>
      <trkpt lat="40.38073" lon="-6.92993">
        <ele>802.9557</ele>
        <time>2021-07-09T08:19:52Z</time>
      </trkpt>
      <trkpt lat="40.38119" lon="-6.92895">
        <ele>804.0135</ele>
        <time>2021-07-09T08:20:03Z</time>
      </trkpt>
      <trkpt lat="40.38168" lon="-6.92783">
        <ele>803.9706</ele>
        <time>2021-07-09T08:20:14Z</time>
      </trkpt>
      <trkpt lat="40.38172" lon="-6.92722">
        <ele>802.3983</ele>
        <time>2021-07-09T08:20:25Z</time>
      </trkpt>
      <trkpt lat="40.38167" lon="-6.92714">
        <ele>802.3668</ele>
        <time>2021-07-09T08:20:36Z</time>
      </trkpt>
      <trkpt lat="40.38164" lon="-6.92708">
        <ele>802.9828</ele>
        <time>2021-07-09T08:20:49Z</time>
      </trkpt>
      <trkpt lat="40.38125" lon="-6.92623">
        <ele>805.7674</ele>
        <time>2021-07-09T08:21:00Z</time>
      </trkpt>
      <trkpt lat="40.38211" lon="-6.92513">
        <ele>803.6984</ele>
        <time>2021-07-09T08:21:11Z</time>
      </trkpt>
      <trkpt lat="40.38296" lon="-6.92377">
        <ele>802.7656</ele>
        <time>2021-07-09T08:21:22Z</time>
      </trkpt>
      <trkpt lat="40.38376" lon="-6.92338">
        <ele>801.7325</ele>
        <time>2021-07-09T08:21:33Z</time>
      </trkpt>
      <trkpt lat="40.38497" lon="-6.92445">
        <ele>802.5067</ele>
        <time>2021-07-09T08:21:44Z</time>
      </trkpt>
      <trkpt lat="40.3859" lon="-6.92515">
        <ele>805.7377</ele>
        <time>2021-07-09T08:21:55Z</time>
      </trkpt>
      <trkpt lat="40.38643" lon="-6.92565">
        <ele>803.8106</ele>
        <time>2021-07-09T08:22:06Z</time>
      </trkpt>
      <trkpt lat="40.38616" lon="-6.92675">
        <ele>808.7214</ele>
        <time>2021-07-09T08:22:17Z</time>
      </trkpt>
      <trkpt lat="40.38677" lon="-6.92742">
        <ele>817.3201</ele>
        <time>2021-07-09T08:22:28Z</time>
      </trkpt>
      <trkpt lat="40.38736" lon="-6.92761">
        <ele>811.5636</ele>
        <time>2021-07-09T08:22:39Z</time>
      </trkpt>
      <trkpt lat="40.38778" lon="-6.9268">
        <ele>810.4848</ele>
        <time>2021-07-09T08:22:50Z</time>
      </trkpt>
      <trkpt lat="40.38875" lon="-6.92464">
        <ele>803.6324</ele>
        <time>2021-07-09T08:23:01Z</time>
      </trkpt>
      <trkpt lat="40.39018" lon="-6.92297">
        <ele>792.9016</ele>
        <time>2021-07-09T08:23:12Z</time>
      </trkpt>
      <trkpt lat="40.39114" lon="-6.92168">
        <ele>784.2578</ele>
        <time>2021-07-09T08:23:23Z</time>
      </trkpt>
      <trkpt lat="40.3918" lon="-6.91996">
        <ele>781.3016</ele>
        <time>2021-07-09T08:23:34Z</time>
      </trkpt>
      <trkpt lat="40.3924" lon="-6.91834">
        <ele>781.0262</ele>
        <time>2021-07-09T08:23:45Z</time>
      </trkpt>
      <trkpt lat="40.39243" lon="-6.91693">
        <ele>789.7068</ele>
        <time>2021-07-09T08:23:56Z</time>
      </trkpt>
      <trkpt lat="40.39125" lon="-6.91568">
        <ele>798.1232</ele>
        <time>2021-07-09T08:24:07Z</time>
      </trkpt>
      <trkpt lat="40.38997" lon="-6.91476">
        <ele>803.902</ele>
        <time>2021-07-09T08:24:18Z</time>
      </trkpt>
      <trkpt lat="40.38956" lon="-6.91305">
        <ele>818.8362</ele>
        <time>2021-07-09T08:24:29Z</time>
      </trkpt>
      <trkpt lat="40.38915" lon="-6.91145">
        <ele>831.642</ele>
        <time>2021-07-09T08:24:40Z</time>
      </trkpt>
      <trkpt lat="40.38865" lon="-6.91066">
        <ele>837.1895</ele>
        <time>2021-07-09T08:24:51Z</time>
      </trkpt>
      <trkpt lat="40.38777" lon="-6.91041">
        <ele>832.1641</ele>
        <time>2021-07-09T08:25:02Z</time>
      </trkpt>
      <trkpt lat="40.38704" lon="-6.91051">
        <ele>825.388</ele>
        <time>2021-07-09T08:25:13Z</time>
      </trkpt>
      <trkpt lat="40.38678" lon="-6.91069">
        <ele>824.3662</ele>
        <time>2021-07-09T08:25:24Z</time>
      </trkpt>
      <trkpt lat="40.38598" lon="-6.91123">
        <ele>824.7595</ele>
        <time>2021-07-09T08:25:35Z</time>
      </trkpt>
      <trkpt lat="40.38485" lon="-6.91122">
        <ele>822.2828</ele>
        <time>2021-07-09T08:25:46Z</time>
      </trkpt>
      <trkpt lat="40.38371" lon="-6.91098">
        <ele>820.8732</ele>
        <time>2021-07-09T08:25:57Z</time>
      </trkpt>
      <trkpt lat="40.38291" lon="-6.91028">
        <ele>817.4193</ele>
        <time>2021-07-09T08:26:08Z</time>
      </trkpt>
      <trkpt lat="40.38212" lon="-6.90981">
        <ele>822.29</ele>
        <time>2021-07-09T08:26:19Z</time>
      </trkpt>
      <trkpt lat="40.38093" lon="-6.90932">
        <ele>832.0175</ele>
        <time>2021-07-09T08:26:30Z</time>
      </trkpt>
      <trkpt lat="40.38017" lon="-6.90841">
        <ele>831.7862</ele>
        <time>2021-07-09T08:26:41Z</time>
      </trkpt>
      <trkpt lat="40.37945" lon="-6.90765">
        <ele>828.4094</ele>
        <time>2021-07-09T08:26:52Z</time>
      </trkpt>
      <trkpt lat="40.37888" lon="-6.90694">
        <ele>830.0154</ele>
        <time>2021-07-09T08:27:03Z</time>
      </trkpt>
      <trkpt lat="40.37825" lon="-6.90731">
        <ele>828.8621</ele>
        <time>2021-07-09T08:27:14Z</time>
      </trkpt>
      <trkpt lat="40.3771" lon="-6.90764">
        <ele>824.9</ele>
        <time>2021-07-09T08:27:25Z</time>
      </trkpt>
      <trkpt lat="40.37669" lon="-6.90751">
        <ele>822.2321</ele>
        <time>2021-07-09T08:27:36Z</time>
      </trkpt>
      <trkpt lat="40.37669" lon="-6.90756">
        <ele>821.7631</ele>
        <time>2021-07-09T08:27:59Z</time>
      </trkpt>
      <trkpt lat="40.37629" lon="-6.90797">
        <ele>816.3887</ele>
        <time>2021-07-09T08:28:10Z</time>
      </trkpt>
      <trkpt lat="40.37573" lon="-6.90765">
        <ele>819.3782</ele>
        <time>2021-07-09T08:28:21Z</time>
      </trkpt>
      <trkpt lat="40.37535" lon="-6.90868">
        <ele>824.3896</ele>
        <time>2021-07-09T08:28:32Z</time>
      </trkpt>
      <trkpt lat="40.37506" lon="-6.90995">
        <ele>833.0657</ele>
        <time>2021-07-09T08:28:43Z</time>
      </trkpt>
      <trkpt lat="40.374" lon="-6.91049">
        <ele>836.1317</ele>
        <time>2021-07-09T08:28:54Z</time>
      </trkpt>
      <trkpt lat="40.37336" lon="-6.91108">
        <ele>832.8128</ele>
        <time>2021-07-09T08:29:05Z</time>
      </trkpt>
      <trkpt lat="40.37208" lon="-6.91061">
        <ele>831.2963</ele>
        <time>2021-07-09T08:29:16Z</time>
      </trkpt>
      <trkpt lat="40.37134" lon="-6.91053">
        <ele>832.8908</ele>
        <time>2021-07-09T08:29:27Z</time>
      </trkpt>
      <trkpt lat="40.37052" lon="-6.91017">
        <ele>837.0045</ele>
        <time>2021-07-09T08:29:38Z</time>
      </trkpt>
      <trkpt lat="40.36966" lon="-6.91043">
        <ele>838.9116</ele>
        <time>2021-07-09T08:29:49Z</time>
      </trkpt>
      <trkpt lat="40.36858" lon="-6.9107">
        <ele>845.1672</ele>
        <time>2021-07-09T08:30:00Z</time>
      </trkpt>
      <trkpt lat="40.36744" lon="-6.91096">
        <ele>844.1157</ele>
        <time>2021-07-09T08:30:11Z</time>
      </trkpt>
      <trkpt lat="40.36655" lon="-6.91146">
        <ele>843.7888</ele>
        <time>2021-07-09T08:30:22Z</time>
      </trkpt>
      <trkpt lat="40.36582" lon="-6.91219">
        <ele>845.2183</ele>
        <time>2021-07-09T08:30:33Z</time>
      </trkpt>
      <trkpt lat="40.36515" lon="-6.91302">
        <ele>845.3136</ele>
        <time>2021-07-09T08:30:44Z</time>
      </trkpt>
      <trkpt lat="40.36429" lon="-6.91368">
        <ele>847.8873</ele>
        <time>2021-07-09T08:30:55Z</time>
      </trkpt>
      <trkpt lat="40.36332" lon="-6.91414">
        <ele>843.8634</ele>
        <time>2021-07-09T08:31:06Z</time>
      </trkpt>
      <trkpt lat="40.3624" lon="-6.91423">
        <ele>847.9898</ele>
        <time>2021-07-09T08:31:17Z</time>
      </trkpt>
      <trkpt lat="40.36139" lon="-6.91398">
        <ele>849.0215</ele>
        <time>2021-07-09T08:31:28Z</time>
      </trkpt>
      <trkpt lat="40.36035" lon="-6.91377">
        <ele>850.7843</ele>
        <time>2021-07-09T08:31:39Z</time>
      </trkpt>
      <trkpt lat="40.35977" lon="-6.91381">
        <ele>851.0118</ele>
        <time>2021-07-09T08:31:50Z</time>
      </trkpt>
      <trkpt lat="40.35931" lon="-6.9144">
        <ele>856.0696</ele>
        <time>2021-07-09T08:32:01Z</time>
      </trkpt>
      <trkpt lat="40.35859" lon="-6.91475">
        <ele>861.7136</ele>
        <time>2021-07-09T08:32:12Z</time>
      </trkpt>
      <trkpt lat="40.35777" lon="-6.91488">
        <ele>870.3462</ele>
        <time>2021-07-09T08:32:23Z</time>
      </trkpt>
      <trkpt lat="40.35697" lon="-6.91431">
        <ele>869.9015</ele>
        <time>2021-07-09T08:32:34Z</time>
      </trkpt>
      <trkpt lat="40.35648" lon="-6.91381">
        <ele>869.3093</ele>
        <time>2021-07-09T08:32:45Z</time>
      </trkpt>
      <trkpt lat="40.35573" lon="-6.91328">
        <ele>872.3163</ele>
        <time>2021-07-09T08:32:56Z</time>
      </trkpt>
      <trkpt lat="40.35522" lon="-6.91254">
        <ele>879.8641</ele>
        <time>2021-07-09T08:33:07Z</time>
      </trkpt>
      <trkpt lat="40.35491" lon="-6.91176">
        <ele>886.754</ele>
        <time>2021-07-09T08:33:18Z</time>
      </trkpt>
      <trkpt lat="40.35447" lon="-6.91182">
        <ele>890.4124</ele>
        <time>2021-07-09T08:33:29Z</time>
      </trkpt>
      <trkpt lat="40.35364" lon="-6.912">
        <ele>902.2794</ele>
        <time>2021-07-09T08:33:40Z</time>
      </trkpt>
      <trkpt lat="40.35263" lon="-6.91178">
        <ele>910.3974</ele>
        <time>2021-07-09T08:33:51Z</time>
      </trkpt>
      <trkpt lat="40.35175" lon="-6.91155">
        <ele>920.0641</ele>
        <time>2021-07-09T08:34:02Z</time>
      </trkpt>
      <trkpt lat="40.35084" lon="-6.91138">
        <ele>929.2097</ele>
        <time>2021-07-09T08:34:13Z</time>
      </trkpt>
      <trkpt lat="40.34986" lon="-6.91175">
        <ele>932.5465</ele>
        <time>2021-07-09T08:34:24Z</time>
      </trkpt>
      <trkpt lat="40.34878" lon="-6.91137">
        <ele>936.9706</ele>
        <time>2021-07-09T08:34:35Z</time>
      </trkpt>
      <trkpt lat="40.3479" lon="-6.91069">
        <ele>944.4393</ele>
        <time>2021-07-09T08:34:46Z</time>
      </trkpt>
      <trkpt lat="40.34725" lon="-6.90963">
        <ele>958.3524</ele>
        <time>2021-07-09T08:34:57Z</time>
      </trkpt>
      <trkpt lat="40.34652" lon="-6.90865">
        <ele>950.3064</ele>
        <time>2021-07-09T08:35:08Z</time>
      </trkpt>
      <trkpt lat="40.34577" lon="-6.90776">
        <ele>951.3655</ele>
        <time>2021-07-09T08:35:19Z</time>
      </trkpt>
      <trkpt lat="40.34478" lon="-6.90727">
        <ele>954.2365</ele>
        <time>2021-07-09T08:35:30Z</time>
      </trkpt>
      <trkpt lat="40.34385" lon="-6.90693">
        <ele>959.3313</ele>
        <time>2021-07-09T08:35:41Z</time>
      </trkpt>
      <trkpt lat="40.34279" lon="-6.90658">
        <ele>966.1325</ele>
        <time>2021-07-09T08:35:52Z</time>
      </trkpt>
      <trkpt lat="40.34229" lon="-6.90639">
        <ele>973.0753</ele>
        <time>2021-07-09T08:36:03Z</time>
      </trkpt>
      <trkpt lat="40.34225" lon="-6.90639">
        <ele>972.6053</ele>
        <time>2021-07-09T08:36:33Z</time>
      </trkpt>
      <trkpt lat="40.34121" lon="-6.90566">
        <ele>978.5449</ele>
        <time>2021-07-09T08:36:44Z</time>
      </trkpt>
      <trkpt lat="40.33941" lon="-6.90482">
        <ele>986.2609</ele>
        <time>2021-07-09T08:36:55Z</time>
      </trkpt>
      <trkpt lat="40.33763" lon="-6.9047">
        <ele>991.4038</ele>
        <time>2021-07-09T08:37:06Z</time>
      </trkpt>
      <trkpt lat="40.33561" lon="-6.90418">
        <ele>1004.701</ele>
        <time>2021-07-09T08:37:17Z</time>
      </trkpt>
      <trkpt lat="40.33349" lon="-6.90387">
        <ele>1014.912</ele>
        <time>2021-07-09T08:37:28Z</time>
      </trkpt>
      <trkpt lat="40.3315" lon="-6.90326">
        <ele>1038.581</ele>
        <time>2021-07-09T08:37:39Z</time>
      </trkpt>
      <trkpt lat="40.32973" lon="-6.90217">
        <ele>1048.085</ele>
        <time>2021-07-09T08:37:50Z</time>
      </trkpt>
      <trkpt lat="40.32833" lon="-6.90248">
        <ele>1054.854</ele>
        <time>2021-07-09T08:38:01Z</time>
      </trkpt>
      <trkpt lat="40.32756" lon="-6.90438">
        <ele>1064.662</ele>
        <time>2021-07-09T08:38:12Z</time>
      </trkpt>
      <trkpt lat="40.32643" lon="-6.90642">
        <ele>1061.973</ele>
        <time>2021-07-09T08:38:23Z</time>
      </trkpt>
      <trkpt lat="40.32469" lon="-6.90644">
        <ele>1081.431</ele>
        <time>2021-07-09T08:38:34Z</time>
      </trkpt>
      <trkpt lat="40.32374" lon="-6.9056">
        <ele>1089.256</ele>
        <time>2021-07-09T08:38:45Z</time>
      </trkpt>
      <trkpt lat="40.3234" lon="-6.90565">
        <ele>1090.067</ele>
        <time>2021-07-09T08:38:56Z</time>
      </trkpt>
      <trkpt lat="40.32339" lon="-6.90561">
        <ele>1088.733</ele>
        <time>2021-07-09T08:39:14Z</time>
      </trkpt>
      <trkpt lat="40.32333" lon="-6.90561">
        <ele>1089.924</ele>
        <time>2021-07-09T08:39:53Z</time>
      </trkpt>
      <trkpt lat="40.32219" lon="-6.90619">
        <ele>1096.894</ele>
        <time>2021-07-09T08:40:04Z</time>
      </trkpt>
      <trkpt lat="40.32118" lon="-6.90704">
        <ele>1103.451</ele>
        <time>2021-07-09T08:40:15Z</time>
      </trkpt>
      <trkpt lat="40.32005" lon="-6.90547">
        <ele>1108.459</ele>
        <time>2021-07-09T08:40:26Z</time>
      </trkpt>
      <trkpt lat="40.31854" lon="-6.90448">
        <ele>1116.1</ele>
        <time>2021-07-09T08:40:37Z</time>
      </trkpt>
      <trkpt lat="40.31656" lon="-6.90445">
        <ele>1112.439</ele>
        <time>2021-07-09T08:40:48Z</time>
      </trkpt>
      <trkpt lat="40.31466" lon="-6.90367">
        <ele>1112.111</ele>
        <time>2021-07-09T08:40:59Z</time>
      </trkpt>
      <trkpt lat="40.31316" lon="-6.90331">
        <ele>1105.845</ele>
        <time>2021-07-09T08:41:10Z</time>
      </trkpt>
      <trkpt lat="40.3116" lon="-6.90261">
        <ele>1087.84</ele>
        <time>2021-07-09T08:41:21Z</time>
      </trkpt>
      <trkpt lat="40.3098" lon="-6.90163">
        <ele>1090.905</ele>
        <time>2021-07-09T08:41:32Z</time>
      </trkpt>
      <trkpt lat="40.30786" lon="-6.9013">
        <ele>1076.934</ele>
        <time>2021-07-09T08:41:43Z</time>
      </trkpt>
      <trkpt lat="40.306" lon="-6.90019">
        <ele>1061.156</ele>
        <time>2021-07-09T08:41:54Z</time>
      </trkpt>
      <trkpt lat="40.30423" lon="-6.89896">
        <ele>1058.081</ele>
        <time>2021-07-09T08:42:05Z</time>
      </trkpt>
      <trkpt lat="40.30267" lon="-6.89723">
        <ele>1044.418</ele>
        <time>2021-07-09T08:42:16Z</time>
      </trkpt>
      <trkpt lat="40.30069" lon="-6.89779">
        <ele>1039.915</ele>
        <time>2021-07-09T08:42:27Z</time>
      </trkpt>
      <trkpt lat="40.2988" lon="-6.89789">
        <ele>1036.686</ele>
        <time>2021-07-09T08:42:38Z</time>
      </trkpt>
      <trkpt lat="40.29647" lon="-6.89738">
        <ele>1017.983</ele>
        <time>2021-07-09T08:42:49Z</time>
      </trkpt>
      <trkpt lat="40.29424" lon="-6.89689">
        <ele>1002.025</ele>
        <time>2021-07-09T08:43:00Z</time>
      </trkpt>
      <trkpt lat="40.29221" lon="-6.89647">
        <ele>997.6233</ele>
        <time>2021-07-09T08:43:11Z</time>
      </trkpt>
      <trkpt lat="40.29024" lon="-6.89615">
        <ele>986.9769</ele>
        <time>2021-07-09T08:43:22Z</time>
      </trkpt>
      <trkpt lat="40.28857" lon="-6.89543">
        <ele>969.2396</ele>
        <time>2021-07-09T08:43:33Z</time>
      </trkpt>
      <trkpt lat="40.28803" lon="-6.89456">
        <ele>968.9633</ele>
        <time>2021-07-09T08:43:44Z</time>
      </trkpt>
      <trkpt lat="40.28769" lon="-6.89384">
        <ele>965.4944</ele>
        <time>2021-07-09T08:43:55Z</time>
      </trkpt>
      <trkpt lat="40.28734" lon="-6.89342">
        <ele>951.7902</ele>
        <time>2021-07-09T08:44:06Z</time>
      </trkpt>
      <trkpt lat="40.28696" lon="-6.89297">
        <ele>944.592</ele>
        <time>2021-07-09T08:44:17Z</time>
      </trkpt>
      <trkpt lat="40.28661" lon="-6.89293">
        <ele>947.5293</ele>
        <time>2021-07-09T08:44:28Z</time>
      </trkpt>
      <trkpt lat="40.28616" lon="-6.89422">
        <ele>948.0777</ele>
        <time>2021-07-09T08:44:39Z</time>
      </trkpt>
      <trkpt lat="40.28565" lon="-6.8962">
        <ele>955.9348</ele>
        <time>2021-07-09T08:44:50Z</time>
      </trkpt>
      <trkpt lat="40.28506" lon="-6.89816">
        <ele>957.631</ele>
        <time>2021-07-09T08:45:01Z</time>
      </trkpt>
      <trkpt lat="40.28395" lon="-6.89968">
        <ele>950.2513</ele>
        <time>2021-07-09T08:45:12Z</time>
      </trkpt>
      <trkpt lat="40.28297" lon="-6.90027">
        <ele>952.6454</ele>
        <time>2021-07-09T08:45:23Z</time>
      </trkpt>
      <trkpt lat="40.28149" lon="-6.90063">
        <ele>947.2312</ele>
        <time>2021-07-09T08:45:34Z</time>
      </trkpt>
      <trkpt lat="40.28024" lon="-6.90079">
        <ele>938.7678</ele>
        <time>2021-07-09T08:45:45Z</time>
      </trkpt>
      <trkpt lat="40.27921" lon="-6.90086">
        <ele>932.3565</ele>
        <time>2021-07-09T08:45:56Z</time>
      </trkpt>
      <trkpt lat="40.27836" lon="-6.90094">
        <ele>930.1373</ele>
        <time>2021-07-09T08:46:07Z</time>
      </trkpt>
      <trkpt lat="40.27755" lon="-6.90161">
        <ele>925.2868</ele>
        <time>2021-07-09T08:46:18Z</time>
      </trkpt>
      <trkpt lat="40.27667" lon="-6.90246">
        <ele>921.7605</ele>
        <time>2021-07-09T08:46:29Z</time>
      </trkpt>
      <trkpt lat="40.27593" lon="-6.90275">
        <ele>913.1061</ele>
        <time>2021-07-09T08:46:40Z</time>
      </trkpt>
      <trkpt lat="40.27528" lon="-6.90295">
        <ele>916.0622</ele>
        <time>2021-07-09T08:46:51Z</time>
      </trkpt>
      <trkpt lat="40.27473" lon="-6.90386">
        <ele>920.5081</ele>
        <time>2021-07-09T08:47:02Z</time>
      </trkpt>
      <trkpt lat="40.27403" lon="-6.90425">
        <ele>920.8624</ele>
        <time>2021-07-09T08:47:13Z</time>
      </trkpt>
      <trkpt lat="40.27318" lon="-6.90528">
        <ele>909.6021</ele>
        <time>2021-07-09T08:47:24Z</time>
      </trkpt>
      <trkpt lat="40.27321" lon="-6.9064">
        <ele>914.387</ele>
        <time>2021-07-09T08:47:35Z</time>
      </trkpt>
      <trkpt lat="40.27283" lon="-6.90782">
        <ele>910.496</ele>
        <time>2021-07-09T08:47:46Z</time>
      </trkpt>
      <trkpt lat="40.27277" lon="-6.90909">
        <ele>904.8177</ele>
        <time>2021-07-09T08:47:57Z</time>
      </trkpt>
      <trkpt lat="40.27247" lon="-6.9101">
        <ele>900.9345</ele>
        <time>2021-07-09T08:48:08Z</time>
      </trkpt>
      <trkpt lat="40.27188" lon="-6.91043">
        <ele>906.781</ele>
        <time>2021-07-09T08:48:19Z</time>
      </trkpt>
      <trkpt lat="40.27121" lon="-6.91082">
        <ele>925.346</ele>
        <time>2021-07-09T08:48:30Z</time>
      </trkpt>
      <trkpt lat="40.27069" lon="-6.91114">
        <ele>932.2227</ele>
        <time>2021-07-09T08:48:41Z</time>
      </trkpt>
      <trkpt lat="40.27064" lon="-6.91114">
        <ele>939.7536</ele>
        <time>2021-07-09T08:48:52Z</time>
      </trkpt>
      <trkpt lat="40.2706" lon="-6.91115">
        <ele>945.0256</ele>
        <time>2021-07-09T08:49:07Z</time>
      </trkpt>
      <trkpt lat="40.27061" lon="-6.91117">
        <ele>949.1801</ele>
        <time>2021-07-09T08:50:07Z</time>
      </trkpt>
      <trkpt lat="40.27057" lon="-6.91115">
        <ele>952.7283</ele>
        <time>2021-07-09T08:50:40Z</time>
      </trkpt>
      <trkpt lat="40.27052" lon="-6.91113">
        <ele>955.0864</ele>
        <time>2021-07-09T08:51:11Z</time>
      </trkpt>
      <trkpt lat="40.26974" lon="-6.91125">
        <ele>951.5568</ele>
        <time>2021-07-09T08:51:22Z</time>
      </trkpt>
      <trkpt lat="40.26903" lon="-6.91081">
        <ele>949.5074</ele>
        <time>2021-07-09T08:51:33Z</time>
      </trkpt>
      <trkpt lat="40.26812" lon="-6.91091">
        <ele>957.0951</ele>
        <time>2021-07-09T08:51:44Z</time>
      </trkpt>
      <trkpt lat="40.26716" lon="-6.91079">
        <ele>971.4265</ele>
        <time>2021-07-09T08:51:55Z</time>
      </trkpt>
      <trkpt lat="40.26648" lon="-6.91094">
        <ele>975.7893</ele>
        <time>2021-07-09T08:52:06Z</time>
      </trkpt>
      <trkpt lat="40.26573" lon="-6.91102">
        <ele>968.3586</ele>
        <time>2021-07-09T08:52:17Z</time>
      </trkpt>
      <trkpt lat="40.26479" lon="-6.91136">
        <ele>965.2533</ele>
        <time>2021-07-09T08:52:28Z</time>
      </trkpt>
      <trkpt lat="40.26399" lon="-6.91185">
        <ele>959.9161</ele>
        <time>2021-07-09T08:52:39Z</time>
      </trkpt>
      <trkpt lat="40.26303" lon="-6.91246">
        <ele>956.9834</ele>
        <time>2021-07-09T08:52:50Z</time>
      </trkpt>
      <trkpt lat="40.2617" lon="-6.91356">
        <ele>946.7966</ele>
        <time>2021-07-09T08:53:01Z</time>
      </trkpt>
      <trkpt lat="40.26052" lon="-6.9141">
        <ele>940.2655</ele>
        <time>2021-07-09T08:53:12Z</time>
      </trkpt>
      <trkpt lat="40.25922" lon="-6.91468">
        <ele>948.8136</ele>
        <time>2021-07-09T08:53:23Z</time>
      </trkpt>
      <trkpt lat="40.25805" lon="-6.9147">
        <ele>959.3408</ele>
        <time>2021-07-09T08:53:34Z</time>
      </trkpt>
      <trkpt lat="40.25712" lon="-6.91528">
        <ele>961.0547</ele>
        <time>2021-07-09T08:53:45Z</time>
      </trkpt>
      <trkpt lat="40.25636" lon="-6.91669">
        <ele>975.3984</ele>
        <time>2021-07-09T08:53:56Z</time>
      </trkpt>
      <trkpt lat="40.25647" lon="-6.9181">
        <ele>982.616</ele>
        <time>2021-07-09T08:54:07Z</time>
      </trkpt>
      <trkpt lat="40.25715" lon="-6.92003">
        <ele>993.4532</ele>
        <time>2021-07-09T08:54:18Z</time>
      </trkpt>
      <trkpt lat="40.25762" lon="-6.92173">
        <ele>981.7109</ele>
        <time>2021-07-09T08:54:29Z</time>
      </trkpt>
      <trkpt lat="40.25758" lon="-6.92375">
        <ele>975.3046</ele>
        <time>2021-07-09T08:54:40Z</time>
      </trkpt>
      <trkpt lat="40.25773" lon="-6.92482">
        <ele>976.1528</ele>
        <time>2021-07-09T08:54:51Z</time>
      </trkpt>
      <trkpt lat="40.25812" lon="-6.92601">
        <ele>980.4983</ele>
        <time>2021-07-09T08:55:02Z</time>
      </trkpt>
      <trkpt lat="40.2579" lon="-6.92782">
        <ele>983.9082</ele>
        <time>2021-07-09T08:55:13Z</time>
      </trkpt>
      <trkpt lat="40.25739" lon="-6.92947">
        <ele>979.6596</ele>
        <time>2021-07-09T08:55:24Z</time>
      </trkpt>
      <trkpt lat="40.25751" lon="-6.9306">
        <ele>981.8771</ele>
        <time>2021-07-09T08:55:35Z</time>
      </trkpt>
      <trkpt lat="40.25781" lon="-6.93185">
        <ele>979.2345</ele>
        <time>2021-07-09T08:55:46Z</time>
      </trkpt>
      <trkpt lat="40.25777" lon="-6.93268">
        <ele>973.9137</ele>
        <time>2021-07-09T08:55:57Z</time>
      </trkpt>
      <trkpt lat="40.25778" lon="-6.93343">
        <ele>970.7424</ele>
        <time>2021-07-09T08:56:08Z</time>
      </trkpt>
      <trkpt lat="40.25784" lon="-6.93429">
        <ele>974.1024</ele>
        <time>2021-07-09T08:56:19Z</time>
      </trkpt>
      <trkpt lat="40.2581" lon="-6.93528">
        <ele>987.6515</ele>
        <time>2021-07-09T08:56:30Z</time>
      </trkpt>
      <trkpt lat="40.25852" lon="-6.93709">
        <ele>987.2751</ele>
        <time>2021-07-09T08:56:41Z</time>
      </trkpt>
      <trkpt lat="40.25822" lon="-6.9385">
        <ele>997.9421</ele>
        <time>2021-07-09T08:56:52Z</time>
      </trkpt>
      <trkpt lat="40.25747" lon="-6.94002">
        <ele>1009.059</ele>
        <time>2021-07-09T08:57:03Z</time>
      </trkpt>
      <trkpt lat="40.25707" lon="-6.94147">
        <ele>1000.568</ele>
        <time>2021-07-09T08:57:14Z</time>
      </trkpt>
      <trkpt lat="40.25666" lon="-6.94365">
        <ele>1005.226</ele>
        <time>2021-07-09T08:57:25Z</time>
      </trkpt>
      <trkpt lat="40.25661" lon="-6.9456">
        <ele>1008.714</ele>
        <time>2021-07-09T08:57:36Z</time>
      </trkpt>
      <trkpt lat="40.257" lon="-6.94781">
        <ele>1012.495</ele>
        <time>2021-07-09T08:57:47Z</time>
      </trkpt>
      <trkpt lat="40.25733" lon="-6.94974">
        <ele>1012.324</ele>
        <time>2021-07-09T08:57:58Z</time>
      </trkpt>
      <trkpt lat="40.25754" lon="-6.95108">
        <ele>1019.554</ele>
        <time>2021-07-09T08:58:09Z</time>
      </trkpt>
      <trkpt lat="40.25722" lon="-6.95157">
        <ele>1015.15</ele>
        <time>2021-07-09T08:58:20Z</time>
      </trkpt>
      <trkpt lat="40.25673" lon="-6.95199">
        <ele>1010.966</ele>
        <time>2021-07-09T08:58:31Z</time>
      </trkpt>
      <trkpt lat="40.25615" lon="-6.95248">
        <ele>1000.143</ele>
        <time>2021-07-09T08:58:42Z</time>
      </trkpt>
      <trkpt lat="40.25539" lon="-6.95285">
        <ele>991.3575</ele>
        <time>2021-07-09T08:58:53Z</time>
      </trkpt>
      <trkpt lat="40.25403" lon="-6.95349">
        <ele>994.6368</ele>
        <time>2021-07-09T08:59:04Z</time>
      </trkpt>
      <trkpt lat="40.25364" lon="-6.9537">
        <ele>996.1968</ele>
        <time>2021-07-09T08:59:15Z</time>
      </trkpt>
      <trkpt lat="40.25368" lon="-6.95367">
        <ele>995.4858</ele>
        <time>2021-07-09T08:59:29Z</time>
      </trkpt>
      <trkpt lat="40.25378" lon="-6.95361">
        <ele>993.8278</ele>
        <time>2021-07-09T08:59:40Z</time>
      </trkpt>
      <trkpt lat="40.25382" lon="-6.95362">
        <ele>992.3728</ele>
        <time>2021-07-09T08:59:52Z</time>
      </trkpt>
      <trkpt lat="40.25372" lon="-6.95367">
        <ele>993.497</ele>
        <time>2021-07-09T09:00:03Z</time>
      </trkpt>
      <trkpt lat="40.25367" lon="-6.9537">
        <ele>993.5304</ele>
        <time>2021-07-09T09:00:14Z</time>
      </trkpt>
      <trkpt lat="40.25359" lon="-6.95369">
        <ele>994.9888</ele>
        <time>2021-07-09T09:00:49Z</time>
      </trkpt>
      <trkpt lat="40.25331" lon="-6.95381">
        <ele>992.2551</ele>
        <time>2021-07-09T09:01:00Z</time>
      </trkpt>
      <trkpt lat="40.25328" lon="-6.9538">
        <ele>993.4163</ele>
        <time>2021-07-09T09:01:22Z</time>
      </trkpt>
      <trkpt lat="40.25323" lon="-6.95387">
        <ele>997.2186</ele>
        <time>2021-07-09T09:02:03Z</time>
      </trkpt>
      <trkpt lat="40.25258" lon="-6.95443">
        <ele>983.8224</ele>
        <time>2021-07-09T09:02:14Z</time>
      </trkpt>
      <trkpt lat="40.25191" lon="-6.95493">
        <ele>971.5095</ele>
        <time>2021-07-09T09:02:25Z</time>
      </trkpt>
      <trkpt lat="40.25099" lon="-6.95486">
        <ele>984.6881</ele>
        <time>2021-07-09T09:02:36Z</time>
      </trkpt>
      <trkpt lat="40.24996" lon="-6.95449">
        <ele>1003.811</ele>
        <time>2021-07-09T09:02:47Z</time>
      </trkpt>
      <trkpt lat="40.24908" lon="-6.95436">
        <ele>1014.127</ele>
        <time>2021-07-09T09:02:58Z</time>
      </trkpt>
      <trkpt lat="40.24896" lon="-6.95457">
        <ele>1011.017</ele>
        <time>2021-07-09T09:03:09Z</time>
      </trkpt>
      <trkpt lat="40.24896" lon="-6.95462">
        <ele>1014.834</ele>
        <time>2021-07-09T09:03:42Z</time>
      </trkpt>
      <trkpt lat="40.24895" lon="-6.95469">
        <ele>1016.419</ele>
        <time>2021-07-09T09:04:10Z</time>
      </trkpt>
      <trkpt lat="40.24859" lon="-6.95501">
        <ele>1004.943</ele>
        <time>2021-07-09T09:04:21Z</time>
      </trkpt>
      <trkpt lat="40.24829" lon="-6.95537">
        <ele>990.165</ele>
        <time>2021-07-09T09:04:32Z</time>
      </trkpt>
      <trkpt lat="40.24788" lon="-6.95563">
        <ele>985.0717</ele>
        <time>2021-07-09T09:04:43Z</time>
      </trkpt>
      <trkpt lat="40.24754" lon="-6.95592">
        <ele>976.9924</ele>
        <time>2021-07-09T09:04:54Z</time>
      </trkpt>
      <trkpt lat="40.24717" lon="-6.95626">
        <ele>968.5712</ele>
        <time>2021-07-09T09:05:05Z</time>
      </trkpt>
      <trkpt lat="40.24683" lon="-6.95653">
        <ele>958.9044</ele>
        <time>2021-07-09T09:05:16Z</time>
      </trkpt>
      <trkpt lat="40.24646" lon="-6.95712">
        <ele>950.5175</ele>
        <time>2021-07-09T09:05:27Z</time>
      </trkpt>
      <trkpt lat="40.24583" lon="-6.95832">
        <ele>946.7035</ele>
        <time>2021-07-09T09:05:38Z</time>
      </trkpt>
      <trkpt lat="40.24502" lon="-6.95948">
        <ele>932.2327</ele>
        <time>2021-07-09T09:05:49Z</time>
      </trkpt>
      <trkpt lat="40.24424" lon="-6.96046">
        <ele>928.0716</ele>
        <time>2021-07-09T09:06:00Z</time>
      </trkpt>
      <trkpt lat="40.24305" lon="-6.96154">
        <ele>925.3288</ele>
        <time>2021-07-09T09:06:11Z</time>
      </trkpt>
      <trkpt lat="40.24157" lon="-6.96231">
        <ele>920.2212</ele>
        <time>2021-07-09T09:06:22Z</time>
      </trkpt>
      <trkpt lat="40.24054" lon="-6.96265">
        <ele>909.949</ele>
        <time>2021-07-09T09:06:33Z</time>
      </trkpt>
      <trkpt lat="40.23981" lon="-6.96284">
        <ele>904.8271</ele>
        <time>2021-07-09T09:06:44Z</time>
      </trkpt>
      <trkpt lat="40.23939" lon="-6.96375">
        <ele>902.1111</ele>
        <time>2021-07-09T09:06:55Z</time>
      </trkpt>
      <trkpt lat="40.23922" lon="-6.96471">
        <ele>899.2772</ele>
        <time>2021-07-09T09:07:06Z</time>
      </trkpt>
      <trkpt lat="40.23875" lon="-6.96532">
        <ele>887.3749</ele>
        <time>2021-07-09T09:07:17Z</time>
      </trkpt>
      <trkpt lat="40.23823" lon="-6.96677">
        <ele>893.8043</ele>
        <time>2021-07-09T09:07:28Z</time>
      </trkpt>
      <trkpt lat="40.2385" lon="-6.96813">
        <ele>891.7861</ele>
        <time>2021-07-09T09:07:39Z</time>
      </trkpt>
      <trkpt lat="40.23866" lon="-6.96948">
        <ele>889.569</ele>
        <time>2021-07-09T09:07:50Z</time>
      </trkpt>
      <trkpt lat="40.23836" lon="-6.9709">
        <ele>892.6204</ele>
        <time>2021-07-09T09:08:01Z</time>
      </trkpt>
      <trkpt lat="40.23842" lon="-6.97157">
        <ele>892.3569</ele>
        <time>2021-07-09T09:08:12Z</time>
      </trkpt>
      <trkpt lat="40.23868" lon="-6.97294">
        <ele>893.8696</ele>
        <time>2021-07-09T09:08:23Z</time>
      </trkpt>
      <trkpt lat="40.23924" lon="-6.97358">
        <ele>888.7166</ele>
        <time>2021-07-09T09:08:34Z</time>
      </trkpt>
      <trkpt lat="40.23964" lon="-6.97476">
        <ele>884.9624</ele>
        <time>2021-07-09T09:08:45Z</time>
      </trkpt>
      <trkpt lat="40.23994" lon="-6.97573">
        <ele>876.206</ele>
        <time>2021-07-09T09:08:56Z</time>
      </trkpt>
      <trkpt lat="40.24062" lon="-6.97646">
        <ele>883.2306</ele>
        <time>2021-07-09T09:09:07Z</time>
      </trkpt>
      <trkpt lat="40.24072" lon="-6.9778">
        <ele>877.5757</ele>
        <time>2021-07-09T09:09:18Z</time>
      </trkpt>
      <trkpt lat="40.24063" lon="-6.97931">
        <ele>878.03</ele>
        <time>2021-07-09T09:09:29Z</time>
      </trkpt>
      <trkpt lat="40.2401" lon="-6.98062">
        <ele>873.9538</ele>
        <time>2021-07-09T09:09:40Z</time>
      </trkpt>
      <trkpt lat="40.23975" lon="-6.98148">
        <ele>863.6354</ele>
        <time>2021-07-09T09:09:51Z</time>
      </trkpt>
      <trkpt lat="40.23928" lon="-6.98232">
        <ele>828.247</ele>
        <time>2021-07-09T09:10:02Z</time>
      </trkpt>
      <trkpt lat="40.23863" lon="-6.98325">
        <ele>827.7389</ele>
        <time>2021-07-09T09:10:13Z</time>
      </trkpt>
      <trkpt lat="40.2381" lon="-6.98457">
        <ele>818.9561</ele>
        <time>2021-07-09T09:10:24Z</time>
      </trkpt>
      <trkpt lat="40.23759" lon="-6.98574">
        <ele>821.4938</ele>
        <time>2021-07-09T09:10:35Z</time>
      </trkpt>
      <trkpt lat="40.23687" lon="-6.98729">
        <ele>823.2333</ele>
        <time>2021-07-09T09:10:46Z</time>
      </trkpt>
      <trkpt lat="40.23641" lon="-6.98895">
        <ele>821.9404</ele>
        <time>2021-07-09T09:10:57Z</time>
      </trkpt>
      <trkpt lat="40.23597" lon="-6.99068">
        <ele>829.1925</ele>
        <time>2021-07-09T09:11:08Z</time>
      </trkpt>
      <trkpt lat="40.236" lon="-6.99153">
        <ele>824.772</ele>
        <time>2021-07-09T09:11:19Z</time>
      </trkpt>
      <trkpt lat="40.23596" lon="-6.99263">
        <ele>812.3528</ele>
        <time>2021-07-09T09:11:30Z</time>
      </trkpt>
      <trkpt lat="40.23557" lon="-6.99423">
        <ele>812.5101</ele>
        <time>2021-07-09T09:11:41Z</time>
      </trkpt>
      <trkpt lat="40.23555" lon="-6.99638">
        <ele>826.9871</ele>
        <time>2021-07-09T09:11:52Z</time>
      </trkpt>
      <trkpt lat="40.23534" lon="-6.99831">
        <ele>845.022</ele>
        <time>2021-07-09T09:12:03Z</time>
      </trkpt>
      <trkpt lat="40.23418" lon="-6.99975">
        <ele>845.211</ele>
        <time>2021-07-09T09:12:14Z</time>
      </trkpt>
      <trkpt lat="40.23284" lon="-7.00108">
        <ele>846.133</ele>
        <time>2021-07-09T09:12:25Z</time>
      </trkpt>
      <trkpt lat="40.23179" lon="-7.0028">
        <ele>848.2382</ele>
        <time>2021-07-09T09:12:36Z</time>
      </trkpt>
      <trkpt lat="40.23067" lon="-7.00408">
        <ele>833.0902</ele>
        <time>2021-07-09T09:12:47Z</time>
      </trkpt>
      <trkpt lat="40.22964" lon="-7.00541">
        <ele>832.8356</ele>
        <time>2021-07-09T09:12:58Z</time>
      </trkpt>
      <trkpt lat="40.22879" lon="-7.00682">
        <ele>837.9881</ele>
        <time>2021-07-09T09:13:09Z</time>
      </trkpt>
      <trkpt lat="40.22804" lon="-7.00778">
        <ele>828.9746</ele>
        <time>2021-07-09T09:13:20Z</time>
      </trkpt>
      <trkpt lat="40.22787" lon="-7.00801">
        <ele>829.7115</ele>
        <time>2021-07-09T09:13:31Z</time>
      </trkpt>
      <trkpt lat="40.22783" lon="-7.00808">
        <ele>829.5045</ele>
        <time>2021-07-09T09:13:49Z</time>
      </trkpt>
      <trkpt lat="40.22729" lon="-7.00916">
        <ele>831.0535</ele>
        <time>2021-07-09T09:14:00Z</time>
      </trkpt>
      <trkpt lat="40.22676" lon="-7.01086">
        <ele>850.079</ele>
        <time>2021-07-09T09:14:11Z</time>
      </trkpt>
      <trkpt lat="40.22619" lon="-7.01225">
        <ele>859.7041</ele>
        <time>2021-07-09T09:14:22Z</time>
      </trkpt>
      <trkpt lat="40.22611" lon="-7.01234">
        <ele>859.0169</ele>
        <time>2021-07-09T09:14:33Z</time>
      </trkpt>
      <trkpt lat="40.22611" lon="-7.01234">
        <ele>854.67</ele>
        <time>2021-07-09T09:15:33Z</time>
      </trkpt>
      <trkpt lat="40.22611" lon="-7.01235">
        <ele>854.8242</ele>
        <time>2021-07-09T09:16:33Z</time>
      </trkpt>
      <trkpt lat="40.22611" lon="-7.01237">
        <ele>854.1771</ele>
        <time>2021-07-09T09:17:33Z</time>
      </trkpt>
      <trkpt lat="40.22614" lon="-7.01233">
        <ele>855.5767</ele>
        <time>2021-07-09T09:17:44Z</time>
      </trkpt>
      <trkpt lat="40.22611" lon="-7.01235">
        <ele>855.0121</ele>
        <time>2021-07-09T09:18:01Z</time>
      </trkpt>
      <trkpt lat="40.22613" lon="-7.01232">
        <ele>853.6578</ele>
        <time>2021-07-09T09:19:01Z</time>
      </trkpt>
      <trkpt lat="40.22609" lon="-7.01237">
        <ele>855.317</ele>
        <time>2021-07-09T09:19:35Z</time>
      </trkpt>
      <trkpt lat="40.22565" lon="-7.0129">
        <ele>851.3353</ele>
        <time>2021-07-09T09:19:46Z</time>
      </trkpt>
      <trkpt lat="40.22552" lon="-7.01314">
        <ele>850.2466</ele>
        <time>2021-07-09T09:19:57Z</time>
      </trkpt>
      <trkpt lat="40.22548" lon="-7.01328">
        <ele>849.2452</ele>
        <time>2021-07-09T09:20:08Z</time>
      </trkpt>
      <trkpt lat="40.22549" lon="-7.01323">
        <ele>851.7623</ele>
        <time>2021-07-09T09:20:39Z</time>
      </trkpt>
      <trkpt lat="40.22584" lon="-7.01254">
        <ele>854.9812</ele>
        <time>2021-07-09T09:20:50Z</time>
      </trkpt>
      <trkpt lat="40.22586" lon="-7.01239">
        <ele>853.884</ele>
        <time>2021-07-09T09:21:01Z</time>
      </trkpt>
      <trkpt lat="40.22587" lon="-7.01238">
        <ele>853.7986</ele>
        <time>2021-07-09T09:22:01Z</time>
      </trkpt>
      <trkpt lat="40.22586" lon="-7.01237">
        <ele>854.9239</ele>
        <time>2021-07-09T09:23:01Z</time>
      </trkpt>
      <trkpt lat="40.22583" lon="-7.01241">
        <ele>854.1761</ele>
        <time>2021-07-09T09:23:22Z</time>
      </trkpt>
      <trkpt lat="40.22552" lon="-7.01257">
        <ele>849.9669</ele>
        <time>2021-07-09T09:23:33Z</time>
      </trkpt>
      <trkpt lat="40.22544" lon="-7.01257">
        <ele>847.7461</ele>
        <time>2021-07-09T09:23:44Z</time>
      </trkpt>
      <trkpt lat="40.22525" lon="-7.01254">
        <ele>842.5276</ele>
        <time>2021-07-09T09:23:55Z</time>
      </trkpt>
      <trkpt lat="40.22509" lon="-7.01244">
        <ele>837.6472</ele>
        <time>2021-07-09T09:24:06Z</time>
      </trkpt>
      <trkpt lat="40.22498" lon="-7.01238">
        <ele>831.1919</ele>
        <time>2021-07-09T09:24:17Z</time>
      </trkpt>
      <trkpt lat="40.22494" lon="-7.01235">
        <ele>829.6544</ele>
        <time>2021-07-09T09:24:28Z</time>
      </trkpt>
      <trkpt lat="40.22481" lon="-7.01226">
        <ele>825.0942</ele>
        <time>2021-07-09T09:24:39Z</time>
      </trkpt>
      <trkpt lat="40.22478" lon="-7.01224">
        <ele>824.231</ele>
        <time>2021-07-09T09:24:51Z</time>
      </trkpt>
      <trkpt lat="40.22468" lon="-7.01219">
        <ele>818.0315</ele>
        <time>2021-07-09T09:25:02Z</time>
      </trkpt>
      <trkpt lat="40.22452" lon="-7.01208">
        <ele>811.2079</ele>
        <time>2021-07-09T09:25:13Z</time>
      </trkpt>
      <trkpt lat="40.22427" lon="-7.01195">
        <ele>805.1209</ele>
        <time>2021-07-09T09:25:24Z</time>
      </trkpt>
      <trkpt lat="40.22397" lon="-7.01186">
        <ele>801.7085</ele>
        <time>2021-07-09T09:25:35Z</time>
      </trkpt>
      <trkpt lat="40.22389" lon="-7.01181">
        <ele>799.8005</ele>
        <time>2021-07-09T09:25:57Z</time>
      </trkpt>
      <trkpt lat="40.223" lon="-7.01102">
        <ele>809.9452</ele>
        <time>2021-07-09T09:26:08Z</time>
      </trkpt>
      <trkpt lat="40.22177" lon="-7.01155">
        <ele>826.4804</ele>
        <time>2021-07-09T09:26:19Z</time>
      </trkpt>
      <trkpt lat="40.22093" lon="-7.01215">
        <ele>829.3873</ele>
        <time>2021-07-09T09:26:30Z</time>
      </trkpt>
      <trkpt lat="40.22023" lon="-7.01273">
        <ele>821.1674</ele>
        <time>2021-07-09T09:26:41Z</time>
      </trkpt>
      <trkpt lat="40.21973" lon="-7.01288">
        <ele>813.9337</ele>
        <time>2021-07-09T09:26:52Z</time>
      </trkpt>
      <trkpt lat="40.21921" lon="-7.01287">
        <ele>801.0515</ele>
        <time>2021-07-09T09:27:03Z</time>
      </trkpt>
      <trkpt lat="40.21855" lon="-7.01286">
        <ele>785.2891</ele>
        <time>2021-07-09T09:27:14Z</time>
      </trkpt>
      <trkpt lat="40.21734" lon="-7.01328">
        <ele>772.5744</ele>
        <time>2021-07-09T09:27:25Z</time>
      </trkpt>
      <trkpt lat="40.21619" lon="-7.01401">
        <ele>776.2905</ele>
        <time>2021-07-09T09:27:36Z</time>
      </trkpt>
      <trkpt lat="40.21556" lon="-7.01512">
        <ele>769.8094</ele>
        <time>2021-07-09T09:27:47Z</time>
      </trkpt>
      <trkpt lat="40.21522" lon="-7.01525">
        <ele>766.1135</ele>
        <time>2021-07-09T09:27:58Z</time>
      </trkpt>
      <trkpt lat="40.21489" lon="-7.01525">
        <ele>759.0364</ele>
        <time>2021-07-09T09:28:09Z</time>
      </trkpt>
      <trkpt lat="40.21443" lon="-7.01531">
        <ele>744.5657</ele>
        <time>2021-07-09T09:28:20Z</time>
      </trkpt>
      <trkpt lat="40.2136" lon="-7.01531">
        <ele>729.3949</ele>
        <time>2021-07-09T09:28:31Z</time>
      </trkpt>
      <trkpt lat="40.21203" lon="-7.01562">
        <ele>721.5738</ele>
        <time>2021-07-09T09:28:42Z</time>
      </trkpt>
      <trkpt lat="40.2104" lon="-7.01628">
        <ele>750.8482</ele>
        <time>2021-07-09T09:28:53Z</time>
      </trkpt>
      <trkpt lat="40.20906" lon="-7.01691">
        <ele>774.3863</ele>
        <time>2021-07-09T09:29:04Z</time>
      </trkpt>
      <trkpt lat="40.20768" lon="-7.018">
        <ele>797.3136</ele>
        <time>2021-07-09T09:29:15Z</time>
      </trkpt>
      <trkpt lat="40.20667" lon="-7.01856">
        <ele>811.139</ele>
        <time>2021-07-09T09:29:26Z</time>
      </trkpt>
      <trkpt lat="40.20647" lon="-7.01863">
        <ele>814.29</ele>
        <time>2021-07-09T09:29:37Z</time>
      </trkpt>
      <trkpt lat="40.2064" lon="-7.01881">
        <ele>816.4416</ele>
        <time>2021-07-09T09:29:48Z</time>
      </trkpt>
      <trkpt lat="40.20614" lon="-7.01922">
        <ele>816.5935</ele>
        <time>2021-07-09T09:29:59Z</time>
      </trkpt>
      <trkpt lat="40.20612" lon="-7.01922">
        <ele>817.0817</ele>
        <time>2021-07-09T09:30:59Z</time>
      </trkpt>
      <trkpt lat="40.2056" lon="-7.02017">
        <ele>815.1852</ele>
        <time>2021-07-09T09:31:11Z</time>
      </trkpt>
      <trkpt lat="40.20446" lon="-7.02121">
        <ele>811.5294</ele>
        <time>2021-07-09T09:31:22Z</time>
      </trkpt>
      <trkpt lat="40.20324" lon="-7.02133">
        <ele>811.2646</ele>
        <time>2021-07-09T09:31:33Z</time>
      </trkpt>
      <trkpt lat="40.20215" lon="-7.02146">
        <ele>808.8243</ele>
        <time>2021-07-09T09:31:44Z</time>
      </trkpt>
      <trkpt lat="40.20168" lon="-7.02187">
        <ele>809.5643</ele>
        <time>2021-07-09T09:31:55Z</time>
      </trkpt>
      <trkpt lat="40.20193" lon="-7.02321">
        <ele>802.8843</ele>
        <time>2021-07-09T09:32:06Z</time>
      </trkpt>
      <trkpt lat="40.20154" lon="-7.02407">
        <ele>790.1352</ele>
        <time>2021-07-09T09:32:17Z</time>
      </trkpt>
      <trkpt lat="40.2016" lon="-7.02477">
        <ele>777.4798</ele>
        <time>2021-07-09T09:32:28Z</time>
      </trkpt>
      <trkpt lat="40.20197" lon="-7.02562">
        <ele>752.6223</ele>
        <time>2021-07-09T09:32:39Z</time>
      </trkpt>
      <trkpt lat="40.20195" lon="-7.02674">
        <ele>752.6862</ele>
        <time>2021-07-09T09:32:50Z</time>
      </trkpt>
      <trkpt lat="40.20212" lon="-7.02802">
        <ele>757.0343</ele>
        <time>2021-07-09T09:33:01Z</time>
      </trkpt>
      <trkpt lat="40.20223" lon="-7.02983">
        <ele>761.6379</ele>
        <time>2021-07-09T09:33:12Z</time>
      </trkpt>
      <trkpt lat="40.20155" lon="-7.03151">
        <ele>745.4418</ele>
        <time>2021-07-09T09:33:23Z</time>
      </trkpt>
      <trkpt lat="40.2007" lon="-7.03348">
        <ele>740.4841</ele>
        <time>2021-07-09T09:33:34Z</time>
      </trkpt>
      <trkpt lat="40.1996" lon="-7.03479">
        <ele>744.0066</ele>
        <time>2021-07-09T09:33:45Z</time>
      </trkpt>
      <trkpt lat="40.19871" lon="-7.03523">
        <ele>734.0663</ele>
        <time>2021-07-09T09:33:56Z</time>
      </trkpt>
      <trkpt lat="40.19788" lon="-7.03576">
        <ele>716.6625</ele>
        <time>2021-07-09T09:34:07Z</time>
      </trkpt>
      <trkpt lat="40.19716" lon="-7.03641">
        <ele>706.4132</ele>
        <time>2021-07-09T09:34:18Z</time>
      </trkpt>
      <trkpt lat="40.19694" lon="-7.03759">
        <ele>692.7523</ele>
        <time>2021-07-09T09:34:29Z</time>
      </trkpt>
      <trkpt lat="40.19674" lon="-7.03875">
        <ele>688.7838</ele>
        <time>2021-07-09T09:34:40Z</time>
      </trkpt>
      <trkpt lat="40.19643" lon="-7.03901">
        <ele>687.3193</ele>
        <time>2021-07-09T09:34:51Z</time>
      </trkpt>
      <trkpt lat="40.1965" lon="-7.03823">
        <ele>676.7054</ele>
        <time>2021-07-09T09:35:02Z</time>
      </trkpt>
      <trkpt lat="40.19611" lon="-7.03732">
        <ele>660.5751</ele>
        <time>2021-07-09T09:35:13Z</time>
      </trkpt>
      <trkpt lat="40.19569" lon="-7.03676">
        <ele>650.6266</ele>
        <time>2021-07-09T09:35:24Z</time>
      </trkpt>
      <trkpt lat="40.19552" lon="-7.03623">
        <ele>642.9673</ele>
        <time>2021-07-09T09:35:35Z</time>
      </trkpt>
      <trkpt lat="40.19502" lon="-7.03561">
        <ele>636.7974</ele>
        <time>2021-07-09T09:35:46Z</time>
      </trkpt>
      <trkpt lat="40.1944" lon="-7.03552">
        <ele>619.1422</ele>
        <time>2021-07-09T09:35:57Z</time>
      </trkpt>
      <trkpt lat="40.19436" lon="-7.03615">
        <ele>610.1119</ele>
        <time>2021-07-09T09:36:08Z</time>
      </trkpt>
      <trkpt lat="40.19419" lon="-7.03681">
        <ele>616.2552</ele>
        <time>2021-07-09T09:36:20Z</time>
      </trkpt>
      <trkpt lat="40.19344" lon="-7.03684">
        <ele>604.3956</ele>
        <time>2021-07-09T09:36:31Z</time>
      </trkpt>
      <trkpt lat="40.19288" lon="-7.03635">
        <ele>594.0128</ele>
        <time>2021-07-09T09:36:42Z</time>
      </trkpt>
      <trkpt lat="40.19234" lon="-7.03587">
        <ele>574.6597</ele>
        <time>2021-07-09T09:36:53Z</time>
      </trkpt>
      <trkpt lat="40.19168" lon="-7.03604">
        <ele>548.7415</ele>
        <time>2021-07-09T09:37:04Z</time>
      </trkpt>
      <trkpt lat="40.19083" lon="-7.0365">
        <ele>531.2428</ele>
        <time>2021-07-09T09:37:15Z</time>
      </trkpt>
      <trkpt lat="40.18982" lon="-7.0369">
        <ele>520.293</ele>
        <time>2021-07-09T09:37:26Z</time>
      </trkpt>
      <trkpt lat="40.18905" lon="-7.03734">
        <ele>531.2603</ele>
        <time>2021-07-09T09:37:37Z</time>
      </trkpt>
      <trkpt lat="40.18882" lon="-7.03697">
        <ele>546.7845</ele>
        <time>2021-07-09T09:37:48Z</time>
      </trkpt>
      <trkpt lat="40.18852" lon="-7.03674">
        <ele>563.1096</ele>
        <time>2021-07-09T09:37:59Z</time>
      </trkpt>
      <trkpt lat="40.1884" lon="-7.03664">
        <ele>574.0559</ele>
        <time>2021-07-09T09:38:10Z</time>
      </trkpt>
      <trkpt lat="40.18841" lon="-7.0367">
        <ele>563.6893</ele>
        <time>2021-07-09T09:38:21Z</time>
      </trkpt>
      <trkpt lat="40.18843" lon="-7.03671">
        <ele>530.0639</ele>
        <time>2021-07-09T09:39:21Z</time>
      </trkpt>
      <trkpt lat="40.18845" lon="-7.0367">
        <ele>530.2736</ele>
        <time>2021-07-09T09:40:21Z</time>
      </trkpt>
      <trkpt lat="40.18844" lon="-7.03668">
        <ele>528.0607</ele>
        <time>2021-07-09T09:41:21Z</time>
      </trkpt>
      <trkpt lat="40.18835" lon="-7.03665">
        <ele>531.3405</ele>
        <time>2021-07-09T09:41:40Z</time>
      </trkpt>
      <trkpt lat="40.18753" lon="-7.03623">
        <ele>523.2134</ele>
        <time>2021-07-09T09:41:51Z</time>
      </trkpt>
      <trkpt lat="40.18683" lon="-7.03523">
        <ele>515.5672</ele>
        <time>2021-07-09T09:42:02Z</time>
      </trkpt>
      <trkpt lat="40.18639" lon="-7.03406">
        <ele>509.7426</ele>
        <time>2021-07-09T09:42:13Z</time>
      </trkpt>
      <trkpt lat="40.18609" lon="-7.03265">
        <ele>506.7734</ele>
        <time>2021-07-09T09:42:24Z</time>
      </trkpt>
      <trkpt lat="40.18567" lon="-7.03149">
        <ele>504.4776</ele>
        <time>2021-07-09T09:42:35Z</time>
      </trkpt>
      <trkpt lat="40.18511" lon="-7.03061">
        <ele>507.1026</ele>
        <time>2021-07-09T09:42:46Z</time>
      </trkpt>
      <trkpt lat="40.18448" lon="-7.02991">
        <ele>510.7219</ele>
        <time>2021-07-09T09:42:57Z</time>
      </trkpt>
      <trkpt lat="40.18391" lon="-7.02963">
        <ele>510.7876</ele>
        <time>2021-07-09T09:43:08Z</time>
      </trkpt>
      <trkpt lat="40.18311" lon="-7.02947">
        <ele>515.8148</ele>
        <time>2021-07-09T09:43:19Z</time>
      </trkpt>
      <trkpt lat="40.1828" lon="-7.029">
        <ele>518.8939</ele>
        <time>2021-07-09T09:43:30Z</time>
      </trkpt>
      <trkpt lat="40.18247" lon="-7.02886">
        <ele>518.4563</ele>
        <time>2021-07-09T09:43:41Z</time>
      </trkpt>
      <trkpt lat="40.18239" lon="-7.02884">
        <ele>519.2184</ele>
        <time>2021-07-09T09:44:13Z</time>
      </trkpt>
      <trkpt lat="40.18197" lon="-7.02865">
        <ele>519.621</ele>
        <time>2021-07-09T09:44:24Z</time>
      </trkpt>
      <trkpt lat="40.18193" lon="-7.02738">
        <ele>522.1411</ele>
        <time>2021-07-09T09:44:35Z</time>
      </trkpt>
      <trkpt lat="40.18136" lon="-7.02781">
        <ele>523.3299</ele>
        <time>2021-07-09T09:44:46Z</time>
      </trkpt>
      <trkpt lat="40.18076" lon="-7.02729">
        <ele>520.3418</ele>
        <time>2021-07-09T09:44:57Z</time>
      </trkpt>
      <trkpt lat="40.18011" lon="-7.02647">
        <ele>524.0268</ele>
        <time>2021-07-09T09:45:08Z</time>
      </trkpt>
      <trkpt lat="40.17989" lon="-7.02759">
        <ele>532.999</ele>
        <time>2021-07-09T09:45:19Z</time>
      </trkpt>
      <trkpt lat="40.1795" lon="-7.02815">
        <ele>534.783</ele>
        <time>2021-07-09T09:45:30Z</time>
      </trkpt>
      <trkpt lat="40.17867" lon="-7.02778">
        <ele>542.6142</ele>
        <time>2021-07-09T09:45:41Z</time>
      </trkpt>
      <trkpt lat="40.17788" lon="-7.02736">
        <ele>548.0605</ele>
        <time>2021-07-09T09:45:52Z</time>
      </trkpt>
      <trkpt lat="40.17763" lon="-7.02633">
        <ele>537.5812</ele>
        <time>2021-07-09T09:46:03Z</time>
      </trkpt>
      <trkpt lat="40.17703" lon="-7.02545">
        <ele>527.3268</ele>
        <time>2021-07-09T09:46:14Z</time>
      </trkpt>
      <trkpt lat="40.17639" lon="-7.02449">
        <ele>516.2402</ele>
        <time>2021-07-09T09:46:25Z</time>
      </trkpt>
      <trkpt lat="40.17573" lon="-7.02358">
        <ele>511.1931</ele>
        <time>2021-07-09T09:46:36Z</time>
      </trkpt>
      <trkpt lat="40.17519" lon="-7.02407">
        <ele>501.1497</ele>
        <time>2021-07-09T09:46:47Z</time>
      </trkpt>
      <trkpt lat="40.17516" lon="-7.02486">
        <ele>492.9816</ele>
        <time>2021-07-09T09:46:59Z</time>
      </trkpt>
      <trkpt lat="40.17495" lon="-7.02597">
        <ele>489.2326</ele>
        <time>2021-07-09T09:47:10Z</time>
      </trkpt>
      <trkpt lat="40.17406" lon="-7.02644">
        <ele>486.1658</ele>
        <time>2021-07-09T09:47:21Z</time>
      </trkpt>
      <trkpt lat="40.17313" lon="-7.02681">
        <ele>487.0897</ele>
        <time>2021-07-09T09:47:32Z</time>
      </trkpt>
      <trkpt lat="40.17243" lon="-7.02758">
        <ele>489.603</ele>
        <time>2021-07-09T09:47:43Z</time>
      </trkpt>
      <trkpt lat="40.172" lon="-7.02884">
        <ele>478.8947</ele>
        <time>2021-07-09T09:47:54Z</time>
      </trkpt>
      <trkpt lat="40.17182" lon="-7.02955">
        <ele>475.0899</ele>
        <time>2021-07-09T09:48:05Z</time>
      </trkpt>
      <trkpt lat="40.17095" lon="-7.02955">
        <ele>481.1943</ele>
        <time>2021-07-09T09:48:16Z</time>
      </trkpt>
      <trkpt lat="40.17033" lon="-7.03085">
        <ele>488.2407</ele>
        <time>2021-07-09T09:48:27Z</time>
      </trkpt>
      <trkpt lat="40.16973" lon="-7.03129">
        <ele>502.0488</ele>
        <time>2021-07-09T09:48:38Z</time>
      </trkpt>
      <trkpt lat="40.16901" lon="-7.03234">
        <ele>509.9965</ele>
        <time>2021-07-09T09:48:49Z</time>
      </trkpt>
      <trkpt lat="40.16788" lon="-7.03307">
        <ele>505.4258</ele>
        <time>2021-07-09T09:49:00Z</time>
      </trkpt>
      <trkpt lat="40.16665" lon="-7.03346">
        <ele>484.496</ele>
        <time>2021-07-09T09:49:11Z</time>
      </trkpt>
      <trkpt lat="40.16547" lon="-7.03371">
        <ele>478.512</ele>
        <time>2021-07-09T09:49:22Z</time>
      </trkpt>
      <trkpt lat="40.16441" lon="-7.03473">
        <ele>466.3965</ele>
        <time>2021-07-09T09:49:33Z</time>
      </trkpt>
      <trkpt lat="40.16328" lon="-7.0357">
        <ele>457.4899</ele>
        <time>2021-07-09T09:49:44Z</time>
      </trkpt>
      <trkpt lat="40.16223" lon="-7.03557">
        <ele>445.0934</ele>
        <time>2021-07-09T09:49:55Z</time>
      </trkpt>
      <trkpt lat="40.16102" lon="-7.03544">
        <ele>435.1992</ele>
        <time>2021-07-09T09:50:06Z</time>
      </trkpt>
      <trkpt lat="40.15978" lon="-7.03538">
        <ele>422.4442</ele>
        <time>2021-07-09T09:50:17Z</time>
      </trkpt>
      <trkpt lat="40.15917" lon="-7.03504">
        <ele>419.654</ele>
        <time>2021-07-09T09:50:28Z</time>
      </trkpt>
      <trkpt lat="40.15827" lon="-7.03436">
        <ele>424.0264</ele>
        <time>2021-07-09T09:50:39Z</time>
      </trkpt>
      <trkpt lat="40.15753" lon="-7.03494">
        <ele>430.4765</ele>
        <time>2021-07-09T09:50:50Z</time>
      </trkpt>
      <trkpt lat="40.15683" lon="-7.03577">
        <ele>443.4729</ele>
        <time>2021-07-09T09:51:01Z</time>
      </trkpt>
      <trkpt lat="40.15587" lon="-7.03661">
        <ele>453.7816</ele>
        <time>2021-07-09T09:51:12Z</time>
      </trkpt>
      <trkpt lat="40.15498" lon="-7.03761">
        <ele>457.197</ele>
        <time>2021-07-09T09:51:23Z</time>
      </trkpt>
      <trkpt lat="40.15404" lon="-7.03867">
        <ele>458.4233</ele>
        <time>2021-07-09T09:51:34Z</time>
      </trkpt>
      <trkpt lat="40.1528" lon="-7.03943">
        <ele>463.528</ele>
        <time>2021-07-09T09:51:45Z</time>
      </trkpt>
      <trkpt lat="40.15162" lon="-7.04023">
        <ele>475.0534</ele>
        <time>2021-07-09T09:51:56Z</time>
      </trkpt>
      <trkpt lat="40.15011" lon="-7.04045">
        <ele>469.6438</ele>
        <time>2021-07-09T09:52:07Z</time>
      </trkpt>
      <trkpt lat="40.14888" lon="-7.04041">
        <ele>455.7059</ele>
        <time>2021-07-09T09:52:18Z</time>
      </trkpt>
      <trkpt lat="40.14771" lon="-7.04108">
        <ele>447.3221</ele>
        <time>2021-07-09T09:52:29Z</time>
      </trkpt>
      <trkpt lat="40.14684" lon="-7.04209">
        <ele>428.6401</ele>
        <time>2021-07-09T09:52:40Z</time>
      </trkpt>
      <trkpt lat="40.14655" lon="-7.04239">
        <ele>433.1129</ele>
        <time>2021-07-09T09:52:51Z</time>
      </trkpt>
      <trkpt lat="40.14651" lon="-7.04242">
        <ele>447.6969</ele>
        <time>2021-07-09T09:53:04Z</time>
      </trkpt>
      <trkpt lat="40.14641" lon="-7.04137">
        <ele>460.9163</ele>
        <time>2021-07-09T09:53:15Z</time>
      </trkpt>
      <trkpt lat="40.14687" lon="-7.0386">
        <ele>470.6805</ele>
        <time>2021-07-09T09:53:26Z</time>
      </trkpt>
      <trkpt lat="40.14694" lon="-7.03572">
        <ele>463.2317</ele>
        <time>2021-07-09T09:53:37Z</time>
      </trkpt>
      <trkpt lat="40.14582" lon="-7.03359">
        <ele>443.0384</ele>
        <time>2021-07-09T09:53:48Z</time>
      </trkpt>
      <trkpt lat="40.14485" lon="-7.0317">
        <ele>441.2304</ele>
        <time>2021-07-09T09:53:59Z</time>
      </trkpt>
      <trkpt lat="40.14418" lon="-7.03113">
        <ele>433.7015</ele>
        <time>2021-07-09T09:54:10Z</time>
      </trkpt>
      <trkpt lat="40.14357" lon="-7.03135">
        <ele>420.9891</ele>
        <time>2021-07-09T09:54:21Z</time>
      </trkpt>
      <trkpt lat="40.14298" lon="-7.03151">
        <ele>393.1671</ele>
        <time>2021-07-09T09:54:32Z</time>
      </trkpt>
      <trkpt lat="40.14248" lon="-7.03002">
        <ele>350.6316</ele>
        <time>2021-07-09T09:54:43Z</time>
      </trkpt>
      <trkpt lat="40.14217" lon="-7.02959">
        <ele>420.6289</ele>
        <time>2021-07-09T09:54:54Z</time>
      </trkpt>
      <trkpt lat="40.14153" lon="-7.02878">
        <ele>423.4743</ele>
        <time>2021-07-09T09:55:05Z</time>
      </trkpt>
      <trkpt lat="40.14093" lon="-7.02794">
        <ele>422.9727</ele>
        <time>2021-07-09T09:55:16Z</time>
      </trkpt>
      <trkpt lat="40.14035" lon="-7.02689">
        <ele>420.8064</ele>
        <time>2021-07-09T09:55:27Z</time>
      </trkpt>
      <trkpt lat="40.13984" lon="-7.0262">
        <ele>428.2625</ele>
        <time>2021-07-09T09:55:38Z</time>
      </trkpt>
      <trkpt lat="40.13978" lon="-7.02623">
        <ele>428.5094</ele>
        <time>2021-07-09T09:56:19Z</time>
      </trkpt>
      <trkpt lat="40.13919" lon="-7.0264">
        <ele>427.2109</ele>
        <time>2021-07-09T09:56:30Z</time>
      </trkpt>
      <trkpt lat="40.13914" lon="-7.02638">
        <ele>428.4718</ele>
        <time>2021-07-09T09:56:53Z</time>
      </trkpt>
      <trkpt lat="40.1383" lon="-7.02591">
        <ele>425.5524</ele>
        <time>2021-07-09T09:57:04Z</time>
      </trkpt>
      <trkpt lat="40.13757" lon="-7.025">
        <ele>430.6288</ele>
        <time>2021-07-09T09:57:15Z</time>
      </trkpt>
      <trkpt lat="40.13658" lon="-7.02448">
        <ele>428.271</ele>
        <time>2021-07-09T09:57:26Z</time>
      </trkpt>
      <trkpt lat="40.13567" lon="-7.02412">
        <ele>430.5443</ele>
        <time>2021-07-09T09:57:37Z</time>
      </trkpt>
      <trkpt lat="40.13548" lon="-7.02291">
        <ele>427.8598</ele>
        <time>2021-07-09T09:57:48Z</time>
      </trkpt>
      <trkpt lat="40.13507" lon="-7.02234">
        <ele>424.7536</ele>
        <time>2021-07-09T09:57:59Z</time>
      </trkpt>
      <trkpt lat="40.13432" lon="-7.02222">
        <ele>417.5247</ele>
        <time>2021-07-09T09:58:10Z</time>
      </trkpt>
      <trkpt lat="40.13362" lon="-7.02197">
        <ele>408.1868</ele>
        <time>2021-07-09T09:58:21Z</time>
      </trkpt>
      <trkpt lat="40.13327" lon="-7.02093">
        <ele>406.9376</ele>
        <time>2021-07-09T09:58:32Z</time>
      </trkpt>
      <trkpt lat="40.13333" lon="-7.01992">
        <ele>404.0936</ele>
        <time>2021-07-09T09:58:43Z</time>
      </trkpt>
      <trkpt lat="40.13291" lon="-7.0193">
        <ele>401.2843</ele>
        <time>2021-07-09T09:58:54Z</time>
      </trkpt>
      <trkpt lat="40.13207" lon="-7.01893">
        <ele>402.0088</ele>
        <time>2021-07-09T09:59:05Z</time>
      </trkpt>
      <trkpt lat="40.13127" lon="-7.01829">
        <ele>402.0083</ele>
        <time>2021-07-09T09:59:16Z</time>
      </trkpt>
      <trkpt lat="40.13073" lon="-7.01759">
        <ele>399.2335</ele>
        <time>2021-07-09T09:59:27Z</time>
      </trkpt>
      <trkpt lat="40.13002" lon="-7.01702">
        <ele>393.5985</ele>
        <time>2021-07-09T09:59:38Z</time>
      </trkpt>
      <trkpt lat="40.12897" lon="-7.01715">
        <ele>388.657</ele>
        <time>2021-07-09T09:59:49Z</time>
      </trkpt>
      <trkpt lat="40.12806" lon="-7.01747">
        <ele>385.5833</ele>
        <time>2021-07-09T10:00:00Z</time>
      </trkpt>
      <trkpt lat="40.12722" lon="-7.01707">
        <ele>380.4197</ele>
        <time>2021-07-09T10:00:11Z</time>
      </trkpt>
      <trkpt lat="40.12636" lon="-7.01689">
        <ele>371.5841</ele>
        <time>2021-07-09T10:00:22Z</time>
      </trkpt>
      <trkpt lat="40.12565" lon="-7.01587">
        <ele>373.2636</ele>
        <time>2021-07-09T10:00:33Z</time>
      </trkpt>
      <trkpt lat="40.12552" lon="-7.01429">
        <ele>377.6386</ele>
        <time>2021-07-09T10:00:44Z</time>
      </trkpt>
      <trkpt lat="40.12501" lon="-7.01325">
        <ele>370.1076</ele>
        <time>2021-07-09T10:00:55Z</time>
      </trkpt>
      <trkpt lat="40.12434" lon="-7.01279">
        <ele>370.7017</ele>
        <time>2021-07-09T10:01:06Z</time>
      </trkpt>
      <trkpt lat="40.12369" lon="-7.01162">
        <ele>375.7804</ele>
        <time>2021-07-09T10:01:17Z</time>
      </trkpt>
      <trkpt lat="40.12354" lon="-7.01094">
        <ele>373.2453</ele>
        <time>2021-07-09T10:01:28Z</time>
      </trkpt>
      <trkpt lat="40.12355" lon="-7.01096">
        <ele>376.4235</ele>
        <time>2021-07-09T10:02:28Z</time>
      </trkpt>
      <trkpt lat="40.12361" lon="-7.01073">
        <ele>375.2152</ele>
        <time>2021-07-09T10:02:39Z</time>
      </trkpt>
      <trkpt lat="40.12345" lon="-7.00994">
        <ele>369.1749</ele>
        <time>2021-07-09T10:02:50Z</time>
      </trkpt>
      <trkpt lat="40.12265" lon="-7.00926">
        <ele>361.2348</ele>
        <time>2021-07-09T10:03:01Z</time>
      </trkpt>
      <trkpt lat="40.12183" lon="-7.00834">
        <ele>357.4452</ele>
        <time>2021-07-09T10:03:12Z</time>
      </trkpt>
      <trkpt lat="40.12143" lon="-7.00697">
        <ele>358.0236</ele>
        <time>2021-07-09T10:03:23Z</time>
      </trkpt>
      <trkpt lat="40.12079" lon="-7.00582">
        <ele>355.8398</ele>
        <time>2021-07-09T10:03:34Z</time>
      </trkpt>
      <trkpt lat="40.12017" lon="-7.00439">
        <ele>353.9496</ele>
        <time>2021-07-09T10:03:45Z</time>
      </trkpt>
      <trkpt lat="40.11966" lon="-7.00283">
        <ele>357.5419</ele>
        <time>2021-07-09T10:03:56Z</time>
      </trkpt>
      <trkpt lat="40.11942" lon="-7.00178">
        <ele>356.281</ele>
        <time>2021-07-09T10:04:07Z</time>
      </trkpt>
      <trkpt lat="40.11879" lon="-7.00063">
        <ele>349.6366</ele>
        <time>2021-07-09T10:04:18Z</time>
      </trkpt>
      <trkpt lat="40.1183" lon="-6.9997">
        <ele>348.9505</ele>
        <time>2021-07-09T10:04:29Z</time>
      </trkpt>
      <trkpt lat="40.11736" lon="-6.99945">
        <ele>347.1293</ele>
        <time>2021-07-09T10:04:40Z</time>
      </trkpt>
      <trkpt lat="40.11636" lon="-6.9995">
        <ele>351.7038</ele>
        <time>2021-07-09T10:04:51Z</time>
      </trkpt>
      <trkpt lat="40.11539" lon="-6.9999">
        <ele>349.3289</ele>
        <time>2021-07-09T10:05:02Z</time>
      </trkpt>
      <trkpt lat="40.1152" lon="-6.99998">
        <ele>348.1021</ele>
        <time>2021-07-09T10:05:13Z</time>
      </trkpt>
      <trkpt lat="40.11514" lon="-7">
        <ele>347.8546</ele>
        <time>2021-07-09T10:05:24Z</time>
      </trkpt>
      <trkpt lat="40.11461" lon="-7.00025">
        <ele>351.1717</ele>
        <time>2021-07-09T10:05:35Z</time>
      </trkpt>
      <trkpt lat="40.11393" lon="-7.00049">
        <ele>344.4612</ele>
        <time>2021-07-09T10:05:46Z</time>
      </trkpt>
      <trkpt lat="40.11304" lon="-7.00028">
        <ele>340.0701</ele>
        <time>2021-07-09T10:05:57Z</time>
      </trkpt>
      <trkpt lat="40.11203" lon="-7.00017">
        <ele>338.1668</ele>
        <time>2021-07-09T10:06:08Z</time>
      </trkpt>
      <trkpt lat="40.11148" lon="-7.00046">
        <ele>333.3364</ele>
        <time>2021-07-09T10:06:19Z</time>
      </trkpt>
      <trkpt lat="40.11149" lon="-7.00046">
        <ele>328.7814</ele>
        <time>2021-07-09T10:07:18Z</time>
      </trkpt>
      <trkpt lat="40.11149" lon="-7.00046">
        <ele>328.7814</ele>
        <time>2021-07-09T10:08:18Z</time>
      </trkpt>
      <trkpt lat="40.11146" lon="-7.00053">
        <ele>331.4759</ele>
        <time>2021-07-09T10:09:07Z</time>
      </trkpt>
      <trkpt lat="40.11122" lon="-7.00077">
        <ele>328.9678</ele>
        <time>2021-07-09T10:09:18Z</time>
      </trkpt>
      <trkpt lat="40.11123" lon="-7.00076">
        <ele>335.5482</ele>
        <time>2021-07-09T10:10:18Z</time>
      </trkpt>
      <trkpt lat="40.11124" lon="-7.00077">
        <ele>338.1945</ele>
        <time>2021-07-09T10:11:17Z</time>
      </trkpt>
      <trkpt lat="40.1112" lon="-7.00075">
        <ele>337.8933</ele>
        <time>2021-07-09T10:11:50Z</time>
      </trkpt>
      <trkpt lat="40.11084" lon="-7.00008">
        <ele>342.3079</ele>
        <time>2021-07-09T10:12:01Z</time>
      </trkpt>
      <trkpt lat="40.11099" lon="-6.99897">
        <ele>360.1577</ele>
        <time>2021-07-09T10:12:12Z</time>
      </trkpt>
      <trkpt lat="40.11113" lon="-6.99806">
        <ele>362.2798</ele>
        <time>2021-07-09T10:12:23Z</time>
      </trkpt>
      <trkpt lat="40.11081" lon="-6.99681">
        <ele>366.633</ele>
        <time>2021-07-09T10:12:34Z</time>
      </trkpt>
      <trkpt lat="40.11013" lon="-6.99585">
        <ele>365.6248</ele>
        <time>2021-07-09T10:12:45Z</time>
      </trkpt>
      <trkpt lat="40.10952" lon="-6.99612">
        <ele>371.8038</ele>
        <time>2021-07-09T10:12:56Z</time>
      </trkpt>
      <trkpt lat="40.10861" lon="-6.99629">
        <ele>378.7018</ele>
        <time>2021-07-09T10:13:07Z</time>
      </trkpt>
      <trkpt lat="40.10765" lon="-6.99561">
        <ele>382.3706</ele>
        <time>2021-07-09T10:13:18Z</time>
      </trkpt>
      <trkpt lat="40.10695" lon="-6.99442">
        <ele>387.5478</ele>
        <time>2021-07-09T10:13:29Z</time>
      </trkpt>
      <trkpt lat="40.10618" lon="-6.99342">
        <ele>392.5381</ele>
        <time>2021-07-09T10:13:40Z</time>
      </trkpt>
      <trkpt lat="40.10536" lon="-6.99293">
        <ele>399.6658</ele>
        <time>2021-07-09T10:13:51Z</time>
      </trkpt>
      <trkpt lat="40.10442" lon="-6.99296">
        <ele>405.7286</ele>
        <time>2021-07-09T10:14:02Z</time>
      </trkpt>
      <trkpt lat="40.10364" lon="-6.9928">
        <ele>411.4757</ele>
        <time>2021-07-09T10:14:13Z</time>
      </trkpt>
      <trkpt lat="40.10322" lon="-6.99265">
        <ele>415.4852</ele>
        <time>2021-07-09T10:14:24Z</time>
      </trkpt>
      <trkpt lat="40.10296" lon="-6.99282">
        <ele>413.0765</ele>
        <time>2021-07-09T10:14:35Z</time>
      </trkpt>
      <trkpt lat="40.10214" lon="-6.99316">
        <ele>404.5279</ele>
        <time>2021-07-09T10:14:46Z</time>
      </trkpt>
      <trkpt lat="40.10137" lon="-6.9937">
        <ele>400.9362</ele>
        <time>2021-07-09T10:14:57Z</time>
      </trkpt>
      <trkpt lat="40.10093" lon="-6.99473">
        <ele>404.1095</ele>
        <time>2021-07-09T10:15:08Z</time>
      </trkpt>
      <trkpt lat="40.10013" lon="-6.99555">
        <ele>407.0753</ele>
        <time>2021-07-09T10:15:19Z</time>
      </trkpt>
      <trkpt lat="40.09938" lon="-6.99632">
        <ele>408.986</ele>
        <time>2021-07-09T10:15:30Z</time>
      </trkpt>
      <trkpt lat="40.0987" lon="-6.99713">
        <ele>417.1763</ele>
        <time>2021-07-09T10:15:41Z</time>
      </trkpt>
      <trkpt lat="40.09851" lon="-6.99724">
        <ele>415.3503</ele>
        <time>2021-07-09T10:15:52Z</time>
      </trkpt>
      <trkpt lat="40.09848" lon="-6.99713">
        <ele>417.9037</ele>
        <time>2021-07-09T10:16:03Z</time>
      </trkpt>
      <trkpt lat="40.09782" lon="-6.99734">
        <ele>421.6161</ele>
        <time>2021-07-09T10:16:14Z</time>
      </trkpt>
      <trkpt lat="40.09728" lon="-6.9977">
        <ele>427.5482</ele>
        <time>2021-07-09T10:16:25Z</time>
      </trkpt>
      <trkpt lat="40.09677" lon="-6.99824">
        <ele>430.4708</ele>
        <time>2021-07-09T10:16:36Z</time>
      </trkpt>
      <trkpt lat="40.09577" lon="-6.99826">
        <ele>428.4755</ele>
        <time>2021-07-09T10:16:47Z</time>
      </trkpt>
      <trkpt lat="40.09496" lon="-6.99872">
        <ele>429.8422</ele>
        <time>2021-07-09T10:16:58Z</time>
      </trkpt>
      <trkpt lat="40.09381" lon="-6.99929">
        <ele>433.4449</ele>
        <time>2021-07-09T10:17:09Z</time>
      </trkpt>
      <trkpt lat="40.09262" lon="-6.99964">
        <ele>427.3487</ele>
        <time>2021-07-09T10:17:20Z</time>
      </trkpt>
      <trkpt lat="40.09154" lon="-7.00007">
        <ele>426.7826</ele>
        <time>2021-07-09T10:17:31Z</time>
      </trkpt>
      <trkpt lat="40.09076" lon="-7.0005">
        <ele>432.6726</ele>
        <time>2021-07-09T10:17:42Z</time>
      </trkpt>
      <trkpt lat="40.08981" lon="-7.00089">
        <ele>431.2946</ele>
        <time>2021-07-09T10:17:53Z</time>
      </trkpt>
      <trkpt lat="40.08878" lon="-7.0014">
        <ele>438.2988</ele>
        <time>2021-07-09T10:18:04Z</time>
      </trkpt>
      <trkpt lat="40.08769" lon="-7.00187">
        <ele>448.5307</ele>
        <time>2021-07-09T10:18:15Z</time>
      </trkpt>
      <trkpt lat="40.0866" lon="-7.00229">
        <ele>446.4943</ele>
        <time>2021-07-09T10:18:26Z</time>
      </trkpt>
      <trkpt lat="40.08561" lon="-7.00266">
        <ele>448.5076</ele>
        <time>2021-07-09T10:18:37Z</time>
      </trkpt>
      <trkpt lat="40.08503" lon="-7.00276">
        <ele>454.787</ele>
        <time>2021-07-09T10:18:48Z</time>
      </trkpt>
      <trkpt lat="40.08478" lon="-7.0017">
        <ele>455.2109</ele>
        <time>2021-07-09T10:18:59Z</time>
      </trkpt>
      <trkpt lat="40.08451" lon="-7.00041">
        <ele>460.8555</ele>
        <time>2021-07-09T10:19:10Z</time>
      </trkpt>
      <trkpt lat="40.08393" lon="-6.99922">
        <ele>461.4999</ele>
        <time>2021-07-09T10:19:21Z</time>
      </trkpt>
      <trkpt lat="40.08426" lon="-6.99811">
        <ele>460.1492</ele>
        <time>2021-07-09T10:19:32Z</time>
      </trkpt>
      <trkpt lat="40.0838" lon="-6.99746">
        <ele>455.5679</ele>
        <time>2021-07-09T10:19:43Z</time>
      </trkpt>
      <trkpt lat="40.08327" lon="-6.99635">
        <ele>453.8576</ele>
        <time>2021-07-09T10:19:54Z</time>
      </trkpt>
      <trkpt lat="40.08292" lon="-6.99538">
        <ele>449.3052</ele>
        <time>2021-07-09T10:20:05Z</time>
      </trkpt>
      <trkpt lat="40.0824" lon="-6.99405">
        <ele>452.0487</ele>
        <time>2021-07-09T10:20:16Z</time>
      </trkpt>
      <trkpt lat="40.08174" lon="-6.99307">
        <ele>454.4565</ele>
        <time>2021-07-09T10:20:27Z</time>
      </trkpt>
      <trkpt lat="40.08087" lon="-6.99269">
        <ele>452.3962</ele>
        <time>2021-07-09T10:20:38Z</time>
      </trkpt>
      <trkpt lat="40.08001" lon="-6.99253">
        <ele>445.8669</ele>
        <time>2021-07-09T10:20:49Z</time>
      </trkpt>
      <trkpt lat="40.07911" lon="-6.99217">
        <ele>447.1966</ele>
        <time>2021-07-09T10:21:00Z</time>
      </trkpt>
      <trkpt lat="40.07811" lon="-6.99192">
        <ele>450.1661</ele>
        <time>2021-07-09T10:21:11Z</time>
      </trkpt>
      <trkpt lat="40.07723" lon="-6.99159">
        <ele>459.9954</ele>
        <time>2021-07-09T10:21:22Z</time>
      </trkpt>
      <trkpt lat="40.07663" lon="-6.99092">
        <ele>452.2383</ele>
        <time>2021-07-09T10:21:33Z</time>
      </trkpt>
      <trkpt lat="40.07573" lon="-6.9904">
        <ele>456.1185</ele>
        <time>2021-07-09T10:21:44Z</time>
      </trkpt>
      <trkpt lat="40.07492" lon="-6.99057">
        <ele>458.4368</ele>
        <time>2021-07-09T10:21:55Z</time>
      </trkpt>
      <trkpt lat="40.07445" lon="-6.98969">
        <ele>459.6791</ele>
        <time>2021-07-09T10:22:06Z</time>
      </trkpt>
      <trkpt lat="40.07392" lon="-6.98832">
        <ele>446.3196</ele>
        <time>2021-07-09T10:22:17Z</time>
      </trkpt>
      <trkpt lat="40.07357" lon="-6.98733">
        <ele>417.1782</ele>
        <time>2021-07-09T10:22:28Z</time>
      </trkpt>
      <trkpt lat="40.07383" lon="-6.98622">
        <ele>414.7752</ele>
        <time>2021-07-09T10:22:39Z</time>
      </trkpt>
      <trkpt lat="40.07418" lon="-6.9849">
        <ele>431.7401</ele>
        <time>2021-07-09T10:22:50Z</time>
      </trkpt>
      <trkpt lat="40.07382" lon="-6.98412">
        <ele>435.7722</ele>
        <time>2021-07-09T10:23:01Z</time>
      </trkpt>
      <trkpt lat="40.07295" lon="-6.98375">
        <ele>440.4761</ele>
        <time>2021-07-09T10:23:12Z</time>
      </trkpt>
      <trkpt lat="40.07247" lon="-6.98397">
        <ele>417.3045</ele>
        <time>2021-07-09T10:23:23Z</time>
      </trkpt>
      <trkpt lat="40.07189" lon="-6.98413">
        <ele>425.2492</ele>
        <time>2021-07-09T10:23:34Z</time>
      </trkpt>
      <trkpt lat="40.07148" lon="-6.98371">
        <ele>438.4635</ele>
        <time>2021-07-09T10:23:45Z</time>
      </trkpt>
      <trkpt lat="40.07138" lon="-6.98335">
        <ele>445.9086</ele>
        <time>2021-07-09T10:23:56Z</time>
      </trkpt>
      <trkpt lat="40.0709" lon="-6.98374">
        <ele>459.8001</ele>
        <time>2021-07-09T10:24:07Z</time>
      </trkpt>
      <trkpt lat="40.07037" lon="-6.98417">
        <ele>467.1109</ele>
        <time>2021-07-09T10:24:18Z</time>
      </trkpt>
      <trkpt lat="40.06954" lon="-6.9844">
        <ele>458.2614</ele>
        <time>2021-07-09T10:24:29Z</time>
      </trkpt>
      <trkpt lat="40.06887" lon="-6.98463">
        <ele>455.6378</ele>
        <time>2021-07-09T10:24:40Z</time>
      </trkpt>
      <trkpt lat="40.06782" lon="-6.98514">
        <ele>441.3673</ele>
        <time>2021-07-09T10:24:51Z</time>
      </trkpt>
      <trkpt lat="40.06677" lon="-6.98606">
        <ele>440.509</ele>
        <time>2021-07-09T10:25:02Z</time>
      </trkpt>
      <trkpt lat="40.06572" lon="-6.98708">
        <ele>440.1288</ele>
        <time>2021-07-09T10:25:13Z</time>
      </trkpt>
      <trkpt lat="40.06471" lon="-6.98751">
        <ele>449.0216</ele>
        <time>2021-07-09T10:25:24Z</time>
      </trkpt>
      <trkpt lat="40.06407" lon="-6.98821">
        <ele>444.4988</ele>
        <time>2021-07-09T10:25:35Z</time>
      </trkpt>
      <trkpt lat="40.06401" lon="-6.9895">
        <ele>451.7639</ele>
        <time>2021-07-09T10:25:46Z</time>
      </trkpt>
      <trkpt lat="40.06382" lon="-6.99045">
        <ele>467.1436</ele>
        <time>2021-07-09T10:25:57Z</time>
      </trkpt>
      <trkpt lat="40.0635" lon="-6.99001">
        <ele>500.426</ele>
        <time>2021-07-09T10:26:08Z</time>
      </trkpt>
      <trkpt lat="40.06276" lon="-6.98986">
        <ele>529.4445</ele>
        <time>2021-07-09T10:26:19Z</time>
      </trkpt>
      <trkpt lat="40.06311" lon="-6.99078">
        <ele>548.1973</ele>
        <time>2021-07-09T10:26:30Z</time>
      </trkpt>
      <trkpt lat="40.06328" lon="-6.99224">
        <ele>550.5099</ele>
        <time>2021-07-09T10:26:41Z</time>
      </trkpt>
      <trkpt lat="40.0635" lon="-6.99367">
        <ele>559.7928</ele>
        <time>2021-07-09T10:26:52Z</time>
      </trkpt>
      <trkpt lat="40.06313" lon="-6.99522">
        <ele>568.4749</ele>
        <time>2021-07-09T10:27:03Z</time>
      </trkpt>
      <trkpt lat="40.06253" lon="-6.99634">
        <ele>557.3016</ele>
        <time>2021-07-09T10:27:14Z</time>
      </trkpt>
      <trkpt lat="40.06165" lon="-6.99689">
        <ele>567.3929</ele>
        <time>2021-07-09T10:27:25Z</time>
      </trkpt>
      <trkpt lat="40.0607" lon="-6.99694">
        <ele>593.7865</ele>
        <time>2021-07-09T10:27:36Z</time>
      </trkpt>
      <trkpt lat="40.06064" lon="-6.99694">
        <ele>614.6025</ele>
        <time>2021-07-09T10:27:47Z</time>
      </trkpt>
      <trkpt lat="40.06061" lon="-6.99687">
        <ele>634.7727</ele>
        <time>2021-07-09T10:27:58Z</time>
      </trkpt>
      <trkpt lat="40.06059" lon="-6.99693">
        <ele>630.5174</ele>
        <time>2021-07-09T10:28:09Z</time>
      </trkpt>
      <trkpt lat="40.0595" lon="-6.99747">
        <ele>618.7632</ele>
        <time>2021-07-09T10:28:20Z</time>
      </trkpt>
      <trkpt lat="40.05799" lon="-6.99852">
        <ele>604.5822</ele>
        <time>2021-07-09T10:28:31Z</time>
      </trkpt>
      <trkpt lat="40.0566" lon="-6.99887">
        <ele>595.1843</ele>
        <time>2021-07-09T10:28:42Z</time>
      </trkpt>
      <trkpt lat="40.05503" lon="-6.99948">
        <ele>597.0013</ele>
        <time>2021-07-09T10:28:53Z</time>
      </trkpt>
      <trkpt lat="40.05412" lon="-7.00114">
        <ele>582.6624</ele>
        <time>2021-07-09T10:29:04Z</time>
      </trkpt>
      <trkpt lat="40.05338" lon="-7.0023">
        <ele>561.8158</ele>
        <time>2021-07-09T10:29:15Z</time>
      </trkpt>
      <trkpt lat="40.05257" lon="-7.00304">
        <ele>554.5033</ele>
        <time>2021-07-09T10:29:26Z</time>
      </trkpt>
      <trkpt lat="40.05153" lon="-7.00388">
        <ele>545.9199</ele>
        <time>2021-07-09T10:29:37Z</time>
      </trkpt>
      <trkpt lat="40.05013" lon="-7.0044">
        <ele>536.5503</ele>
        <time>2021-07-09T10:29:48Z</time>
      </trkpt>
      <trkpt lat="40.04873" lon="-7.00485">
        <ele>527.5694</ele>
        <time>2021-07-09T10:29:59Z</time>
      </trkpt>
      <trkpt lat="40.04786" lon="-7.00617">
        <ele>512.7923</ele>
        <time>2021-07-09T10:30:10Z</time>
      </trkpt>
      <trkpt lat="40.04714" lon="-7.00695">
        <ele>502.5703</ele>
        <time>2021-07-09T10:30:21Z</time>
      </trkpt>
      <trkpt lat="40.04659" lon="-7.00871">
        <ele>515.2042</ele>
        <time>2021-07-09T10:30:32Z</time>
      </trkpt>
      <trkpt lat="40.04585" lon="-7.00982">
        <ele>522.0541</ele>
        <time>2021-07-09T10:30:43Z</time>
      </trkpt>
      <trkpt lat="40.04492" lon="-7.00982">
        <ele>523.6366</ele>
        <time>2021-07-09T10:30:54Z</time>
      </trkpt>
      <trkpt lat="40.04391" lon="-7.00979">
        <ele>534.451</ele>
        <time>2021-07-09T10:31:05Z</time>
      </trkpt>
      <trkpt lat="40.04352" lon="-7.00982">
        <ele>532.9423</ele>
        <time>2021-07-09T10:31:16Z</time>
      </trkpt>
      <trkpt lat="40.0435" lon="-7.00986">
        <ele>531.5681</ele>
        <time>2021-07-09T10:31:30Z</time>
      </trkpt>
      <trkpt lat="40.04344" lon="-7.00989">
        <ele>531.8396</ele>
        <time>2021-07-09T10:32:02Z</time>
      </trkpt>
      <trkpt lat="40.04265" lon="-7.01023">
        <ele>524.7938</ele>
        <time>2021-07-09T10:32:13Z</time>
      </trkpt>
      <trkpt lat="40.04257" lon="-7.01031">
        <ele>522.9905</ele>
        <time>2021-07-09T10:32:24Z</time>
      </trkpt>
      <trkpt lat="40.04257" lon="-7.0104">
        <ele>522.1064</ele>
        <time>2021-07-09T10:32:35Z</time>
      </trkpt>
      <trkpt lat="40.04258" lon="-7.01041">
        <ele>521.1573</ele>
        <time>2021-07-09T10:33:35Z</time>
      </trkpt>
      <trkpt lat="40.04259" lon="-7.01042">
        <ele>523.0515</ele>
        <time>2021-07-09T10:34:33Z</time>
      </trkpt>
      <trkpt lat="40.04259" lon="-7.01042">
        <ele>520.8655</ele>
        <time>2021-07-09T10:35:33Z</time>
      </trkpt>
      <trkpt lat="40.04262" lon="-7.0104">
        <ele>520.4773</ele>
        <time>2021-07-09T10:35:53Z</time>
      </trkpt>
      <trkpt lat="40.04228" lon="-7.01005">
        <ele>515.9256</ele>
        <time>2021-07-09T10:36:04Z</time>
      </trkpt>
      <trkpt lat="40.04118" lon="-7.00942">
        <ele>499.8789</ele>
        <time>2021-07-09T10:36:15Z</time>
      </trkpt>
      <trkpt lat="40.03936" lon="-7.00959">
        <ele>484.782</ele>
        <time>2021-07-09T10:36:26Z</time>
      </trkpt>
      <trkpt lat="40.03789" lon="-7.01048">
        <ele>474.7357</ele>
        <time>2021-07-09T10:36:37Z</time>
      </trkpt>
      <trkpt lat="40.03622" lon="-7.01172">
        <ele>460.0587</ele>
        <time>2021-07-09T10:36:48Z</time>
      </trkpt>
      <trkpt lat="40.03527" lon="-7.0132">
        <ele>455.5975</ele>
        <time>2021-07-09T10:36:59Z</time>
      </trkpt>
      <trkpt lat="40.03483" lon="-7.01319">
        <ele>458.0161</ele>
        <time>2021-07-09T10:37:10Z</time>
      </trkpt>
      <trkpt lat="40.0338" lon="-7.01155">
        <ele>461.824</ele>
        <time>2021-07-09T10:37:21Z</time>
      </trkpt>
      <trkpt lat="40.03269" lon="-7.00979">
        <ele>461.9338</ele>
        <time>2021-07-09T10:37:32Z</time>
      </trkpt>
      <trkpt lat="40.03255" lon="-7.00925">
        <ele>462.8101</ele>
        <time>2021-07-09T10:37:43Z</time>
      </trkpt>
      <trkpt lat="40.03265" lon="-7.00936">
        <ele>460.9774</ele>
        <time>2021-07-09T10:37:54Z</time>
      </trkpt>
      <trkpt lat="40.03263" lon="-7.00939">
        <ele>459.7039</ele>
        <time>2021-07-09T10:38:08Z</time>
      </trkpt>
      <trkpt lat="40.03261" lon="-7.00945">
        <ele>456.3995</ele>
        <time>2021-07-09T10:38:19Z</time>
      </trkpt>
      <trkpt lat="40.03265" lon="-7.00945">
        <ele>459.0786</ele>
        <time>2021-07-09T10:39:17Z</time>
      </trkpt>
      <trkpt lat="40.03265" lon="-7.00945">
        <ele>458.8054</ele>
        <time>2021-07-09T10:40:17Z</time>
      </trkpt>
      <trkpt lat="40.03264" lon="-7.00947">
        <ele>464.8342</ele>
        <time>2021-07-09T10:41:17Z</time>
      </trkpt>
      <trkpt lat="40.03266" lon="-7.00948">
        <ele>466.5132</ele>
        <time>2021-07-09T10:42:17Z</time>
      </trkpt>
      <trkpt lat="40.03269" lon="-7.00958">
        <ele>465.9733</ele>
        <time>2021-07-09T10:43:05Z</time>
      </trkpt>
      <trkpt lat="40.03279" lon="-7.00987">
        <ele>464.5852</ele>
        <time>2021-07-09T10:43:16Z</time>
      </trkpt>
      <trkpt lat="40.03343" lon="-7.01092">
        <ele>462.7263</ele>
        <time>2021-07-09T10:43:27Z</time>
      </trkpt>
      <trkpt lat="40.03415" lon="-7.01206">
        <ele>459.7359</ele>
        <time>2021-07-09T10:43:38Z</time>
      </trkpt>
      <trkpt lat="40.03352" lon="-7.01214">
        <ele>463.8871</ele>
        <time>2021-07-09T10:43:49Z</time>
      </trkpt>
      <trkpt lat="40.03285" lon="-7.01223">
        <ele>459.3833</ele>
        <time>2021-07-09T10:44:00Z</time>
      </trkpt>
      <trkpt lat="40.03205" lon="-7.01187">
        <ele>454.1615</ele>
        <time>2021-07-09T10:44:11Z</time>
      </trkpt>
      <trkpt lat="40.03113" lon="-7.01138">
        <ele>450.5341</ele>
        <time>2021-07-09T10:44:22Z</time>
      </trkpt>
      <trkpt lat="40.03006" lon="-7.01132">
        <ele>435.4133</ele>
        <time>2021-07-09T10:44:33Z</time>
      </trkpt>
      <trkpt lat="40.02924" lon="-7.0109">
        <ele>434.1251</ele>
        <time>2021-07-09T10:44:44Z</time>
      </trkpt>
      <trkpt lat="40.02849" lon="-7.01136">
        <ele>434.3498</ele>
        <time>2021-07-09T10:44:55Z</time>
      </trkpt>
      <trkpt lat="40.02795" lon="-7.01104">
        <ele>447.2112</ele>
        <time>2021-07-09T10:45:06Z</time>
      </trkpt>
      <trkpt lat="40.02716" lon="-7.01018">
        <ele>460.9177</ele>
        <time>2021-07-09T10:45:17Z</time>
      </trkpt>
      <trkpt lat="40.02641" lon="-7.01">
        <ele>463.1712</ele>
        <time>2021-07-09T10:45:28Z</time>
      </trkpt>
      <trkpt lat="40.02583" lon="-7.01017">
        <ele>468.1714</ele>
        <time>2021-07-09T10:45:39Z</time>
      </trkpt>
      <trkpt lat="40.02563" lon="-7.01015">
        <ele>472.531</ele>
        <time>2021-07-09T10:45:50Z</time>
      </trkpt>
      <trkpt lat="40.02565" lon="-7.01015">
        <ele>466.4131</ele>
        <time>2021-07-09T10:46:49Z</time>
      </trkpt>
      <trkpt lat="40.02567" lon="-7.01016">
        <ele>468.272</ele>
        <time>2021-07-09T10:47:47Z</time>
      </trkpt>
      <trkpt lat="40.02563" lon="-7.01015">
        <ele>468.481</ele>
        <time>2021-07-09T10:47:59Z</time>
      </trkpt>
      <trkpt lat="40.02559" lon="-7.01016">
        <ele>467.9292</ele>
        <time>2021-07-09T10:48:10Z</time>
      </trkpt>
      <trkpt lat="40.02555" lon="-7.01021">
        <ele>467.6644</ele>
        <time>2021-07-09T10:48:40Z</time>
      </trkpt>
      <trkpt lat="40.02473" lon="-7.01064">
        <ele>457.0424</ele>
        <time>2021-07-09T10:48:51Z</time>
      </trkpt>
      <trkpt lat="40.02365" lon="-7.01098">
        <ele>450.512</ele>
        <time>2021-07-09T10:49:02Z</time>
      </trkpt>
      <trkpt lat="40.02271" lon="-7.01129">
        <ele>444.5659</ele>
        <time>2021-07-09T10:49:13Z</time>
      </trkpt>
      <trkpt lat="40.0221" lon="-7.01103">
        <ele>440.7468</ele>
        <time>2021-07-09T10:49:24Z</time>
      </trkpt>
      <trkpt lat="40.02105" lon="-7.01116">
        <ele>450.6087</ele>
        <time>2021-07-09T10:49:35Z</time>
      </trkpt>
      <trkpt lat="40.02022" lon="-7.01185">
        <ele>461.5413</ele>
        <time>2021-07-09T10:49:46Z</time>
      </trkpt>
      <trkpt lat="40.01902" lon="-7.01165">
        <ele>466.2118</ele>
        <time>2021-07-09T10:49:57Z</time>
      </trkpt>
      <trkpt lat="40.01785" lon="-7.01127">
        <ele>471.9194</ele>
        <time>2021-07-09T10:50:08Z</time>
      </trkpt>
      <trkpt lat="40.01675" lon="-7.0111">
        <ele>475.5099</ele>
        <time>2021-07-09T10:50:19Z</time>
      </trkpt>
      <trkpt lat="40.01613" lon="-7.01125">
        <ele>467.023</ele>
        <time>2021-07-09T10:50:30Z</time>
      </trkpt>
      <trkpt lat="40.0155" lon="-7.0128">
        <ele>465.4538</ele>
        <time>2021-07-09T10:50:41Z</time>
      </trkpt>
      <trkpt lat="40.01501" lon="-7.01452">
        <ele>463.4698</ele>
        <time>2021-07-09T10:50:52Z</time>
      </trkpt>
      <trkpt lat="40.01411" lon="-7.01562">
        <ele>456.1623</ele>
        <time>2021-07-09T10:51:03Z</time>
      </trkpt>
      <trkpt lat="40.01274" lon="-7.0161">
        <ele>464.733</ele>
        <time>2021-07-09T10:51:14Z</time>
      </trkpt>
      <trkpt lat="40.01141" lon="-7.01696">
        <ele>465.9146</ele>
        <time>2021-07-09T10:51:25Z</time>
      </trkpt>
      <trkpt lat="40.01059" lon="-7.01803">
        <ele>471.8526</ele>
        <time>2021-07-09T10:51:36Z</time>
      </trkpt>
      <trkpt lat="40.00974" lon="-7.01902">
        <ele>469.0271</ele>
        <time>2021-07-09T10:51:47Z</time>
      </trkpt>
      <trkpt lat="40.00971" lon="-7.01906">
        <ele>470.2063</ele>
        <time>2021-07-09T10:51:59Z</time>
      </trkpt>
      <trkpt lat="40.00917" lon="-7.02022">
        <ele>460.8596</ele>
        <time>2021-07-09T10:52:10Z</time>
      </trkpt>
      <trkpt lat="40.00772" lon="-7.02071">
        <ele>470.3572</ele>
        <time>2021-07-09T10:52:21Z</time>
      </trkpt>
      <trkpt lat="40.00643" lon="-7.02038">
        <ele>463.4746</ele>
        <time>2021-07-09T10:52:32Z</time>
      </trkpt>
      <trkpt lat="40.00473" lon="-7.02111">
        <ele>458.8149</ele>
        <time>2021-07-09T10:52:43Z</time>
      </trkpt>
      <trkpt lat="40.00331" lon="-7.02246">
        <ele>448.3902</ele>
        <time>2021-07-09T10:52:54Z</time>
      </trkpt>
      <trkpt lat="40.00248" lon="-7.02285">
        <ele>444.9417</ele>
        <time>2021-07-09T10:53:05Z</time>
      </trkpt>
      <trkpt lat="40.00298" lon="-7.02266">
        <ele>450.437</ele>
        <time>2021-07-09T10:53:16Z</time>
      </trkpt>
      <trkpt lat="40.00362" lon="-7.02393">
        <ele>451.475</ele>
        <time>2021-07-09T10:53:27Z</time>
      </trkpt>
      <trkpt lat="40.00335" lon="-7.02567">
        <ele>455.7242</ele>
        <time>2021-07-09T10:53:38Z</time>
      </trkpt>
      <trkpt lat="40.0029" lon="-7.02756">
        <ele>450.5677</ele>
        <time>2021-07-09T10:53:49Z</time>
      </trkpt>
      <trkpt lat="40.00179" lon="-7.02798">
        <ele>444.6103</ele>
        <time>2021-07-09T10:54:00Z</time>
      </trkpt>
      <trkpt lat="40.00048" lon="-7.0291">
        <ele>439.921</ele>
        <time>2021-07-09T10:54:11Z</time>
      </trkpt>
      <trkpt lat="39.9991" lon="-7.02947">
        <ele>441.1421</ele>
        <time>2021-07-09T10:54:22Z</time>
      </trkpt>
      <trkpt lat="39.99861" lon="-7.03011">
        <ele>443.9187</ele>
        <time>2021-07-09T10:54:33Z</time>
      </trkpt>
      <trkpt lat="39.999" lon="-7.03174">
        <ele>445.9249</ele>
        <time>2021-07-09T10:54:44Z</time>
      </trkpt>
      <trkpt lat="39.99895" lon="-7.03321">
        <ele>448.0122</ele>
        <time>2021-07-09T10:54:55Z</time>
      </trkpt>
      <trkpt lat="39.99926" lon="-7.03477">
        <ele>441.0384</ele>
        <time>2021-07-09T10:55:06Z</time>
      </trkpt>
      <trkpt lat="39.99944" lon="-7.03497">
        <ele>441.7048</ele>
        <time>2021-07-09T10:55:17Z</time>
      </trkpt>
      <trkpt lat="39.9995" lon="-7.03503">
        <ele>440.6117</ele>
        <time>2021-07-09T10:55:28Z</time>
      </trkpt>
      <trkpt lat="39.99955" lon="-7.03511">
        <ele>442.0142</ele>
        <time>2021-07-09T10:55:57Z</time>
      </trkpt>
      <trkpt lat="40.0004" lon="-7.03557">
        <ele>435.5941</ele>
        <time>2021-07-09T10:56:08Z</time>
      </trkpt>
      <trkpt lat="40.00125" lon="-7.03642">
        <ele>431.3084</ele>
        <time>2021-07-09T10:56:19Z</time>
      </trkpt>
      <trkpt lat="40.00181" lon="-7.03756">
        <ele>432.5077</ele>
        <time>2021-07-09T10:56:30Z</time>
      </trkpt>
      <trkpt lat="40.00247" lon="-7.03854">
        <ele>433.6733</ele>
        <time>2021-07-09T10:56:41Z</time>
      </trkpt>
      <trkpt lat="40.00292" lon="-7.03997">
        <ele>430.7311</ele>
        <time>2021-07-09T10:56:52Z</time>
      </trkpt>
      <trkpt lat="40.00314" lon="-7.0413">
        <ele>419.5915</ele>
        <time>2021-07-09T10:57:03Z</time>
      </trkpt>
      <trkpt lat="40.00378" lon="-7.04224">
        <ele>422.5194</ele>
        <time>2021-07-09T10:57:14Z</time>
      </trkpt>
      <trkpt lat="40.00432" lon="-7.04346">
        <ele>423.046</ele>
        <time>2021-07-09T10:57:25Z</time>
      </trkpt>
      <trkpt lat="40.00477" lon="-7.04482">
        <ele>430.16</ele>
        <time>2021-07-09T10:57:36Z</time>
      </trkpt>
      <trkpt lat="40.00517" lon="-7.04634">
        <ele>427.6288</ele>
        <time>2021-07-09T10:57:47Z</time>
      </trkpt>
      <trkpt lat="40.0054" lon="-7.04739">
        <ele>422.3962</ele>
        <time>2021-07-09T10:57:58Z</time>
      </trkpt>
      <trkpt lat="40.00547" lon="-7.04741">
        <ele>415.9016</ele>
        <time>2021-07-09T10:58:09Z</time>
      </trkpt>
      <trkpt lat="40.00556" lon="-7.04749">
        <ele>419.0309</ele>
        <time>2021-07-09T10:58:20Z</time>
      </trkpt>
      <trkpt lat="40.0056" lon="-7.04753">
        <ele>413.2445</ele>
        <time>2021-07-09T10:59:00Z</time>
      </trkpt>
      <trkpt lat="40.00619" lon="-7.04823">
        <ele>407.9317</ele>
        <time>2021-07-09T10:59:11Z</time>
      </trkpt>
      <trkpt lat="40.00601" lon="-7.04957">
        <ele>405.1565</ele>
        <time>2021-07-09T10:59:22Z</time>
      </trkpt>
      <trkpt lat="40.00615" lon="-7.05073">
        <ele>407.16</ele>
        <time>2021-07-09T10:59:33Z</time>
      </trkpt>
      <trkpt lat="40.00614" lon="-7.05189">
        <ele>404.7725</ele>
        <time>2021-07-09T10:59:44Z</time>
      </trkpt>
      <trkpt lat="40.00646" lon="-7.05232">
        <ele>404.3714</ele>
        <time>2021-07-09T10:59:55Z</time>
      </trkpt>
      <trkpt lat="40.00652" lon="-7.05233">
        <ele>401.8849</ele>
        <time>2021-07-09T11:00:25Z</time>
      </trkpt>
      <trkpt lat="40.00656" lon="-7.05242">
        <ele>404.8602</ele>
        <time>2021-07-09T11:00:36Z</time>
      </trkpt>
      <trkpt lat="40.00659" lon="-7.05247">
        <ele>405.6084</ele>
        <time>2021-07-09T11:00:53Z</time>
      </trkpt>
      <trkpt lat="40.00673" lon="-7.0534">
        <ele>396.9828</ele>
        <time>2021-07-09T11:01:04Z</time>
      </trkpt>
      <trkpt lat="40.00693" lon="-7.05452">
        <ele>401.4069</ele>
        <time>2021-07-09T11:01:15Z</time>
      </trkpt>
      <trkpt lat="40.00672" lon="-7.05563">
        <ele>394.3604</ele>
        <time>2021-07-09T11:01:26Z</time>
      </trkpt>
      <trkpt lat="40.00678" lon="-7.0559">
        <ele>395.0901</ele>
        <time>2021-07-09T11:01:37Z</time>
      </trkpt>
      <trkpt lat="40.00761" lon="-7.05631">
        <ele>392.7325</ele>
        <time>2021-07-09T11:01:48Z</time>
      </trkpt>
      <trkpt lat="40.00829" lon="-7.05681">
        <ele>387.6178</ele>
        <time>2021-07-09T11:01:59Z</time>
      </trkpt>
      <trkpt lat="40.0091" lon="-7.05696">
        <ele>380.9795</ele>
        <time>2021-07-09T11:02:10Z</time>
      </trkpt>
      <trkpt lat="40.00967" lon="-7.05644">
        <ele>384.1504</ele>
        <time>2021-07-09T11:02:21Z</time>
      </trkpt>
      <trkpt lat="40.01023" lon="-7.05624">
        <ele>381.9284</ele>
        <time>2021-07-09T11:02:32Z</time>
      </trkpt>
      <trkpt lat="40.01108" lon="-7.05603">
        <ele>388.4477</ele>
        <time>2021-07-09T11:02:43Z</time>
      </trkpt>
      <trkpt lat="40.01193" lon="-7.05535">
        <ele>388.7792</ele>
        <time>2021-07-09T11:02:54Z</time>
      </trkpt>
      <trkpt lat="40.01253" lon="-7.05425">
        <ele>390.3415</ele>
        <time>2021-07-09T11:03:05Z</time>
      </trkpt>
      <trkpt lat="40.01279" lon="-7.05395">
        <ele>390.063</ele>
        <time>2021-07-09T11:03:16Z</time>
      </trkpt>
      <trkpt lat="40.01367" lon="-7.05462">
        <ele>386.7671</ele>
        <time>2021-07-09T11:03:27Z</time>
      </trkpt>
      <trkpt lat="40.0146" lon="-7.05432">
        <ele>387.3375</ele>
        <time>2021-07-09T11:03:38Z</time>
      </trkpt>
      <trkpt lat="40.01479" lon="-7.0541">
        <ele>388.7279</ele>
        <time>2021-07-09T11:03:49Z</time>
      </trkpt>
      <trkpt lat="40.01483" lon="-7.05406">
        <ele>389.5903</ele>
        <time>2021-07-09T11:04:07Z</time>
      </trkpt>
      <trkpt lat="40.01488" lon="-7.05406">
        <ele>388.8071</ele>
        <time>2021-07-09T11:04:45Z</time>
      </trkpt>
      <trkpt lat="40.01504" lon="-7.05414">
        <ele>387.9819</ele>
        <time>2021-07-09T11:04:56Z</time>
      </trkpt>
      <trkpt lat="40.01507" lon="-7.05431">
        <ele>387.5</ele>
        <time>2021-07-09T11:05:07Z</time>
      </trkpt>
      <trkpt lat="40.01503" lon="-7.05465">
        <ele>387.8163</ele>
        <time>2021-07-09T11:05:18Z</time>
      </trkpt>
      <trkpt lat="40.01503" lon="-7.05478">
        <ele>388.1611</ele>
        <time>2021-07-09T11:05:29Z</time>
      </trkpt>
      <trkpt lat="40.01525" lon="-7.05573">
        <ele>387.295</ele>
        <time>2021-07-09T11:05:40Z</time>
      </trkpt>
      <trkpt lat="40.01594" lon="-7.05674">
        <ele>383.8004</ele>
        <time>2021-07-09T11:05:51Z</time>
      </trkpt>
      <trkpt lat="40.01676" lon="-7.05723">
        <ele>386.6666</ele>
        <time>2021-07-09T11:06:02Z</time>
      </trkpt>
      <trkpt lat="40.01732" lon="-7.05756">
        <ele>387.6242</ele>
        <time>2021-07-09T11:06:13Z</time>
      </trkpt>
      <trkpt lat="40.01804" lon="-7.05796">
        <ele>389.0319</ele>
        <time>2021-07-09T11:06:24Z</time>
      </trkpt>
      <trkpt lat="40.01889" lon="-7.05833">
        <ele>391.8247</ele>
        <time>2021-07-09T11:06:35Z</time>
      </trkpt>
      <trkpt lat="40.02012" lon="-7.05902">
        <ele>390.4884</ele>
        <time>2021-07-09T11:06:46Z</time>
      </trkpt>
      <trkpt lat="40.02129" lon="-7.05937">
        <ele>388.6439</ele>
        <time>2021-07-09T11:06:57Z</time>
      </trkpt>
      <trkpt lat="40.02211" lon="-7.05927">
        <ele>385.9158</ele>
        <time>2021-07-09T11:07:08Z</time>
      </trkpt>
      <trkpt lat="40.02284" lon="-7.05954">
        <ele>385.0504</ele>
        <time>2021-07-09T11:07:19Z</time>
      </trkpt>
      <trkpt lat="40.02363" lon="-7.06072">
        <ele>386.1832</ele>
        <time>2021-07-09T11:07:30Z</time>
      </trkpt>
      <trkpt lat="40.02465" lon="-7.0614">
        <ele>390.0223</ele>
        <time>2021-07-09T11:07:41Z</time>
      </trkpt>
      <trkpt lat="40.02581" lon="-7.06182">
        <ele>391.5638</ele>
        <time>2021-07-09T11:07:52Z</time>
      </trkpt>
      <trkpt lat="40.0271" lon="-7.06235">
        <ele>388.4173</ele>
        <time>2021-07-09T11:08:03Z</time>
      </trkpt>
      <trkpt lat="40.02801" lon="-7.06333">
        <ele>386.1835</ele>
        <time>2021-07-09T11:08:14Z</time>
      </trkpt>
      <trkpt lat="40.02894" lon="-7.06449">
        <ele>390.7654</ele>
        <time>2021-07-09T11:08:25Z</time>
      </trkpt>
      <trkpt lat="40.02982" lon="-7.06542">
        <ele>393.8072</ele>
        <time>2021-07-09T11:08:36Z</time>
      </trkpt>
      <trkpt lat="40.03059" lon="-7.06632">
        <ele>387.6806</ele>
        <time>2021-07-09T11:08:47Z</time>
      </trkpt>
      <trkpt lat="40.03185" lon="-7.06657">
        <ele>392.2616</ele>
        <time>2021-07-09T11:08:58Z</time>
      </trkpt>
      <trkpt lat="40.03302" lon="-7.06706">
        <ele>400.0483</ele>
        <time>2021-07-09T11:09:09Z</time>
      </trkpt>
      <trkpt lat="40.03447" lon="-7.06775">
        <ele>402.7241</ele>
        <time>2021-07-09T11:09:20Z</time>
      </trkpt>
      <trkpt lat="40.03579" lon="-7.06819">
        <ele>404.7326</ele>
        <time>2021-07-09T11:09:31Z</time>
      </trkpt>
      <trkpt lat="40.03699" lon="-7.06924">
        <ele>404.5545</ele>
        <time>2021-07-09T11:09:42Z</time>
      </trkpt>
      <trkpt lat="40.03835" lon="-7.07052">
        <ele>407.3312</ele>
        <time>2021-07-09T11:09:53Z</time>
      </trkpt>
      <trkpt lat="40.03938" lon="-7.07189">
        <ele>418.6371</ele>
        <time>2021-07-09T11:10:04Z</time>
      </trkpt>
      <trkpt lat="40.04034" lon="-7.07252">
        <ele>418.6601</ele>
        <time>2021-07-09T11:10:15Z</time>
      </trkpt>
      <trkpt lat="40.04112" lon="-7.07381">
        <ele>423.4859</ele>
        <time>2021-07-09T11:10:26Z</time>
      </trkpt>
      <trkpt lat="40.04226" lon="-7.07412">
        <ele>429.3857</ele>
        <time>2021-07-09T11:10:37Z</time>
      </trkpt>
      <trkpt lat="40.04191" lon="-7.07454">
        <ele>427.222</ele>
        <time>2021-07-09T11:10:48Z</time>
      </trkpt>
      <trkpt lat="40.04098" lon="-7.07559">
        <ele>428.5863</ele>
        <time>2021-07-09T11:10:59Z</time>
      </trkpt>
      <trkpt lat="40.04048" lon="-7.07666">
        <ele>427.1097</ele>
        <time>2021-07-09T11:11:10Z</time>
      </trkpt>
      <trkpt lat="40.0398" lon="-7.07749">
        <ele>425.5992</ele>
        <time>2021-07-09T11:11:21Z</time>
      </trkpt>
      <trkpt lat="40.03932" lon="-7.07846">
        <ele>424.1227</ele>
        <time>2021-07-09T11:11:32Z</time>
      </trkpt>
      <trkpt lat="40.03865" lon="-7.07934">
        <ele>421.2634</ele>
        <time>2021-07-09T11:11:43Z</time>
      </trkpt>
      <trkpt lat="40.03843" lon="-7.08041">
        <ele>409.7009</ele>
        <time>2021-07-09T11:11:54Z</time>
      </trkpt>
      <trkpt lat="40.03831" lon="-7.08122">
        <ele>405.4543</ele>
        <time>2021-07-09T11:12:05Z</time>
      </trkpt>
      <trkpt lat="40.0382" lon="-7.082">
        <ele>417.1954</ele>
        <time>2021-07-09T11:12:16Z</time>
      </trkpt>
      <trkpt lat="40.03795" lon="-7.0835">
        <ele>420.1138</ele>
        <time>2021-07-09T11:12:27Z</time>
      </trkpt>
      <trkpt lat="40.03744" lon="-7.08442">
        <ele>427.9843</ele>
        <time>2021-07-09T11:12:38Z</time>
      </trkpt>
      <trkpt lat="40.03669" lon="-7.08497">
        <ele>432.697</ele>
        <time>2021-07-09T11:12:49Z</time>
      </trkpt>
      <trkpt lat="40.03595" lon="-7.08531">
        <ele>438.0361</ele>
        <time>2021-07-09T11:13:00Z</time>
      </trkpt>
      <trkpt lat="40.03546" lon="-7.0862">
        <ele>440.7847</ele>
        <time>2021-07-09T11:13:11Z</time>
      </trkpt>
      <trkpt lat="40.03515" lon="-7.08705">
        <ele>442.833</ele>
        <time>2021-07-09T11:13:22Z</time>
      </trkpt>
      <trkpt lat="40.03495" lon="-7.08789">
        <ele>444.8854</ele>
        <time>2021-07-09T11:13:33Z</time>
      </trkpt>
      <trkpt lat="40.03533" lon="-7.08894">
        <ele>446.8512</ele>
        <time>2021-07-09T11:13:44Z</time>
      </trkpt>
      <trkpt lat="40.03571" lon="-7.09033">
        <ele>456.6796</ele>
        <time>2021-07-09T11:13:55Z</time>
      </trkpt>
      <trkpt lat="40.0358" lon="-7.09186">
        <ele>462.3898</ele>
        <time>2021-07-09T11:14:06Z</time>
      </trkpt>
      <trkpt lat="40.03634" lon="-7.09307">
        <ele>468.7119</ele>
        <time>2021-07-09T11:14:17Z</time>
      </trkpt>
      <trkpt lat="40.03713" lon="-7.09379">
        <ele>466.1446</ele>
        <time>2021-07-09T11:14:28Z</time>
      </trkpt>
      <trkpt lat="40.03806" lon="-7.09379">
        <ele>473.2117</ele>
        <time>2021-07-09T11:14:39Z</time>
      </trkpt>
      <trkpt lat="40.03881" lon="-7.09418">
        <ele>470.1143</ele>
        <time>2021-07-09T11:14:50Z</time>
      </trkpt>
      <trkpt lat="40.03952" lon="-7.09492">
        <ele>471.8083</ele>
        <time>2021-07-09T11:15:01Z</time>
      </trkpt>
      <trkpt lat="40.0397" lon="-7.09602">
        <ele>467.6471</ele>
        <time>2021-07-09T11:15:12Z</time>
      </trkpt>
      <trkpt lat="40.03957" lon="-7.09632">
        <ele>469.4196</ele>
        <time>2021-07-09T11:15:23Z</time>
      </trkpt>
      <trkpt lat="40.0391" lon="-7.09719">
        <ele>471.3634</ele>
        <time>2021-07-09T11:15:34Z</time>
      </trkpt>
      <trkpt lat="40.03899" lon="-7.09907">
        <ele>479.0051</ele>
        <time>2021-07-09T11:15:45Z</time>
      </trkpt>
      <trkpt lat="40.03876" lon="-7.10042">
        <ele>487.1406</ele>
        <time>2021-07-09T11:15:56Z</time>
      </trkpt>
      <trkpt lat="40.03799" lon="-7.10157">
        <ele>491.718</ele>
        <time>2021-07-09T11:16:07Z</time>
      </trkpt>
      <trkpt lat="40.03715" lon="-7.10254">
        <ele>489.3306</ele>
        <time>2021-07-09T11:16:18Z</time>
      </trkpt>
      <trkpt lat="40.03574" lon="-7.10349">
        <ele>499.5048</ele>
        <time>2021-07-09T11:16:29Z</time>
      </trkpt>
      <trkpt lat="40.03489" lon="-7.10471">
        <ele>506.3102</ele>
        <time>2021-07-09T11:16:40Z</time>
      </trkpt>
      <trkpt lat="40.03469" lon="-7.10542">
        <ele>505.2449</ele>
        <time>2021-07-09T11:16:51Z</time>
      </trkpt>
      <trkpt lat="40.03473" lon="-7.10555">
        <ele>501.2077</ele>
        <time>2021-07-09T11:17:02Z</time>
      </trkpt>
      <trkpt lat="40.03511" lon="-7.10638">
        <ele>498.952</ele>
        <time>2021-07-09T11:17:13Z</time>
      </trkpt>
      <trkpt lat="40.03546" lon="-7.10688">
        <ele>504.2202</ele>
        <time>2021-07-09T11:17:24Z</time>
      </trkpt>
      <trkpt lat="40.03576" lon="-7.10695">
        <ele>506.2648</ele>
        <time>2021-07-09T11:17:35Z</time>
      </trkpt>
      <trkpt lat="40.03583" lon="-7.10692">
        <ele>507.7195</ele>
        <time>2021-07-09T11:17:50Z</time>
      </trkpt>
      <trkpt lat="40.03636" lon="-7.10693">
        <ele>512.3709</ele>
        <time>2021-07-09T11:18:01Z</time>
      </trkpt>
      <trkpt lat="40.03685" lon="-7.10679">
        <ele>513.0345</ele>
        <time>2021-07-09T11:18:12Z</time>
      </trkpt>
      <trkpt lat="40.03724" lon="-7.10694">
        <ele>508.9185</ele>
        <time>2021-07-09T11:18:23Z</time>
      </trkpt>
      <trkpt lat="40.03774" lon="-7.10695">
        <ele>510.7712</ele>
        <time>2021-07-09T11:18:34Z</time>
      </trkpt>
      <trkpt lat="40.03813" lon="-7.10724">
        <ele>496.5522</ele>
        <time>2021-07-09T11:18:45Z</time>
      </trkpt>
      <trkpt lat="40.03816" lon="-7.10715">
        <ele>517.8695</ele>
        <time>2021-07-09T11:18:56Z</time>
      </trkpt>
      <trkpt lat="40.03815" lon="-7.10716">
        <ele>523.4681</ele>
        <time>2021-07-09T11:19:56Z</time>
      </trkpt>
      <trkpt lat="40.03818" lon="-7.10712">
        <ele>519.5664</ele>
        <time>2021-07-09T11:20:14Z</time>
      </trkpt>
      <trkpt lat="40.03815" lon="-7.10709">
        <ele>518.8721</ele>
        <time>2021-07-09T11:20:28Z</time>
      </trkpt>
      <trkpt lat="40.03818" lon="-7.10712">
        <ele>519.1868</ele>
        <time>2021-07-09T11:20:39Z</time>
      </trkpt>
      <trkpt lat="40.03816" lon="-7.10717">
        <ele>518.2567</ele>
        <time>2021-07-09T11:21:18Z</time>
      </trkpt>
      <trkpt lat="40.03832" lon="-7.10735">
        <ele>526.1513</ele>
        <time>2021-07-09T11:21:29Z</time>
      </trkpt>
      <trkpt lat="40.03829" lon="-7.10737">
        <ele>525.0845</ele>
        <time>2021-07-09T11:21:49Z</time>
      </trkpt>
      <trkpt lat="40.0383" lon="-7.10742">
        <ele>525.0466</ele>
        <time>2021-07-09T11:22:09Z</time>
      </trkpt>
      <trkpt lat="40.03826" lon="-7.10741">
        <ele>526.336</ele>
        <time>2021-07-09T11:22:37Z</time>
      </trkpt>
      <trkpt lat="40.03857" lon="-7.10748">
        <ele>530.0202</ele>
        <time>2021-07-09T11:22:48Z</time>
      </trkpt>
      <trkpt lat="40.03906" lon="-7.10746">
        <ele>539.187</ele>
        <time>2021-07-09T11:22:59Z</time>
      </trkpt>
      <trkpt lat="40.03951" lon="-7.10774">
        <ele>545.8153</ele>
        <time>2021-07-09T11:23:10Z</time>
      </trkpt>
      <trkpt lat="40.03989" lon="-7.10805">
        <ele>555.6567</ele>
        <time>2021-07-09T11:23:21Z</time>
      </trkpt>
      <trkpt lat="40.04022" lon="-7.10849">
        <ele>563.2698</ele>
        <time>2021-07-09T11:23:32Z</time>
      </trkpt>
      <trkpt lat="40.04052" lon="-7.10892">
        <ele>569.4569</ele>
        <time>2021-07-09T11:23:43Z</time>
      </trkpt>
      <trkpt lat="40.04059" lon="-7.10942">
        <ele>577.0844</ele>
        <time>2021-07-09T11:23:54Z</time>
      </trkpt>
      <trkpt lat="40.04061" lon="-7.10946">
        <ele>579.2432</ele>
        <time>2021-07-09T11:24:05Z</time>
      </trkpt>
      <trkpt lat="40.04049" lon="-7.1094">
        <ele>578.7378</ele>
        <time>2021-07-09T11:24:16Z</time>
      </trkpt>
      <trkpt lat="40.0405" lon="-7.10941">
        <ele>583.0967</ele>
        <time>2021-07-09T11:25:16Z</time>
      </trkpt>
      <trkpt lat="40.04057" lon="-7.11005">
        <ele>590.2554</ele>
        <time>2021-07-09T11:25:27Z</time>
      </trkpt>
      <trkpt lat="40.04055" lon="-7.11042">
        <ele>592.8025</ele>
        <time>2021-07-09T11:25:38Z</time>
      </trkpt>
      <trkpt lat="40.04047" lon="-7.11036">
        <ele>594.6198</ele>
        <time>2021-07-09T11:25:49Z</time>
      </trkpt>
      <trkpt lat="40.04047" lon="-7.1103">
        <ele>594.0765</ele>
        <time>2021-07-09T11:26:20Z</time>
      </trkpt>
      <trkpt lat="40.04051" lon="-7.11029">
        <ele>596.7697</ele>
        <time>2021-07-09T11:26:38Z</time>
      </trkpt>
      <trkpt lat="40.04052" lon="-7.11035">
        <ele>597.7228</ele>
        <time>2021-07-09T11:27:00Z</time>
      </trkpt>
      <trkpt lat="40.04049" lon="-7.11035">
        <ele>597.1022</ele>
        <time>2021-07-09T11:27:59Z</time>
      </trkpt>
      <trkpt lat="40.04027" lon="-7.11019">
        <ele>600.7872</ele>
        <time>2021-07-09T11:28:10Z</time>
      </trkpt>
      <trkpt lat="40.0402" lon="-7.11165">
        <ele>616.6186</ele>
        <time>2021-07-09T11:28:21Z</time>
      </trkpt>
      <trkpt lat="40.03993" lon="-7.11311">
        <ele>626.5225</ele>
        <time>2021-07-09T11:28:32Z</time>
      </trkpt>
      <trkpt lat="40.03999" lon="-7.11406">
        <ele>639.9398</ele>
        <time>2021-07-09T11:28:43Z</time>
      </trkpt>
      <trkpt lat="40.03996" lon="-7.11409">
        <ele>638.1043</ele>
        <time>2021-07-09T11:28:54Z</time>
      </trkpt>
      <trkpt lat="40.03944" lon="-7.11429">
        <ele>642.722</ele>
        <time>2021-07-09T11:29:05Z</time>
      </trkpt>
      <trkpt lat="40.03936" lon="-7.11385">
        <ele>647.7307</ele>
        <time>2021-07-09T11:29:16Z</time>
      </trkpt>
      <trkpt lat="40.03925" lon="-7.11391">
        <ele>653.5349</ele>
        <time>2021-07-09T11:29:27Z</time>
      </trkpt>
      <trkpt lat="40.03921" lon="-7.11406">
        <ele>657.1508</ele>
        <time>2021-07-09T11:29:38Z</time>
      </trkpt>
      <trkpt lat="40.03908" lon="-7.11489">
        <ele>665.4991</ele>
        <time>2021-07-09T11:29:49Z</time>
      </trkpt>
      <trkpt lat="40.03895" lon="-7.11507">
        <ele>666.2665</ele>
        <time>2021-07-09T11:30:00Z</time>
      </trkpt>
      <trkpt lat="40.03875" lon="-7.11494">
        <ele>672.0096</ele>
        <time>2021-07-09T11:30:11Z</time>
      </trkpt>
      <trkpt lat="40.03869" lon="-7.11515">
        <ele>666.356</ele>
        <time>2021-07-09T11:30:22Z</time>
      </trkpt>
      <trkpt lat="40.03853" lon="-7.11522">
        <ele>657.7786</ele>
        <time>2021-07-09T11:30:33Z</time>
      </trkpt>
      <trkpt lat="40.03838" lon="-7.11539">
        <ele>655.016</ele>
        <time>2021-07-09T11:30:44Z</time>
      </trkpt>
      <trkpt lat="40.03836" lon="-7.11544">
        <ele>651.0434</ele>
        <time>2021-07-09T11:30:55Z</time>
      </trkpt>
      <trkpt lat="40.03861" lon="-7.11562">
        <ele>645.3667</ele>
        <time>2021-07-09T11:31:06Z</time>
      </trkpt>
      <trkpt lat="40.03872" lon="-7.11589">
        <ele>640.6286</ele>
        <time>2021-07-09T11:31:17Z</time>
      </trkpt>
      <trkpt lat="40.03886" lon="-7.11597">
        <ele>643.4537</ele>
        <time>2021-07-09T11:31:28Z</time>
      </trkpt>
      <trkpt lat="40.03888" lon="-7.116">
        <ele>637.8293</ele>
        <time>2021-07-09T11:32:09Z</time>
      </trkpt>
      <trkpt lat="40.03899" lon="-7.11621">
        <ele>636.4511</ele>
        <time>2021-07-09T11:32:20Z</time>
      </trkpt>
      <trkpt lat="40.03882" lon="-7.11638">
        <ele>631.0983</ele>
        <time>2021-07-09T11:32:31Z</time>
      </trkpt>
      <trkpt lat="40.03882" lon="-7.11687">
        <ele>621.8109</ele>
        <time>2021-07-09T11:32:42Z</time>
      </trkpt>
      <trkpt lat="40.03883" lon="-7.11701">
        <ele>618.5493</ele>
        <time>2021-07-09T11:32:53Z</time>
      </trkpt>
      <trkpt lat="40.03884" lon="-7.11704">
        <ele>619.8266</ele>
        <time>2021-07-09T11:33:53Z</time>
      </trkpt>
      <trkpt lat="40.03881" lon="-7.11704">
        <ele>620.1637</ele>
        <time>2021-07-09T11:34:53Z</time>
      </trkpt>
      <trkpt lat="40.03883" lon="-7.11707">
        <ele>620.6843</ele>
        <time>2021-07-09T11:35:26Z</time>
      </trkpt>
      <trkpt lat="40.03878" lon="-7.11641">
        <ele>628.6197</ele>
        <time>2021-07-09T11:35:37Z</time>
      </trkpt>
      <trkpt lat="40.03912" lon="-7.11617">
        <ele>635.1983</ele>
        <time>2021-07-09T11:35:48Z</time>
      </trkpt>
      <trkpt lat="40.03972" lon="-7.11597">
        <ele>637.8006</ele>
        <time>2021-07-09T11:35:59Z</time>
      </trkpt>
      <trkpt lat="40.03954" lon="-7.11558">
        <ele>644.2656</ele>
        <time>2021-07-09T11:36:10Z</time>
      </trkpt>
      <trkpt lat="40.03947" lon="-7.11569">
        <ele>653.8172</ele>
        <time>2021-07-09T11:36:21Z</time>
      </trkpt>
      <trkpt lat="40.03943" lon="-7.11577">
        <ele>656.9662</ele>
        <time>2021-07-09T11:36:32Z</time>
      </trkpt>
      <trkpt lat="40.03942" lon="-7.11576">
        <ele>657.7313</ele>
        <time>2021-07-09T11:37:31Z</time>
      </trkpt>
      <trkpt lat="40.03904" lon="-7.11575">
        <ele>656.2243</ele>
        <time>2021-07-09T11:37:42Z</time>
      </trkpt>
      <trkpt lat="40.03902" lon="-7.11534">
        <ele>659.6739</ele>
        <time>2021-07-09T11:37:53Z</time>
      </trkpt>
      <trkpt lat="40.03876" lon="-7.11497">
        <ele>665.8789</ele>
        <time>2021-07-09T11:38:04Z</time>
      </trkpt>
      <trkpt lat="40.03837" lon="-7.11491">
        <ele>671.3115</ele>
        <time>2021-07-09T11:38:15Z</time>
      </trkpt>
      <trkpt lat="40.03838" lon="-7.11486">
        <ele>680.3428</ele>
        <time>2021-07-09T11:38:43Z</time>
      </trkpt>
      <trkpt lat="40.03835" lon="-7.11486">
        <ele>677.7977</ele>
        <time>2021-07-09T11:39:43Z</time>
      </trkpt>
      <trkpt lat="40.03835" lon="-7.11485">
        <ele>677.663</ele>
        <time>2021-07-09T11:40:43Z</time>
      </trkpt>
      <trkpt lat="40.03828" lon="-7.11473">
        <ele>680.7561</ele>
        <time>2021-07-09T11:40:54Z</time>
      </trkpt>
      <trkpt lat="40.038" lon="-7.11483">
        <ele>688.5327</ele>
        <time>2021-07-09T11:41:05Z</time>
      </trkpt>
      <trkpt lat="40.03782" lon="-7.11484">
        <ele>690.2657</ele>
        <time>2021-07-09T11:41:16Z</time>
      </trkpt>
      <trkpt lat="40.03779" lon="-7.11481">
        <ele>690.9057</ele>
        <time>2021-07-09T11:41:27Z</time>
      </trkpt>
      <trkpt lat="40.03776" lon="-7.11483">
        <ele>689.1287</ele>
        <time>2021-07-09T11:41:39Z</time>
      </trkpt>
      <trkpt lat="40.03776" lon="-7.11483">
        <ele>688.2576</ele>
        <time>2021-07-09T11:42:39Z</time>
      </trkpt>
      <trkpt lat="40.03781" lon="-7.11486">
        <ele>689.6776</ele>
        <time>2021-07-09T11:42:57Z</time>
      </trkpt>
      <trkpt lat="40.03777" lon="-7.11482">
        <ele>685.2961</ele>
        <time>2021-07-09T11:43:21Z</time>
      </trkpt>
      <trkpt lat="40.03774" lon="-7.11482">
        <ele>683.4989</ele>
        <time>2021-07-09T11:44:15Z</time>
      </trkpt>
      <trkpt lat="40.03774" lon="-7.11482">
        <ele>683.9802</ele>
        <time>2021-07-09T11:45:14Z</time>
      </trkpt>
      <trkpt lat="40.03776" lon="-7.11481">
        <ele>684.212</ele>
        <time>2021-07-09T11:46:14Z</time>
      </trkpt>
      <trkpt lat="40.03776" lon="-7.1148">
        <ele>684.0422</ele>
        <time>2021-07-09T11:47:14Z</time>
      </trkpt>
      <trkpt lat="40.03777" lon="-7.11479">
        <ele>684.5122</ele>
        <time>2021-07-09T11:48:14Z</time>
      </trkpt>
      <trkpt lat="40.03776" lon="-7.1148">
        <ele>683.8748</ele>
        <time>2021-07-09T11:49:13Z</time>
      </trkpt>
      <trkpt lat="40.03779" lon="-7.11484">
        <ele>684.839</ele>
        <time>2021-07-09T11:49:34Z</time>
      </trkpt>
      <trkpt lat="40.03778" lon="-7.11477">
        <ele>683.5713</ele>
        <time>2021-07-09T11:49:49Z</time>
      </trkpt>
      <trkpt lat="40.03778" lon="-7.11477">
        <ele>684.7034</ele>
        <time>2021-07-09T11:50:49Z</time>
      </trkpt>
      <trkpt lat="40.03778" lon="-7.11483">
        <ele>684.0107</ele>
        <time>2021-07-09T11:51:24Z</time>
      </trkpt>
      <trkpt lat="40.03774" lon="-7.11472">
        <ele>687.8246</ele>
        <time>2021-07-09T11:51:35Z</time>
      </trkpt>
      <trkpt lat="40.03784" lon="-7.1148">
        <ele>683.4145</ele>
        <time>2021-07-09T11:51:46Z</time>
      </trkpt>
      <trkpt lat="40.03802" lon="-7.11478">
        <ele>677.208</ele>
        <time>2021-07-09T11:51:57Z</time>
      </trkpt>
      <trkpt lat="40.03817" lon="-7.11471">
        <ele>677.7356</ele>
        <time>2021-07-09T11:52:08Z</time>
      </trkpt>
      <trkpt lat="40.0383" lon="-7.11479">
        <ele>672.5041</ele>
        <time>2021-07-09T11:52:19Z</time>
      </trkpt>
      <trkpt lat="40.03843" lon="-7.11487">
        <ele>668.6603</ele>
        <time>2021-07-09T11:52:30Z</time>
      </trkpt>
      <trkpt lat="40.0387" lon="-7.11492">
        <ele>664.6363</ele>
        <time>2021-07-09T11:52:41Z</time>
      </trkpt>
      <trkpt lat="40.03896" lon="-7.11513">
        <ele>659.7011</ele>
        <time>2021-07-09T11:52:52Z</time>
      </trkpt>
      <trkpt lat="40.03888" lon="-7.11542">
        <ele>656.9099</ele>
        <time>2021-07-09T11:53:03Z</time>
      </trkpt>
      <trkpt lat="40.03905" lon="-7.11579">
        <ele>649.5418</ele>
        <time>2021-07-09T11:53:14Z</time>
      </trkpt>
      <trkpt lat="40.03934" lon="-7.1158">
        <ele>648.3949</ele>
        <time>2021-07-09T11:53:25Z</time>
      </trkpt>
      <trkpt lat="40.03954" lon="-7.11559">
        <ele>645.0646</ele>
        <time>2021-07-09T11:53:36Z</time>
      </trkpt>
      <trkpt lat="40.03971" lon="-7.11595">
        <ele>636.9134</ele>
        <time>2021-07-09T11:53:47Z</time>
      </trkpt>
      <trkpt lat="40.03936" lon="-7.11612">
        <ele>633.5702</ele>
        <time>2021-07-09T11:53:58Z</time>
      </trkpt>
      <trkpt lat="40.0389" lon="-7.11628">
        <ele>628.6788</ele>
        <time>2021-07-09T11:54:09Z</time>
      </trkpt>
      <trkpt lat="40.03881" lon="-7.1169">
        <ele>614.2764</ele>
        <time>2021-07-09T11:54:20Z</time>
      </trkpt>
      <trkpt lat="40.03921" lon="-7.11674">
        <ele>612.9011</ele>
        <time>2021-07-09T11:54:31Z</time>
      </trkpt>
      <trkpt lat="40.04005" lon="-7.11647">
        <ele>607.766</ele>
        <time>2021-07-09T11:54:42Z</time>
      </trkpt>
      <trkpt lat="40.04086" lon="-7.11632">
        <ele>597.3482</ele>
        <time>2021-07-09T11:54:53Z</time>
      </trkpt>
      <trkpt lat="40.04144" lon="-7.1161">
        <ele>593.5936</ele>
        <time>2021-07-09T11:55:04Z</time>
      </trkpt>
      <trkpt lat="40.04179" lon="-7.11634">
        <ele>589.6225</ele>
        <time>2021-07-09T11:55:15Z</time>
      </trkpt>
      <trkpt lat="40.04202" lon="-7.11638">
        <ele>584.5201</ele>
        <time>2021-07-09T11:55:26Z</time>
      </trkpt>
      <trkpt lat="40.04208" lon="-7.11641">
        <ele>582.6867</ele>
        <time>2021-07-09T11:56:25Z</time>
      </trkpt>
      <trkpt lat="40.04232" lon="-7.11704">
        <ele>576.5546</ele>
        <time>2021-07-09T11:56:36Z</time>
      </trkpt>
      <trkpt lat="40.04228" lon="-7.11708">
        <ele>577.3769</ele>
        <time>2021-07-09T11:56:47Z</time>
      </trkpt>
      <trkpt lat="40.04225" lon="-7.11686">
        <ele>579.1627</ele>
        <time>2021-07-09T11:56:58Z</time>
      </trkpt>
      <trkpt lat="40.04168" lon="-7.11636">
        <ele>587.2935</ele>
        <time>2021-07-09T11:57:09Z</time>
      </trkpt>
      <trkpt lat="40.04104" lon="-7.1163">
        <ele>597.435</ele>
        <time>2021-07-09T11:57:20Z</time>
      </trkpt>
      <trkpt lat="40.04007" lon="-7.11645">
        <ele>607.4132</ele>
        <time>2021-07-09T11:57:31Z</time>
      </trkpt>
      <trkpt lat="40.03922" lon="-7.11675">
        <ele>610.7377</ele>
        <time>2021-07-09T11:57:42Z</time>
      </trkpt>
      <trkpt lat="40.03881" lon="-7.11688">
        <ele>614.6259</ele>
        <time>2021-07-09T11:57:53Z</time>
      </trkpt>
      <trkpt lat="40.03897" lon="-7.11628">
        <ele>626.6954</ele>
        <time>2021-07-09T11:58:04Z</time>
      </trkpt>
      <trkpt lat="40.0396" lon="-7.11605">
        <ele>633.4146</ele>
        <time>2021-07-09T11:58:15Z</time>
      </trkpt>
      <trkpt lat="40.0397" lon="-7.11576">
        <ele>639.7424</ele>
        <time>2021-07-09T11:58:26Z</time>
      </trkpt>
      <trkpt lat="40.03952" lon="-7.11552">
        <ele>644.7338</ele>
        <time>2021-07-09T11:58:37Z</time>
      </trkpt>
      <trkpt lat="40.03932" lon="-7.1152">
        <ele>647.6165</ele>
        <time>2021-07-09T11:58:48Z</time>
      </trkpt>
      <trkpt lat="40.0393" lon="-7.11478">
        <ele>650.0628</ele>
        <time>2021-07-09T11:58:59Z</time>
      </trkpt>
      <trkpt lat="40.03945" lon="-7.11427">
        <ele>645.3042</ele>
        <time>2021-07-09T11:59:10Z</time>
      </trkpt>
      <trkpt lat="40.03986" lon="-7.11413">
        <ele>634.6847</ele>
        <time>2021-07-09T11:59:21Z</time>
      </trkpt>
      <trkpt lat="40.04" lon="-7.11412">
        <ele>628.2328</ele>
        <time>2021-07-09T11:59:32Z</time>
      </trkpt>
      <trkpt lat="40.03997" lon="-7.11413">
        <ele>628.3079</ele>
        <time>2021-07-09T12:00:09Z</time>
      </trkpt>
      <trkpt lat="40.03994" lon="-7.11417">
        <ele>629.8254</ele>
        <time>2021-07-09T12:00:56Z</time>
      </trkpt>
      <trkpt lat="40.03989" lon="-7.1142">
        <ele>630.2423</ele>
        <time>2021-07-09T12:01:07Z</time>
      </trkpt>
      <trkpt lat="40.03991" lon="-7.11421">
        <ele>630.9319</ele>
        <time>2021-07-09T12:02:07Z</time>
      </trkpt>
      <trkpt lat="40.03988" lon="-7.11419">
        <ele>631.1589</ele>
        <time>2021-07-09T12:02:53Z</time>
      </trkpt>
      <trkpt lat="40.03987" lon="-7.11419">
        <ele>631.5546</ele>
        <time>2021-07-09T12:03:52Z</time>
      </trkpt>
      <trkpt lat="40.03988" lon="-7.11421">
        <ele>631.3417</ele>
        <time>2021-07-09T12:04:52Z</time>
      </trkpt>
      <trkpt lat="40.03989" lon="-7.1142">
        <ele>631.8075</ele>
        <time>2021-07-09T12:05:52Z</time>
      </trkpt>
      <trkpt lat="40.03989" lon="-7.11419">
        <ele>632.6111</ele>
        <time>2021-07-09T12:06:52Z</time>
      </trkpt>
      <trkpt lat="40.03989" lon="-7.11419">
        <ele>632.6111</ele>
        <time>2021-07-09T12:07:52Z</time>
      </trkpt>
      <trkpt lat="40.03988" lon="-7.11419">
        <ele>632.2628</ele>
        <time>2021-07-09T12:08:52Z</time>
      </trkpt>
      <trkpt lat="40.03988" lon="-7.1142">
        <ele>631.4229</ele>
        <time>2021-07-09T12:09:52Z</time>
      </trkpt>
      <trkpt lat="40.03989" lon="-7.1142">
        <ele>631.7435</ele>
        <time>2021-07-09T12:10:52Z</time>
      </trkpt>
      <trkpt lat="40.03989" lon="-7.1142">
        <ele>631.7435</ele>
        <time>2021-07-09T12:11:52Z</time>
      </trkpt>
      <trkpt lat="40.0399" lon="-7.11421">
        <ele>631.346</ele>
        <time>2021-07-09T12:12:52Z</time>
      </trkpt>
      <trkpt lat="40.03988" lon="-7.11418">
        <ele>631.5635</ele>
        <time>2021-07-09T12:13:52Z</time>
      </trkpt>
      <trkpt lat="40.03988" lon="-7.11418">
        <ele>631.5635</ele>
        <time>2021-07-09T12:14:52Z</time>
      </trkpt>
      <trkpt lat="40.03986" lon="-7.11421">
        <ele>632.1051</ele>
        <time>2021-07-09T12:15:52Z</time>
      </trkpt>
      <trkpt lat="40.03986" lon="-7.11421">
        <ele>632.1051</ele>
        <time>2021-07-09T12:16:52Z</time>
      </trkpt>
      <trkpt lat="40.03986" lon="-7.11421">
        <ele>632.1051</ele>
        <time>2021-07-09T12:17:52Z</time>
      </trkpt>
      <trkpt lat="40.03988" lon="-7.11424">
        <ele>631.8612</ele>
        <time>2021-07-09T12:18:52Z</time>
      </trkpt>
      <trkpt lat="40.03987" lon="-7.1142">
        <ele>631.7715</ele>
        <time>2021-07-09T12:19:52Z</time>
      </trkpt>
      <trkpt lat="40.03988" lon="-7.11418">
        <ele>632.4694</ele>
        <time>2021-07-09T12:20:51Z</time>
      </trkpt>
      <trkpt lat="40.0399" lon="-7.11423">
        <ele>629.1833</ele>
        <time>2021-07-09T12:21:09Z</time>
      </trkpt>
      <trkpt lat="40.03986" lon="-7.11424">
        <ele>631.3368</ele>
        <time>2021-07-09T12:22:05Z</time>
      </trkpt>
      <trkpt lat="40.03989" lon="-7.1142">
        <ele>631.6961</ele>
        <time>2021-07-09T12:22:19Z</time>
      </trkpt>
      <trkpt lat="40.03989" lon="-7.11421">
        <ele>630.2118</ele>
        <time>2021-07-09T12:23:18Z</time>
      </trkpt>
      <trkpt lat="40.03989" lon="-7.11421">
        <ele>631.0757</ele>
        <time>2021-07-09T12:24:17Z</time>
      </trkpt>
      <trkpt lat="40.03988" lon="-7.11422">
        <ele>629.9455</ele>
        <time>2021-07-09T12:25:16Z</time>
      </trkpt>
      <trkpt lat="40.03991" lon="-7.11425">
        <ele>631.9142</ele>
        <time>2021-07-09T12:25:48Z</time>
      </trkpt>
      <trkpt lat="40.03989" lon="-7.11424">
        <ele>631.4273</ele>
        <time>2021-07-09T12:26:46Z</time>
      </trkpt>
      <trkpt lat="40.03989" lon="-7.1142">
        <ele>630.1515</ele>
        <time>2021-07-09T12:27:44Z</time>
      </trkpt>
      <trkpt lat="40.03988" lon="-7.1142">
        <ele>630.6929</ele>
        <time>2021-07-09T12:28:43Z</time>
      </trkpt>
      <trkpt lat="40.03989" lon="-7.11421">
        <ele>631.0648</ele>
        <time>2021-07-09T12:29:42Z</time>
      </trkpt>
      <trkpt lat="40.0399" lon="-7.11421">
        <ele>630.7703</ele>
        <time>2021-07-09T12:30:41Z</time>
      </trkpt>
      <trkpt lat="40.0399" lon="-7.11421">
        <ele>630.7703</ele>
        <time>2021-07-09T12:31:40Z</time>
      </trkpt>
      <trkpt lat="40.03988" lon="-7.11421">
        <ele>631.1067</ele>
        <time>2021-07-09T12:32:39Z</time>
      </trkpt>
      <trkpt lat="40.03988" lon="-7.1142">
        <ele>631.2058</ele>
        <time>2021-07-09T12:33:38Z</time>
      </trkpt>
      <trkpt lat="40.03988" lon="-7.11419">
        <ele>631.6703</ele>
        <time>2021-07-09T12:34:37Z</time>
      </trkpt>
      <trkpt lat="40.03988" lon="-7.1142">
        <ele>631.5789</ele>
        <time>2021-07-09T12:35:36Z</time>
      </trkpt>
      <trkpt lat="40.03987" lon="-7.11419">
        <ele>631.7879</ele>
        <time>2021-07-09T12:36:35Z</time>
      </trkpt>
      <trkpt lat="40.03987" lon="-7.11419">
        <ele>631.7879</ele>
        <time>2021-07-09T12:37:34Z</time>
      </trkpt>
      <trkpt lat="40.03987" lon="-7.11419">
        <ele>632.3017</ele>
        <time>2021-07-09T12:38:33Z</time>
      </trkpt>
      <trkpt lat="40.03988" lon="-7.11421">
        <ele>631.3959</ele>
        <time>2021-07-09T12:39:31Z</time>
      </trkpt>
      <trkpt lat="40.04" lon="-7.11416">
        <ele>627.8469</ele>
        <time>2021-07-09T12:39:42Z</time>
      </trkpt>
      <trkpt lat="40.04" lon="-7.11413">
        <ele>627.9792</ele>
        <time>2021-07-09T12:40:41Z</time>
      </trkpt>
      <trkpt lat="40.04001" lon="-7.11413">
        <ele>628.7139</ele>
        <time>2021-07-09T12:41:40Z</time>
      </trkpt>
      <trkpt lat="40.04001" lon="-7.11414">
        <ele>628.5716</ele>
        <time>2021-07-09T12:42:39Z</time>
      </trkpt>
      <trkpt lat="40.03998" lon="-7.11412">
        <ele>629.7163</ele>
        <time>2021-07-09T12:43:37Z</time>
      </trkpt>
      <trkpt lat="40.03998" lon="-7.11407">
        <ele>628.8783</ele>
        <time>2021-07-09T12:43:48Z</time>
      </trkpt>
      <trkpt lat="40.03997" lon="-7.11399">
        <ele>628.7597</ele>
        <time>2021-07-09T12:44:10Z</time>
      </trkpt>
      <trkpt lat="40.03992" lon="-7.11334">
        <ele>626.8647</ele>
        <time>2021-07-09T12:44:21Z</time>
      </trkpt>
      <trkpt lat="40.04004" lon="-7.11275">
        <ele>621.7522</ele>
        <time>2021-07-09T12:44:32Z</time>
      </trkpt>
      <trkpt lat="40.0401" lon="-7.11243">
        <ele>616.5725</ele>
        <time>2021-07-09T12:44:43Z</time>
      </trkpt>
      <trkpt lat="40.04014" lon="-7.11242">
        <ele>616.3713</ele>
        <time>2021-07-09T12:45:08Z</time>
      </trkpt>
      <trkpt lat="40.04017" lon="-7.1115">
        <ele>609.5818</ele>
        <time>2021-07-09T12:45:19Z</time>
      </trkpt>
      <trkpt lat="40.0402" lon="-7.11056">
        <ele>601.468</ele>
        <time>2021-07-09T12:45:30Z</time>
      </trkpt>
      <trkpt lat="40.0403" lon="-7.10993">
        <ele>592.4812</ele>
        <time>2021-07-09T12:45:41Z</time>
      </trkpt>
      <trkpt lat="40.04048" lon="-7.11027">
        <ele>588.6243</ele>
        <time>2021-07-09T12:45:52Z</time>
      </trkpt>
      <trkpt lat="40.04056" lon="-7.11061">
        <ele>589.274</ele>
        <time>2021-07-09T12:46:03Z</time>
      </trkpt>
      <trkpt lat="40.04104" lon="-7.1123">
        <ele>573.7749</ele>
        <time>2021-07-09T12:46:14Z</time>
      </trkpt>
      <trkpt lat="40.04187" lon="-7.11278">
        <ele>560.1513</ele>
        <time>2021-07-09T12:46:25Z</time>
      </trkpt>
      <trkpt lat="40.04181" lon="-7.11424">
        <ele>558.8846</ele>
        <time>2021-07-09T12:46:36Z</time>
      </trkpt>
      <trkpt lat="40.04288" lon="-7.11523">
        <ele>548.0959</ele>
        <time>2021-07-09T12:46:47Z</time>
      </trkpt>
      <trkpt lat="40.04403" lon="-7.11521">
        <ele>530.6893</ele>
        <time>2021-07-09T12:46:58Z</time>
      </trkpt>
      <trkpt lat="40.04493" lon="-7.11591">
        <ele>526.0093</ele>
        <time>2021-07-09T12:47:09Z</time>
      </trkpt>
      <trkpt lat="40.0458" lon="-7.11588">
        <ele>525.4582</ele>
        <time>2021-07-09T12:47:20Z</time>
      </trkpt>
      <trkpt lat="40.04612" lon="-7.11638">
        <ele>528.6795</ele>
        <time>2021-07-09T12:47:31Z</time>
      </trkpt>
      <trkpt lat="40.04636" lon="-7.11724">
        <ele>534.4675</ele>
        <time>2021-07-09T12:47:42Z</time>
      </trkpt>
      <trkpt lat="40.04635" lon="-7.11772">
        <ele>546.2545</ele>
        <time>2021-07-09T12:47:53Z</time>
      </trkpt>
      <trkpt lat="40.04576" lon="-7.11812">
        <ele>560.0086</ele>
        <time>2021-07-09T12:48:04Z</time>
      </trkpt>
      <trkpt lat="40.04503" lon="-7.11833">
        <ele>559.6691</ele>
        <time>2021-07-09T12:48:15Z</time>
      </trkpt>
      <trkpt lat="40.04425" lon="-7.11761">
        <ele>562.22</ele>
        <time>2021-07-09T12:48:26Z</time>
      </trkpt>
      <trkpt lat="40.04356" lon="-7.11734">
        <ele>568.9777</ele>
        <time>2021-07-09T12:48:37Z</time>
      </trkpt>
      <trkpt lat="40.04344" lon="-7.11734">
        <ele>572.4604</ele>
        <time>2021-07-09T12:48:48Z</time>
      </trkpt>
      <trkpt lat="40.04341" lon="-7.11738">
        <ele>572.3244</ele>
        <time>2021-07-09T12:49:38Z</time>
      </trkpt>
      <trkpt lat="40.04263" lon="-7.11743">
        <ele>575.1139</ele>
        <time>2021-07-09T12:49:49Z</time>
      </trkpt>
      <trkpt lat="40.04207" lon="-7.11642">
        <ele>582.0266</ele>
        <time>2021-07-09T12:50:00Z</time>
      </trkpt>
      <trkpt lat="40.04137" lon="-7.11607">
        <ele>593.1744</ele>
        <time>2021-07-09T12:50:11Z</time>
      </trkpt>
      <trkpt lat="40.04087" lon="-7.11632">
        <ele>600.213</ele>
        <time>2021-07-09T12:50:22Z</time>
      </trkpt>
      <trkpt lat="40.04077" lon="-7.11637">
        <ele>599.4892</ele>
        <time>2021-07-09T12:50:33Z</time>
      </trkpt>
      <trkpt lat="40.04083" lon="-7.11641">
        <ele>598.1061</ele>
        <time>2021-07-09T12:50:45Z</time>
      </trkpt>
      <trkpt lat="40.04087" lon="-7.11657">
        <ele>593.7162</ele>
        <time>2021-07-09T12:50:56Z</time>
      </trkpt>
      <trkpt lat="40.04066" lon="-7.1168">
        <ele>589.236</ele>
        <time>2021-07-09T12:51:07Z</time>
      </trkpt>
      <trkpt lat="40.04076" lon="-7.1171">
        <ele>580.8619</ele>
        <time>2021-07-09T12:51:18Z</time>
      </trkpt>
      <trkpt lat="40.04051" lon="-7.11721">
        <ele>578.4441</ele>
        <time>2021-07-09T12:51:29Z</time>
      </trkpt>
      <trkpt lat="40.04029" lon="-7.11738">
        <ele>573.5731</ele>
        <time>2021-07-09T12:51:40Z</time>
      </trkpt>
      <trkpt lat="40.04019" lon="-7.11751">
        <ele>569.3644</ele>
        <time>2021-07-09T12:51:51Z</time>
      </trkpt>
      <trkpt lat="40.03997" lon="-7.11759">
        <ele>564.3143</ele>
        <time>2021-07-09T12:52:02Z</time>
      </trkpt>
      <trkpt lat="40.03969" lon="-7.1179">
        <ele>558.9405</ele>
        <time>2021-07-09T12:52:13Z</time>
      </trkpt>
      <trkpt lat="40.03935" lon="-7.11826">
        <ele>552.1865</ele>
        <time>2021-07-09T12:52:24Z</time>
      </trkpt>
      <trkpt lat="40.03911" lon="-7.11839">
        <ele>552.5688</ele>
        <time>2021-07-09T12:52:35Z</time>
      </trkpt>
      <trkpt lat="40.039" lon="-7.11844">
        <ele>552.2074</ele>
        <time>2021-07-09T12:52:46Z</time>
      </trkpt>
      <trkpt lat="40.03872" lon="-7.11863">
        <ele>547.9727</ele>
        <time>2021-07-09T12:52:57Z</time>
      </trkpt>
      <trkpt lat="40.03827" lon="-7.11895">
        <ele>538.335</ele>
        <time>2021-07-09T12:53:08Z</time>
      </trkpt>
      <trkpt lat="40.03797" lon="-7.11904">
        <ele>529.9933</ele>
        <time>2021-07-09T12:53:19Z</time>
      </trkpt>
      <trkpt lat="40.03774" lon="-7.1187">
        <ele>530.4757</ele>
        <time>2021-07-09T12:53:30Z</time>
      </trkpt>
      <trkpt lat="40.03735" lon="-7.11868">
        <ele>527.2944</ele>
        <time>2021-07-09T12:53:41Z</time>
      </trkpt>
      <trkpt lat="40.03697" lon="-7.11895">
        <ele>517.8295</ele>
        <time>2021-07-09T12:53:52Z</time>
      </trkpt>
      <trkpt lat="40.03672" lon="-7.11938">
        <ele>513.2997</ele>
        <time>2021-07-09T12:54:03Z</time>
      </trkpt>
      <trkpt lat="40.03663" lon="-7.11983">
        <ele>513.0308</ele>
        <time>2021-07-09T12:54:14Z</time>
      </trkpt>
      <trkpt lat="40.03635" lon="-7.12018">
        <ele>507.9433</ele>
        <time>2021-07-09T12:54:25Z</time>
      </trkpt>
      <trkpt lat="40.03586" lon="-7.12032">
        <ele>503.3283</ele>
        <time>2021-07-09T12:54:36Z</time>
      </trkpt>
      <trkpt lat="40.03566" lon="-7.12081">
        <ele>498.7626</ele>
        <time>2021-07-09T12:54:47Z</time>
      </trkpt>
      <trkpt lat="40.03557" lon="-7.12132">
        <ele>490.0962</ele>
        <time>2021-07-09T12:54:58Z</time>
      </trkpt>
      <trkpt lat="40.03535" lon="-7.1218">
        <ele>484.3027</ele>
        <time>2021-07-09T12:55:09Z</time>
      </trkpt>
      <trkpt lat="40.03489" lon="-7.12221">
        <ele>479.3079</ele>
        <time>2021-07-09T12:55:20Z</time>
      </trkpt>
      <trkpt lat="40.03445" lon="-7.12253">
        <ele>472.6381</ele>
        <time>2021-07-09T12:55:31Z</time>
      </trkpt>
      <trkpt lat="40.03399" lon="-7.12266">
        <ele>469.4551</ele>
        <time>2021-07-09T12:55:42Z</time>
      </trkpt>
      <trkpt lat="40.03347" lon="-7.12274">
        <ele>466.4397</ele>
        <time>2021-07-09T12:55:53Z</time>
      </trkpt>
      <trkpt lat="40.03311" lon="-7.12306">
        <ele>464.6544</ele>
        <time>2021-07-09T12:56:04Z</time>
      </trkpt>
      <trkpt lat="40.0329" lon="-7.12315">
        <ele>463.1658</ele>
        <time>2021-07-09T12:56:15Z</time>
      </trkpt>
      <trkpt lat="40.03286" lon="-7.12316">
        <ele>462.8347</ele>
        <time>2021-07-09T12:56:26Z</time>
      </trkpt>
      <trkpt lat="40.03284" lon="-7.12318">
        <ele>462.2817</ele>
        <time>2021-07-09T12:57:26Z</time>
      </trkpt>
      <trkpt lat="40.03284" lon="-7.12318">
        <ele>462.2817</ele>
        <time>2021-07-09T12:58:26Z</time>
      </trkpt>
      <trkpt lat="40.03279" lon="-7.12319">
        <ele>460.7691</ele>
        <time>2021-07-09T12:59:03Z</time>
      </trkpt>
      <trkpt lat="40.03253" lon="-7.12325">
        <ele>456.7848</ele>
        <time>2021-07-09T12:59:14Z</time>
      </trkpt>
      <trkpt lat="40.03224" lon="-7.12338">
        <ele>459.3343</ele>
        <time>2021-07-09T12:59:25Z</time>
      </trkpt>
      <trkpt lat="40.0322" lon="-7.1234">
        <ele>458.5431</ele>
        <time>2021-07-09T12:59:36Z</time>
      </trkpt>
      <trkpt lat="40.0322" lon="-7.12338">
        <ele>458.6097</ele>
        <time>2021-07-09T13:00:36Z</time>
      </trkpt>
      <trkpt lat="40.0322" lon="-7.12338">
        <ele>458.6097</ele>
        <time>2021-07-09T13:01:36Z</time>
      </trkpt>
      <trkpt lat="40.0322" lon="-7.12338">
        <ele>458.6097</ele>
        <time>2021-07-09T13:02:36Z</time>
      </trkpt>
      <trkpt lat="40.0322" lon="-7.12338">
        <ele>458.6097</ele>
        <time>2021-07-09T13:03:36Z</time>
      </trkpt>
      <trkpt lat="40.03219" lon="-7.12336">
        <ele>459.9619</ele>
        <time>2021-07-09T13:04:36Z</time>
      </trkpt>
      <trkpt lat="40.03225" lon="-7.12336">
        <ele>458.8401</ele>
        <time>2021-07-09T13:04:47Z</time>
      </trkpt>
      <trkpt lat="40.03251" lon="-7.12328">
        <ele>457.5542</ele>
        <time>2021-07-09T13:04:58Z</time>
      </trkpt>
      <trkpt lat="40.03251" lon="-7.12328">
        <ele>457.1918</ele>
        <time>2021-07-09T13:05:57Z</time>
      </trkpt>
      <trkpt lat="40.03251" lon="-7.12333">
        <ele>456.2251</ele>
        <time>2021-07-09T13:06:27Z</time>
      </trkpt>
      <trkpt lat="40.03251" lon="-7.12331">
        <ele>456.7487</ele>
        <time>2021-07-09T13:07:26Z</time>
      </trkpt>
      <trkpt lat="40.03251" lon="-7.12327">
        <ele>457.7705</ele>
        <time>2021-07-09T13:08:26Z</time>
      </trkpt>
      <trkpt lat="40.0325" lon="-7.12325">
        <ele>457.6181</ele>
        <time>2021-07-09T13:09:25Z</time>
      </trkpt>
      <trkpt lat="40.03251" lon="-7.12325">
        <ele>457.6169</ele>
        <time>2021-07-09T13:10:25Z</time>
      </trkpt>
      <trkpt lat="40.03251" lon="-7.12329">
        <ele>457.652</ele>
        <time>2021-07-09T13:11:25Z</time>
      </trkpt>
      <trkpt lat="40.03251" lon="-7.12329">
        <ele>457.5886</ele>
        <time>2021-07-09T13:12:25Z</time>
      </trkpt>
      <trkpt lat="40.03251" lon="-7.12329">
        <ele>457.5886</ele>
        <time>2021-07-09T13:13:25Z</time>
      </trkpt>
      <trkpt lat="40.03251" lon="-7.12329">
        <ele>457.5886</ele>
        <time>2021-07-09T13:14:25Z</time>
      </trkpt>
      <trkpt lat="40.03251" lon="-7.12329">
        <ele>457.5886</ele>
        <time>2021-07-09T13:15:25Z</time>
      </trkpt>
      <trkpt lat="40.03251" lon="-7.12329">
        <ele>457.5886</ele>
        <time>2021-07-09T13:16:25Z</time>
      </trkpt>
      <trkpt lat="40.0325" lon="-7.12329">
        <ele>457.7514</ele>
        <time>2021-07-09T13:17:25Z</time>
      </trkpt>
      <trkpt lat="40.0325" lon="-7.12328">
        <ele>457.6257</ele>
        <time>2021-07-09T13:18:24Z</time>
      </trkpt>
      <trkpt lat="40.0325" lon="-7.12328">
        <ele>457.6452</ele>
        <time>2021-07-09T13:19:24Z</time>
      </trkpt>
      <trkpt lat="40.03251" lon="-7.12327">
        <ele>457.7111</ele>
        <time>2021-07-09T13:20:23Z</time>
      </trkpt>
      <trkpt lat="40.03251" lon="-7.12327">
        <ele>457.4999</ele>
        <time>2021-07-09T13:21:23Z</time>
      </trkpt>
      <trkpt lat="40.03251" lon="-7.12326">
        <ele>457.6514</ele>
        <time>2021-07-09T13:22:22Z</time>
      </trkpt>
      <trkpt lat="40.03252" lon="-7.12329">
        <ele>457.9237</ele>
        <time>2021-07-09T13:23:22Z</time>
      </trkpt>
      <trkpt lat="40.03251" lon="-7.12328">
        <ele>457.8201</ele>
        <time>2021-07-09T13:24:21Z</time>
      </trkpt>
      <trkpt lat="40.03251" lon="-7.12329">
        <ele>457.7499</ele>
        <time>2021-07-09T13:25:21Z</time>
      </trkpt>
      <trkpt lat="40.03252" lon="-7.1233">
        <ele>457.9075</ele>
        <time>2021-07-09T13:26:20Z</time>
      </trkpt>
      <trkpt lat="40.03256" lon="-7.12327">
        <ele>457.623</ele>
        <time>2021-07-09T13:27:11Z</time>
      </trkpt>
      <trkpt lat="40.03263" lon="-7.12326">
        <ele>458.1153</ele>
        <time>2021-07-09T13:27:22Z</time>
      </trkpt>
      <trkpt lat="40.03261" lon="-7.12325">
        <ele>458.501</ele>
        <time>2021-07-09T13:28:21Z</time>
      </trkpt>
      <trkpt lat="40.03261" lon="-7.12326">
        <ele>458.6235</ele>
        <time>2021-07-09T13:29:21Z</time>
      </trkpt>
      <trkpt lat="40.03262" lon="-7.12324">
        <ele>458.6055</ele>
        <time>2021-07-09T13:30:21Z</time>
      </trkpt>
      <trkpt lat="40.03257" lon="-7.12328">
        <ele>458.2501</ele>
        <time>2021-07-09T13:30:32Z</time>
      </trkpt>
      <trkpt lat="40.03253" lon="-7.12326">
        <ele>458.3179</ele>
        <time>2021-07-09T13:31:08Z</time>
      </trkpt>
      <trkpt lat="40.03254" lon="-7.12325">
        <ele>458.1809</ele>
        <time>2021-07-09T13:32:08Z</time>
      </trkpt>
      <trkpt lat="40.03254" lon="-7.12323">
        <ele>458.2069</ele>
        <time>2021-07-09T13:33:07Z</time>
      </trkpt>
      <trkpt lat="40.03253" lon="-7.12324">
        <ele>458.4768</ele>
        <time>2021-07-09T13:34:07Z</time>
      </trkpt>
      <trkpt lat="40.03254" lon="-7.12323">
        <ele>458.2144</ele>
        <time>2021-07-09T13:35:07Z</time>
      </trkpt>
      <trkpt lat="40.03254" lon="-7.12323">
        <ele>458.2262</ele>
        <time>2021-07-09T13:36:07Z</time>
      </trkpt>
      <trkpt lat="40.03254" lon="-7.12323">
        <ele>458.2262</ele>
        <time>2021-07-09T13:37:07Z</time>
      </trkpt>
      <trkpt lat="40.03254" lon="-7.12323">
        <ele>458.2262</ele>
        <time>2021-07-09T13:38:07Z</time>
      </trkpt>
      <trkpt lat="40.03254" lon="-7.12323">
        <ele>458.2262</ele>
        <time>2021-07-09T13:39:07Z</time>
      </trkpt>
      <trkpt lat="40.03254" lon="-7.12323">
        <ele>458.2262</ele>
        <time>2021-07-09T13:40:07Z</time>
      </trkpt>
      <trkpt lat="40.03254" lon="-7.12323">
        <ele>458.2262</ele>
        <time>2021-07-09T13:41:07Z</time>
      </trkpt>
      <trkpt lat="40.03254" lon="-7.12323">
        <ele>458.2262</ele>
        <time>2021-07-09T13:42:07Z</time>
      </trkpt>
      <trkpt lat="40.03254" lon="-7.12323">
        <ele>458.2262</ele>
        <time>2021-07-09T13:43:06Z</time>
      </trkpt>
      <trkpt lat="40.03254" lon="-7.12323">
        <ele>458.2262</ele>
        <time>2021-07-09T13:44:06Z</time>
      </trkpt>
      <trkpt lat="40.03254" lon="-7.12323">
        <ele>458.2262</ele>
        <time>2021-07-09T13:45:05Z</time>
      </trkpt>
      <trkpt lat="40.03253" lon="-7.12328">
        <ele>459.0253</ele>
        <time>2021-07-09T13:51:14Z</time>
      </trkpt>
      <trkpt lat="40.03257" lon="-7.12319">
        <ele>458.2553</ele>
        <time>2021-07-09T13:51:25Z</time>
      </trkpt>
      <trkpt lat="40.03258" lon="-7.1232">
        <ele>458.4424</ele>
        <time>2021-07-09T13:52:25Z</time>
      </trkpt>
      <trkpt lat="40.03253" lon="-7.12323">
        <ele>457.9584</ele>
        <time>2021-07-09T13:53:18Z</time>
      </trkpt>
      <trkpt lat="40.03253" lon="-7.12322">
        <ele>457.81</ele>
        <time>2021-07-09T13:54:18Z</time>
      </trkpt>
      <trkpt lat="40.03254" lon="-7.1232">
        <ele>456.8661</ele>
        <time>2021-07-09T13:55:18Z</time>
      </trkpt>
      <trkpt lat="40.03253" lon="-7.12322">
        <ele>458.1396</ele>
        <time>2021-07-09T13:56:18Z</time>
      </trkpt>
      <trkpt lat="40.03253" lon="-7.12322">
        <ele>458.1396</ele>
        <time>2021-07-09T13:57:18Z</time>
      </trkpt>
      <trkpt lat="40.03249" lon="-7.12325">
        <ele>457.9624</ele>
        <time>2021-07-09T13:57:41Z</time>
      </trkpt>
      <trkpt lat="40.03194" lon="-7.12338">
        <ele>459.6146</ele>
        <time>2021-07-09T13:57:52Z</time>
      </trkpt>
      <trkpt lat="40.03153" lon="-7.12349">
        <ele>459.4884</ele>
        <time>2021-07-09T13:58:03Z</time>
      </trkpt>
      <trkpt lat="40.03134" lon="-7.12358">
        <ele>457.4077</ele>
        <time>2021-07-09T13:58:14Z</time>
      </trkpt>
      <trkpt lat="40.03112" lon="-7.1238">
        <ele>453.9297</ele>
        <time>2021-07-09T13:58:25Z</time>
      </trkpt>
      <trkpt lat="40.03079" lon="-7.12387">
        <ele>452.8375</ele>
        <time>2021-07-09T13:58:36Z</time>
      </trkpt>
      <trkpt lat="40.03025" lon="-7.12333">
        <ele>457.4327</ele>
        <time>2021-07-09T13:58:47Z</time>
      </trkpt>
      <trkpt lat="40.02961" lon="-7.12349">
        <ele>444.5834</ele>
        <time>2021-07-09T13:58:58Z</time>
      </trkpt>
      <trkpt lat="40.02942" lon="-7.12399">
        <ele>444.815</ele>
        <time>2021-07-09T13:59:09Z</time>
      </trkpt>
      <trkpt lat="40.0293" lon="-7.12465">
        <ele>444.2471</ele>
        <time>2021-07-09T13:59:20Z</time>
      </trkpt>
      <trkpt lat="40.02837" lon="-7.1252">
        <ele>437.8658</ele>
        <time>2021-07-09T13:59:31Z</time>
      </trkpt>
      <trkpt lat="40.02784" lon="-7.12521">
        <ele>433.8112</ele>
        <time>2021-07-09T13:59:42Z</time>
      </trkpt>
      <trkpt lat="40.02783" lon="-7.12523">
        <ele>434.4583</ele>
        <time>2021-07-09T14:00:41Z</time>
      </trkpt>
      <trkpt lat="40.02786" lon="-7.12525">
        <ele>434.9756</ele>
        <time>2021-07-09T14:01:41Z</time>
      </trkpt>
      <trkpt lat="40.02785" lon="-7.12524">
        <ele>434.7649</ele>
        <time>2021-07-09T14:02:40Z</time>
      </trkpt>
      <trkpt lat="40.02784" lon="-7.12523">
        <ele>434.608</ele>
        <time>2021-07-09T14:03:40Z</time>
      </trkpt>
      <trkpt lat="40.02784" lon="-7.12524">
        <ele>434.4948</ele>
        <time>2021-07-09T14:04:39Z</time>
      </trkpt>
      <trkpt lat="40.02773" lon="-7.12523">
        <ele>433.8805</ele>
        <time>2021-07-09T14:04:50Z</time>
      </trkpt>
      <trkpt lat="40.02717" lon="-7.12521">
        <ele>426.6158</ele>
        <time>2021-07-09T14:05:01Z</time>
      </trkpt>
      <trkpt lat="40.02634" lon="-7.12554">
        <ele>416.2607</ele>
        <time>2021-07-09T14:05:12Z</time>
      </trkpt>
      <trkpt lat="40.0259" lon="-7.12598">
        <ele>410.7221</ele>
        <time>2021-07-09T14:05:23Z</time>
      </trkpt>
      <trkpt lat="40.02529" lon="-7.12649">
        <ele>407.1832</ele>
        <time>2021-07-09T14:05:34Z</time>
      </trkpt>
      <trkpt lat="40.0247" lon="-7.1275">
        <ele>411.5444</ele>
        <time>2021-07-09T14:05:45Z</time>
      </trkpt>
      <trkpt lat="40.02412" lon="-7.12842">
        <ele>400.5531</ele>
        <time>2021-07-09T14:05:56Z</time>
      </trkpt>
      <trkpt lat="40.02401" lon="-7.12936">
        <ele>388.6458</ele>
        <time>2021-07-09T14:06:07Z</time>
      </trkpt>
      <trkpt lat="40.02341" lon="-7.12972">
        <ele>389.4917</ele>
        <time>2021-07-09T14:06:18Z</time>
      </trkpt>
      <trkpt lat="40.02288" lon="-7.12906">
        <ele>392.1491</ele>
        <time>2021-07-09T14:06:29Z</time>
      </trkpt>
      <trkpt lat="40.02171" lon="-7.12918">
        <ele>398.4229</ele>
        <time>2021-07-09T14:06:40Z</time>
      </trkpt>
      <trkpt lat="40.02081" lon="-7.12898">
        <ele>395.3193</ele>
        <time>2021-07-09T14:06:51Z</time>
      </trkpt>
      <trkpt lat="40.01998" lon="-7.12826">
        <ele>399.3046</ele>
        <time>2021-07-09T14:07:02Z</time>
      </trkpt>
      <trkpt lat="40.01905" lon="-7.12786">
        <ele>399.0768</ele>
        <time>2021-07-09T14:07:13Z</time>
      </trkpt>
      <trkpt lat="40.01774" lon="-7.12943">
        <ele>404.1828</ele>
        <time>2021-07-09T14:07:24Z</time>
      </trkpt>
      <trkpt lat="40.01641" lon="-7.13143">
        <ele>411.0033</ele>
        <time>2021-07-09T14:07:35Z</time>
      </trkpt>
      <trkpt lat="40.01515" lon="-7.13396">
        <ele>418.9463</ele>
        <time>2021-07-09T14:07:46Z</time>
      </trkpt>
      <trkpt lat="40.0138" lon="-7.13548">
        <ele>421.3923</ele>
        <time>2021-07-09T14:07:57Z</time>
      </trkpt>
      <trkpt lat="40.01393" lon="-7.13711">
        <ele>417.2638</ele>
        <time>2021-07-09T14:08:08Z</time>
      </trkpt>
      <trkpt lat="40.01425" lon="-7.13937">
        <ele>403.5574</ele>
        <time>2021-07-09T14:08:19Z</time>
      </trkpt>
      <trkpt lat="40.01518" lon="-7.14074">
        <ele>394.7145</ele>
        <time>2021-07-09T14:08:30Z</time>
      </trkpt>
      <trkpt lat="40.01438" lon="-7.1431">
        <ele>387.7586</ele>
        <time>2021-07-09T14:08:41Z</time>
      </trkpt>
      <trkpt lat="40.01279" lon="-7.1446">
        <ele>375.758</ele>
        <time>2021-07-09T14:08:52Z</time>
      </trkpt>
      <trkpt lat="40.01121" lon="-7.14608">
        <ele>362.8634</ele>
        <time>2021-07-09T14:09:03Z</time>
      </trkpt>
      <trkpt lat="40.0095" lon="-7.14673">
        <ele>341.3422</ele>
        <time>2021-07-09T14:09:14Z</time>
      </trkpt>
      <trkpt lat="40.00817" lon="-7.14882">
        <ele>329.4606</ele>
        <time>2021-07-09T14:09:25Z</time>
      </trkpt>
      <trkpt lat="40.00686" lon="-7.15086">
        <ele>322.1683</ele>
        <time>2021-07-09T14:09:36Z</time>
      </trkpt>
      <trkpt lat="40.0057" lon="-7.15271">
        <ele>316.0593</ele>
        <time>2021-07-09T14:09:47Z</time>
      </trkpt>
      <trkpt lat="40.00525" lon="-7.15423">
        <ele>303.8928</ele>
        <time>2021-07-09T14:09:58Z</time>
      </trkpt>
      <trkpt lat="40.00439" lon="-7.15385">
        <ele>301.7392</ele>
        <time>2021-07-09T14:10:09Z</time>
      </trkpt>
      <trkpt lat="40.00221" lon="-7.15266">
        <ele>289.8959</ele>
        <time>2021-07-09T14:10:20Z</time>
      </trkpt>
      <trkpt lat="40.0003" lon="-7.15162">
        <ele>277.4037</ele>
        <time>2021-07-09T14:10:31Z</time>
      </trkpt>
      <trkpt lat="39.99888" lon="-7.15084">
        <ele>272.3244</ele>
        <time>2021-07-09T14:10:42Z</time>
      </trkpt>
      <trkpt lat="39.99889" lon="-7.14932">
        <ele>276.039</ele>
        <time>2021-07-09T14:10:53Z</time>
      </trkpt>
      <trkpt lat="39.99874" lon="-7.14672">
        <ele>277.1078</ele>
        <time>2021-07-09T14:11:04Z</time>
      </trkpt>
      <trkpt lat="39.99853" lon="-7.14552">
        <ele>283.064</ele>
        <time>2021-07-09T14:11:15Z</time>
      </trkpt>
      <trkpt lat="39.9983" lon="-7.14452">
        <ele>282.2255</ele>
        <time>2021-07-09T14:11:26Z</time>
      </trkpt>
      <trkpt lat="39.99825" lon="-7.14447">
        <ele>282.1655</ele>
        <time>2021-07-09T14:11:49Z</time>
      </trkpt>
      <trkpt lat="39.99745" lon="-7.14442">
        <ele>280.654</ele>
        <time>2021-07-09T14:12:00Z</time>
      </trkpt>
      <trkpt lat="39.99702" lon="-7.14431">
        <ele>284.6467</ele>
        <time>2021-07-09T14:12:11Z</time>
      </trkpt>
      <trkpt lat="39.99676" lon="-7.14394">
        <ele>281.1449</ele>
        <time>2021-07-09T14:12:22Z</time>
      </trkpt>
      <trkpt lat="39.99648" lon="-7.14371">
        <ele>281.2278</ele>
        <time>2021-07-09T14:12:33Z</time>
      </trkpt>
      <trkpt lat="39.99651" lon="-7.14299">
        <ele>279.0065</ele>
        <time>2021-07-09T14:12:44Z</time>
      </trkpt>
      <trkpt lat="39.9964" lon="-7.14281">
        <ele>277.0482</ele>
        <time>2021-07-09T14:12:55Z</time>
      </trkpt>
      <trkpt lat="39.99581" lon="-7.14269">
        <ele>268.5155</ele>
        <time>2021-07-09T14:13:06Z</time>
      </trkpt>
      <trkpt lat="39.99548" lon="-7.14232">
        <ele>268.5452</ele>
        <time>2021-07-09T14:13:17Z</time>
      </trkpt>
      <trkpt lat="39.99553" lon="-7.14167">
        <ele>264.5045</ele>
        <time>2021-07-09T14:13:28Z</time>
      </trkpt>
      <trkpt lat="39.99536" lon="-7.14087">
        <ele>269.8955</ele>
        <time>2021-07-09T14:13:39Z</time>
      </trkpt>
      <trkpt lat="39.99598" lon="-7.13987">
        <ele>275.195</ele>
        <time>2021-07-09T14:13:50Z</time>
      </trkpt>
      <trkpt lat="39.9963" lon="-7.13884">
        <ele>271.4233</ele>
        <time>2021-07-09T14:14:01Z</time>
      </trkpt>
      <trkpt lat="39.99673" lon="-7.13749">
        <ele>272.9554</ele>
        <time>2021-07-09T14:14:12Z</time>
      </trkpt>
      <trkpt lat="39.9975" lon="-7.13606">
        <ele>278.1699</ele>
        <time>2021-07-09T14:14:23Z</time>
      </trkpt>
      <trkpt lat="39.99789" lon="-7.13482">
        <ele>290.0844</ele>
        <time>2021-07-09T14:14:34Z</time>
      </trkpt>
      <trkpt lat="39.99782" lon="-7.13365">
        <ele>300.2008</ele>
        <time>2021-07-09T14:14:45Z</time>
      </trkpt>
      <trkpt lat="39.99799" lon="-7.13225">
        <ele>303.5368</ele>
        <time>2021-07-09T14:14:56Z</time>
      </trkpt>
      <trkpt lat="39.99797" lon="-7.13078">
        <ele>324.8665</ele>
        <time>2021-07-09T14:15:07Z</time>
      </trkpt>
      <trkpt lat="39.99799" lon="-7.12955">
        <ele>324.7069</ele>
        <time>2021-07-09T14:15:18Z</time>
      </trkpt>
      <trkpt lat="39.99861" lon="-7.12786">
        <ele>316.7484</ele>
        <time>2021-07-09T14:15:29Z</time>
      </trkpt>
      <trkpt lat="39.99922" lon="-7.12637">
        <ele>326.467</ele>
        <time>2021-07-09T14:15:40Z</time>
      </trkpt>
      <trkpt lat="39.9994" lon="-7.1247">
        <ele>324.1259</ele>
        <time>2021-07-09T14:15:51Z</time>
      </trkpt>
      <trkpt lat="39.99973" lon="-7.12323">
        <ele>317.5879</ele>
        <time>2021-07-09T14:16:02Z</time>
      </trkpt>
      <trkpt lat="39.9995" lon="-7.12196">
        <ele>316.2844</ele>
        <time>2021-07-09T14:16:13Z</time>
      </trkpt>
      <trkpt lat="39.99935" lon="-7.12036">
        <ele>309.8962</ele>
        <time>2021-07-09T14:16:24Z</time>
      </trkpt>
      <trkpt lat="39.99898" lon="-7.11891">
        <ele>311.9781</ele>
        <time>2021-07-09T14:16:35Z</time>
      </trkpt>
      <trkpt lat="39.99841" lon="-7.11848">
        <ele>314.0976</ele>
        <time>2021-07-09T14:16:46Z</time>
      </trkpt>
      <trkpt lat="39.99755" lon="-7.11831">
        <ele>319.1959</ele>
        <time>2021-07-09T14:16:57Z</time>
      </trkpt>
      <trkpt lat="39.99665" lon="-7.11902">
        <ele>326.4357</ele>
        <time>2021-07-09T14:17:08Z</time>
      </trkpt>
      <trkpt lat="39.99619" lon="-7.11967">
        <ele>339.167</ele>
        <time>2021-07-09T14:17:19Z</time>
      </trkpt>
      <trkpt lat="39.99556" lon="-7.11924">
        <ele>348.5715</ele>
        <time>2021-07-09T14:17:30Z</time>
      </trkpt>
      <trkpt lat="39.995" lon="-7.11852">
        <ele>349.2846</ele>
        <time>2021-07-09T14:17:41Z</time>
      </trkpt>
      <trkpt lat="39.99445" lon="-7.11767">
        <ele>349.6368</ele>
        <time>2021-07-09T14:17:52Z</time>
      </trkpt>
      <trkpt lat="39.99409" lon="-7.11636">
        <ele>331.003</ele>
        <time>2021-07-09T14:18:03Z</time>
      </trkpt>
      <trkpt lat="39.9935" lon="-7.11559">
        <ele>343.9856</ele>
        <time>2021-07-09T14:18:14Z</time>
      </trkpt>
      <trkpt lat="39.99268" lon="-7.11456">
        <ele>349.5067</ele>
        <time>2021-07-09T14:18:25Z</time>
      </trkpt>
      <trkpt lat="39.99215" lon="-7.11347">
        <ele>347.5092</ele>
        <time>2021-07-09T14:18:36Z</time>
      </trkpt>
      <trkpt lat="39.99142" lon="-7.11263">
        <ele>337.1206</ele>
        <time>2021-07-09T14:18:47Z</time>
      </trkpt>
      <trkpt lat="39.99095" lon="-7.11197">
        <ele>343.9562</ele>
        <time>2021-07-09T14:18:58Z</time>
      </trkpt>
      <trkpt lat="39.99076" lon="-7.11123">
        <ele>360.7805</ele>
        <time>2021-07-09T14:19:09Z</time>
      </trkpt>
      <trkpt lat="39.99039" lon="-7.1103">
        <ele>363.0272</ele>
        <time>2021-07-09T14:19:20Z</time>
      </trkpt>
      <trkpt lat="39.9899" lon="-7.10933">
        <ele>356.1194</ele>
        <time>2021-07-09T14:19:31Z</time>
      </trkpt>
      <trkpt lat="39.98948" lon="-7.10839">
        <ele>366.909</ele>
        <time>2021-07-09T14:19:42Z</time>
      </trkpt>
      <trkpt lat="39.98871" lon="-7.10791">
        <ele>376.2543</ele>
        <time>2021-07-09T14:19:53Z</time>
      </trkpt>
      <trkpt lat="39.98794" lon="-7.10711">
        <ele>383.537</ele>
        <time>2021-07-09T14:20:04Z</time>
      </trkpt>
      <trkpt lat="39.98724" lon="-7.10718">
        <ele>378.8969</ele>
        <time>2021-07-09T14:20:15Z</time>
      </trkpt>
      <trkpt lat="39.98613" lon="-7.10844">
        <ele>392.2741</ele>
        <time>2021-07-09T14:20:26Z</time>
      </trkpt>
      <trkpt lat="39.98506" lon="-7.10888">
        <ele>396.1814</ele>
        <time>2021-07-09T14:20:37Z</time>
      </trkpt>
      <trkpt lat="39.98394" lon="-7.10946">
        <ele>397.1878</ele>
        <time>2021-07-09T14:20:48Z</time>
      </trkpt>
      <trkpt lat="39.98329" lon="-7.1099">
        <ele>404.5835</ele>
        <time>2021-07-09T14:20:59Z</time>
      </trkpt>
      <trkpt lat="39.9827" lon="-7.10982">
        <ele>408.8248</ele>
        <time>2021-07-09T14:21:10Z</time>
      </trkpt>
      <trkpt lat="39.98186" lon="-7.10955">
        <ele>407.2964</ele>
        <time>2021-07-09T14:21:21Z</time>
      </trkpt>
      <trkpt lat="39.98096" lon="-7.1099">
        <ele>401.9618</ele>
        <time>2021-07-09T14:21:32Z</time>
      </trkpt>
      <trkpt lat="39.98001" lon="-7.10947">
        <ele>406.3815</ele>
        <time>2021-07-09T14:21:43Z</time>
      </trkpt>
      <trkpt lat="39.97897" lon="-7.1094">
        <ele>408.3197</ele>
        <time>2021-07-09T14:21:54Z</time>
      </trkpt>
      <trkpt lat="39.9789" lon="-7.10981">
        <ele>410.7117</ele>
        <time>2021-07-09T14:22:05Z</time>
      </trkpt>
      <trkpt lat="39.97887" lon="-7.10978">
        <ele>412.4457</ele>
        <time>2021-07-09T14:22:31Z</time>
      </trkpt>
      <trkpt lat="39.97869" lon="-7.10919">
        <ele>411.4465</ele>
        <time>2021-07-09T14:22:42Z</time>
      </trkpt>
      <trkpt lat="39.97857" lon="-7.10835">
        <ele>408.0299</ele>
        <time>2021-07-09T14:22:53Z</time>
      </trkpt>
      <trkpt lat="39.97937" lon="-7.10746">
        <ele>411.9487</ele>
        <time>2021-07-09T14:23:04Z</time>
      </trkpt>
      <trkpt lat="39.9798" lon="-7.10646">
        <ele>404.7879</ele>
        <time>2021-07-09T14:23:15Z</time>
      </trkpt>
      <trkpt lat="39.97958" lon="-7.10538">
        <ele>395.607</ele>
        <time>2021-07-09T14:23:26Z</time>
      </trkpt>
      <trkpt lat="39.98008" lon="-7.10462">
        <ele>396.1358</ele>
        <time>2021-07-09T14:23:37Z</time>
      </trkpt>
      <trkpt lat="39.98065" lon="-7.10395">
        <ele>393.0519</ele>
        <time>2021-07-09T14:23:48Z</time>
      </trkpt>
      <trkpt lat="39.98124" lon="-7.10351">
        <ele>398.7836</ele>
        <time>2021-07-09T14:23:59Z</time>
      </trkpt>
      <trkpt lat="39.9814" lon="-7.10326">
        <ele>393.2395</ele>
        <time>2021-07-09T14:24:10Z</time>
      </trkpt>
      <trkpt lat="39.98127" lon="-7.10232">
        <ele>392.755</ele>
        <time>2021-07-09T14:24:21Z</time>
      </trkpt>
      <trkpt lat="39.98068" lon="-7.10207">
        <ele>386.8147</ele>
        <time>2021-07-09T14:24:32Z</time>
      </trkpt>
      <trkpt lat="39.97984" lon="-7.10178">
        <ele>379.3695</ele>
        <time>2021-07-09T14:24:43Z</time>
      </trkpt>
      <trkpt lat="39.97941" lon="-7.10124">
        <ele>384.3252</ele>
        <time>2021-07-09T14:24:54Z</time>
      </trkpt>
      <trkpt lat="39.97854" lon="-7.10158">
        <ele>392.4648</ele>
        <time>2021-07-09T14:25:05Z</time>
      </trkpt>
      <trkpt lat="39.97782" lon="-7.10173">
        <ele>401.6303</ele>
        <time>2021-07-09T14:25:16Z</time>
      </trkpt>
      <trkpt lat="39.97741" lon="-7.10065">
        <ele>402.3681</ele>
        <time>2021-07-09T14:25:27Z</time>
      </trkpt>
      <trkpt lat="39.9768" lon="-7.10014">
        <ele>398.4304</ele>
        <time>2021-07-09T14:25:38Z</time>
      </trkpt>
      <trkpt lat="39.97629" lon="-7.09978">
        <ele>390.8436</ele>
        <time>2021-07-09T14:25:49Z</time>
      </trkpt>
      <trkpt lat="39.97555" lon="-7.10053">
        <ele>399.9095</ele>
        <time>2021-07-09T14:26:00Z</time>
      </trkpt>
      <trkpt lat="39.97474" lon="-7.10083">
        <ele>403.1465</ele>
        <time>2021-07-09T14:26:11Z</time>
      </trkpt>
      <trkpt lat="39.97395" lon="-7.10082">
        <ele>391.7092</ele>
        <time>2021-07-09T14:26:22Z</time>
      </trkpt>
      <trkpt lat="39.97299" lon="-7.10101">
        <ele>402.7787</ele>
        <time>2021-07-09T14:26:33Z</time>
      </trkpt>
      <trkpt lat="39.97214" lon="-7.10097">
        <ele>408.302</ele>
        <time>2021-07-09T14:26:44Z</time>
      </trkpt>
      <trkpt lat="39.97102" lon="-7.10106">
        <ele>421.1847</ele>
        <time>2021-07-09T14:26:55Z</time>
      </trkpt>
      <trkpt lat="39.96987" lon="-7.10145">
        <ele>422.1945</ele>
        <time>2021-07-09T14:27:06Z</time>
      </trkpt>
      <trkpt lat="39.96885" lon="-7.10173">
        <ele>424.0902</ele>
        <time>2021-07-09T14:27:17Z</time>
      </trkpt>
      <trkpt lat="39.96814" lon="-7.10137">
        <ele>430.2904</ele>
        <time>2021-07-09T14:27:28Z</time>
      </trkpt>
      <trkpt lat="39.9675" lon="-7.10056">
        <ele>425.8646</ele>
        <time>2021-07-09T14:27:39Z</time>
      </trkpt>
      <trkpt lat="39.96701" lon="-7.09926">
        <ele>424.4252</ele>
        <time>2021-07-09T14:27:50Z</time>
      </trkpt>
      <trkpt lat="39.96609" lon="-7.09908">
        <ele>422.4259</ele>
        <time>2021-07-09T14:28:01Z</time>
      </trkpt>
      <trkpt lat="39.96549" lon="-7.09812">
        <ele>424.4707</ele>
        <time>2021-07-09T14:28:12Z</time>
      </trkpt>
      <trkpt lat="39.96474" lon="-7.0973">
        <ele>428.4905</ele>
        <time>2021-07-09T14:28:23Z</time>
      </trkpt>
      <trkpt lat="39.96434" lon="-7.09732">
        <ele>429.8375</ele>
        <time>2021-07-09T14:28:34Z</time>
      </trkpt>
      <trkpt lat="39.96368" lon="-7.09814">
        <ele>426.487</ele>
        <time>2021-07-09T14:28:45Z</time>
      </trkpt>
      <trkpt lat="39.96316" lon="-7.09917">
        <ele>422.9977</ele>
        <time>2021-07-09T14:28:56Z</time>
      </trkpt>
      <trkpt lat="39.96237" lon="-7.10034">
        <ele>424.3794</ele>
        <time>2021-07-09T14:29:07Z</time>
      </trkpt>
      <trkpt lat="39.96156" lon="-7.10188">
        <ele>423.1346</ele>
        <time>2021-07-09T14:29:18Z</time>
      </trkpt>
      <trkpt lat="39.96077" lon="-7.10309">
        <ele>422.1629</ele>
        <time>2021-07-09T14:29:29Z</time>
      </trkpt>
      <trkpt lat="39.96021" lon="-7.1042">
        <ele>423.0799</ele>
        <time>2021-07-09T14:29:40Z</time>
      </trkpt>
      <trkpt lat="39.95918" lon="-7.1047">
        <ele>419.8946</ele>
        <time>2021-07-09T14:29:51Z</time>
      </trkpt>
      <trkpt lat="39.95809" lon="-7.10416">
        <ele>418.1055</ele>
        <time>2021-07-09T14:30:02Z</time>
      </trkpt>
      <trkpt lat="39.95707" lon="-7.10349">
        <ele>416.1174</ele>
        <time>2021-07-09T14:30:13Z</time>
      </trkpt>
      <trkpt lat="39.95592" lon="-7.10405">
        <ele>416.1065</ele>
        <time>2021-07-09T14:30:24Z</time>
      </trkpt>
      <trkpt lat="39.95448" lon="-7.10478">
        <ele>416.898</ele>
        <time>2021-07-09T14:30:35Z</time>
      </trkpt>
      <trkpt lat="39.95371" lon="-7.10534">
        <ele>406.0213</ele>
        <time>2021-07-09T14:30:46Z</time>
      </trkpt>
      <trkpt lat="39.95328" lon="-7.10535">
        <ele>409.3118</ele>
        <time>2021-07-09T14:30:57Z</time>
      </trkpt>
      <trkpt lat="39.95334" lon="-7.10536">
        <ele>409.357</ele>
        <time>2021-07-09T14:31:16Z</time>
      </trkpt>
      <trkpt lat="39.95357" lon="-7.10559">
        <ele>411.8634</ele>
        <time>2021-07-09T14:31:27Z</time>
      </trkpt>
      <trkpt lat="39.95289" lon="-7.10607">
        <ele>410.701</ele>
        <time>2021-07-09T14:31:38Z</time>
      </trkpt>
      <trkpt lat="39.95204" lon="-7.10628">
        <ele>408.2518</ele>
        <time>2021-07-09T14:31:49Z</time>
      </trkpt>
      <trkpt lat="39.95121" lon="-7.10657">
        <ele>407.2489</ele>
        <time>2021-07-09T14:32:00Z</time>
      </trkpt>
      <trkpt lat="39.95054" lon="-7.10708">
        <ele>409.5871</ele>
        <time>2021-07-09T14:32:11Z</time>
      </trkpt>
      <trkpt lat="39.9497" lon="-7.10769">
        <ele>365.92</ele>
        <time>2021-07-09T14:32:22Z</time>
      </trkpt>
      <trkpt lat="39.94921" lon="-7.10819">
        <ele>401.082</ele>
        <time>2021-07-09T14:32:33Z</time>
      </trkpt>
      <trkpt lat="39.94875" lon="-7.10776">
        <ele>399.8226</ele>
        <time>2021-07-09T14:32:44Z</time>
      </trkpt>
      <trkpt lat="39.94793" lon="-7.10827">
        <ele>398.4687</ele>
        <time>2021-07-09T14:32:55Z</time>
      </trkpt>
      <trkpt lat="39.94737" lon="-7.10935">
        <ele>399.582</ele>
        <time>2021-07-09T14:33:06Z</time>
      </trkpt>
      <trkpt lat="39.94667" lon="-7.11037">
        <ele>400.5198</ele>
        <time>2021-07-09T14:33:17Z</time>
      </trkpt>
      <trkpt lat="39.94581" lon="-7.11129">
        <ele>397.3115</ele>
        <time>2021-07-09T14:33:28Z</time>
      </trkpt>
      <trkpt lat="39.94483" lon="-7.11161">
        <ele>397.4032</ele>
        <time>2021-07-09T14:33:39Z</time>
      </trkpt>
      <trkpt lat="39.94431" lon="-7.11282">
        <ele>394.3738</ele>
        <time>2021-07-09T14:33:50Z</time>
      </trkpt>
      <trkpt lat="39.94401" lon="-7.11411">
        <ele>390.8758</ele>
        <time>2021-07-09T14:34:01Z</time>
      </trkpt>
      <trkpt lat="39.9439" lon="-7.11527">
        <ele>389.4105</ele>
        <time>2021-07-09T14:34:12Z</time>
      </trkpt>
      <trkpt lat="39.94384" lon="-7.11663">
        <ele>386.0006</ele>
        <time>2021-07-09T14:34:23Z</time>
      </trkpt>
      <trkpt lat="39.94382" lon="-7.11795">
        <ele>389.5594</ele>
        <time>2021-07-09T14:34:34Z</time>
      </trkpt>
      <trkpt lat="39.94432" lon="-7.11876">
        <ele>391.3201</ele>
        <time>2021-07-09T14:34:45Z</time>
      </trkpt>
      <trkpt lat="39.94436" lon="-7.11882">
        <ele>390.4863</ele>
        <time>2021-07-09T14:34:56Z</time>
      </trkpt>
      <trkpt lat="39.94438" lon="-7.11882">
        <ele>390.1747</ele>
        <time>2021-07-09T14:35:56Z</time>
      </trkpt>
      <trkpt lat="39.94441" lon="-7.11883">
        <ele>390.2661</ele>
        <time>2021-07-09T14:36:44Z</time>
      </trkpt>
      <trkpt lat="39.94459" lon="-7.11913">
        <ele>389.171</ele>
        <time>2021-07-09T14:36:55Z</time>
      </trkpt>
      <trkpt lat="39.94547" lon="-7.12062">
        <ele>381.9635</ele>
        <time>2021-07-09T14:37:06Z</time>
      </trkpt>
      <trkpt lat="39.94563" lon="-7.12195">
        <ele>384.4911</ele>
        <time>2021-07-09T14:37:17Z</time>
      </trkpt>
      <trkpt lat="39.94588" lon="-7.12365">
        <ele>374.7405</ele>
        <time>2021-07-09T14:37:28Z</time>
      </trkpt>
      <trkpt lat="39.94623" lon="-7.12499">
        <ele>366.2306</ele>
        <time>2021-07-09T14:37:39Z</time>
      </trkpt>
      <trkpt lat="39.94616" lon="-7.12566">
        <ele>359.9456</ele>
        <time>2021-07-09T14:37:50Z</time>
      </trkpt>
      <trkpt lat="39.94537" lon="-7.12696">
        <ele>351.9293</ele>
        <time>2021-07-09T14:38:01Z</time>
      </trkpt>
      <trkpt lat="39.94431" lon="-7.1284">
        <ele>352.1531</ele>
        <time>2021-07-09T14:38:12Z</time>
      </trkpt>
      <trkpt lat="39.94354" lon="-7.12956">
        <ele>350.1469</ele>
        <time>2021-07-09T14:38:23Z</time>
      </trkpt>
      <trkpt lat="39.94242" lon="-7.13041">
        <ele>356.5226</ele>
        <time>2021-07-09T14:38:34Z</time>
      </trkpt>
      <trkpt lat="39.94116" lon="-7.13071">
        <ele>353.1562</ele>
        <time>2021-07-09T14:38:45Z</time>
      </trkpt>
      <trkpt lat="39.94016" lon="-7.13175">
        <ele>349.6205</ele>
        <time>2021-07-09T14:38:56Z</time>
      </trkpt>
      <trkpt lat="39.93909" lon="-7.13255">
        <ele>346.2229</ele>
        <time>2021-07-09T14:39:07Z</time>
      </trkpt>
      <trkpt lat="39.93784" lon="-7.13324">
        <ele>351.8081</ele>
        <time>2021-07-09T14:39:18Z</time>
      </trkpt>
      <trkpt lat="39.93651" lon="-7.13388">
        <ele>352.4066</ele>
        <time>2021-07-09T14:39:29Z</time>
      </trkpt>
      <trkpt lat="39.93531" lon="-7.1346">
        <ele>348.8814</ele>
        <time>2021-07-09T14:39:40Z</time>
      </trkpt>
      <trkpt lat="39.93419" lon="-7.13551">
        <ele>353.0525</ele>
        <time>2021-07-09T14:39:51Z</time>
      </trkpt>
      <trkpt lat="39.93285" lon="-7.13623">
        <ele>352.419</ele>
        <time>2021-07-09T14:40:02Z</time>
      </trkpt>
      <trkpt lat="39.93156" lon="-7.13702">
        <ele>348.3776</ele>
        <time>2021-07-09T14:40:13Z</time>
      </trkpt>
      <trkpt lat="39.93017" lon="-7.13718">
        <ele>347.4417</ele>
        <time>2021-07-09T14:40:24Z</time>
      </trkpt>
      <trkpt lat="39.92892" lon="-7.13756">
        <ele>343.0208</ele>
        <time>2021-07-09T14:40:35Z</time>
      </trkpt>
      <trkpt lat="39.92801" lon="-7.13801">
        <ele>340.3435</ele>
        <time>2021-07-09T14:40:46Z</time>
      </trkpt>
      <trkpt lat="39.9274" lon="-7.1394">
        <ele>339.7684</ele>
        <time>2021-07-09T14:40:57Z</time>
      </trkpt>
      <trkpt lat="39.92631" lon="-7.14036">
        <ele>336.6372</ele>
        <time>2021-07-09T14:41:08Z</time>
      </trkpt>
      <trkpt lat="39.92528" lon="-7.14112">
        <ele>341.0521</ele>
        <time>2021-07-09T14:41:19Z</time>
      </trkpt>
      <trkpt lat="39.92407" lon="-7.14116">
        <ele>343.6984</ele>
        <time>2021-07-09T14:41:30Z</time>
      </trkpt>
      <trkpt lat="39.92275" lon="-7.14101">
        <ele>345.1755</ele>
        <time>2021-07-09T14:41:41Z</time>
      </trkpt>
      <trkpt lat="39.92132" lon="-7.14147">
        <ele>348.119</ele>
        <time>2021-07-09T14:41:52Z</time>
      </trkpt>
      <trkpt lat="39.92005" lon="-7.14208">
        <ele>346.0892</ele>
        <time>2021-07-09T14:42:03Z</time>
      </trkpt>
      <trkpt lat="39.91891" lon="-7.14324">
        <ele>338.8225</ele>
        <time>2021-07-09T14:42:14Z</time>
      </trkpt>
      <trkpt lat="39.91806" lon="-7.14471">
        <ele>339.8719</ele>
        <time>2021-07-09T14:42:25Z</time>
      </trkpt>
      <trkpt lat="39.91723" lon="-7.14615">
        <ele>340.3006</ele>
        <time>2021-07-09T14:42:36Z</time>
      </trkpt>
      <trkpt lat="39.91662" lon="-7.14763">
        <ele>328.8535</ele>
        <time>2021-07-09T14:42:47Z</time>
      </trkpt>
      <trkpt lat="39.91562" lon="-7.14859">
        <ele>333.8852</ele>
        <time>2021-07-09T14:42:58Z</time>
      </trkpt>
      <trkpt lat="39.91437" lon="-7.14906">
        <ele>334.3662</ele>
        <time>2021-07-09T14:43:09Z</time>
      </trkpt>
      <trkpt lat="39.91338" lon="-7.14999">
        <ele>336.7765</ele>
        <time>2021-07-09T14:43:20Z</time>
      </trkpt>
      <trkpt lat="39.91264" lon="-7.15134">
        <ele>342.2952</ele>
        <time>2021-07-09T14:43:31Z</time>
      </trkpt>
      <trkpt lat="39.912" lon="-7.15281">
        <ele>339.3609</ele>
        <time>2021-07-09T14:43:42Z</time>
      </trkpt>
      <trkpt lat="39.91163" lon="-7.15471">
        <ele>325.9687</ele>
        <time>2021-07-09T14:43:53Z</time>
      </trkpt>
      <trkpt lat="39.9113" lon="-7.15679">
        <ele>325.3255</ele>
        <time>2021-07-09T14:44:04Z</time>
      </trkpt>
      <trkpt lat="39.91106" lon="-7.15867">
        <ele>321.6584</ele>
        <time>2021-07-09T14:44:15Z</time>
      </trkpt>
      <trkpt lat="39.91091" lon="-7.16045">
        <ele>333.7993</ele>
        <time>2021-07-09T14:44:26Z</time>
      </trkpt>
      <trkpt lat="39.91027" lon="-7.16176">
        <ele>342.2884</ele>
        <time>2021-07-09T14:44:37Z</time>
      </trkpt>
      <trkpt lat="39.91001" lon="-7.16338">
        <ele>338.5374</ele>
        <time>2021-07-09T14:44:48Z</time>
      </trkpt>
      <trkpt lat="39.90981" lon="-7.16508">
        <ele>325.4728</ele>
        <time>2021-07-09T14:44:59Z</time>
      </trkpt>
      <trkpt lat="39.90916" lon="-7.16661">
        <ele>324.0805</ele>
        <time>2021-07-09T14:45:10Z</time>
      </trkpt>
      <trkpt lat="39.9089" lon="-7.16795">
        <ele>324.4393</ele>
        <time>2021-07-09T14:45:21Z</time>
      </trkpt>
      <trkpt lat="39.90858" lon="-7.16932">
        <ele>322.6048</ele>
        <time>2021-07-09T14:45:32Z</time>
      </trkpt>
      <trkpt lat="39.90891" lon="-7.17046">
        <ele>332.8944</ele>
        <time>2021-07-09T14:45:43Z</time>
      </trkpt>
      <trkpt lat="39.90843" lon="-7.17189">
        <ele>334.6719</ele>
        <time>2021-07-09T14:45:54Z</time>
      </trkpt>
      <trkpt lat="39.90871" lon="-7.17313">
        <ele>332.8371</ele>
        <time>2021-07-09T14:46:05Z</time>
      </trkpt>
      <trkpt lat="39.91004" lon="-7.17424">
        <ele>322.1215</ele>
        <time>2021-07-09T14:46:16Z</time>
      </trkpt>
      <trkpt lat="39.91161" lon="-7.17546">
        <ele>318.6158</ele>
        <time>2021-07-09T14:46:27Z</time>
      </trkpt>
      <trkpt lat="39.91326" lon="-7.17654">
        <ele>316.4642</ele>
        <time>2021-07-09T14:46:38Z</time>
      </trkpt>
      <trkpt lat="39.91508" lon="-7.17749">
        <ele>313.1864</ele>
        <time>2021-07-09T14:46:49Z</time>
      </trkpt>
      <trkpt lat="39.91686" lon="-7.17848">
        <ele>307.9978</ele>
        <time>2021-07-09T14:47:00Z</time>
      </trkpt>
      <trkpt lat="39.91868" lon="-7.17919">
        <ele>292.7293</ele>
        <time>2021-07-09T14:47:11Z</time>
      </trkpt>
      <trkpt lat="39.92097" lon="-7.18009">
        <ele>301.3369</ele>
        <time>2021-07-09T14:47:22Z</time>
      </trkpt>
      <trkpt lat="39.92235" lon="-7.18144">
        <ele>305.0219</ele>
        <time>2021-07-09T14:47:33Z</time>
      </trkpt>
      <trkpt lat="39.92362" lon="-7.18295">
        <ele>302.832</ele>
        <time>2021-07-09T14:47:44Z</time>
      </trkpt>
      <trkpt lat="39.92528" lon="-7.18375">
        <ele>311.1345</ele>
        <time>2021-07-09T14:47:55Z</time>
      </trkpt>
      <trkpt lat="39.92615" lon="-7.18508">
        <ele>303.7633</ele>
        <time>2021-07-09T14:48:06Z</time>
      </trkpt>
      <trkpt lat="39.92673" lon="-7.18516">
        <ele>296.4826</ele>
        <time>2021-07-09T14:48:17Z</time>
      </trkpt>
      <trkpt lat="39.92705" lon="-7.18637">
        <ele>284.3178</ele>
        <time>2021-07-09T14:48:28Z</time>
      </trkpt>
      <trkpt lat="39.92693" lon="-7.18891">
        <ele>265.4819</ele>
        <time>2021-07-09T14:48:39Z</time>
      </trkpt>
      <trkpt lat="39.92764" lon="-7.1913">
        <ele>252.9343</ele>
        <time>2021-07-09T14:48:50Z</time>
      </trkpt>
      <trkpt lat="39.92776" lon="-7.19326">
        <ele>246.2049</ele>
        <time>2021-07-09T14:49:01Z</time>
      </trkpt>
      <trkpt lat="39.92884" lon="-7.19383">
        <ele>242.4771</ele>
        <time>2021-07-09T14:49:12Z</time>
      </trkpt>
      <trkpt lat="39.93084" lon="-7.19355">
        <ele>246.2531</ele>
        <time>2021-07-09T14:49:23Z</time>
      </trkpt>
      <trkpt lat="39.93271" lon="-7.19228">
        <ele>257.0539</ele>
        <time>2021-07-09T14:49:34Z</time>
      </trkpt>
      <trkpt lat="39.93498" lon="-7.19118">
        <ele>268.5646</ele>
        <time>2021-07-09T14:49:45Z</time>
      </trkpt>
      <trkpt lat="39.93716" lon="-7.1909">
        <ele>281.1868</ele>
        <time>2021-07-09T14:49:56Z</time>
      </trkpt>
      <trkpt lat="39.93923" lon="-7.19132">
        <ele>295.1729</ele>
        <time>2021-07-09T14:50:07Z</time>
      </trkpt>
      <trkpt lat="39.94009" lon="-7.1917">
        <ele>290.4286</ele>
        <time>2021-07-09T14:50:18Z</time>
      </trkpt>
      <trkpt lat="39.94142" lon="-7.19215">
        <ele>285.2395</ele>
        <time>2021-07-09T14:50:29Z</time>
      </trkpt>
      <trkpt lat="39.94292" lon="-7.19286">
        <ele>277.238</ele>
        <time>2021-07-09T14:50:40Z</time>
      </trkpt>
      <trkpt lat="39.94428" lon="-7.19393">
        <ele>273.9629</ele>
        <time>2021-07-09T14:50:51Z</time>
      </trkpt>
      <trkpt lat="39.94546" lon="-7.1954">
        <ele>265.869</ele>
        <time>2021-07-09T14:51:02Z</time>
      </trkpt>
      <trkpt lat="39.9468" lon="-7.19628">
        <ele>262.5133</ele>
        <time>2021-07-09T14:51:13Z</time>
      </trkpt>
      <trkpt lat="39.94704" lon="-7.19769">
        <ele>263.7367</ele>
        <time>2021-07-09T14:51:24Z</time>
      </trkpt>
      <trkpt lat="39.94563" lon="-7.19895">
        <ele>267.9752</ele>
        <time>2021-07-09T14:51:35Z</time>
      </trkpt>
      <trkpt lat="39.94447" lon="-7.20007">
        <ele>268.5446</ele>
        <time>2021-07-09T14:51:46Z</time>
      </trkpt>
      <trkpt lat="39.9437" lon="-7.20121">
        <ele>263.3906</ele>
        <time>2021-07-09T14:51:57Z</time>
      </trkpt>
      <trkpt lat="39.94266" lon="-7.20073">
        <ele>276.7313</ele>
        <time>2021-07-09T14:52:08Z</time>
      </trkpt>
      <trkpt lat="39.9425" lon="-7.20003">
        <ele>279.5372</ele>
        <time>2021-07-09T14:52:19Z</time>
      </trkpt>
      <trkpt lat="39.94243" lon="-7.20018">
        <ele>278.9221</ele>
        <time>2021-07-09T14:52:30Z</time>
      </trkpt>
      <trkpt lat="39.94282" lon="-7.20092">
        <ele>273.1864</ele>
        <time>2021-07-09T14:52:41Z</time>
      </trkpt>
      <trkpt lat="39.9424" lon="-7.20099">
        <ele>265.3761</ele>
        <time>2021-07-09T14:52:52Z</time>
      </trkpt>
      <trkpt lat="39.94178" lon="-7.20041">
        <ele>260.7152</ele>
        <time>2021-07-09T14:53:03Z</time>
      </trkpt>
      <trkpt lat="39.94114" lon="-7.20025">
        <ele>253.6975</ele>
        <time>2021-07-09T14:53:14Z</time>
      </trkpt>
      <trkpt lat="39.94114" lon="-7.20081">
        <ele>246.1156</ele>
        <time>2021-07-09T14:53:25Z</time>
      </trkpt>
      <trkpt lat="39.94159" lon="-7.20164">
        <ele>237.2439</ele>
        <time>2021-07-09T14:53:36Z</time>
      </trkpt>
      <trkpt lat="39.94221" lon="-7.20225">
        <ele>238.3394</ele>
        <time>2021-07-09T14:53:47Z</time>
      </trkpt>
      <trkpt lat="39.94313" lon="-7.202">
        <ele>238.0682</ele>
        <time>2021-07-09T14:53:58Z</time>
      </trkpt>
      <trkpt lat="39.94366" lon="-7.2017">
        <ele>238.562</ele>
        <time>2021-07-09T14:54:09Z</time>
      </trkpt>
      <trkpt lat="39.94364" lon="-7.20175">
        <ele>241.7481</ele>
        <time>2021-07-09T14:54:20Z</time>
      </trkpt>
      <trkpt lat="39.94306" lon="-7.2021">
        <ele>238.8226</ele>
        <time>2021-07-09T14:54:31Z</time>
      </trkpt>
      <trkpt lat="39.94291" lon="-7.20217">
        <ele>238.2887</ele>
        <time>2021-07-09T14:54:42Z</time>
      </trkpt>
      <trkpt lat="39.94297" lon="-7.20217">
        <ele>235.5887</ele>
        <time>2021-07-09T14:54:53Z</time>
      </trkpt>
      <trkpt lat="39.94303" lon="-7.20217">
        <ele>233.6706</ele>
        <time>2021-07-09T14:55:23Z</time>
      </trkpt>
      <trkpt lat="39.94309" lon="-7.20213">
        <ele>231.3905</ele>
        <time>2021-07-09T14:55:34Z</time>
      </trkpt>
      <trkpt lat="39.94305" lon="-7.20212">
        <ele>229.4479</ele>
        <time>2021-07-09T14:55:45Z</time>
      </trkpt>
      <trkpt lat="39.94311" lon="-7.20211">
        <ele>227.6522</ele>
        <time>2021-07-09T14:56:13Z</time>
      </trkpt>
      <trkpt lat="39.94353" lon="-7.20203">
        <ele>213.2522</ele>
        <time>2021-07-09T14:56:24Z</time>
      </trkpt>
      <trkpt lat="39.94378" lon="-7.20202">
        <ele>216.0896</ele>
        <time>2021-07-09T14:56:35Z</time>
      </trkpt>
      <trkpt lat="39.94383" lon="-7.20225">
        <ele>218.6864</ele>
        <time>2021-07-09T14:56:46Z</time>
      </trkpt>
      <trkpt lat="39.94379" lon="-7.20224">
        <ele>222.3743</ele>
        <time>2021-07-09T14:57:03Z</time>
      </trkpt>
      <trkpt lat="39.94376" lon="-7.2023">
        <ele>222.968</ele>
        <time>2021-07-09T14:57:15Z</time>
      </trkpt>
      <trkpt lat="39.94338" lon="-7.2027">
        <ele>216.3076</ele>
        <time>2021-07-09T14:57:26Z</time>
      </trkpt>
      <trkpt lat="39.94289" lon="-7.20322">
        <ele>214.8747</ele>
        <time>2021-07-09T14:57:37Z</time>
      </trkpt>
      <trkpt lat="39.94223" lon="-7.20355">
        <ele>232.6999</ele>
        <time>2021-07-09T14:57:48Z</time>
      </trkpt>
      <trkpt lat="39.94179" lon="-7.20379">
        <ele>236.2873</ele>
        <time>2021-07-09T14:57:59Z</time>
      </trkpt>
      <trkpt lat="39.94155" lon="-7.20443">
        <ele>242.8928</ele>
        <time>2021-07-09T14:58:10Z</time>
      </trkpt>
      <trkpt lat="39.94101" lon="-7.20438">
        <ele>252.4464</ele>
        <time>2021-07-09T14:58:21Z</time>
      </trkpt>
      <trkpt lat="39.94023" lon="-7.20414">
        <ele>255.1301</ele>
        <time>2021-07-09T14:58:32Z</time>
      </trkpt>
      <trkpt lat="39.93974" lon="-7.2043">
        <ele>250.7165</ele>
        <time>2021-07-09T14:58:43Z</time>
      </trkpt>
      <trkpt lat="39.93944" lon="-7.20489">
        <ele>248.9641</ele>
        <time>2021-07-09T14:58:54Z</time>
      </trkpt>
      <trkpt lat="39.93886" lon="-7.2053">
        <ele>250.9056</ele>
        <time>2021-07-09T14:59:05Z</time>
      </trkpt>
      <trkpt lat="39.93839" lon="-7.20579">
        <ele>255.0536</ele>
        <time>2021-07-09T14:59:16Z</time>
      </trkpt>
      <trkpt lat="39.93795" lon="-7.20608">
        <ele>260.224</ele>
        <time>2021-07-09T14:59:27Z</time>
      </trkpt>
      <trkpt lat="39.93823" lon="-7.20663">
        <ele>265.1844</ele>
        <time>2021-07-09T14:59:38Z</time>
      </trkpt>
      <trkpt lat="39.93877" lon="-7.20715">
        <ele>272.9882</ele>
        <time>2021-07-09T14:59:49Z</time>
      </trkpt>
      <trkpt lat="39.93895" lon="-7.20807">
        <ele>278.0894</ele>
        <time>2021-07-09T15:00:00Z</time>
      </trkpt>
      <trkpt lat="39.93933" lon="-7.20883">
        <ele>282.2205</ele>
        <time>2021-07-09T15:00:11Z</time>
      </trkpt>
      <trkpt lat="39.9389" lon="-7.20951">
        <ele>285.7584</ele>
        <time>2021-07-09T15:00:22Z</time>
      </trkpt>
      <trkpt lat="39.93821" lon="-7.20959">
        <ele>287.4957</ele>
        <time>2021-07-09T15:00:33Z</time>
      </trkpt>
      <trkpt lat="39.93763" lon="-7.20989">
        <ele>296.4654</ele>
        <time>2021-07-09T15:00:44Z</time>
      </trkpt>
      <trkpt lat="39.93763" lon="-7.21019">
        <ele>297.1893</ele>
        <time>2021-07-09T15:00:55Z</time>
      </trkpt>
      <trkpt lat="39.93759" lon="-7.21024">
        <ele>297.3324</ele>
        <time>2021-07-09T15:01:47Z</time>
      </trkpt>
      <trkpt lat="39.93757" lon="-7.2103">
        <ele>296.642</ele>
        <time>2021-07-09T15:01:58Z</time>
      </trkpt>
      <trkpt lat="39.93753" lon="-7.21035">
        <ele>293.5973</ele>
        <time>2021-07-09T15:02:37Z</time>
      </trkpt>
      <trkpt lat="39.93713" lon="-7.21109">
        <ele>288.0909</ele>
        <time>2021-07-09T15:02:48Z</time>
      </trkpt>
      <trkpt lat="39.93731" lon="-7.21227">
        <ele>295.6002</ele>
        <time>2021-07-09T15:02:59Z</time>
      </trkpt>
      <trkpt lat="39.93713" lon="-7.21294">
        <ele>303.3066</ele>
        <time>2021-07-09T15:03:10Z</time>
      </trkpt>
      <trkpt lat="39.93745" lon="-7.21374">
        <ele>310.1956</ele>
        <time>2021-07-09T15:03:21Z</time>
      </trkpt>
      <trkpt lat="39.93792" lon="-7.21386">
        <ele>317.7745</ele>
        <time>2021-07-09T15:03:32Z</time>
      </trkpt>
      <trkpt lat="39.93844" lon="-7.21421">
        <ele>324.6339</ele>
        <time>2021-07-09T15:03:43Z</time>
      </trkpt>
      <trkpt lat="39.93883" lon="-7.21466">
        <ele>328.2991</ele>
        <time>2021-07-09T15:03:54Z</time>
      </trkpt>
      <trkpt lat="39.93953" lon="-7.21445">
        <ele>330.3749</ele>
        <time>2021-07-09T15:04:05Z</time>
      </trkpt>
      <trkpt lat="39.94016" lon="-7.21392">
        <ele>337.0159</ele>
        <time>2021-07-09T15:04:16Z</time>
      </trkpt>
      <trkpt lat="39.94093" lon="-7.21367">
        <ele>341.1928</ele>
        <time>2021-07-09T15:04:27Z</time>
      </trkpt>
      <trkpt lat="39.94116" lon="-7.21291">
        <ele>338.4469</ele>
        <time>2021-07-09T15:04:38Z</time>
      </trkpt>
      <trkpt lat="39.94163" lon="-7.21201">
        <ele>342.6175</ele>
        <time>2021-07-09T15:04:49Z</time>
      </trkpt>
      <trkpt lat="39.94169" lon="-7.21186">
        <ele>340.0095</ele>
        <time>2021-07-09T15:05:00Z</time>
      </trkpt>
      <trkpt lat="39.94169" lon="-7.21184">
        <ele>342.631</ele>
        <time>2021-07-09T15:06:00Z</time>
      </trkpt>
      <trkpt lat="39.94173" lon="-7.21179">
        <ele>337.4406</ele>
        <time>2021-07-09T15:06:57Z</time>
      </trkpt>
      <trkpt lat="39.94177" lon="-7.21174">
        <ele>337.4342</ele>
        <time>2021-07-09T15:07:08Z</time>
      </trkpt>
      <trkpt lat="39.94182" lon="-7.21173">
        <ele>338.7164</ele>
        <time>2021-07-09T15:07:41Z</time>
      </trkpt>
      <trkpt lat="39.94239" lon="-7.21127">
        <ele>337.4125</ele>
        <time>2021-07-09T15:07:52Z</time>
      </trkpt>
      <trkpt lat="39.94285" lon="-7.21123">
        <ele>345.9011</ele>
        <time>2021-07-09T15:08:03Z</time>
      </trkpt>
      <trkpt lat="39.9433" lon="-7.2111">
        <ele>356.8033</ele>
        <time>2021-07-09T15:08:14Z</time>
      </trkpt>
      <trkpt lat="39.9436" lon="-7.21197">
        <ele>366.7886</ele>
        <time>2021-07-09T15:08:25Z</time>
      </trkpt>
      <trkpt lat="39.94431" lon="-7.21278">
        <ele>375.3674</ele>
        <time>2021-07-09T15:08:36Z</time>
      </trkpt>
      <trkpt lat="39.94503" lon="-7.21315">
        <ele>372.6501</ele>
        <time>2021-07-09T15:08:47Z</time>
      </trkpt>
      <trkpt lat="39.94575" lon="-7.21434">
        <ele>381.0533</ele>
        <time>2021-07-09T15:08:58Z</time>
      </trkpt>
      <trkpt lat="39.94695" lon="-7.21508">
        <ele>380.6727</ele>
        <time>2021-07-09T15:09:09Z</time>
      </trkpt>
      <trkpt lat="39.94807" lon="-7.21558">
        <ele>373.9675</ele>
        <time>2021-07-09T15:09:20Z</time>
      </trkpt>
      <trkpt lat="39.94874" lon="-7.21583">
        <ele>369.0391</ele>
        <time>2021-07-09T15:09:31Z</time>
      </trkpt>
      <trkpt lat="39.94918" lon="-7.21633">
        <ele>369.7681</ele>
        <time>2021-07-09T15:09:42Z</time>
      </trkpt>
      <trkpt lat="39.94917" lon="-7.21704">
        <ele>373.1085</ele>
        <time>2021-07-09T15:09:53Z</time>
      </trkpt>
      <trkpt lat="39.94832" lon="-7.21797">
        <ele>382.5652</ele>
        <time>2021-07-09T15:10:04Z</time>
      </trkpt>
      <trkpt lat="39.94771" lon="-7.21912">
        <ele>377.8292</ele>
        <time>2021-07-09T15:10:15Z</time>
      </trkpt>
      <trkpt lat="39.94763" lon="-7.22048">
        <ele>372.3893</ele>
        <time>2021-07-09T15:10:26Z</time>
      </trkpt>
      <trkpt lat="39.94766" lon="-7.22126">
        <ele>368.6807</ele>
        <time>2021-07-09T15:10:37Z</time>
      </trkpt>
      <trkpt lat="39.94766" lon="-7.22122">
        <ele>368.7555</ele>
        <time>2021-07-09T15:11:36Z</time>
      </trkpt>
      <trkpt lat="39.94765" lon="-7.22126">
        <ele>368.1422</ele>
        <time>2021-07-09T15:12:02Z</time>
      </trkpt>
      <trkpt lat="39.94763" lon="-7.2212">
        <ele>371.7703</ele>
        <time>2021-07-09T15:12:15Z</time>
      </trkpt>
      <trkpt lat="39.94763" lon="-7.22065">
        <ele>372.3574</ele>
        <time>2021-07-09T15:12:26Z</time>
      </trkpt>
      <trkpt lat="39.9476" lon="-7.2203">
        <ele>373.3644</ele>
        <time>2021-07-09T15:12:37Z</time>
      </trkpt>
      <trkpt lat="39.94754" lon="-7.21972">
        <ele>375.1221</ele>
        <time>2021-07-09T15:12:48Z</time>
      </trkpt>
      <trkpt lat="39.9479" lon="-7.2186">
        <ele>377.455</ele>
        <time>2021-07-09T15:12:59Z</time>
      </trkpt>
      <trkpt lat="39.94829" lon="-7.21802">
        <ele>382.7987</ele>
        <time>2021-07-09T15:13:10Z</time>
      </trkpt>
      <trkpt lat="39.94869" lon="-7.21763">
        <ele>382.138</ele>
        <time>2021-07-09T15:13:21Z</time>
      </trkpt>
      <trkpt lat="39.94936" lon="-7.21684">
        <ele>370.8273</ele>
        <time>2021-07-09T15:13:32Z</time>
      </trkpt>
      <trkpt lat="39.94965" lon="-7.21644">
        <ele>371.5284</ele>
        <time>2021-07-09T15:13:43Z</time>
      </trkpt>
      <trkpt lat="39.94985" lon="-7.21604">
        <ele>373.0874</ele>
        <time>2021-07-09T15:13:54Z</time>
      </trkpt>
      <trkpt lat="39.94998" lon="-7.21641">
        <ele>373.7488</ele>
        <time>2021-07-09T15:14:05Z</time>
      </trkpt>
      <trkpt lat="39.95006" lon="-7.21694">
        <ele>375.2324</ele>
        <time>2021-07-09T15:14:16Z</time>
      </trkpt>
      <trkpt lat="39.95006" lon="-7.21692">
        <ele>371.8649</ele>
        <time>2021-07-09T15:15:15Z</time>
      </trkpt>
      <trkpt lat="39.9502" lon="-7.21753">
        <ele>374.2192</ele>
        <time>2021-07-09T15:15:26Z</time>
      </trkpt>
      <trkpt lat="39.95024" lon="-7.21864">
        <ele>384.1652</ele>
        <time>2021-07-09T15:15:37Z</time>
      </trkpt>
      <trkpt lat="39.95013" lon="-7.21946">
        <ele>387.7103</ele>
        <time>2021-07-09T15:15:48Z</time>
      </trkpt>
      <trkpt lat="39.95006" lon="-7.21963">
        <ele>386.3943</ele>
        <time>2021-07-09T15:15:59Z</time>
      </trkpt>
      <trkpt lat="39.95003" lon="-7.21971">
        <ele>384.2505</ele>
        <time>2021-07-09T15:16:29Z</time>
      </trkpt>
      <trkpt lat="39.94979" lon="-7.22064">
        <ele>377.8634</ele>
        <time>2021-07-09T15:16:40Z</time>
      </trkpt>
      <trkpt lat="39.94978" lon="-7.22095">
        <ele>380.9636</ele>
        <time>2021-07-09T15:16:51Z</time>
      </trkpt>
      <trkpt lat="39.94961" lon="-7.22147">
        <ele>378.0915</ele>
        <time>2021-07-09T15:17:02Z</time>
      </trkpt>
      <trkpt lat="39.9492" lon="-7.22186">
        <ele>375.3906</ele>
        <time>2021-07-09T15:17:13Z</time>
      </trkpt>
      <trkpt lat="39.94858" lon="-7.22273">
        <ele>369.6764</ele>
        <time>2021-07-09T15:17:24Z</time>
      </trkpt>
      <trkpt lat="39.94775" lon="-7.2221">
        <ele>366.6391</ele>
        <time>2021-07-09T15:17:35Z</time>
      </trkpt>
      <trkpt lat="39.94728" lon="-7.22221">
        <ele>364.8993</ele>
        <time>2021-07-09T15:17:46Z</time>
      </trkpt>
      <trkpt lat="39.94624" lon="-7.22338">
        <ele>366.3502</ele>
        <time>2021-07-09T15:17:57Z</time>
      </trkpt>
      <trkpt lat="39.94517" lon="-7.22482">
        <ele>370.5274</ele>
        <time>2021-07-09T15:18:08Z</time>
      </trkpt>
      <trkpt lat="39.94394" lon="-7.22591">
        <ele>372.3041</ele>
        <time>2021-07-09T15:18:19Z</time>
      </trkpt>
      <trkpt lat="39.94261" lon="-7.22618">
        <ele>371.0046</ele>
        <time>2021-07-09T15:18:30Z</time>
      </trkpt>
      <trkpt lat="39.94166" lon="-7.22626">
        <ele>366.6806</ele>
        <time>2021-07-09T15:18:41Z</time>
      </trkpt>
      <trkpt lat="39.94026" lon="-7.2272">
        <ele>367.0115</ele>
        <time>2021-07-09T15:18:52Z</time>
      </trkpt>
      <trkpt lat="39.93921" lon="-7.22702">
        <ele>377.3111</ele>
        <time>2021-07-09T15:19:03Z</time>
      </trkpt>
      <trkpt lat="39.93844" lon="-7.22873">
        <ele>384.501</ele>
        <time>2021-07-09T15:19:14Z</time>
      </trkpt>
      <trkpt lat="39.93739" lon="-7.23033">
        <ele>389.6658</ele>
        <time>2021-07-09T15:19:25Z</time>
      </trkpt>
      <trkpt lat="39.9362" lon="-7.23133">
        <ele>397.8678</ele>
        <time>2021-07-09T15:19:36Z</time>
      </trkpt>
      <trkpt lat="39.9353" lon="-7.23245">
        <ele>391.8739</ele>
        <time>2021-07-09T15:19:47Z</time>
      </trkpt>
      <trkpt lat="39.93448" lon="-7.23317">
        <ele>382.9796</ele>
        <time>2021-07-09T15:19:58Z</time>
      </trkpt>
      <trkpt lat="39.93389" lon="-7.23416">
        <ele>379.8986</ele>
        <time>2021-07-09T15:20:09Z</time>
      </trkpt>
      <trkpt lat="39.93284" lon="-7.23464">
        <ele>379.0024</ele>
        <time>2021-07-09T15:20:20Z</time>
      </trkpt>
      <trkpt lat="39.93163" lon="-7.23439">
        <ele>375.3925</ele>
        <time>2021-07-09T15:20:31Z</time>
      </trkpt>
      <trkpt lat="39.93036" lon="-7.23513">
        <ele>375.2675</ele>
        <time>2021-07-09T15:20:42Z</time>
      </trkpt>
      <trkpt lat="39.93016" lon="-7.23536">
        <ele>377.1194</ele>
        <time>2021-07-09T15:20:53Z</time>
      </trkpt>
      <trkpt lat="39.93175" lon="-7.23575">
        <ele>385.2239</ele>
        <time>2021-07-09T15:21:04Z</time>
      </trkpt>
      <trkpt lat="39.93283" lon="-7.23744">
        <ele>386.1148</ele>
        <time>2021-07-09T15:21:15Z</time>
      </trkpt>
      <trkpt lat="39.93325" lon="-7.23851">
        <ele>387.8304</ele>
        <time>2021-07-09T15:21:26Z</time>
      </trkpt>
      <trkpt lat="39.93313" lon="-7.23824">
        <ele>386.6028</ele>
        <time>2021-07-09T15:21:37Z</time>
      </trkpt>
      <trkpt lat="39.9334" lon="-7.23808">
        <ele>392.4222</ele>
        <time>2021-07-09T15:21:48Z</time>
      </trkpt>
      <trkpt lat="39.93337" lon="-7.23804">
        <ele>395.5302</ele>
        <time>2021-07-09T15:22:28Z</time>
      </trkpt>
      <trkpt lat="39.93342" lon="-7.23801">
        <ele>392.9653</ele>
        <time>2021-07-09T15:23:05Z</time>
      </trkpt>
      <trkpt lat="39.93323" lon="-7.23812">
        <ele>443.833</ele>
        <time>2021-07-09T15:43:46Z</time>
      </trkpt>
      <trkpt lat="39.93341" lon="-7.23824">
        <ele>418.7306</ele>
        <time>2021-07-09T15:43:57Z</time>
      </trkpt>
      <trkpt lat="39.93347" lon="-7.23816">
        <ele>422.4356</ele>
        <time>2021-07-09T15:44:08Z</time>
      </trkpt>
      <trkpt lat="39.93336" lon="-7.2381">
        <ele>385.6745</ele>
        <time>2021-07-09T15:44:21Z</time>
      </trkpt>
      <trkpt lat="39.93337" lon="-7.23808">
        <ele>385.8882</ele>
        <time>2021-07-09T15:45:20Z</time>
      </trkpt>
      <trkpt lat="39.93339" lon="-7.23808">
        <ele>386.6053</ele>
        <time>2021-07-09T15:46:19Z</time>
      </trkpt>
      <trkpt lat="39.93336" lon="-7.23805">
        <ele>387.1058</ele>
        <time>2021-07-09T15:46:57Z</time>
      </trkpt>
      <trkpt lat="39.93332" lon="-7.23809">
        <ele>387.1969</ele>
        <time>2021-07-09T15:47:20Z</time>
      </trkpt>
      <trkpt lat="39.93299" lon="-7.23875">
        <ele>386.0656</ele>
        <time>2021-07-09T15:47:31Z</time>
      </trkpt>
      <trkpt lat="39.93183" lon="-7.23925">
        <ele>392.4354</ele>
        <time>2021-07-09T15:47:42Z</time>
      </trkpt>
      <trkpt lat="39.93077" lon="-7.24054">
        <ele>398.9033</ele>
        <time>2021-07-09T15:47:53Z</time>
      </trkpt>
      <trkpt lat="39.92984" lon="-7.24218">
        <ele>404.7243</ele>
        <time>2021-07-09T15:48:04Z</time>
      </trkpt>
      <trkpt lat="39.9284" lon="-7.24314">
        <ele>404.7239</ele>
        <time>2021-07-09T15:48:15Z</time>
      </trkpt>
      <trkpt lat="39.92687" lon="-7.24358">
        <ele>399.5561</ele>
        <time>2021-07-09T15:48:26Z</time>
      </trkpt>
      <trkpt lat="39.92535" lon="-7.24381">
        <ele>392.6574</ele>
        <time>2021-07-09T15:48:37Z</time>
      </trkpt>
      <trkpt lat="39.92414" lon="-7.24315">
        <ele>388.8584</ele>
        <time>2021-07-09T15:48:48Z</time>
      </trkpt>
      <trkpt lat="39.92329" lon="-7.24225">
        <ele>382.5502</ele>
        <time>2021-07-09T15:48:59Z</time>
      </trkpt>
      <trkpt lat="39.92245" lon="-7.2425">
        <ele>379.7623</ele>
        <time>2021-07-09T15:49:10Z</time>
      </trkpt>
      <trkpt lat="39.92236" lon="-7.24339">
        <ele>377.734</ele>
        <time>2021-07-09T15:49:21Z</time>
      </trkpt>
      <trkpt lat="39.92167" lon="-7.24436">
        <ele>376.9226</ele>
        <time>2021-07-09T15:49:32Z</time>
      </trkpt>
      <trkpt lat="39.92112" lon="-7.24593">
        <ele>383.6081</ele>
        <time>2021-07-09T15:49:43Z</time>
      </trkpt>
      <trkpt lat="39.9209" lon="-7.2477">
        <ele>378.2112</ele>
        <time>2021-07-09T15:49:54Z</time>
      </trkpt>
      <trkpt lat="39.92161" lon="-7.24991">
        <ele>380.5859</ele>
        <time>2021-07-09T15:50:05Z</time>
      </trkpt>
      <trkpt lat="39.92145" lon="-7.25224">
        <ele>383.545</ele>
        <time>2021-07-09T15:50:16Z</time>
      </trkpt>
      <trkpt lat="39.92182" lon="-7.25465">
        <ele>375.1175</ele>
        <time>2021-07-09T15:50:27Z</time>
      </trkpt>
      <trkpt lat="39.92141" lon="-7.25771">
        <ele>381.9177</ele>
        <time>2021-07-09T15:50:38Z</time>
      </trkpt>
      <trkpt lat="39.9211" lon="-7.26014">
        <ele>389.2143</ele>
        <time>2021-07-09T15:50:49Z</time>
      </trkpt>
      <trkpt lat="39.92163" lon="-7.26226">
        <ele>377.9286</ele>
        <time>2021-07-09T15:51:00Z</time>
      </trkpt>
      <trkpt lat="39.92155" lon="-7.26477">
        <ele>390.5226</ele>
        <time>2021-07-09T15:51:11Z</time>
      </trkpt>
      <trkpt lat="39.92146" lon="-7.26662">
        <ele>380.9449</ele>
        <time>2021-07-09T15:51:22Z</time>
      </trkpt>
      <trkpt lat="39.92138" lon="-7.26925">
        <ele>365.4538</ele>
        <time>2021-07-09T15:51:33Z</time>
      </trkpt>
      <trkpt lat="39.92086" lon="-7.27104">
        <ele>361.2925</ele>
        <time>2021-07-09T15:51:44Z</time>
      </trkpt>
      <trkpt lat="39.91974" lon="-7.27238">
        <ele>354.7486</ele>
        <time>2021-07-09T15:51:55Z</time>
      </trkpt>
      <trkpt lat="39.91824" lon="-7.27337">
        <ele>349.792</ele>
        <time>2021-07-09T15:52:06Z</time>
      </trkpt>
      <trkpt lat="39.91695" lon="-7.27458">
        <ele>344.7503</ele>
        <time>2021-07-09T15:52:17Z</time>
      </trkpt>
      <trkpt lat="39.91567" lon="-7.27678">
        <ele>344.1615</ele>
        <time>2021-07-09T15:52:28Z</time>
      </trkpt>
      <trkpt lat="39.91446" lon="-7.27838">
        <ele>334.1355</ele>
        <time>2021-07-09T15:52:39Z</time>
      </trkpt>
      <trkpt lat="39.91343" lon="-7.27999">
        <ele>325.6981</ele>
        <time>2021-07-09T15:52:50Z</time>
      </trkpt>
      <trkpt lat="39.91193" lon="-7.27985">
        <ele>319.7305</ele>
        <time>2021-07-09T15:53:01Z</time>
      </trkpt>
      <trkpt lat="39.91044" lon="-7.28115">
        <ele>313.1156</ele>
        <time>2021-07-09T15:53:12Z</time>
      </trkpt>
      <trkpt lat="39.90882" lon="-7.28243">
        <ele>304.6628</ele>
        <time>2021-07-09T15:53:23Z</time>
      </trkpt>
      <trkpt lat="39.90779" lon="-7.2846">
        <ele>294.1281</ele>
        <time>2021-07-09T15:53:34Z</time>
      </trkpt>
      <trkpt lat="39.90735" lon="-7.28661">
        <ele>283.4001</ele>
        <time>2021-07-09T15:53:45Z</time>
      </trkpt>
      <trkpt lat="39.90657" lon="-7.28721">
        <ele>280.6066</ele>
        <time>2021-07-09T15:53:56Z</time>
      </trkpt>
      <trkpt lat="39.90596" lon="-7.28762">
        <ele>281.191</ele>
        <time>2021-07-09T15:54:07Z</time>
      </trkpt>
      <trkpt lat="39.90554" lon="-7.28851">
        <ele>279.9876</ele>
        <time>2021-07-09T15:54:18Z</time>
      </trkpt>
      <trkpt lat="39.90431" lon="-7.2887">
        <ele>274.0487</ele>
        <time>2021-07-09T15:54:29Z</time>
      </trkpt>
      <trkpt lat="39.90311" lon="-7.28863">
        <ele>273.0427</ele>
        <time>2021-07-09T15:54:40Z</time>
      </trkpt>
      <trkpt lat="39.90211" lon="-7.28936">
        <ele>279.4995</ele>
        <time>2021-07-09T15:54:51Z</time>
      </trkpt>
      <trkpt lat="39.9007" lon="-7.2901">
        <ele>280.8709</ele>
        <time>2021-07-09T15:55:02Z</time>
      </trkpt>
      <trkpt lat="39.8995" lon="-7.29025">
        <ele>278.3532</ele>
        <time>2021-07-09T15:55:13Z</time>
      </trkpt>
      <trkpt lat="39.89893" lon="-7.28918">
        <ele>237.2879</ele>
        <time>2021-07-09T15:55:24Z</time>
      </trkpt>
      <trkpt lat="39.89799" lon="-7.28865">
        <ele>251.9829</ele>
        <time>2021-07-09T15:55:35Z</time>
      </trkpt>
      <trkpt lat="39.89718" lon="-7.28896">
        <ele>250.6858</ele>
        <time>2021-07-09T15:55:46Z</time>
      </trkpt>
      <trkpt lat="39.89624" lon="-7.28889">
        <ele>234.9591</ele>
        <time>2021-07-09T15:55:57Z</time>
      </trkpt>
      <trkpt lat="39.89517" lon="-7.28875">
        <ele>219.3836</ele>
        <time>2021-07-09T15:56:08Z</time>
      </trkpt>
      <trkpt lat="39.89448" lon="-7.28794">
        <ele>206.4852</ele>
        <time>2021-07-09T15:56:19Z</time>
      </trkpt>
      <trkpt lat="39.89395" lon="-7.28707">
        <ele>195.0929</ele>
        <time>2021-07-09T15:56:30Z</time>
      </trkpt>
      <trkpt lat="39.89302" lon="-7.2864">
        <ele>186.6972</ele>
        <time>2021-07-09T15:56:41Z</time>
      </trkpt>
      <trkpt lat="39.89238" lon="-7.28651">
        <ele>183.8251</ele>
        <time>2021-07-09T15:56:52Z</time>
      </trkpt>
      <trkpt lat="39.89161" lon="-7.2868">
        <ele>177.7749</ele>
        <time>2021-07-09T15:57:03Z</time>
      </trkpt>
      <trkpt lat="39.89116" lon="-7.28765">
        <ele>178.3116</ele>
        <time>2021-07-09T15:57:14Z</time>
      </trkpt>
      <trkpt lat="39.89125" lon="-7.28874">
        <ele>177.6563</ele>
        <time>2021-07-09T15:57:25Z</time>
      </trkpt>
      <trkpt lat="39.89043" lon="-7.28809">
        <ele>171.9178</ele>
        <time>2021-07-09T15:57:36Z</time>
      </trkpt>
      <trkpt lat="39.88893" lon="-7.28719">
        <ele>167.2778</ele>
        <time>2021-07-09T15:57:47Z</time>
      </trkpt>
      <trkpt lat="39.88701" lon="-7.28694">
        <ele>166.7244</ele>
        <time>2021-07-09T15:57:58Z</time>
      </trkpt>
      <trkpt lat="39.88527" lon="-7.28641">
        <ele>166.627</ele>
        <time>2021-07-09T15:58:09Z</time>
      </trkpt>
      <trkpt lat="39.88413" lon="-7.28613">
        <ele>166.9159</ele>
        <time>2021-07-09T15:58:20Z</time>
      </trkpt>
      <trkpt lat="39.88427" lon="-7.2844">
        <ele>166.3809</ele>
        <time>2021-07-09T15:58:31Z</time>
      </trkpt>
      <trkpt lat="39.88427" lon="-7.28218">
        <ele>171.0191</ele>
        <time>2021-07-09T15:58:42Z</time>
      </trkpt>
      <trkpt lat="39.88243" lon="-7.28179">
        <ele>177.0659</ele>
        <time>2021-07-09T15:58:53Z</time>
      </trkpt>
      <trkpt lat="39.88075" lon="-7.28073">
        <ele>176.6577</ele>
        <time>2021-07-09T15:59:04Z</time>
      </trkpt>
      <trkpt lat="39.87876" lon="-7.27988">
        <ele>181.7619</ele>
        <time>2021-07-09T15:59:15Z</time>
      </trkpt>
      <trkpt lat="39.87761" lon="-7.27844">
        <ele>184.4828</ele>
        <time>2021-07-09T15:59:26Z</time>
      </trkpt>
      <trkpt lat="39.87758" lon="-7.27627">
        <ele>175.25</ele>
        <time>2021-07-09T15:59:37Z</time>
      </trkpt>
      <trkpt lat="39.87766" lon="-7.27485">
        <ele>177.2666</ele>
        <time>2021-07-09T15:59:48Z</time>
      </trkpt>
      <trkpt lat="39.87686" lon="-7.27524">
        <ele>185.2856</ele>
        <time>2021-07-09T15:59:59Z</time>
      </trkpt>
      <trkpt lat="39.87455" lon="-7.27596">
        <ele>193.3236</ele>
        <time>2021-07-09T16:00:10Z</time>
      </trkpt>
      <trkpt lat="39.8722" lon="-7.27578">
        <ele>196.4178</ele>
        <time>2021-07-09T16:00:21Z</time>
      </trkpt>
      <trkpt lat="39.87067" lon="-7.27557">
        <ele>189.3824</ele>
        <time>2021-07-09T16:00:32Z</time>
      </trkpt>
      <trkpt lat="39.8693" lon="-7.27645">
        <ele>182.597</ele>
        <time>2021-07-09T16:00:43Z</time>
      </trkpt>
      <trkpt lat="39.86828" lon="-7.27669">
        <ele>169.3777</ele>
        <time>2021-07-09T16:00:54Z</time>
      </trkpt>
      <trkpt lat="39.86721" lon="-7.27649">
        <ele>177.4042</ele>
        <time>2021-07-09T16:01:05Z</time>
      </trkpt>
      <trkpt lat="39.86595" lon="-7.27647">
        <ele>182.6416</ele>
        <time>2021-07-09T16:01:16Z</time>
      </trkpt>
      <trkpt lat="39.8647" lon="-7.2764">
        <ele>190.5347</ele>
        <time>2021-07-09T16:01:27Z</time>
      </trkpt>
      <trkpt lat="39.86362" lon="-7.27649">
        <ele>191.9659</ele>
        <time>2021-07-09T16:01:38Z</time>
      </trkpt>
      <trkpt lat="39.86243" lon="-7.2762">
        <ele>191.6597</ele>
        <time>2021-07-09T16:01:49Z</time>
      </trkpt>
      <trkpt lat="39.86142" lon="-7.27603">
        <ele>185.869</ele>
        <time>2021-07-09T16:02:00Z</time>
      </trkpt>
      <trkpt lat="39.86024" lon="-7.27527">
        <ele>191.275</ele>
        <time>2021-07-09T16:02:11Z</time>
      </trkpt>
      <trkpt lat="39.85945" lon="-7.27431">
        <ele>193.4309</ele>
        <time>2021-07-09T16:02:22Z</time>
      </trkpt>
      <trkpt lat="39.85873" lon="-7.27418">
        <ele>189.5284</ele>
        <time>2021-07-09T16:02:33Z</time>
      </trkpt>
      <trkpt lat="39.8577" lon="-7.27499">
        <ele>191.2241</ele>
        <time>2021-07-09T16:02:44Z</time>
      </trkpt>
      <trkpt lat="39.85681" lon="-7.27642">
        <ele>200.8326</ele>
        <time>2021-07-09T16:02:55Z</time>
      </trkpt>
      <trkpt lat="39.85546" lon="-7.27781">
        <ele>196.8027</ele>
        <time>2021-07-09T16:03:06Z</time>
      </trkpt>
      <trkpt lat="39.85443" lon="-7.27845">
        <ele>193.7812</ele>
        <time>2021-07-09T16:03:17Z</time>
      </trkpt>
      <trkpt lat="39.85274" lon="-7.27793">
        <ele>193.8805</ele>
        <time>2021-07-09T16:03:28Z</time>
      </trkpt>
      <trkpt lat="39.85095" lon="-7.27689">
        <ele>195.4242</ele>
        <time>2021-07-09T16:03:39Z</time>
      </trkpt>
      <trkpt lat="39.84964" lon="-7.27576">
        <ele>198.6359</ele>
        <time>2021-07-09T16:03:50Z</time>
      </trkpt>
      <trkpt lat="39.84852" lon="-7.27438">
        <ele>201.8651</ele>
        <time>2021-07-09T16:04:01Z</time>
      </trkpt>
      <trkpt lat="39.84783" lon="-7.2729">
        <ele>202.8273</ele>
        <time>2021-07-09T16:04:12Z</time>
      </trkpt>
      <trkpt lat="39.84756" lon="-7.27062">
        <ele>203.8036</ele>
        <time>2021-07-09T16:04:23Z</time>
      </trkpt>
      <trkpt lat="39.84632" lon="-7.26949">
        <ele>205.5841</ele>
        <time>2021-07-09T16:04:34Z</time>
      </trkpt>
      <trkpt lat="39.84522" lon="-7.26832">
        <ele>209.487</ele>
        <time>2021-07-09T16:04:45Z</time>
      </trkpt>
      <trkpt lat="39.84415" lon="-7.26759">
        <ele>208.2336</ele>
        <time>2021-07-09T16:04:56Z</time>
      </trkpt>
      <trkpt lat="39.84344" lon="-7.2664">
        <ele>204.699</ele>
        <time>2021-07-09T16:05:07Z</time>
      </trkpt>
      <trkpt lat="39.84195" lon="-7.26605">
        <ele>208.2377</ele>
        <time>2021-07-09T16:05:18Z</time>
      </trkpt>
      <trkpt lat="39.8405" lon="-7.26586">
        <ele>212.226</ele>
        <time>2021-07-09T16:05:29Z</time>
      </trkpt>
      <trkpt lat="39.8393" lon="-7.26508">
        <ele>214.1516</ele>
        <time>2021-07-09T16:05:40Z</time>
      </trkpt>
      <trkpt lat="39.83871" lon="-7.26494">
        <ele>214.9411</ele>
        <time>2021-07-09T16:05:51Z</time>
      </trkpt>
      <trkpt lat="39.83795" lon="-7.26417">
        <ele>216.939</ele>
        <time>2021-07-09T16:06:02Z</time>
      </trkpt>
      <trkpt lat="39.83678" lon="-7.26292">
        <ele>219.2062</ele>
        <time>2021-07-09T16:06:13Z</time>
      </trkpt>
      <trkpt lat="39.8358" lon="-7.26165">
        <ele>224.2537</ele>
        <time>2021-07-09T16:06:24Z</time>
      </trkpt>
      <trkpt lat="39.8353" lon="-7.26006">
        <ele>222.7308</ele>
        <time>2021-07-09T16:06:35Z</time>
      </trkpt>
      <trkpt lat="39.83501" lon="-7.26003">
        <ele>221.8935</ele>
        <time>2021-07-09T16:06:46Z</time>
      </trkpt>
      <trkpt lat="39.83455" lon="-7.26043">
        <ele>214.7381</ele>
        <time>2021-07-09T16:06:57Z</time>
      </trkpt>
      <trkpt lat="39.83415" lon="-7.26032">
        <ele>219.1349</ele>
        <time>2021-07-09T16:07:08Z</time>
      </trkpt>
      <trkpt lat="39.83402" lon="-7.26022">
        <ele>218.6005</ele>
        <time>2021-07-09T16:07:19Z</time>
      </trkpt>
      <trkpt lat="39.83363" lon="-7.26004">
        <ele>216.4055</ele>
        <time>2021-07-09T16:07:30Z</time>
      </trkpt>
      <trkpt lat="39.83343" lon="-7.25999">
        <ele>216.0095</ele>
        <time>2021-07-09T16:07:41Z</time>
      </trkpt>
      <trkpt lat="39.83324" lon="-7.25976">
        <ele>221.9852</ele>
        <time>2021-07-09T16:07:52Z</time>
      </trkpt>
      <trkpt lat="39.83312" lon="-7.25973">
        <ele>228.5741</ele>
        <time>2021-07-09T16:08:03Z</time>
      </trkpt>
      <trkpt lat="39.83294" lon="-7.25968">
        <ele>225.4056</ele>
        <time>2021-07-09T16:08:14Z</time>
      </trkpt>
      <trkpt lat="39.83275" lon="-7.26042">
        <ele>225.0089</ele>
        <time>2021-07-09T16:08:25Z</time>
      </trkpt>
      <trkpt lat="39.83277" lon="-7.26091">
        <ele>217.1962</ele>
        <time>2021-07-09T16:08:36Z</time>
      </trkpt>
      <trkpt lat="39.83233" lon="-7.26075">
        <ele>220.2274</ele>
        <time>2021-07-09T16:08:47Z</time>
      </trkpt>
      <trkpt lat="39.83163" lon="-7.26093">
        <ele>210.5055</ele>
        <time>2021-07-09T16:08:58Z</time>
      </trkpt>
      <trkpt lat="39.83071" lon="-7.26128">
        <ele>208.4153</ele>
        <time>2021-07-09T16:09:09Z</time>
      </trkpt>
      <trkpt lat="39.82944" lon="-7.26078">
        <ele>211.1815</ele>
        <time>2021-07-09T16:09:20Z</time>
      </trkpt>
      <trkpt lat="39.82767" lon="-7.2603">
        <ele>214.5661</ele>
        <time>2021-07-09T16:09:31Z</time>
      </trkpt>
      <trkpt lat="39.82552" lon="-7.26058">
        <ele>224.0246</ele>
        <time>2021-07-09T16:09:42Z</time>
      </trkpt>
      <trkpt lat="39.82338" lon="-7.26018">
        <ele>237.6731</ele>
        <time>2021-07-09T16:09:53Z</time>
      </trkpt>
      <trkpt lat="39.82124" lon="-7.26056">
        <ele>243.0456</ele>
        <time>2021-07-09T16:10:04Z</time>
      </trkpt>
      <trkpt lat="39.81893" lon="-7.26185">
        <ele>246.1054</ele>
        <time>2021-07-09T16:10:15Z</time>
      </trkpt>
      <trkpt lat="39.81688" lon="-7.26283">
        <ele>241.5949</ele>
        <time>2021-07-09T16:10:26Z</time>
      </trkpt>
      <trkpt lat="39.8156" lon="-7.26368">
        <ele>240.8056</ele>
        <time>2021-07-09T16:10:37Z</time>
      </trkpt>
      <trkpt lat="39.81433" lon="-7.26527">
        <ele>243.7027</ele>
        <time>2021-07-09T16:10:48Z</time>
      </trkpt>
      <trkpt lat="39.8126" lon="-7.26644">
        <ele>237.2549</ele>
        <time>2021-07-09T16:10:59Z</time>
      </trkpt>
      <trkpt lat="39.81026" lon="-7.26681">
        <ele>232.3427</ele>
        <time>2021-07-09T16:11:10Z</time>
      </trkpt>
      <trkpt lat="39.8089" lon="-7.26769">
        <ele>232.2102</ele>
        <time>2021-07-09T16:11:21Z</time>
      </trkpt>
      <trkpt lat="39.80814" lon="-7.26976">
        <ele>232.2068</ele>
        <time>2021-07-09T16:11:32Z</time>
      </trkpt>
      <trkpt lat="39.80795" lon="-7.27193">
        <ele>231.6431</ele>
        <time>2021-07-09T16:11:43Z</time>
      </trkpt>
      <trkpt lat="39.8085" lon="-7.27416">
        <ele>230.2835</ele>
        <time>2021-07-09T16:11:54Z</time>
      </trkpt>
      <trkpt lat="39.80813" lon="-7.27634">
        <ele>225.5965</ele>
        <time>2021-07-09T16:12:05Z</time>
      </trkpt>
      <trkpt lat="39.80775" lon="-7.27936">
        <ele>219.2139</ele>
        <time>2021-07-09T16:12:16Z</time>
      </trkpt>
      <trkpt lat="39.80753" lon="-7.28224">
        <ele>218.4995</ele>
        <time>2021-07-09T16:12:27Z</time>
      </trkpt>
      <trkpt lat="39.80682" lon="-7.28499">
        <ele>222.049</ele>
        <time>2021-07-09T16:12:38Z</time>
      </trkpt>
      <trkpt lat="39.80615" lon="-7.28784">
        <ele>224.2144</ele>
        <time>2021-07-09T16:12:49Z</time>
      </trkpt>
      <trkpt lat="39.8053" lon="-7.29051">
        <ele>225.241</ele>
        <time>2021-07-09T16:13:00Z</time>
      </trkpt>
      <trkpt lat="39.80489" lon="-7.2928">
        <ele>223.6938</ele>
        <time>2021-07-09T16:13:11Z</time>
      </trkpt>
      <trkpt lat="39.80459" lon="-7.2951">
        <ele>225.0361</ele>
        <time>2021-07-09T16:13:22Z</time>
      </trkpt>
      <trkpt lat="39.80439" lon="-7.29742">
        <ele>214.7925</ele>
        <time>2021-07-09T16:13:33Z</time>
      </trkpt>
      <trkpt lat="39.80339" lon="-7.29912">
        <ele>203.7575</ele>
        <time>2021-07-09T16:13:44Z</time>
      </trkpt>
      <trkpt lat="39.8023" lon="-7.30122">
        <ele>201.2861</ele>
        <time>2021-07-09T16:13:55Z</time>
      </trkpt>
      <trkpt lat="39.8016" lon="-7.30354">
        <ele>199.6263</ele>
        <time>2021-07-09T16:14:06Z</time>
      </trkpt>
      <trkpt lat="39.80055" lon="-7.30591">
        <ele>195.8269</ele>
        <time>2021-07-09T16:14:17Z</time>
      </trkpt>
      <trkpt lat="39.79974" lon="-7.30851">
        <ele>186.7887</ele>
        <time>2021-07-09T16:14:28Z</time>
      </trkpt>
      <trkpt lat="39.79802" lon="-7.31025">
        <ele>181.3095</ele>
        <time>2021-07-09T16:14:39Z</time>
      </trkpt>
      <trkpt lat="39.79657" lon="-7.31204">
        <ele>178.71</ele>
        <time>2021-07-09T16:14:50Z</time>
      </trkpt>
      <trkpt lat="39.79562" lon="-7.31365">
        <ele>178.406</ele>
        <time>2021-07-09T16:15:01Z</time>
      </trkpt>
      <trkpt lat="39.7949" lon="-7.31516">
        <ele>174.4735</ele>
        <time>2021-07-09T16:15:12Z</time>
      </trkpt>
      <trkpt lat="39.79423" lon="-7.31713">
        <ele>170.1468</ele>
        <time>2021-07-09T16:15:23Z</time>
      </trkpt>
      <trkpt lat="39.79355" lon="-7.31985">
        <ele>168.7189</ele>
        <time>2021-07-09T16:15:34Z</time>
      </trkpt>
      <trkpt lat="39.7927" lon="-7.32158">
        <ele>163.7033</ele>
        <time>2021-07-09T16:15:45Z</time>
      </trkpt>
      <trkpt lat="39.79284" lon="-7.32372">
        <ele>162.8762</ele>
        <time>2021-07-09T16:15:56Z</time>
      </trkpt>
      <trkpt lat="39.79309" lon="-7.32536">
        <ele>163.8319</ele>
        <time>2021-07-09T16:16:07Z</time>
      </trkpt>
      <trkpt lat="39.79329" lon="-7.32696">
        <ele>163.0041</ele>
        <time>2021-07-09T16:16:18Z</time>
      </trkpt>
      <trkpt lat="39.79273" lon="-7.32859">
        <ele>163.8564</ele>
        <time>2021-07-09T16:16:29Z</time>
      </trkpt>
      <trkpt lat="39.79274" lon="-7.33013">
        <ele>164.4147</ele>
        <time>2021-07-09T16:16:40Z</time>
      </trkpt>
      <trkpt lat="39.79311" lon="-7.33246">
        <ele>164.5918</ele>
        <time>2021-07-09T16:16:51Z</time>
      </trkpt>
      <trkpt lat="39.79395" lon="-7.3338">
        <ele>158.4946</ele>
        <time>2021-07-09T16:17:02Z</time>
      </trkpt>
      <trkpt lat="39.7944" lon="-7.3359">
        <ele>157.2499</ele>
        <time>2021-07-09T16:17:13Z</time>
      </trkpt>
      <trkpt lat="39.79429" lon="-7.33743">
        <ele>152.4506</ele>
        <time>2021-07-09T16:17:24Z</time>
      </trkpt>
      <trkpt lat="39.79382" lon="-7.33855">
        <ele>148.9499</ele>
        <time>2021-07-09T16:17:35Z</time>
      </trkpt>
      <trkpt lat="39.79365" lon="-7.3391">
        <ele>151.8761</ele>
        <time>2021-07-09T16:17:46Z</time>
      </trkpt>
      <trkpt lat="39.79271" lon="-7.33906">
        <ele>151.0335</ele>
        <time>2021-07-09T16:17:57Z</time>
      </trkpt>
      <trkpt lat="39.79181" lon="-7.33842">
        <ele>152.9889</ele>
        <time>2021-07-09T16:18:08Z</time>
      </trkpt>
      <trkpt lat="39.7915" lon="-7.33861">
        <ele>153.6019</ele>
        <time>2021-07-09T16:18:19Z</time>
      </trkpt>
      <trkpt lat="39.79179" lon="-7.33847">
        <ele>167.2273</ele>
        <time>2021-07-09T16:18:30Z</time>
      </trkpt>
      <trkpt lat="39.79218" lon="-7.33913">
        <ele>162.8724</ele>
        <time>2021-07-09T16:18:41Z</time>
      </trkpt>
      <trkpt lat="39.79233" lon="-7.34011">
        <ele>157.7621</ele>
        <time>2021-07-09T16:18:52Z</time>
      </trkpt>
      <trkpt lat="39.79257" lon="-7.34146">
        <ele>149.9909</ele>
        <time>2021-07-09T16:19:03Z</time>
      </trkpt>
      <trkpt lat="39.79265" lon="-7.34293">
        <ele>144.1008</ele>
        <time>2021-07-09T16:19:14Z</time>
      </trkpt>
      <trkpt lat="39.79283" lon="-7.34453">
        <ele>146.1435</ele>
        <time>2021-07-09T16:19:25Z</time>
      </trkpt>
      <trkpt lat="39.79238" lon="-7.34621">
        <ele>154.5554</ele>
        <time>2021-07-09T16:19:36Z</time>
      </trkpt>
      <trkpt lat="39.79177" lon="-7.34769">
        <ele>152.9225</ele>
        <time>2021-07-09T16:19:47Z</time>
      </trkpt>
      <trkpt lat="39.79057" lon="-7.34849">
        <ele>143.8644</ele>
        <time>2021-07-09T16:19:58Z</time>
      </trkpt>
      <trkpt lat="39.78946" lon="-7.34939">
        <ele>142.5479</ele>
        <time>2021-07-09T16:20:09Z</time>
      </trkpt>
      <trkpt lat="39.78853" lon="-7.35053">
        <ele>150.2662</ele>
        <time>2021-07-09T16:20:20Z</time>
      </trkpt>
      <trkpt lat="39.78822" lon="-7.35243">
        <ele>148.0154</ele>
        <time>2021-07-09T16:20:31Z</time>
      </trkpt>
      <trkpt lat="39.78841" lon="-7.35409">
        <ele>149.7724</ele>
        <time>2021-07-09T16:20:42Z</time>
      </trkpt>
      <trkpt lat="39.78835" lon="-7.35584">
        <ele>146.8554</ele>
        <time>2021-07-09T16:20:53Z</time>
      </trkpt>
      <trkpt lat="39.78776" lon="-7.3574">
        <ele>144.2573</ele>
        <time>2021-07-09T16:21:04Z</time>
      </trkpt>
      <trkpt lat="39.78696" lon="-7.35914">
        <ele>146.634</ele>
        <time>2021-07-09T16:21:15Z</time>
      </trkpt>
      <trkpt lat="39.7864" lon="-7.36068">
        <ele>146.1604</ele>
        <time>2021-07-09T16:21:26Z</time>
      </trkpt>
      <trkpt lat="39.78633" lon="-7.36259">
        <ele>145.0401</ele>
        <time>2021-07-09T16:21:37Z</time>
      </trkpt>
      <trkpt lat="39.78656" lon="-7.36461">
        <ele>141.4977</ele>
        <time>2021-07-09T16:21:48Z</time>
      </trkpt>
      <trkpt lat="39.78745" lon="-7.36609">
        <ele>143.8986</ele>
        <time>2021-07-09T16:21:59Z</time>
      </trkpt>
      <trkpt lat="39.78837" lon="-7.36708">
        <ele>139.4938</ele>
        <time>2021-07-09T16:22:10Z</time>
      </trkpt>
      <trkpt lat="39.789" lon="-7.36776">
        <ele>138.8768</ele>
        <time>2021-07-09T16:22:21Z</time>
      </trkpt>
      <trkpt lat="39.78934" lon="-7.36916">
        <ele>140.0312</ele>
        <time>2021-07-09T16:22:32Z</time>
      </trkpt>
      <trkpt lat="39.78898" lon="-7.37073">
        <ele>141.3801</ele>
        <time>2021-07-09T16:22:43Z</time>
      </trkpt>
      <trkpt lat="39.78924" lon="-7.37238">
        <ele>141.785</ele>
        <time>2021-07-09T16:22:54Z</time>
      </trkpt>
      <trkpt lat="39.78988" lon="-7.37394">
        <ele>140.111</ele>
        <time>2021-07-09T16:23:05Z</time>
      </trkpt>
      <trkpt lat="39.79005" lon="-7.37535">
        <ele>136.6392</ele>
        <time>2021-07-09T16:23:16Z</time>
      </trkpt>
      <trkpt lat="39.79017" lon="-7.37691">
        <ele>140.6151</ele>
        <time>2021-07-09T16:23:27Z</time>
      </trkpt>
      <trkpt lat="39.79029" lon="-7.37868">
        <ele>135.8829</ele>
        <time>2021-07-09T16:23:38Z</time>
      </trkpt>
      <trkpt lat="39.7901" lon="-7.38045">
        <ele>123.419</ele>
        <time>2021-07-09T16:23:49Z</time>
      </trkpt>
      <trkpt lat="39.79011" lon="-7.38222">
        <ele>132.3232</ele>
        <time>2021-07-09T16:24:00Z</time>
      </trkpt>
      <trkpt lat="39.79013" lon="-7.38336">
        <ele>145.0761</ele>
        <time>2021-07-09T16:24:11Z</time>
      </trkpt>
      <trkpt lat="39.7897" lon="-7.38404">
        <ele>158.6884</ele>
        <time>2021-07-09T16:24:22Z</time>
      </trkpt>
      <trkpt lat="39.78905" lon="-7.38309">
        <ele>138.5964</ele>
        <time>2021-07-09T16:24:33Z</time>
      </trkpt>
      <trkpt lat="39.78796" lon="-7.38225">
        <ele>145.5441</ele>
        <time>2021-07-09T16:24:44Z</time>
      </trkpt>
      <trkpt lat="39.78657" lon="-7.38127">
        <ele>151.2719</ele>
        <time>2021-07-09T16:24:55Z</time>
      </trkpt>
      <trkpt lat="39.78538" lon="-7.38012">
        <ele>164.7958</ele>
        <time>2021-07-09T16:25:06Z</time>
      </trkpt>
      <trkpt lat="39.78453" lon="-7.38002">
        <ele>173.4454</ele>
        <time>2021-07-09T16:25:17Z</time>
      </trkpt>
      <trkpt lat="39.78378" lon="-7.38064">
        <ele>168.1721</ele>
        <time>2021-07-09T16:25:28Z</time>
      </trkpt>
      <trkpt lat="39.78323" lon="-7.38142">
        <ele>161.3307</ele>
        <time>2021-07-09T16:25:39Z</time>
      </trkpt>
      <trkpt lat="39.78216" lon="-7.38135">
        <ele>164.947</ele>
        <time>2021-07-09T16:25:50Z</time>
      </trkpt>
      <trkpt lat="39.78088" lon="-7.38131">
        <ele>156.2706</ele>
        <time>2021-07-09T16:26:01Z</time>
      </trkpt>
      <trkpt lat="39.77951" lon="-7.38117">
        <ele>156.3213</ele>
        <time>2021-07-09T16:26:12Z</time>
      </trkpt>
      <trkpt lat="39.77799" lon="-7.38109">
        <ele>125.224</ele>
        <time>2021-07-09T16:26:23Z</time>
      </trkpt>
      <trkpt lat="39.77698" lon="-7.38071">
        <ele>143.0605</ele>
        <time>2021-07-09T16:26:34Z</time>
      </trkpt>
      <trkpt lat="39.7759" lon="-7.38052">
        <ele>136.9022</ele>
        <time>2021-07-09T16:26:45Z</time>
      </trkpt>
      <trkpt lat="39.77478" lon="-7.37994">
        <ele>161.0528</ele>
        <time>2021-07-09T16:26:56Z</time>
      </trkpt>
      <trkpt lat="39.77386" lon="-7.37898">
        <ele>157.5208</ele>
        <time>2021-07-09T16:27:07Z</time>
      </trkpt>
      <trkpt lat="39.7728" lon="-7.3774">
        <ele>162.124</ele>
        <time>2021-07-09T16:27:18Z</time>
      </trkpt>
      <trkpt lat="39.77147" lon="-7.37612">
        <ele>156.0969</ele>
        <time>2021-07-09T16:27:29Z</time>
      </trkpt>
      <trkpt lat="39.77" lon="-7.37506">
        <ele>161.4214</ele>
        <time>2021-07-09T16:27:40Z</time>
      </trkpt>
      <trkpt lat="39.76886" lon="-7.37371">
        <ele>167.8789</ele>
        <time>2021-07-09T16:27:51Z</time>
      </trkpt>
      <trkpt lat="39.76785" lon="-7.37311">
        <ele>167.1457</ele>
        <time>2021-07-09T16:28:02Z</time>
      </trkpt>
      <trkpt lat="39.76663" lon="-7.37354">
        <ele>169.647</ele>
        <time>2021-07-09T16:28:13Z</time>
      </trkpt>
      <trkpt lat="39.76522" lon="-7.37325">
        <ele>174.7571</ele>
        <time>2021-07-09T16:28:24Z</time>
      </trkpt>
      <trkpt lat="39.76434" lon="-7.3737">
        <ele>178.0716</ele>
        <time>2021-07-09T16:28:35Z</time>
      </trkpt>
      <trkpt lat="39.76301" lon="-7.37448">
        <ele>188.9722</ele>
        <time>2021-07-09T16:28:46Z</time>
      </trkpt>
      <trkpt lat="39.76178" lon="-7.37475">
        <ele>204.7288</ele>
        <time>2021-07-09T16:28:57Z</time>
      </trkpt>
      <trkpt lat="39.7605" lon="-7.37484">
        <ele>212.2637</ele>
        <time>2021-07-09T16:29:08Z</time>
      </trkpt>
      <trkpt lat="39.75933" lon="-7.37523">
        <ele>213.3028</ele>
        <time>2021-07-09T16:29:19Z</time>
      </trkpt>
      <trkpt lat="39.75793" lon="-7.37527">
        <ele>218.1358</ele>
        <time>2021-07-09T16:29:30Z</time>
      </trkpt>
      <trkpt lat="39.75661" lon="-7.37484">
        <ele>222.0974</ele>
        <time>2021-07-09T16:29:41Z</time>
      </trkpt>
      <trkpt lat="39.75536" lon="-7.37463">
        <ele>226.19</ele>
        <time>2021-07-09T16:29:52Z</time>
      </trkpt>
      <trkpt lat="39.754" lon="-7.37447">
        <ele>231.1512</ele>
        <time>2021-07-09T16:30:03Z</time>
      </trkpt>
      <trkpt lat="39.75265" lon="-7.37443">
        <ele>236.7873</ele>
        <time>2021-07-09T16:30:14Z</time>
      </trkpt>
      <trkpt lat="39.75167" lon="-7.37491">
        <ele>241.4233</ele>
        <time>2021-07-09T16:30:25Z</time>
      </trkpt>
      <trkpt lat="39.75064" lon="-7.37474">
        <ele>245.5126</ele>
        <time>2021-07-09T16:30:36Z</time>
      </trkpt>
      <trkpt lat="39.74975" lon="-7.3748">
        <ele>249.7804</ele>
        <time>2021-07-09T16:30:47Z</time>
      </trkpt>
      <trkpt lat="39.749" lon="-7.37476">
        <ele>252.7759</ele>
        <time>2021-07-09T16:30:58Z</time>
      </trkpt>
      <trkpt lat="39.74796" lon="-7.37512">
        <ele>250.9527</ele>
        <time>2021-07-09T16:31:09Z</time>
      </trkpt>
      <trkpt lat="39.74706" lon="-7.37617">
        <ele>241.5608</ele>
        <time>2021-07-09T16:31:20Z</time>
      </trkpt>
      <trkpt lat="39.74646" lon="-7.37733">
        <ele>200.5936</ele>
        <time>2021-07-09T16:31:31Z</time>
      </trkpt>
      <trkpt lat="39.74551" lon="-7.37855">
        <ele>199.1038</ele>
        <time>2021-07-09T16:31:42Z</time>
      </trkpt>
      <trkpt lat="39.74429" lon="-7.37922">
        <ele>218.6805</ele>
        <time>2021-07-09T16:31:53Z</time>
      </trkpt>
      <trkpt lat="39.74341" lon="-7.38007">
        <ele>233.8128</ele>
        <time>2021-07-09T16:32:04Z</time>
      </trkpt>
      <trkpt lat="39.74265" lon="-7.38088">
        <ele>249.2427</ele>
        <time>2021-07-09T16:32:15Z</time>
      </trkpt>
      <trkpt lat="39.74204" lon="-7.38159">
        <ele>252.9216</ele>
        <time>2021-07-09T16:32:26Z</time>
      </trkpt>
      <trkpt lat="39.74136" lon="-7.38411">
        <ele>232.4326</ele>
        <time>2021-07-09T16:32:37Z</time>
      </trkpt>
      <trkpt lat="39.74098" lon="-7.38715">
        <ele>224.9297</ele>
        <time>2021-07-09T16:32:48Z</time>
      </trkpt>
      <trkpt lat="39.74094" lon="-7.39022">
        <ele>220.584</ele>
        <time>2021-07-09T16:32:59Z</time>
      </trkpt>
      <trkpt lat="39.74123" lon="-7.39327">
        <ele>218.3459</ele>
        <time>2021-07-09T16:33:10Z</time>
      </trkpt>
      <trkpt lat="39.7407" lon="-7.39632">
        <ele>218.252</ele>
        <time>2021-07-09T16:33:21Z</time>
      </trkpt>
      <trkpt lat="39.74169" lon="-7.39901">
        <ele>235.2166</ele>
        <time>2021-07-09T16:33:32Z</time>
      </trkpt>
      <trkpt lat="39.74311" lon="-7.4015">
        <ele>237.9625</ele>
        <time>2021-07-09T16:33:43Z</time>
      </trkpt>
      <trkpt lat="39.74431" lon="-7.40408">
        <ele>241.7291</ele>
        <time>2021-07-09T16:33:54Z</time>
      </trkpt>
      <trkpt lat="39.74543" lon="-7.40665">
        <ele>237.5501</ele>
        <time>2021-07-09T16:34:05Z</time>
      </trkpt>
      <trkpt lat="39.74652" lon="-7.40915">
        <ele>236.0762</ele>
        <time>2021-07-09T16:34:16Z</time>
      </trkpt>
      <trkpt lat="39.74704" lon="-7.41093">
        <ele>237.3776</ele>
        <time>2021-07-09T16:34:27Z</time>
      </trkpt>
      <trkpt lat="39.74752" lon="-7.412">
        <ele>235.3642</ele>
        <time>2021-07-09T16:34:38Z</time>
      </trkpt>
      <trkpt lat="39.74781" lon="-7.41296">
        <ele>232.3756</ele>
        <time>2021-07-09T16:34:49Z</time>
      </trkpt>
      <trkpt lat="39.74877" lon="-7.41324">
        <ele>234.118</ele>
        <time>2021-07-09T16:35:00Z</time>
      </trkpt>
      <trkpt lat="39.74979" lon="-7.41338">
        <ele>231.789</ele>
        <time>2021-07-09T16:35:11Z</time>
      </trkpt>
      <trkpt lat="39.75087" lon="-7.4129">
        <ele>223.4805</ele>
        <time>2021-07-09T16:35:22Z</time>
      </trkpt>
      <trkpt lat="39.75213" lon="-7.41253">
        <ele>224.0905</ele>
        <time>2021-07-09T16:35:33Z</time>
      </trkpt>
      <trkpt lat="39.75329" lon="-7.41289">
        <ele>215.7047</ele>
        <time>2021-07-09T16:35:44Z</time>
      </trkpt>
      <trkpt lat="39.7544" lon="-7.41301">
        <ele>153.2355</ele>
        <time>2021-07-09T16:35:55Z</time>
      </trkpt>
      <trkpt lat="39.75543" lon="-7.41287">
        <ele>210.2303</ele>
        <time>2021-07-09T16:36:06Z</time>
      </trkpt>
      <trkpt lat="39.7566" lon="-7.41335">
        <ele>207.4073</ele>
        <time>2021-07-09T16:36:17Z</time>
      </trkpt>
      <trkpt lat="39.75776" lon="-7.4133">
        <ele>204.8094</ele>
        <time>2021-07-09T16:36:28Z</time>
      </trkpt>
      <trkpt lat="39.75883" lon="-7.41357">
        <ele>198.9689</ele>
        <time>2021-07-09T16:36:39Z</time>
      </trkpt>
      <trkpt lat="39.76001" lon="-7.41349">
        <ele>200.5323</ele>
        <time>2021-07-09T16:36:50Z</time>
      </trkpt>
      <trkpt lat="39.76124" lon="-7.41375">
        <ele>201.4969</ele>
        <time>2021-07-09T16:37:01Z</time>
      </trkpt>
      <trkpt lat="39.76217" lon="-7.4134">
        <ele>202.1562</ele>
        <time>2021-07-09T16:37:12Z</time>
      </trkpt>
      <trkpt lat="39.76221" lon="-7.41343">
        <ele>204.7586</ele>
        <time>2021-07-09T16:37:57Z</time>
      </trkpt>
      <trkpt lat="39.76229" lon="-7.41345">
        <ele>199.1265</ele>
        <time>2021-07-09T16:38:33Z</time>
      </trkpt>
      <trkpt lat="39.76307" lon="-7.41411">
        <ele>194.4003</ele>
        <time>2021-07-09T16:38:44Z</time>
      </trkpt>
      <trkpt lat="39.76368" lon="-7.41494">
        <ele>196.2719</ele>
        <time>2021-07-09T16:38:55Z</time>
      </trkpt>
      <trkpt lat="39.76419" lon="-7.41567">
        <ele>198.4048</ele>
        <time>2021-07-09T16:39:06Z</time>
      </trkpt>
      <trkpt lat="39.76448" lon="-7.41711">
        <ele>199.3395</ele>
        <time>2021-07-09T16:39:17Z</time>
      </trkpt>
      <trkpt lat="39.76466" lon="-7.41878">
        <ele>195.7152</ele>
        <time>2021-07-09T16:39:28Z</time>
      </trkpt>
      <trkpt lat="39.76461" lon="-7.41993">
        <ele>194.2231</ele>
        <time>2021-07-09T16:39:39Z</time>
      </trkpt>
      <trkpt lat="39.7647" lon="-7.42092">
        <ele>180.8271</ele>
        <time>2021-07-09T16:39:50Z</time>
      </trkpt>
      <trkpt lat="39.76514" lon="-7.42181">
        <ele>176.1745</ele>
        <time>2021-07-09T16:40:01Z</time>
      </trkpt>
      <trkpt lat="39.76465" lon="-7.42257">
        <ele>176.2671</ele>
        <time>2021-07-09T16:40:12Z</time>
      </trkpt>
      <trkpt lat="39.76448" lon="-7.42278">
        <ele>175.9505</ele>
        <time>2021-07-09T16:40:23Z</time>
      </trkpt>
      <trkpt lat="39.76443" lon="-7.4228">
        <ele>182.8976</ele>
        <time>2021-07-09T16:40:36Z</time>
      </trkpt>
      <trkpt lat="39.76443" lon="-7.42285">
        <ele>179.1455</ele>
        <time>2021-07-09T16:41:19Z</time>
      </trkpt>
      <trkpt lat="39.76431" lon="-7.42287">
        <ele>178.6177</ele>
        <time>2021-07-09T16:41:30Z</time>
      </trkpt>
      <trkpt lat="39.76475" lon="-7.42253">
        <ele>170.3068</ele>
        <time>2021-07-09T16:41:41Z</time>
      </trkpt>
      <trkpt lat="39.76478" lon="-7.42258">
        <ele>185.5342</ele>
        <time>2021-07-09T16:42:17Z</time>
      </trkpt>
      <trkpt lat="39.76473" lon="-7.42266">
        <ele>185.9446</ele>
        <time>2021-07-09T16:42:28Z</time>
      </trkpt>
      <trkpt lat="39.76468" lon="-7.42268">
        <ele>186.2216</ele>
        <time>2021-07-09T16:42:48Z</time>
      </trkpt>
      <trkpt lat="39.76438" lon="-7.42307">
        <ele>178.9693</ele>
        <time>2021-07-09T16:42:59Z</time>
      </trkpt>
      <trkpt lat="39.76412" lon="-7.42331">
        <ele>177.4497</ele>
        <time>2021-07-09T16:43:10Z</time>
      </trkpt>
      <trkpt lat="39.76397" lon="-7.42353">
        <ele>177.8426</ele>
        <time>2021-07-09T16:43:21Z</time>
      </trkpt>
      <trkpt lat="39.76395" lon="-7.42357">
        <ele>177.5815</ele>
        <time>2021-07-09T16:44:10Z</time>
      </trkpt>
      <trkpt lat="39.76389" lon="-7.42364">
        <ele>177.2773</ele>
        <time>2021-07-09T16:44:21Z</time>
      </trkpt>
      <trkpt lat="39.76384" lon="-7.42369">
        <ele>177.5993</ele>
        <time>2021-07-09T16:44:54Z</time>
      </trkpt>
      <trkpt lat="39.76371" lon="-7.42413">
        <ele>177.5079</ele>
        <time>2021-07-09T16:45:05Z</time>
      </trkpt>
      <trkpt lat="39.76364" lon="-7.42494">
        <ele>179.5086</ele>
        <time>2021-07-09T16:45:16Z</time>
      </trkpt>
      <trkpt lat="39.76345" lon="-7.42586">
        <ele>179.6606</ele>
        <time>2021-07-09T16:45:27Z</time>
      </trkpt>
      <trkpt lat="39.76329" lon="-7.42687">
        <ele>178.4329</ele>
        <time>2021-07-09T16:45:38Z</time>
      </trkpt>
      <trkpt lat="39.76296" lon="-7.42794">
        <ele>177.2551</ele>
        <time>2021-07-09T16:45:49Z</time>
      </trkpt>
      <trkpt lat="39.76266" lon="-7.42908">
        <ele>177.9112</ele>
        <time>2021-07-09T16:46:00Z</time>
      </trkpt>
      <trkpt lat="39.76228" lon="-7.43006">
        <ele>182.3482</ele>
        <time>2021-07-09T16:46:11Z</time>
      </trkpt>
      <trkpt lat="39.76187" lon="-7.43084">
        <ele>182.2377</ele>
        <time>2021-07-09T16:46:22Z</time>
      </trkpt>
      <trkpt lat="39.76172" lon="-7.4321">
        <ele>187.7786</ele>
        <time>2021-07-09T16:46:33Z</time>
      </trkpt>
      <trkpt lat="39.76162" lon="-7.43344">
        <ele>187.3136</ele>
        <time>2021-07-09T16:46:44Z</time>
      </trkpt>
      <trkpt lat="39.76178" lon="-7.43488">
        <ele>188.2825</ele>
        <time>2021-07-09T16:46:55Z</time>
      </trkpt>
      <trkpt lat="39.76183" lon="-7.43633">
        <ele>185.8325</ele>
        <time>2021-07-09T16:47:06Z</time>
      </trkpt>
      <trkpt lat="39.76213" lon="-7.43773">
        <ele>182.1835</ele>
        <time>2021-07-09T16:47:17Z</time>
      </trkpt>
      <trkpt lat="39.76284" lon="-7.43864">
        <ele>183.2764</ele>
        <time>2021-07-09T16:47:28Z</time>
      </trkpt>
      <trkpt lat="39.76316" lon="-7.43953">
        <ele>175.8667</ele>
        <time>2021-07-09T16:47:39Z</time>
      </trkpt>
      <trkpt lat="39.76382" lon="-7.43994">
        <ele>172.131</ele>
        <time>2021-07-09T16:47:50Z</time>
      </trkpt>
      <trkpt lat="39.76422" lon="-7.44067">
        <ele>164.1943</ele>
        <time>2021-07-09T16:48:01Z</time>
      </trkpt>
      <trkpt lat="39.7649" lon="-7.44158">
        <ele>158.8998</ele>
        <time>2021-07-09T16:48:12Z</time>
      </trkpt>
      <trkpt lat="39.76541" lon="-7.44247">
        <ele>158.0237</ele>
        <time>2021-07-09T16:48:23Z</time>
      </trkpt>
      <trkpt lat="39.76566" lon="-7.44335">
        <ele>140.1769</ele>
        <time>2021-07-09T16:48:34Z</time>
      </trkpt>
      <trkpt lat="39.76573" lon="-7.44429">
        <ele>116.0736</ele>
        <time>2021-07-09T16:48:45Z</time>
      </trkpt>
      <trkpt lat="39.76576" lon="-7.44529">
        <ele>117.833</ele>
        <time>2021-07-09T16:48:56Z</time>
      </trkpt>
      <trkpt lat="39.76579" lon="-7.44594">
        <ele>130.6466</ele>
        <time>2021-07-09T16:49:07Z</time>
      </trkpt>
      <trkpt lat="39.76572" lon="-7.44583">
        <ele>163.6436</ele>
        <time>2021-07-09T16:49:18Z</time>
      </trkpt>
      <trkpt lat="39.76569" lon="-7.44576">
        <ele>190.6652</ele>
        <time>2021-07-09T16:49:29Z</time>
      </trkpt>
      <trkpt lat="39.76573" lon="-7.44591">
        <ele>179.9427</ele>
        <time>2021-07-09T16:49:40Z</time>
      </trkpt>
      <trkpt lat="39.76579" lon="-7.44598">
        <ele>150.6786</ele>
        <time>2021-07-09T16:49:51Z</time>
      </trkpt>
      <trkpt lat="39.7658" lon="-7.44604">
        <ele>135.6439</ele>
        <time>2021-07-09T16:50:11Z</time>
      </trkpt>
      <trkpt lat="39.76601" lon="-7.44665">
        <ele>114.7145</ele>
        <time>2021-07-09T16:50:22Z</time>
      </trkpt>
      <trkpt lat="39.76596" lon="-7.44742">
        <ele>115.6206</ele>
        <time>2021-07-09T16:50:33Z</time>
      </trkpt>
      <trkpt lat="39.76571" lon="-7.44771">
        <ele>119.7293</ele>
        <time>2021-07-09T16:50:44Z</time>
      </trkpt>
      <trkpt lat="39.76511" lon="-7.44685">
        <ele>123.3383</ele>
        <time>2021-07-09T16:50:55Z</time>
      </trkpt>
      <trkpt lat="39.76482" lon="-7.44592">
        <ele>110.0198</ele>
        <time>2021-07-09T16:51:06Z</time>
      </trkpt>
      <trkpt lat="39.76498" lon="-7.44673">
        <ele>121.6838</ele>
        <time>2021-07-09T16:51:17Z</time>
      </trkpt>
      <trkpt lat="39.76567" lon="-7.44846">
        <ele>128.8824</ele>
        <time>2021-07-09T16:51:28Z</time>
      </trkpt>
      <trkpt lat="39.76538" lon="-7.44972">
        <ele>130.4069</ele>
        <time>2021-07-09T16:51:39Z</time>
      </trkpt>
      <trkpt lat="39.76491" lon="-7.45078">
        <ele>132.3681</ele>
        <time>2021-07-09T16:51:50Z</time>
      </trkpt>
      <trkpt lat="39.76464" lon="-7.45175">
        <ele>138.9553</ele>
        <time>2021-07-09T16:52:01Z</time>
      </trkpt>
      <trkpt lat="39.76423" lon="-7.45211">
        <ele>147.4466</ele>
        <time>2021-07-09T16:52:12Z</time>
      </trkpt>
      <trkpt lat="39.76348" lon="-7.45227">
        <ele>159.9574</ele>
        <time>2021-07-09T16:52:23Z</time>
      </trkpt>
      <trkpt lat="39.76284" lon="-7.45128">
        <ele>166.1115</ele>
        <time>2021-07-09T16:52:34Z</time>
      </trkpt>
      <trkpt lat="39.76211" lon="-7.45034">
        <ele>176.8724</ele>
        <time>2021-07-09T16:52:45Z</time>
      </trkpt>
      <trkpt lat="39.76147" lon="-7.44928">
        <ele>185.9056</ele>
        <time>2021-07-09T16:52:56Z</time>
      </trkpt>
      <trkpt lat="39.76029" lon="-7.44882">
        <ele>190.7209</ele>
        <time>2021-07-09T16:53:07Z</time>
      </trkpt>
      <trkpt lat="39.75916" lon="-7.44864">
        <ele>190.475</ele>
        <time>2021-07-09T16:53:18Z</time>
      </trkpt>
      <trkpt lat="39.75816" lon="-7.44947">
        <ele>189.5313</ele>
        <time>2021-07-09T16:53:29Z</time>
      </trkpt>
      <trkpt lat="39.75699" lon="-7.44932">
        <ele>194.1158</ele>
        <time>2021-07-09T16:53:40Z</time>
      </trkpt>
      <trkpt lat="39.75579" lon="-7.44976">
        <ele>198.5599</ele>
        <time>2021-07-09T16:53:51Z</time>
      </trkpt>
      <trkpt lat="39.75464" lon="-7.44928">
        <ele>200.6555</ele>
        <time>2021-07-09T16:54:02Z</time>
      </trkpt>
      <trkpt lat="39.75353" lon="-7.44845">
        <ele>202.3857</ele>
        <time>2021-07-09T16:54:13Z</time>
      </trkpt>
      <trkpt lat="39.75256" lon="-7.44785">
        <ele>203.0535</ele>
        <time>2021-07-09T16:54:24Z</time>
      </trkpt>
      <trkpt lat="39.75198" lon="-7.44851">
        <ele>205.4534</ele>
        <time>2021-07-09T16:54:35Z</time>
      </trkpt>
      <trkpt lat="39.752" lon="-7.44991">
        <ele>203.9707</ele>
        <time>2021-07-09T16:54:46Z</time>
      </trkpt>
      <trkpt lat="39.75199" lon="-7.45112">
        <ele>202.0651</ele>
        <time>2021-07-09T16:54:57Z</time>
      </trkpt>
      <trkpt lat="39.75141" lon="-7.45179">
        <ele>198.5014</ele>
        <time>2021-07-09T16:55:08Z</time>
      </trkpt>
      <trkpt lat="39.75096" lon="-7.45276">
        <ele>203.5611</ele>
        <time>2021-07-09T16:55:19Z</time>
      </trkpt>
      <trkpt lat="39.75075" lon="-7.45411">
        <ele>206.4096</ele>
        <time>2021-07-09T16:55:30Z</time>
      </trkpt>
      <trkpt lat="39.75047" lon="-7.45548">
        <ele>207.5613</ele>
        <time>2021-07-09T16:55:41Z</time>
      </trkpt>
      <trkpt lat="39.75002" lon="-7.45668">
        <ele>202.8487</ele>
        <time>2021-07-09T16:55:52Z</time>
      </trkpt>
      <trkpt lat="39.74947" lon="-7.4579">
        <ele>203.0898</ele>
        <time>2021-07-09T16:56:03Z</time>
      </trkpt>
      <trkpt lat="39.74878" lon="-7.45902">
        <ele>198.0766</ele>
        <time>2021-07-09T16:56:14Z</time>
      </trkpt>
      <trkpt lat="39.74833" lon="-7.45986">
        <ele>197.0611</ele>
        <time>2021-07-09T16:56:25Z</time>
      </trkpt>
      <trkpt lat="39.74829" lon="-7.45993">
        <ele>199.2107</ele>
        <time>2021-07-09T16:56:44Z</time>
      </trkpt>
      <trkpt lat="39.74804" lon="-7.46058">
        <ele>192.9863</ele>
        <time>2021-07-09T16:56:55Z</time>
      </trkpt>
      <trkpt lat="39.7477" lon="-7.46139">
        <ele>186.4967</ele>
        <time>2021-07-09T16:57:06Z</time>
      </trkpt>
      <trkpt lat="39.74734" lon="-7.46212">
        <ele>173.9269</ele>
        <time>2021-07-09T16:57:17Z</time>
      </trkpt>
      <trkpt lat="39.74683" lon="-7.46324">
        <ele>172.8982</ele>
        <time>2021-07-09T16:57:28Z</time>
      </trkpt>
      <trkpt lat="39.74669" lon="-7.4646">
        <ele>172.9592</ele>
        <time>2021-07-09T16:57:39Z</time>
      </trkpt>
      <trkpt lat="39.74659" lon="-7.46561">
        <ele>180.8031</ele>
        <time>2021-07-09T16:57:50Z</time>
      </trkpt>
      <trkpt lat="39.74592" lon="-7.46559">
        <ele>173.6879</ele>
        <time>2021-07-09T16:58:01Z</time>
      </trkpt>
      <trkpt lat="39.7451" lon="-7.4664">
        <ele>164.9371</ele>
        <time>2021-07-09T16:58:12Z</time>
      </trkpt>
      <trkpt lat="39.74424" lon="-7.46727">
        <ele>164.6676</ele>
        <time>2021-07-09T16:58:23Z</time>
      </trkpt>
      <trkpt lat="39.74332" lon="-7.468">
        <ele>169.3738</ele>
        <time>2021-07-09T16:58:34Z</time>
      </trkpt>
      <trkpt lat="39.74254" lon="-7.46907">
        <ele>169.9956</ele>
        <time>2021-07-09T16:58:45Z</time>
      </trkpt>
      <trkpt lat="39.7419" lon="-7.47011">
        <ele>173.3357</ele>
        <time>2021-07-09T16:58:56Z</time>
      </trkpt>
      <trkpt lat="39.74101" lon="-7.4708">
        <ele>179.804</ele>
        <time>2021-07-09T16:59:07Z</time>
      </trkpt>
      <trkpt lat="39.74016" lon="-7.47048">
        <ele>183.836</ele>
        <time>2021-07-09T16:59:18Z</time>
      </trkpt>
      <trkpt lat="39.73963" lon="-7.47023">
        <ele>189.0517</ele>
        <time>2021-07-09T16:59:29Z</time>
      </trkpt>
      <trkpt lat="39.73998" lon="-7.47129">
        <ele>187.4374</ele>
        <time>2021-07-09T16:59:40Z</time>
      </trkpt>
      <trkpt lat="39.74038" lon="-7.47203">
        <ele>167.0355</ele>
        <time>2021-07-09T16:59:51Z</time>
      </trkpt>
      <trkpt lat="39.74043" lon="-7.47287">
        <ele>125.3309</ele>
        <time>2021-07-09T17:00:02Z</time>
      </trkpt>
      <trkpt lat="39.73975" lon="-7.47314">
        <ele>132.4112</ele>
        <time>2021-07-09T17:00:13Z</time>
      </trkpt>
      <trkpt lat="39.73888" lon="-7.47348">
        <ele>121.9383</ele>
        <time>2021-07-09T17:00:24Z</time>
      </trkpt>
      <trkpt lat="39.73828" lon="-7.4743">
        <ele>163.6777</ele>
        <time>2021-07-09T17:00:35Z</time>
      </trkpt>
      <trkpt lat="39.73756" lon="-7.47505">
        <ele>173.937</ele>
        <time>2021-07-09T17:00:46Z</time>
      </trkpt>
      <trkpt lat="39.73657" lon="-7.47529">
        <ele>195.6797</ele>
        <time>2021-07-09T17:00:57Z</time>
      </trkpt>
      <trkpt lat="39.73567" lon="-7.4757">
        <ele>221.4415</ele>
        <time>2021-07-09T17:01:08Z</time>
      </trkpt>
      <trkpt lat="39.735" lon="-7.47574">
        <ele>268.7155</ele>
        <time>2021-07-09T17:01:19Z</time>
      </trkpt>
      <trkpt lat="39.73499" lon="-7.47604">
        <ele>220.8725</ele>
        <time>2021-07-09T17:01:30Z</time>
      </trkpt>
      <trkpt lat="39.73448" lon="-7.47671">
        <ele>223.3542</ele>
        <time>2021-07-09T17:01:41Z</time>
      </trkpt>
      <trkpt lat="39.73425" lon="-7.47743">
        <ele>227.241</ele>
        <time>2021-07-09T17:01:52Z</time>
      </trkpt>
      <trkpt lat="39.735" lon="-7.47867">
        <ele>224.0781</ele>
        <time>2021-07-09T17:02:03Z</time>
      </trkpt>
      <trkpt lat="39.73576" lon="-7.47926">
        <ele>219.2112</ele>
        <time>2021-07-09T17:02:14Z</time>
      </trkpt>
      <trkpt lat="39.73657" lon="-7.47981">
        <ele>218.5641</ele>
        <time>2021-07-09T17:02:25Z</time>
      </trkpt>
      <trkpt lat="39.73694" lon="-7.4809">
        <ele>216.8662</ele>
        <time>2021-07-09T17:02:36Z</time>
      </trkpt>
      <trkpt lat="39.73752" lon="-7.48175">
        <ele>212.7034</ele>
        <time>2021-07-09T17:02:47Z</time>
      </trkpt>
      <trkpt lat="39.7371" lon="-7.483">
        <ele>215.8495</ele>
        <time>2021-07-09T17:02:58Z</time>
      </trkpt>
      <trkpt lat="39.73721" lon="-7.48423">
        <ele>216.4592</ele>
        <time>2021-07-09T17:03:09Z</time>
      </trkpt>
      <trkpt lat="39.73763" lon="-7.48537">
        <ele>216.4052</ele>
        <time>2021-07-09T17:03:20Z</time>
      </trkpt>
      <trkpt lat="39.73742" lon="-7.48639">
        <ele>210.3652</ele>
        <time>2021-07-09T17:03:31Z</time>
      </trkpt>
      <trkpt lat="39.73722" lon="-7.48697">
        <ele>201.9397</ele>
        <time>2021-07-09T17:03:42Z</time>
      </trkpt>
      <trkpt lat="39.73756" lon="-7.48749">
        <ele>193.5617</ele>
        <time>2021-07-09T17:03:53Z</time>
      </trkpt>
      <trkpt lat="39.73797" lon="-7.48793">
        <ele>186.0032</ele>
        <time>2021-07-09T17:04:04Z</time>
      </trkpt>
      <trkpt lat="39.73783" lon="-7.48861">
        <ele>184.1553</ele>
        <time>2021-07-09T17:04:15Z</time>
      </trkpt>
      <trkpt lat="39.73748" lon="-7.48943">
        <ele>181.1571</ele>
        <time>2021-07-09T17:04:26Z</time>
      </trkpt>
      <trkpt lat="39.73755" lon="-7.4904">
        <ele>172.4322</ele>
        <time>2021-07-09T17:04:37Z</time>
      </trkpt>
      <trkpt lat="39.73776" lon="-7.49126">
        <ele>167.5415</ele>
        <time>2021-07-09T17:04:48Z</time>
      </trkpt>
      <trkpt lat="39.73776" lon="-7.49212">
        <ele>163.3001</ele>
        <time>2021-07-09T17:04:59Z</time>
      </trkpt>
      <trkpt lat="39.73755" lon="-7.49271">
        <ele>151.6178</ele>
        <time>2021-07-09T17:05:10Z</time>
      </trkpt>
      <trkpt lat="39.73732" lon="-7.49352">
        <ele>147.1968</ele>
        <time>2021-07-09T17:05:21Z</time>
      </trkpt>
      <trkpt lat="39.73712" lon="-7.49351">
        <ele>146.3396</ele>
        <time>2021-07-09T17:05:32Z</time>
      </trkpt>
      <trkpt lat="39.73703" lon="-7.49345">
        <ele>149.756</ele>
        <time>2021-07-09T17:05:43Z</time>
      </trkpt>
      <trkpt lat="39.73639" lon="-7.49428">
        <ele>144.4572</ele>
        <time>2021-07-09T17:05:54Z</time>
      </trkpt>
      <trkpt lat="39.73567" lon="-7.49437">
        <ele>137.5205</ele>
        <time>2021-07-09T17:06:05Z</time>
      </trkpt>
      <trkpt lat="39.73564" lon="-7.4944">
        <ele>133.5004</ele>
        <time>2021-07-09T17:06:35Z</time>
      </trkpt>
      <trkpt lat="39.73567" lon="-7.49439">
        <ele>130.783</ele>
        <time>2021-07-09T17:07:20Z</time>
      </trkpt>
      <trkpt lat="39.73567" lon="-7.49442">
        <ele>125.6953</ele>
        <time>2021-07-09T17:08:19Z</time>
      </trkpt>
      <trkpt lat="39.73566" lon="-7.49437">
        <ele>125.41</ele>
        <time>2021-07-09T17:08:38Z</time>
      </trkpt>
      <trkpt lat="39.73567" lon="-7.49435">
        <ele>127.0019</ele>
        <time>2021-07-09T17:09:37Z</time>
      </trkpt>
      <trkpt lat="39.73566" lon="-7.49434">
        <ele>127.2254</ele>
        <time>2021-07-09T17:10:37Z</time>
      </trkpt>
      <trkpt lat="39.73564" lon="-7.49438">
        <ele>126.9124</ele>
        <time>2021-07-09T17:11:36Z</time>
      </trkpt>
      <trkpt lat="39.73563" lon="-7.49436">
        <ele>125.8271</ele>
        <time>2021-07-09T17:12:35Z</time>
      </trkpt>
      <trkpt lat="39.73565" lon="-7.49435">
        <ele>126.4153</ele>
        <time>2021-07-09T17:13:35Z</time>
      </trkpt>
      <trkpt lat="39.73564" lon="-7.49434">
        <ele>122.6384</ele>
        <time>2021-07-09T17:14:35Z</time>
      </trkpt>
      <trkpt lat="39.73565" lon="-7.4944">
        <ele>125.4654</ele>
        <time>2021-07-09T17:15:02Z</time>
      </trkpt>
      <trkpt lat="39.73568" lon="-7.49437">
        <ele>121.7848</ele>
        <time>2021-07-09T17:15:21Z</time>
      </trkpt>
      <trkpt lat="39.73578" lon="-7.49437">
        <ele>119.5174</ele>
        <time>2021-07-09T17:15:32Z</time>
      </trkpt>
      <trkpt lat="39.73581" lon="-7.49446">
        <ele>117.7594</ele>
        <time>2021-07-09T17:15:43Z</time>
      </trkpt>
      <trkpt lat="39.73589" lon="-7.49452">
        <ele>115.6801</ele>
        <time>2021-07-09T17:15:54Z</time>
      </trkpt>
      <trkpt lat="39.73598" lon="-7.49455">
        <ele>112.494</ele>
        <time>2021-07-09T17:16:05Z</time>
      </trkpt>
      <trkpt lat="39.73607" lon="-7.49456">
        <ele>111.6257</ele>
        <time>2021-07-09T17:16:16Z</time>
      </trkpt>
      <trkpt lat="39.73616" lon="-7.49458">
        <ele>108.9299</ele>
        <time>2021-07-09T17:16:27Z</time>
      </trkpt>
      <trkpt lat="39.7362" lon="-7.49459">
        <ele>109.5331</ele>
        <time>2021-07-09T17:17:06Z</time>
      </trkpt>
      <trkpt lat="39.7362" lon="-7.49461">
        <ele>110.1995</ele>
        <time>2021-07-09T17:18:06Z</time>
      </trkpt>
      <trkpt lat="39.73616" lon="-7.4946">
        <ele>114.3088</ele>
        <time>2021-07-09T17:18:18Z</time>
      </trkpt>
      <trkpt lat="39.73614" lon="-7.49455">
        <ele>111.5045</ele>
        <time>2021-07-09T17:18:52Z</time>
      </trkpt>
      <trkpt lat="39.73597" lon="-7.49458">
        <ele>115.9494</ele>
        <time>2021-07-09T17:19:03Z</time>
      </trkpt>
      <trkpt lat="39.73585" lon="-7.49453">
        <ele>118.0974</ele>
        <time>2021-07-09T17:19:14Z</time>
      </trkpt>
      <trkpt lat="39.73577" lon="-7.49448">
        <ele>120.3976</ele>
        <time>2021-07-09T17:19:25Z</time>
      </trkpt>
      <trkpt lat="39.73571" lon="-7.49435">
        <ele>120.8526</ele>
        <time>2021-07-09T17:19:36Z</time>
      </trkpt>
      <trkpt lat="39.73563" lon="-7.49438">
        <ele>120.5341</ele>
        <time>2021-07-09T17:19:47Z</time>
      </trkpt>
      <trkpt lat="39.73563" lon="-7.49438">
        <ele>124.36</ele>
        <time>2021-07-09T17:20:46Z</time>
      </trkpt>
      <trkpt lat="39.73566" lon="-7.49441">
        <ele>124.6307</ele>
        <time>2021-07-09T17:21:01Z</time>
      </trkpt>
      <trkpt lat="39.73566" lon="-7.49437">
        <ele>124.028</ele>
        <time>2021-07-09T17:22:01Z</time>
      </trkpt>
      <trkpt lat="39.73564" lon="-7.49438">
        <ele>123.872</ele>
        <time>2021-07-09T17:23:00Z</time>
      </trkpt>
      <trkpt lat="39.73564" lon="-7.49438">
        <ele>123.872</ele>
        <time>2021-07-09T17:23:59Z</time>
      </trkpt>
      <trkpt lat="39.73568" lon="-7.49441">
        <ele>123.4361</ele>
        <time>2021-07-09T17:24:28Z</time>
      </trkpt>
      <trkpt lat="39.73568" lon="-7.49441">
        <ele>123.2728</ele>
        <time>2021-07-09T17:25:27Z</time>
      </trkpt>
      <trkpt lat="39.73568" lon="-7.49441">
        <ele>123.2728</ele>
        <time>2021-07-09T17:26:26Z</time>
      </trkpt>
      <trkpt lat="39.73567" lon="-7.4944">
        <ele>124.9787</ele>
        <time>2021-07-09T17:27:26Z</time>
      </trkpt>
      <trkpt lat="39.73564" lon="-7.49438">
        <ele>124.5022</ele>
        <time>2021-07-09T17:28:26Z</time>
      </trkpt>
      <trkpt lat="39.73564" lon="-7.49437">
        <ele>123.9011</ele>
        <time>2021-07-09T17:29:26Z</time>
      </trkpt>
      <trkpt lat="39.73566" lon="-7.49438">
        <ele>124.1473</ele>
        <time>2021-07-09T17:30:25Z</time>
      </trkpt>
      <trkpt lat="39.73564" lon="-7.4944">
        <ele>124.1463</ele>
        <time>2021-07-09T17:31:24Z</time>
      </trkpt>
      <trkpt lat="39.73564" lon="-7.49439">
        <ele>124.1758</ele>
        <time>2021-07-09T17:32:23Z</time>
      </trkpt>
      <trkpt lat="39.73563" lon="-7.49435">
        <ele>124.2628</ele>
        <time>2021-07-09T17:33:04Z</time>
      </trkpt>
      <trkpt lat="39.73618" lon="-7.49429">
        <ele>127.7733</ele>
        <time>2021-07-09T17:33:15Z</time>
      </trkpt>
      <trkpt lat="39.73661" lon="-7.49412">
        <ele>133.492</ele>
        <time>2021-07-09T17:33:26Z</time>
      </trkpt>
      <trkpt lat="39.7367" lon="-7.4943">
        <ele>132.2148</ele>
        <time>2021-07-09T17:33:48Z</time>
      </trkpt>
      <trkpt lat="39.73675" lon="-7.49605">
        <ele>135.4503</ele>
        <time>2021-07-09T17:33:59Z</time>
      </trkpt>
      <trkpt lat="39.73761" lon="-7.49786">
        <ele>150.8467</ele>
        <time>2021-07-09T17:34:10Z</time>
      </trkpt>
      <trkpt lat="39.73735" lon="-7.49968">
        <ele>166.8944</ele>
        <time>2021-07-09T17:34:21Z</time>
      </trkpt>
      <trkpt lat="39.73629" lon="-7.50139">
        <ele>177.6391</ele>
        <time>2021-07-09T17:34:32Z</time>
      </trkpt>
      <trkpt lat="39.73646" lon="-7.50435">
        <ele>184.0957</ele>
        <time>2021-07-09T17:34:43Z</time>
      </trkpt>
      <trkpt lat="39.73664" lon="-7.50744">
        <ele>199.7028</ele>
        <time>2021-07-09T17:34:54Z</time>
      </trkpt>
      <trkpt lat="39.73683" lon="-7.5102">
        <ele>197.2362</ele>
        <time>2021-07-09T17:35:05Z</time>
      </trkpt>
      <trkpt lat="39.73721" lon="-7.51317">
        <ele>198.3477</ele>
        <time>2021-07-09T17:35:16Z</time>
      </trkpt>
      <trkpt lat="39.73686" lon="-7.51612">
        <ele>192.6865</ele>
        <time>2021-07-09T17:35:27Z</time>
      </trkpt>
      <trkpt lat="39.73611" lon="-7.51826">
        <ele>202.2577</ele>
        <time>2021-07-09T17:35:38Z</time>
      </trkpt>
      <trkpt lat="39.734" lon="-7.51895">
        <ele>186.2536</ele>
        <time>2021-07-09T17:35:49Z</time>
      </trkpt>
      <trkpt lat="39.73174" lon="-7.51943">
        <ele>176.5319</ele>
        <time>2021-07-09T17:36:00Z</time>
      </trkpt>
      <trkpt lat="39.72953" lon="-7.52015">
        <ele>165.9309</ele>
        <time>2021-07-09T17:36:11Z</time>
      </trkpt>
      <trkpt lat="39.72738" lon="-7.52189">
        <ele>153.4048</ele>
        <time>2021-07-09T17:36:22Z</time>
      </trkpt>
      <trkpt lat="39.72539" lon="-7.52363">
        <ele>147.6507</ele>
        <time>2021-07-09T17:36:33Z</time>
      </trkpt>
      <trkpt lat="39.72385" lon="-7.52523">
        <ele>148.8587</ele>
        <time>2021-07-09T17:36:44Z</time>
      </trkpt>
      <trkpt lat="39.72295" lon="-7.52616">
        <ele>149.1295</ele>
        <time>2021-07-09T17:36:55Z</time>
      </trkpt>
      <trkpt lat="39.72243" lon="-7.52628">
        <ele>146.2353</ele>
        <time>2021-07-09T17:37:06Z</time>
      </trkpt>
      <trkpt lat="39.72222" lon="-7.52598">
        <ele>142.2363</ele>
        <time>2021-07-09T17:37:17Z</time>
      </trkpt>
      <trkpt lat="39.72221" lon="-7.52599">
        <ele>144.8688</ele>
        <time>2021-07-09T17:38:16Z</time>
      </trkpt>
      <trkpt lat="39.72224" lon="-7.52603">
        <ele>143.8691</ele>
        <time>2021-07-09T17:39:04Z</time>
      </trkpt>
      <trkpt lat="39.72242" lon="-7.52672">
        <ele>144.4857</ele>
        <time>2021-07-09T17:39:15Z</time>
      </trkpt>
      <trkpt lat="39.72135" lon="-7.52782">
        <ele>147.2549</ele>
        <time>2021-07-09T17:39:26Z</time>
      </trkpt>
      <trkpt lat="39.7206" lon="-7.52892">
        <ele>148.0329</ele>
        <time>2021-07-09T17:39:37Z</time>
      </trkpt>
      <trkpt lat="39.72009" lon="-7.52993">
        <ele>148.853</ele>
        <time>2021-07-09T17:39:48Z</time>
      </trkpt>
      <trkpt lat="39.71968" lon="-7.53151">
        <ele>150.3651</ele>
        <time>2021-07-09T17:39:59Z</time>
      </trkpt>
      <trkpt lat="39.71975" lon="-7.5332">
        <ele>152.8724</ele>
        <time>2021-07-09T17:40:10Z</time>
      </trkpt>
      <trkpt lat="39.71981" lon="-7.53461">
        <ele>158.1479</ele>
        <time>2021-07-09T17:40:21Z</time>
      </trkpt>
      <trkpt lat="39.71923" lon="-7.53485">
        <ele>158.9275</ele>
        <time>2021-07-09T17:40:32Z</time>
      </trkpt>
      <trkpt lat="39.71857" lon="-7.53548">
        <ele>155.84</ele>
        <time>2021-07-09T17:40:43Z</time>
      </trkpt>
      <trkpt lat="39.71791" lon="-7.53498">
        <ele>154.3931</ele>
        <time>2021-07-09T17:40:54Z</time>
      </trkpt>
      <trkpt lat="39.7174" lon="-7.5341">
        <ele>148.9733</ele>
        <time>2021-07-09T17:41:05Z</time>
      </trkpt>
      <trkpt lat="39.71745" lon="-7.53322">
        <ele>149.0294</ele>
        <time>2021-07-09T17:41:16Z</time>
      </trkpt>
      <trkpt lat="39.71696" lon="-7.53282">
        <ele>149.306</ele>
        <time>2021-07-09T17:41:27Z</time>
      </trkpt>
      <trkpt lat="39.71684" lon="-7.53278">
        <ele>150.5833</ele>
        <time>2021-07-09T17:41:38Z</time>
      </trkpt>
      <trkpt lat="39.71661" lon="-7.53213">
        <ele>152.3597</ele>
        <time>2021-07-09T17:41:49Z</time>
      </trkpt>
      <trkpt lat="39.71646" lon="-7.53062">
        <ele>164.3812</ele>
        <time>2021-07-09T17:42:00Z</time>
      </trkpt>
      <trkpt lat="39.71634" lon="-7.52931">
        <ele>166.0405</ele>
        <time>2021-07-09T17:42:11Z</time>
      </trkpt>
      <trkpt lat="39.71627" lon="-7.52825">
        <ele>155.258</ele>
        <time>2021-07-09T17:42:22Z</time>
      </trkpt>
      <trkpt lat="39.71653" lon="-7.52712">
        <ele>153.8658</ele>
        <time>2021-07-09T17:42:33Z</time>
      </trkpt>
      <trkpt lat="39.71631" lon="-7.526">
        <ele>167.5533</ele>
        <time>2021-07-09T17:42:44Z</time>
      </trkpt>
      <trkpt lat="39.71571" lon="-7.52456">
        <ele>177.6045</ele>
        <time>2021-07-09T17:42:55Z</time>
      </trkpt>
      <trkpt lat="39.71505" lon="-7.52352">
        <ele>182.4091</ele>
        <time>2021-07-09T17:43:06Z</time>
      </trkpt>
      <trkpt lat="39.71428" lon="-7.52222">
        <ele>191.6721</ele>
        <time>2021-07-09T17:43:17Z</time>
      </trkpt>
      <trkpt lat="39.71334" lon="-7.52137">
        <ele>188.1226</ele>
        <time>2021-07-09T17:43:28Z</time>
      </trkpt>
      <trkpt lat="39.71203" lon="-7.52031">
        <ele>195.0147</ele>
        <time>2021-07-09T17:43:39Z</time>
      </trkpt>
      <trkpt lat="39.71123" lon="-7.51917">
        <ele>204.7919</ele>
        <time>2021-07-09T17:43:50Z</time>
      </trkpt>
      <trkpt lat="39.71065" lon="-7.51783">
        <ele>215.1812</ele>
        <time>2021-07-09T17:44:01Z</time>
      </trkpt>
      <trkpt lat="39.71035" lon="-7.51645">
        <ele>224.2657</ele>
        <time>2021-07-09T17:44:12Z</time>
      </trkpt>
      <trkpt lat="39.71003" lon="-7.51507">
        <ele>231.6852</ele>
        <time>2021-07-09T17:44:23Z</time>
      </trkpt>
      <trkpt lat="39.70969" lon="-7.51382">
        <ele>236.4604</ele>
        <time>2021-07-09T17:44:34Z</time>
      </trkpt>
      <trkpt lat="39.70867" lon="-7.51256">
        <ele>241.7744</ele>
        <time>2021-07-09T17:44:45Z</time>
      </trkpt>
      <trkpt lat="39.70727" lon="-7.51186">
        <ele>247.0754</ele>
        <time>2021-07-09T17:44:56Z</time>
      </trkpt>
      <trkpt lat="39.70577" lon="-7.51149">
        <ele>248.3226</ele>
        <time>2021-07-09T17:45:07Z</time>
      </trkpt>
      <trkpt lat="39.70431" lon="-7.51201">
        <ele>246.6861</ele>
        <time>2021-07-09T17:45:18Z</time>
      </trkpt>
      <trkpt lat="39.70312" lon="-7.51186">
        <ele>248.67</ele>
        <time>2021-07-09T17:45:29Z</time>
      </trkpt>
      <trkpt lat="39.70215" lon="-7.51095">
        <ele>250.243</ele>
        <time>2021-07-09T17:45:40Z</time>
      </trkpt>
      <trkpt lat="39.70097" lon="-7.51177">
        <ele>242.2017</ele>
        <time>2021-07-09T17:45:51Z</time>
      </trkpt>
      <trkpt lat="39.70012" lon="-7.51308">
        <ele>242.3845</ele>
        <time>2021-07-09T17:46:02Z</time>
      </trkpt>
      <trkpt lat="39.6993" lon="-7.51444">
        <ele>238.9211</ele>
        <time>2021-07-09T17:46:13Z</time>
      </trkpt>
      <trkpt lat="39.69808" lon="-7.51512">
        <ele>238.6469</ele>
        <time>2021-07-09T17:46:24Z</time>
      </trkpt>
      <trkpt lat="39.6972" lon="-7.51633">
        <ele>235.9133</ele>
        <time>2021-07-09T17:46:35Z</time>
      </trkpt>
      <trkpt lat="39.69661" lon="-7.5175">
        <ele>230.6916</ele>
        <time>2021-07-09T17:46:46Z</time>
      </trkpt>
      <trkpt lat="39.69588" lon="-7.51679">
        <ele>230.5946</ele>
        <time>2021-07-09T17:46:57Z</time>
      </trkpt>
      <trkpt lat="39.6947" lon="-7.51622">
        <ele>234.1598</ele>
        <time>2021-07-09T17:47:08Z</time>
      </trkpt>
      <trkpt lat="39.69345" lon="-7.51578">
        <ele>233.323</ele>
        <time>2021-07-09T17:47:19Z</time>
      </trkpt>
      <trkpt lat="39.69222" lon="-7.51471">
        <ele>243.3965</ele>
        <time>2021-07-09T17:47:30Z</time>
      </trkpt>
      <trkpt lat="39.69106" lon="-7.51376">
        <ele>253.8229</ele>
        <time>2021-07-09T17:47:41Z</time>
      </trkpt>
      <trkpt lat="39.68978" lon="-7.51384">
        <ele>258.1215</ele>
        <time>2021-07-09T17:47:52Z</time>
      </trkpt>
      <trkpt lat="39.6891" lon="-7.51439">
        <ele>260.4865</ele>
        <time>2021-07-09T17:48:03Z</time>
      </trkpt>
      <trkpt lat="39.68912" lon="-7.5162">
        <ele>259.9015</ele>
        <time>2021-07-09T17:48:14Z</time>
      </trkpt>
      <trkpt lat="39.68912" lon="-7.51801">
        <ele>254.3278</ele>
        <time>2021-07-09T17:48:25Z</time>
      </trkpt>
      <trkpt lat="39.68901" lon="-7.51994">
        <ele>249.95</ele>
        <time>2021-07-09T17:48:36Z</time>
      </trkpt>
      <trkpt lat="39.68843" lon="-7.5215">
        <ele>257.2532</ele>
        <time>2021-07-09T17:48:47Z</time>
      </trkpt>
      <trkpt lat="39.68796" lon="-7.52279">
        <ele>260.1845</ele>
        <time>2021-07-09T17:48:58Z</time>
      </trkpt>
      <trkpt lat="39.688" lon="-7.52423">
        <ele>252.0035</ele>
        <time>2021-07-09T17:49:09Z</time>
      </trkpt>
      <trkpt lat="39.68707" lon="-7.52482">
        <ele>255.4601</ele>
        <time>2021-07-09T17:49:20Z</time>
      </trkpt>
      <trkpt lat="39.68567" lon="-7.52487">
        <ele>252.9568</ele>
        <time>2021-07-09T17:49:31Z</time>
      </trkpt>
      <trkpt lat="39.68415" lon="-7.52532">
        <ele>260.4742</ele>
        <time>2021-07-09T17:49:42Z</time>
      </trkpt>
      <trkpt lat="39.6829" lon="-7.52493">
        <ele>254.5177</ele>
        <time>2021-07-09T17:49:53Z</time>
      </trkpt>
      <trkpt lat="39.6825" lon="-7.52608">
        <ele>248.4725</ele>
        <time>2021-07-09T17:50:04Z</time>
      </trkpt>
      <trkpt lat="39.68222" lon="-7.52747">
        <ele>235.6331</ele>
        <time>2021-07-09T17:50:15Z</time>
      </trkpt>
      <trkpt lat="39.68134" lon="-7.52818">
        <ele>239.0297</ele>
        <time>2021-07-09T17:50:26Z</time>
      </trkpt>
      <trkpt lat="39.68066" lon="-7.5287">
        <ele>246.7372</ele>
        <time>2021-07-09T17:50:37Z</time>
      </trkpt>
      <trkpt lat="39.68029" lon="-7.52911">
        <ele>252.5204</ele>
        <time>2021-07-09T17:50:48Z</time>
      </trkpt>
      <trkpt lat="39.67936" lon="-7.52969">
        <ele>252.5342</ele>
        <time>2021-07-09T17:50:59Z</time>
      </trkpt>
      <trkpt lat="39.67863" lon="-7.53012">
        <ele>256.5488</ele>
        <time>2021-07-09T17:51:10Z</time>
      </trkpt>
      <trkpt lat="39.678" lon="-7.53067">
        <ele>246.5662</ele>
        <time>2021-07-09T17:51:21Z</time>
      </trkpt>
      <trkpt lat="39.67742" lon="-7.53131">
        <ele>231.0852</ele>
        <time>2021-07-09T17:51:32Z</time>
      </trkpt>
      <trkpt lat="39.67703" lon="-7.53238">
        <ele>241.3087</ele>
        <time>2021-07-09T17:51:43Z</time>
      </trkpt>
      <trkpt lat="39.67667" lon="-7.53323">
        <ele>248.5688</ele>
        <time>2021-07-09T17:51:54Z</time>
      </trkpt>
      <trkpt lat="39.67635" lon="-7.53394">
        <ele>258.4236</ele>
        <time>2021-07-09T17:52:05Z</time>
      </trkpt>
      <trkpt lat="39.67562" lon="-7.53539">
        <ele>251.2747</ele>
        <time>2021-07-09T17:52:16Z</time>
      </trkpt>
      <trkpt lat="39.67522" lon="-7.53727">
        <ele>243.5842</ele>
        <time>2021-07-09T17:52:27Z</time>
      </trkpt>
      <trkpt lat="39.67451" lon="-7.53855">
        <ele>243.4252</ele>
        <time>2021-07-09T17:52:38Z</time>
      </trkpt>
      <trkpt lat="39.67354" lon="-7.53944">
        <ele>240.8895</ele>
        <time>2021-07-09T17:52:49Z</time>
      </trkpt>
      <trkpt lat="39.67219" lon="-7.53987">
        <ele>240.7469</ele>
        <time>2021-07-09T17:53:00Z</time>
      </trkpt>
      <trkpt lat="39.67092" lon="-7.5399">
        <ele>237.7993</ele>
        <time>2021-07-09T17:53:11Z</time>
      </trkpt>
      <trkpt lat="39.67019" lon="-7.541">
        <ele>222.8244</ele>
        <time>2021-07-09T17:53:22Z</time>
      </trkpt>
      <trkpt lat="39.67018" lon="-7.54225">
        <ele>216.8104</ele>
        <time>2021-07-09T17:53:33Z</time>
      </trkpt>
      <trkpt lat="39.66974" lon="-7.54351">
        <ele>222.5915</ele>
        <time>2021-07-09T17:53:44Z</time>
      </trkpt>
      <trkpt lat="39.6685" lon="-7.54374">
        <ele>232.0378</ele>
        <time>2021-07-09T17:53:55Z</time>
      </trkpt>
      <trkpt lat="39.66753" lon="-7.54494">
        <ele>241.8576</ele>
        <time>2021-07-09T17:54:06Z</time>
      </trkpt>
      <trkpt lat="39.66665" lon="-7.54545">
        <ele>247.0384</ele>
        <time>2021-07-09T17:54:17Z</time>
      </trkpt>
      <trkpt lat="39.66658" lon="-7.54679">
        <ele>249.1805</ele>
        <time>2021-07-09T17:54:28Z</time>
      </trkpt>
      <trkpt lat="39.6667" lon="-7.5478">
        <ele>241.2162</ele>
        <time>2021-07-09T17:54:39Z</time>
      </trkpt>
      <trkpt lat="39.66692" lon="-7.5491">
        <ele>229.3852</ele>
        <time>2021-07-09T17:54:50Z</time>
      </trkpt>
      <trkpt lat="39.66691" lon="-7.55012">
        <ele>220.0507</ele>
        <time>2021-07-09T17:55:01Z</time>
      </trkpt>
      <trkpt lat="39.66659" lon="-7.55132">
        <ele>210.4093</ele>
        <time>2021-07-09T17:55:12Z</time>
      </trkpt>
      <trkpt lat="39.66644" lon="-7.55269">
        <ele>208.1634</ele>
        <time>2021-07-09T17:55:23Z</time>
      </trkpt>
      <trkpt lat="39.66598" lon="-7.55344">
        <ele>202.9886</ele>
        <time>2021-07-09T17:55:34Z</time>
      </trkpt>
      <trkpt lat="39.66511" lon="-7.55372">
        <ele>196.9933</ele>
        <time>2021-07-09T17:55:45Z</time>
      </trkpt>
      <trkpt lat="39.66521" lon="-7.55423">
        <ele>191.0375</ele>
        <time>2021-07-09T17:55:56Z</time>
      </trkpt>
      <trkpt lat="39.66554" lon="-7.55509">
        <ele>186.2888</ele>
        <time>2021-07-09T17:56:07Z</time>
      </trkpt>
      <trkpt lat="39.6663" lon="-7.55611">
        <ele>181.7723</ele>
        <time>2021-07-09T17:56:18Z</time>
      </trkpt>
      <trkpt lat="39.66667" lon="-7.55683">
        <ele>178.7291</ele>
        <time>2021-07-09T17:56:29Z</time>
      </trkpt>
      <trkpt lat="39.66703" lon="-7.55721">
        <ele>173.6294</ele>
        <time>2021-07-09T17:56:40Z</time>
      </trkpt>
      <trkpt lat="39.66768" lon="-7.55757">
        <ele>163.1899</ele>
        <time>2021-07-09T17:56:51Z</time>
      </trkpt>
      <trkpt lat="39.66806" lon="-7.55781">
        <ele>155.0663</ele>
        <time>2021-07-09T17:57:02Z</time>
      </trkpt>
      <trkpt lat="39.66766" lon="-7.55823">
        <ele>148.6332</ele>
        <time>2021-07-09T17:57:13Z</time>
      </trkpt>
      <trkpt lat="39.66775" lon="-7.55862">
        <ele>144.2168</ele>
        <time>2021-07-09T17:57:24Z</time>
      </trkpt>
      <trkpt lat="39.66834" lon="-7.5587">
        <ele>132.2179</ele>
        <time>2021-07-09T17:57:35Z</time>
      </trkpt>
      <trkpt lat="39.6694" lon="-7.55902">
        <ele>129.9632</ele>
        <time>2021-07-09T17:57:46Z</time>
      </trkpt>
      <trkpt lat="39.66993" lon="-7.55937">
        <ele>140.8916</ele>
        <time>2021-07-09T17:57:57Z</time>
      </trkpt>
      <trkpt lat="39.67024" lon="-7.56095">
        <ele>160.6351</ele>
        <time>2021-07-09T17:58:08Z</time>
      </trkpt>
      <trkpt lat="39.67036" lon="-7.56218">
        <ele>179.6467</ele>
        <time>2021-07-09T17:58:19Z</time>
      </trkpt>
      <trkpt lat="39.66998" lon="-7.56331">
        <ele>191.5531</ele>
        <time>2021-07-09T17:58:30Z</time>
      </trkpt>
      <trkpt lat="39.66973" lon="-7.56452">
        <ele>189.9946</ele>
        <time>2021-07-09T17:58:41Z</time>
      </trkpt>
      <trkpt lat="39.66933" lon="-7.56612">
        <ele>194.037</ele>
        <time>2021-07-09T17:58:52Z</time>
      </trkpt>
      <trkpt lat="39.66912" lon="-7.56774">
        <ele>192.8636</ele>
        <time>2021-07-09T17:59:03Z</time>
      </trkpt>
      <trkpt lat="39.66961" lon="-7.56874">
        <ele>194.5918</ele>
        <time>2021-07-09T17:59:14Z</time>
      </trkpt>
      <trkpt lat="39.66986" lon="-7.56975">
        <ele>199.6385</ele>
        <time>2021-07-09T17:59:25Z</time>
      </trkpt>
      <trkpt lat="39.6698" lon="-7.56979">
        <ele>200.1118</ele>
        <time>2021-07-09T17:59:36Z</time>
      </trkpt>
      <trkpt lat="39.6693" lon="-7.56997">
        <ele>197.8748</ele>
        <time>2021-07-09T17:59:47Z</time>
      </trkpt>
      <trkpt lat="39.6684" lon="-7.57029">
        <ele>184.139</ele>
        <time>2021-07-09T17:59:58Z</time>
      </trkpt>
      <trkpt lat="39.66791" lon="-7.57126">
        <ele>184.9881</ele>
        <time>2021-07-09T18:00:09Z</time>
      </trkpt>
      <trkpt lat="39.66735" lon="-7.57217">
        <ele>174.5543</ele>
        <time>2021-07-09T18:00:20Z</time>
      </trkpt>
      <trkpt lat="39.66709" lon="-7.57315">
        <ele>183.3208</ele>
        <time>2021-07-09T18:00:31Z</time>
      </trkpt>
      <trkpt lat="39.66747" lon="-7.57403">
        <ele>189.1085</ele>
        <time>2021-07-09T18:00:42Z</time>
      </trkpt>
      <trkpt lat="39.6675" lon="-7.5744">
        <ele>192.7603</ele>
        <time>2021-07-09T18:00:53Z</time>
      </trkpt>
      <trkpt lat="39.66686" lon="-7.57512">
        <ele>207.8343</ele>
        <time>2021-07-09T18:01:04Z</time>
      </trkpt>
      <trkpt lat="39.66653" lon="-7.57585">
        <ele>217.5127</ele>
        <time>2021-07-09T18:01:15Z</time>
      </trkpt>
      <trkpt lat="39.66695" lon="-7.57666">
        <ele>209.0553</ele>
        <time>2021-07-09T18:01:26Z</time>
      </trkpt>
      <trkpt lat="39.66752" lon="-7.57804">
        <ele>191.2182</ele>
        <time>2021-07-09T18:01:37Z</time>
      </trkpt>
      <trkpt lat="39.66729" lon="-7.57954">
        <ele>181.4372</ele>
        <time>2021-07-09T18:01:48Z</time>
      </trkpt>
      <trkpt lat="39.66717" lon="-7.58137">
        <ele>180.8579</ele>
        <time>2021-07-09T18:01:59Z</time>
      </trkpt>
      <trkpt lat="39.66807" lon="-7.583">
        <ele>177.4806</ele>
        <time>2021-07-09T18:02:10Z</time>
      </trkpt>
      <trkpt lat="39.66938" lon="-7.58445">
        <ele>164.3152</ele>
        <time>2021-07-09T18:02:21Z</time>
      </trkpt>
      <trkpt lat="39.67091" lon="-7.5853">
        <ele>151.1491</ele>
        <time>2021-07-09T18:02:32Z</time>
      </trkpt>
      <trkpt lat="39.67097" lon="-7.58656">
        <ele>137.2752</ele>
        <time>2021-07-09T18:02:43Z</time>
      </trkpt>
      <trkpt lat="39.67198" lon="-7.58865">
        <ele>123.8986</ele>
        <time>2021-07-09T18:02:54Z</time>
      </trkpt>
      <trkpt lat="39.67222" lon="-7.59127">
        <ele>130.4964</ele>
        <time>2021-07-09T18:03:05Z</time>
      </trkpt>
      <trkpt lat="39.67115" lon="-7.59324">
        <ele>138.2129</ele>
        <time>2021-07-09T18:03:16Z</time>
      </trkpt>
      <trkpt lat="39.67076" lon="-7.59324">
        <ele>139.3633</ele>
        <time>2021-07-09T18:03:27Z</time>
      </trkpt>
      <trkpt lat="39.67048" lon="-7.59247">
        <ele>143.4094</ele>
        <time>2021-07-09T18:03:38Z</time>
      </trkpt>
      <trkpt lat="39.66985" lon="-7.59248">
        <ele>141.976</ele>
        <time>2021-07-09T18:03:49Z</time>
      </trkpt>
      <trkpt lat="39.66892" lon="-7.59315">
        <ele>117.3321</ele>
        <time>2021-07-09T18:04:00Z</time>
      </trkpt>
      <trkpt lat="39.66814" lon="-7.59343">
        <ele>116.2367</ele>
        <time>2021-07-09T18:04:11Z</time>
      </trkpt>
      <trkpt lat="39.66746" lon="-7.59369">
        <ele>118.7993</ele>
        <time>2021-07-09T18:04:22Z</time>
      </trkpt>
      <trkpt lat="39.66663" lon="-7.59368">
        <ele>117.2916</ele>
        <time>2021-07-09T18:04:33Z</time>
      </trkpt>
      <trkpt lat="39.66535" lon="-7.5937">
        <ele>126.6621</ele>
        <time>2021-07-09T18:04:44Z</time>
      </trkpt>
      <trkpt lat="39.66411" lon="-7.59399">
        <ele>143.4399</ele>
        <time>2021-07-09T18:04:55Z</time>
      </trkpt>
      <trkpt lat="39.66304" lon="-7.59423">
        <ele>145.8741</ele>
        <time>2021-07-09T18:05:06Z</time>
      </trkpt>
      <trkpt lat="39.66242" lon="-7.59439">
        <ele>128.5596</ele>
        <time>2021-07-09T18:05:17Z</time>
      </trkpt>
      <trkpt lat="39.66205" lon="-7.59428">
        <ele>117.1813</ele>
        <time>2021-07-09T18:05:29Z</time>
      </trkpt>
      <trkpt lat="39.66198" lon="-7.59451">
        <ele>110.79</ele>
        <time>2021-07-09T18:05:40Z</time>
      </trkpt>
      <trkpt lat="39.66181" lon="-7.59481">
        <ele>114.5016</ele>
        <time>2021-07-09T18:05:51Z</time>
      </trkpt>
      <trkpt lat="39.6616" lon="-7.59484">
        <ele>115.0262</ele>
        <time>2021-07-09T18:06:02Z</time>
      </trkpt>
      <trkpt lat="39.66148" lon="-7.59496">
        <ele>118.3257</ele>
        <time>2021-07-09T18:06:13Z</time>
      </trkpt>
      <trkpt lat="39.66147" lon="-7.59497">
        <ele>115.356</ele>
        <time>2021-07-09T18:07:12Z</time>
      </trkpt>
      <trkpt lat="39.66147" lon="-7.59497">
        <ele>115.356</ele>
        <time>2021-07-09T18:08:12Z</time>
      </trkpt>
      <trkpt lat="39.66147" lon="-7.59497">
        <ele>115.356</ele>
        <time>2021-07-09T18:09:11Z</time>
      </trkpt>
      <trkpt lat="39.66142" lon="-7.59505">
        <ele>114.3636</ele>
        <time>2021-07-09T18:09:55Z</time>
      </trkpt>
      <trkpt lat="39.66075" lon="-7.59571">
        <ele>132.8831</ele>
        <time>2021-07-09T18:10:06Z</time>
      </trkpt>
      <trkpt lat="39.66004" lon="-7.59609">
        <ele>134.6325</ele>
        <time>2021-07-09T18:10:17Z</time>
      </trkpt>
      <trkpt lat="39.66002" lon="-7.59611">
        <ele>134.9664</ele>
        <time>2021-07-09T18:11:17Z</time>
      </trkpt>
      <trkpt lat="39.66002" lon="-7.59612">
        <ele>137.736</ele>
        <time>2021-07-09T18:12:17Z</time>
      </trkpt>
      <trkpt lat="39.66003" lon="-7.5961">
        <ele>140.5653</ele>
        <time>2021-07-09T18:13:17Z</time>
      </trkpt>
      <trkpt lat="39.66003" lon="-7.5961">
        <ele>141.0163</ele>
        <time>2021-07-09T18:14:17Z</time>
      </trkpt>
      <trkpt lat="39.66002" lon="-7.5961">
        <ele>141.5938</ele>
        <time>2021-07-09T18:15:16Z</time>
      </trkpt>
      <trkpt lat="39.66002" lon="-7.59613">
        <ele>141.3108</ele>
        <time>2021-07-09T18:16:16Z</time>
      </trkpt>
      <trkpt lat="39.66003" lon="-7.59608">
        <ele>144.224</ele>
        <time>2021-07-09T18:16:40Z</time>
      </trkpt>
      <trkpt lat="39.66006" lon="-7.59606">
        <ele>143.9057</ele>
        <time>2021-07-09T18:17:10Z</time>
      </trkpt>
      <trkpt lat="39.66004" lon="-7.59612">
        <ele>144.9986</ele>
        <time>2021-07-09T18:17:21Z</time>
      </trkpt>
      <trkpt lat="39.66004" lon="-7.59613">
        <ele>147.4128</ele>
        <time>2021-07-09T18:18:21Z</time>
      </trkpt>
      <trkpt lat="39.66003" lon="-7.59613">
        <ele>145.6018</ele>
        <time>2021-07-09T18:19:21Z</time>
      </trkpt>
      <trkpt lat="39.66002" lon="-7.59614">
        <ele>146.216</ele>
        <time>2021-07-09T18:20:20Z</time>
      </trkpt>
      <trkpt lat="39.66002" lon="-7.59609">
        <ele>145.2185</ele>
        <time>2021-07-09T18:21:11Z</time>
      </trkpt>
      <trkpt lat="39.66003" lon="-7.5961">
        <ele>144.9795</ele>
        <time>2021-07-09T18:22:10Z</time>
      </trkpt>
      <trkpt lat="39.65999" lon="-7.5961">
        <ele>145.2689</ele>
        <time>2021-07-09T18:22:29Z</time>
      </trkpt>
      <trkpt lat="39.6599" lon="-7.59615">
        <ele>146.6477</ele>
        <time>2021-07-09T18:22:47Z</time>
      </trkpt>
      <trkpt lat="39.65938" lon="-7.59633">
        <ele>140.8066</ele>
        <time>2021-07-09T18:22:58Z</time>
      </trkpt>
      <trkpt lat="39.65915" lon="-7.5964">
        <ele>136.5128</ele>
        <time>2021-07-09T18:23:09Z</time>
      </trkpt>
      <trkpt lat="39.65891" lon="-7.59641">
        <ele>130.6094</ele>
        <time>2021-07-09T18:23:20Z</time>
      </trkpt>
      <trkpt lat="39.65856" lon="-7.59654">
        <ele>123.3442</ele>
        <time>2021-07-09T18:23:31Z</time>
      </trkpt>
      <trkpt lat="39.65774" lon="-7.59671">
        <ele>146.4693</ele>
        <time>2021-07-09T18:23:42Z</time>
      </trkpt>
      <trkpt lat="39.65765" lon="-7.59672">
        <ele>143.8568</ele>
        <time>2021-07-09T18:23:53Z</time>
      </trkpt>
      <trkpt lat="39.65759" lon="-7.59669">
        <ele>142.9933</ele>
        <time>2021-07-09T18:24:06Z</time>
      </trkpt>
      <trkpt lat="39.65741" lon="-7.59656">
        <ele>139.4413</ele>
        <time>2021-07-09T18:24:17Z</time>
      </trkpt>
      <trkpt lat="39.65718" lon="-7.5964">
        <ele>130.8869</ele>
        <time>2021-07-09T18:24:28Z</time>
      </trkpt>
      <trkpt lat="39.65685" lon="-7.59621">
        <ele>121.2798</ele>
        <time>2021-07-09T18:24:39Z</time>
      </trkpt>
      <trkpt lat="39.65598" lon="-7.59585">
        <ele>136.0084</ele>
        <time>2021-07-09T18:24:50Z</time>
      </trkpt>
      <trkpt lat="39.65571" lon="-7.59611">
        <ele>137.3097</ele>
        <time>2021-07-09T18:25:01Z</time>
      </trkpt>
      <trkpt lat="39.65568" lon="-7.59752">
        <ele>144.7305</ele>
        <time>2021-07-09T18:25:12Z</time>
      </trkpt>
      <trkpt lat="39.65537" lon="-7.59905">
        <ele>152.8105</ele>
        <time>2021-07-09T18:25:23Z</time>
      </trkpt>
      <trkpt lat="39.65448" lon="-7.59976">
        <ele>155.3255</ele>
        <time>2021-07-09T18:25:34Z</time>
      </trkpt>
      <trkpt lat="39.65438" lon="-7.60059">
        <ele>147.4551</ele>
        <time>2021-07-09T18:25:45Z</time>
      </trkpt>
      <trkpt lat="39.65455" lon="-7.60149">
        <ele>147.9178</ele>
        <time>2021-07-09T18:25:56Z</time>
      </trkpt>
      <trkpt lat="39.65475" lon="-7.60179">
        <ele>148.303</ele>
        <time>2021-07-09T18:26:07Z</time>
      </trkpt>
      <trkpt lat="39.65479" lon="-7.60187">
        <ele>149.8599</ele>
        <time>2021-07-09T18:26:25Z</time>
      </trkpt>
      <trkpt lat="39.65529" lon="-7.6027">
        <ele>151.635</ele>
        <time>2021-07-09T18:26:36Z</time>
      </trkpt>
      <trkpt lat="39.65555" lon="-7.60344">
        <ele>154.7182</ele>
        <time>2021-07-09T18:26:47Z</time>
      </trkpt>
      <trkpt lat="39.65574" lon="-7.60416">
        <ele>163.198</ele>
        <time>2021-07-09T18:26:58Z</time>
      </trkpt>
      <trkpt lat="39.65606" lon="-7.60526">
        <ele>170.2928</ele>
        <time>2021-07-09T18:27:09Z</time>
      </trkpt>
      <trkpt lat="39.65632" lon="-7.60622">
        <ele>182.3467</ele>
        <time>2021-07-09T18:27:20Z</time>
      </trkpt>
      <trkpt lat="39.65679" lon="-7.60749">
        <ele>190.8339</ele>
        <time>2021-07-09T18:27:31Z</time>
      </trkpt>
      <trkpt lat="39.65704" lon="-7.6082">
        <ele>196.1666</ele>
        <time>2021-07-09T18:27:42Z</time>
      </trkpt>
      <trkpt lat="39.65701" lon="-7.60827">
        <ele>194.9129</ele>
        <time>2021-07-09T18:28:02Z</time>
      </trkpt>
      <trkpt lat="39.65639" lon="-7.60932">
        <ele>186.4033</ele>
        <time>2021-07-09T18:28:13Z</time>
      </trkpt>
      <trkpt lat="39.65559" lon="-7.61023">
        <ele>193.959</ele>
        <time>2021-07-09T18:28:24Z</time>
      </trkpt>
      <trkpt lat="39.65475" lon="-7.61099">
        <ele>201.7579</ele>
        <time>2021-07-09T18:28:35Z</time>
      </trkpt>
      <trkpt lat="39.65411" lon="-7.61179">
        <ele>200.0737</ele>
        <time>2021-07-09T18:28:46Z</time>
      </trkpt>
      <trkpt lat="39.6536" lon="-7.61287">
        <ele>192.6586</ele>
        <time>2021-07-09T18:28:57Z</time>
      </trkpt>
      <trkpt lat="39.65294" lon="-7.61353">
        <ele>192.6408</ele>
        <time>2021-07-09T18:29:08Z</time>
      </trkpt>
      <trkpt lat="39.65186" lon="-7.61371">
        <ele>194.2703</ele>
        <time>2021-07-09T18:29:19Z</time>
      </trkpt>
      <trkpt lat="39.65066" lon="-7.61383">
        <ele>195.6242</ele>
        <time>2021-07-09T18:29:30Z</time>
      </trkpt>
      <trkpt lat="39.64951" lon="-7.61383">
        <ele>196.2872</ele>
        <time>2021-07-09T18:29:41Z</time>
      </trkpt>
      <trkpt lat="39.6484" lon="-7.61402">
        <ele>192.9465</ele>
        <time>2021-07-09T18:29:52Z</time>
      </trkpt>
      <trkpt lat="39.64752" lon="-7.61491">
        <ele>188.2667</ele>
        <time>2021-07-09T18:30:03Z</time>
      </trkpt>
      <trkpt lat="39.64684" lon="-7.61611">
        <ele>187.9781</ele>
        <time>2021-07-09T18:30:14Z</time>
      </trkpt>
      <trkpt lat="39.64628" lon="-7.61727">
        <ele>171.83</ele>
        <time>2021-07-09T18:30:25Z</time>
      </trkpt>
      <trkpt lat="39.64554" lon="-7.61812">
        <ele>179.617</ele>
        <time>2021-07-09T18:30:36Z</time>
      </trkpt>
      <trkpt lat="39.645" lon="-7.61895">
        <ele>173.4427</ele>
        <time>2021-07-09T18:30:47Z</time>
      </trkpt>
      <trkpt lat="39.64462" lon="-7.6196">
        <ele>162.1553</ele>
        <time>2021-07-09T18:30:58Z</time>
      </trkpt>
      <trkpt lat="39.64405" lon="-7.62032">
        <ele>181.1733</ele>
        <time>2021-07-09T18:31:09Z</time>
      </trkpt>
      <trkpt lat="39.64322" lon="-7.62088">
        <ele>187.8119</ele>
        <time>2021-07-09T18:31:20Z</time>
      </trkpt>
      <trkpt lat="39.64237" lon="-7.62107">
        <ele>171.7655</ele>
        <time>2021-07-09T18:31:31Z</time>
      </trkpt>
      <trkpt lat="39.64138" lon="-7.62096">
        <ele>162.513</ele>
        <time>2021-07-09T18:31:42Z</time>
      </trkpt>
      <trkpt lat="39.64035" lon="-7.62048">
        <ele>181.0709</ele>
        <time>2021-07-09T18:31:53Z</time>
      </trkpt>
      <trkpt lat="39.63933" lon="-7.62078">
        <ele>181.7055</ele>
        <time>2021-07-09T18:32:04Z</time>
      </trkpt>
      <trkpt lat="39.63835" lon="-7.62112">
        <ele>177.9954</ele>
        <time>2021-07-09T18:32:15Z</time>
      </trkpt>
      <trkpt lat="39.63757" lon="-7.62184">
        <ele>178.0336</ele>
        <time>2021-07-09T18:32:26Z</time>
      </trkpt>
      <trkpt lat="39.6371" lon="-7.62278">
        <ele>176.4345</ele>
        <time>2021-07-09T18:32:37Z</time>
      </trkpt>
      <trkpt lat="39.63718" lon="-7.62429">
        <ele>178.8036</ele>
        <time>2021-07-09T18:32:48Z</time>
      </trkpt>
      <trkpt lat="39.63723" lon="-7.62577">
        <ele>181.9396</ele>
        <time>2021-07-09T18:32:59Z</time>
      </trkpt>
      <trkpt lat="39.63727" lon="-7.62722">
        <ele>180.6335</ele>
        <time>2021-07-09T18:33:10Z</time>
      </trkpt>
      <trkpt lat="39.63729" lon="-7.62864">
        <ele>180.296</ele>
        <time>2021-07-09T18:33:21Z</time>
      </trkpt>
      <trkpt lat="39.63741" lon="-7.63004">
        <ele>180.0837</ele>
        <time>2021-07-09T18:33:32Z</time>
      </trkpt>
      <trkpt lat="39.63732" lon="-7.63153">
        <ele>177.4843</ele>
        <time>2021-07-09T18:33:43Z</time>
      </trkpt>
      <trkpt lat="39.63738" lon="-7.6329">
        <ele>176.2333</ele>
        <time>2021-07-09T18:33:54Z</time>
      </trkpt>
      <trkpt lat="39.63737" lon="-7.63443">
        <ele>181.0292</ele>
        <time>2021-07-09T18:34:05Z</time>
      </trkpt>
      <trkpt lat="39.63731" lon="-7.63617">
        <ele>181.548</ele>
        <time>2021-07-09T18:34:16Z</time>
      </trkpt>
      <trkpt lat="39.6374" lon="-7.63773">
        <ele>177.6698</ele>
        <time>2021-07-09T18:34:27Z</time>
      </trkpt>
      <trkpt lat="39.63805" lon="-7.63897">
        <ele>179.011</ele>
        <time>2021-07-09T18:34:38Z</time>
      </trkpt>
      <trkpt lat="39.6385" lon="-7.63973">
        <ele>182.7296</ele>
        <time>2021-07-09T18:34:49Z</time>
      </trkpt>
      <trkpt lat="39.63866" lon="-7.63987">
        <ele>180.3482</ele>
        <time>2021-07-09T18:35:01Z</time>
      </trkpt>
      <trkpt lat="39.63863" lon="-7.63985">
        <ele>182.7274</ele>
        <time>2021-07-09T18:35:35Z</time>
      </trkpt>
      <trkpt lat="39.63866" lon="-7.63987">
        <ele>180.3585</ele>
        <time>2021-07-09T18:36:24Z</time>
      </trkpt>
      <trkpt lat="39.63869" lon="-7.63993">
        <ele>181.3035</ele>
        <time>2021-07-09T18:37:03Z</time>
      </trkpt>
      <trkpt lat="39.63898" lon="-7.64127">
        <ele>181.1375</ele>
        <time>2021-07-09T18:37:14Z</time>
      </trkpt>
      <trkpt lat="39.63938" lon="-7.643">
        <ele>181.0677</ele>
        <time>2021-07-09T18:37:25Z</time>
      </trkpt>
      <trkpt lat="39.6396" lon="-7.64426">
        <ele>178.5361</ele>
        <time>2021-07-09T18:37:36Z</time>
      </trkpt>
      <trkpt lat="39.64006" lon="-7.64455">
        <ele>171.2528</ele>
        <time>2021-07-09T18:37:47Z</time>
      </trkpt>
      <trkpt lat="39.64056" lon="-7.64502">
        <ele>160.1408</ele>
        <time>2021-07-09T18:37:58Z</time>
      </trkpt>
      <trkpt lat="39.64137" lon="-7.64592">
        <ele>153.28</ele>
        <time>2021-07-09T18:38:09Z</time>
      </trkpt>
      <trkpt lat="39.64208" lon="-7.64721">
        <ele>148.9832</ele>
        <time>2021-07-09T18:38:20Z</time>
      </trkpt>
      <trkpt lat="39.64318" lon="-7.64777">
        <ele>150.1242</ele>
        <time>2021-07-09T18:38:31Z</time>
      </trkpt>
      <trkpt lat="39.64411" lon="-7.64841">
        <ele>141.6503</ele>
        <time>2021-07-09T18:38:42Z</time>
      </trkpt>
      <trkpt lat="39.64515" lon="-7.64873">
        <ele>136.6335</ele>
        <time>2021-07-09T18:38:53Z</time>
      </trkpt>
      <trkpt lat="39.64598" lon="-7.64969">
        <ele>131.0997</ele>
        <time>2021-07-09T18:39:04Z</time>
      </trkpt>
      <trkpt lat="39.64676" lon="-7.65074">
        <ele>129.5693</ele>
        <time>2021-07-09T18:39:15Z</time>
      </trkpt>
      <trkpt lat="39.64752" lon="-7.65163">
        <ele>125.3522</ele>
        <time>2021-07-09T18:39:26Z</time>
      </trkpt>
      <trkpt lat="39.64822" lon="-7.65252">
        <ele>122.6376</ele>
        <time>2021-07-09T18:39:37Z</time>
      </trkpt>
      <trkpt lat="39.64882" lon="-7.65331">
        <ele>110.7854</ele>
        <time>2021-07-09T18:39:48Z</time>
      </trkpt>
      <trkpt lat="39.64927" lon="-7.6537">
        <ele>110.5065</ele>
        <time>2021-07-09T18:39:59Z</time>
      </trkpt>
      <trkpt lat="39.65021" lon="-7.65324">
        <ele>101.6017</ele>
        <time>2021-07-09T18:40:10Z</time>
      </trkpt>
      <trkpt lat="39.651" lon="-7.65387">
        <ele>87.15374</ele>
        <time>2021-07-09T18:40:21Z</time>
      </trkpt>
      <trkpt lat="39.65198" lon="-7.65512">
        <ele>95.80061</ele>
        <time>2021-07-09T18:40:32Z</time>
      </trkpt>
      <trkpt lat="39.65315" lon="-7.65593">
        <ele>102.6389</ele>
        <time>2021-07-09T18:40:43Z</time>
      </trkpt>
      <trkpt lat="39.65403" lon="-7.65608">
        <ele>105.3576</ele>
        <time>2021-07-09T18:40:54Z</time>
      </trkpt>
      <trkpt lat="39.65446" lon="-7.65697">
        <ele>100.5597</ele>
        <time>2021-07-09T18:41:05Z</time>
      </trkpt>
      <trkpt lat="39.65475" lon="-7.65781">
        <ele>87.62699</ele>
        <time>2021-07-09T18:41:16Z</time>
      </trkpt>
      <trkpt lat="39.65553" lon="-7.65797">
        <ele>82.633</ele>
        <time>2021-07-09T18:41:27Z</time>
      </trkpt>
      <trkpt lat="39.65629" lon="-7.65779">
        <ele>85.53667</ele>
        <time>2021-07-09T18:41:38Z</time>
      </trkpt>
      <trkpt lat="39.65656" lon="-7.65773">
        <ele>91.79613</ele>
        <time>2021-07-09T18:41:49Z</time>
      </trkpt>
      <trkpt lat="39.65631" lon="-7.65957">
        <ele>102.5361</ele>
        <time>2021-07-09T18:42:00Z</time>
      </trkpt>
      <trkpt lat="39.65665" lon="-7.66028">
        <ele>118.3936</ele>
        <time>2021-07-09T18:42:11Z</time>
      </trkpt>
      <trkpt lat="39.65672" lon="-7.66045">
        <ele>122.4597</ele>
        <time>2021-07-09T18:42:22Z</time>
      </trkpt>
      <trkpt lat="39.65674" lon="-7.66049">
        <ele>97.55235</ele>
        <time>2021-07-09T18:42:49Z</time>
      </trkpt>
      <trkpt lat="39.65676" lon="-7.66051">
        <ele>85.44991</ele>
        <time>2021-07-09T18:43:49Z</time>
      </trkpt>
      <trkpt lat="39.65676" lon="-7.66051">
        <ele>85.44991</ele>
        <time>2021-07-09T18:44:49Z</time>
      </trkpt>
      <trkpt lat="39.65678" lon="-7.66055">
        <ele>80.66017</ele>
        <time>2021-07-09T18:45:18Z</time>
      </trkpt>
      <trkpt lat="39.65681" lon="-7.6606">
        <ele>84.16101</ele>
        <time>2021-07-09T18:45:36Z</time>
      </trkpt>
      <trkpt lat="39.65685" lon="-7.66059">
        <ele>75.11323</ele>
        <time>2021-07-09T18:45:47Z</time>
      </trkpt>
      <trkpt lat="39.65682" lon="-7.66055">
        <ele>84.47732</ele>
        <time>2021-07-09T18:46:13Z</time>
      </trkpt>
      <trkpt lat="39.65679" lon="-7.66055">
        <ele>83.15912</ele>
        <time>2021-07-09T18:46:24Z</time>
      </trkpt>
      <trkpt lat="39.65682" lon="-7.66055">
        <ele>91.40732</ele>
        <time>2021-07-09T18:46:55Z</time>
      </trkpt>
      <trkpt lat="39.65679" lon="-7.66054">
        <ele>92.61987</ele>
        <time>2021-07-09T18:47:53Z</time>
      </trkpt>
      <trkpt lat="39.65679" lon="-7.66059">
        <ele>93.22411</ele>
        <time>2021-07-09T18:48:12Z</time>
      </trkpt>
      <trkpt lat="39.65678" lon="-7.66059">
        <ele>92.96711</ele>
        <time>2021-07-09T18:49:12Z</time>
      </trkpt>
      <trkpt lat="39.65679" lon="-7.6606">
        <ele>92.33004</ele>
        <time>2021-07-09T18:50:12Z</time>
      </trkpt>
      <trkpt lat="39.65672" lon="-7.66076">
        <ele>91.83532</ele>
        <time>2021-07-09T18:50:23Z</time>
      </trkpt>
      <trkpt lat="39.65653" lon="-7.66096">
        <ele>94.4236</ele>
        <time>2021-07-09T18:50:34Z</time>
      </trkpt>
      <trkpt lat="39.65678" lon="-7.66214">
        <ele>96.60066</ele>
        <time>2021-07-09T18:50:45Z</time>
      </trkpt>
      <trkpt lat="39.65665" lon="-7.6645">
        <ele>101.1769</ele>
        <time>2021-07-09T18:50:56Z</time>
      </trkpt>
      <trkpt lat="39.65571" lon="-7.66657">
        <ele>92.91301</ele>
        <time>2021-07-09T18:51:07Z</time>
      </trkpt>
      <trkpt lat="39.65467" lon="-7.66846">
        <ele>81.72276</ele>
        <time>2021-07-09T18:51:18Z</time>
      </trkpt>
      <trkpt lat="39.65349" lon="-7.66975">
        <ele>85.46503</ele>
        <time>2021-07-09T18:51:29Z</time>
      </trkpt>
      <trkpt lat="39.65287" lon="-7.67129">
        <ele>97.89075</ele>
        <time>2021-07-09T18:51:40Z</time>
      </trkpt>
      <trkpt lat="39.65219" lon="-7.67293">
        <ele>101.7297</ele>
        <time>2021-07-09T18:51:51Z</time>
      </trkpt>
      <trkpt lat="39.65043" lon="-7.67375">
        <ele>101.6415</ele>
        <time>2021-07-09T18:52:02Z</time>
      </trkpt>
      <trkpt lat="39.64896" lon="-7.67553">
        <ele>104.3171</ele>
        <time>2021-07-09T18:52:13Z</time>
      </trkpt>
      <trkpt lat="39.64779" lon="-7.67706">
        <ele>99.96641</ele>
        <time>2021-07-09T18:52:24Z</time>
      </trkpt>
      <trkpt lat="39.64636" lon="-7.6761">
        <ele>100.5917</ele>
        <time>2021-07-09T18:52:35Z</time>
      </trkpt>
      <trkpt lat="39.64629" lon="-7.67413">
        <ele>108.2853</ele>
        <time>2021-07-09T18:52:46Z</time>
      </trkpt>
      <trkpt lat="39.64588" lon="-7.67181">
        <ele>118.3451</ele>
        <time>2021-07-09T18:52:57Z</time>
      </trkpt>
      <trkpt lat="39.64442" lon="-7.67042">
        <ele>127.383</ele>
        <time>2021-07-09T18:53:08Z</time>
      </trkpt>
      <trkpt lat="39.64329" lon="-7.67007">
        <ele>134.5688</ele>
        <time>2021-07-09T18:53:19Z</time>
      </trkpt>
      <trkpt lat="39.64351" lon="-7.67026">
        <ele>132.4802</ele>
        <time>2021-07-09T18:53:30Z</time>
      </trkpt>
      <trkpt lat="39.64332" lon="-7.66987">
        <ele>126.3577</ele>
        <time>2021-07-09T18:53:41Z</time>
      </trkpt>
      <trkpt lat="39.64292" lon="-7.6694">
        <ele>125.4968</ele>
        <time>2021-07-09T18:53:52Z</time>
      </trkpt>
      <trkpt lat="39.64239" lon="-7.66889">
        <ele>117.4875</ele>
        <time>2021-07-09T18:54:03Z</time>
      </trkpt>
      <trkpt lat="39.6418" lon="-7.6684">
        <ele>106.9733</ele>
        <time>2021-07-09T18:54:14Z</time>
      </trkpt>
      <trkpt lat="39.64138" lon="-7.66795">
        <ele>62.33442</ele>
        <time>2021-07-09T18:54:25Z</time>
      </trkpt>
      <trkpt lat="39.64109" lon="-7.66794">
        <ele>27.34349</ele>
        <time>2021-07-09T18:54:36Z</time>
      </trkpt>
      <trkpt lat="39.64074" lon="-7.66703">
        <ele>97.76389</ele>
        <time>2021-07-09T18:54:47Z</time>
      </trkpt>
      <trkpt lat="39.64046" lon="-7.66668">
        <ele>92.97147</ele>
        <time>2021-07-09T18:54:58Z</time>
      </trkpt>
      <trkpt lat="39.63992" lon="-7.66626">
        <ele>91.39209</ele>
        <time>2021-07-09T18:55:09Z</time>
      </trkpt>
      <trkpt lat="39.63933" lon="-7.66593">
        <ele>90.919</ele>
        <time>2021-07-09T18:55:20Z</time>
      </trkpt>
      <trkpt lat="39.63866" lon="-7.66551">
        <ele>93.30111</ele>
        <time>2021-07-09T18:55:31Z</time>
      </trkpt>
      <trkpt lat="39.638" lon="-7.66509">
        <ele>87.05159</ele>
        <time>2021-07-09T18:55:42Z</time>
      </trkpt>
      <trkpt lat="39.63738" lon="-7.66454">
        <ele>88.88178</ele>
        <time>2021-07-09T18:55:53Z</time>
      </trkpt>
      <trkpt lat="39.63663" lon="-7.66392">
        <ele>91.29716</ele>
        <time>2021-07-09T18:56:04Z</time>
      </trkpt>
      <trkpt lat="39.63597" lon="-7.66332">
        <ele>96.91872</ele>
        <time>2021-07-09T18:56:15Z</time>
      </trkpt>
      <trkpt lat="39.63546" lon="-7.663">
        <ele>96.24675</ele>
        <time>2021-07-09T18:56:26Z</time>
      </trkpt>
      <trkpt lat="39.63498" lon="-7.66251">
        <ele>94.22758</ele>
        <time>2021-07-09T18:56:37Z</time>
      </trkpt>
      <trkpt lat="39.6346" lon="-7.66203">
        <ele>93.84121</ele>
        <time>2021-07-09T18:56:48Z</time>
      </trkpt>
      <trkpt lat="39.63399" lon="-7.6616">
        <ele>90.25002</ele>
        <time>2021-07-09T18:56:59Z</time>
      </trkpt>
      <trkpt lat="39.63329" lon="-7.66094">
        <ele>89.76088</ele>
        <time>2021-07-09T18:57:10Z</time>
      </trkpt>
      <trkpt lat="39.63273" lon="-7.66023">
        <ele>89.22511</ele>
        <time>2021-07-09T18:57:21Z</time>
      </trkpt>
      <trkpt lat="39.63206" lon="-7.6594">
        <ele>90.7472</ele>
        <time>2021-07-09T18:57:32Z</time>
      </trkpt>
      <trkpt lat="39.63144" lon="-7.65862">
        <ele>90.12628</ele>
        <time>2021-07-09T18:57:43Z</time>
      </trkpt>
      <trkpt lat="39.63083" lon="-7.65802">
        <ele>97.90859</ele>
        <time>2021-07-09T18:57:54Z</time>
      </trkpt>
      <trkpt lat="39.63023" lon="-7.6579">
        <ele>101.8774</ele>
        <time>2021-07-09T18:58:05Z</time>
      </trkpt>
      <trkpt lat="39.63059" lon="-7.65729">
        <ele>102.0185</ele>
        <time>2021-07-09T18:58:16Z</time>
      </trkpt>
      <trkpt lat="39.6302" lon="-7.6567">
        <ele>94.42365</ele>
        <time>2021-07-09T18:58:27Z</time>
      </trkpt>
      <trkpt lat="39.62964" lon="-7.65594">
        <ele>92.75737</ele>
        <time>2021-07-09T18:58:38Z</time>
      </trkpt>
      <trkpt lat="39.6294" lon="-7.65535">
        <ele>84.85153</ele>
        <time>2021-07-09T18:58:49Z</time>
      </trkpt>
      <trkpt lat="39.62907" lon="-7.65513">
        <ele>81.19101</ele>
        <time>2021-07-09T18:59:00Z</time>
      </trkpt>
      <trkpt lat="39.62879" lon="-7.65447">
        <ele>94.74173</ele>
        <time>2021-07-09T18:59:11Z</time>
      </trkpt>
      <trkpt lat="39.62834" lon="-7.65408">
        <ele>96.79017</ele>
        <time>2021-07-09T18:59:22Z</time>
      </trkpt>
      <trkpt lat="39.62812" lon="-7.65343">
        <ele>103.6184</ele>
        <time>2021-07-09T18:59:33Z</time>
      </trkpt>
      <trkpt lat="39.62751" lon="-7.65315">
        <ele>103.1159</ele>
        <time>2021-07-09T18:59:44Z</time>
      </trkpt>
      <trkpt lat="39.6273" lon="-7.6526">
        <ele>104.9695</ele>
        <time>2021-07-09T18:59:55Z</time>
      </trkpt>
      <trkpt lat="39.62646" lon="-7.65226">
        <ele>114.0623</ele>
        <time>2021-07-09T19:00:06Z</time>
      </trkpt>
      <trkpt lat="39.62577" lon="-7.65213">
        <ele>114.9936</ele>
        <time>2021-07-09T19:00:17Z</time>
      </trkpt>
      <trkpt lat="39.62542" lon="-7.65216">
        <ele>111.9947</ele>
        <time>2021-07-09T19:00:28Z</time>
      </trkpt>
      <trkpt lat="39.6251" lon="-7.65251">
        <ele>103.5357</ele>
        <time>2021-07-09T19:00:39Z</time>
      </trkpt>
      <trkpt lat="39.6248" lon="-7.6529">
        <ele>108.3743</ele>
        <time>2021-07-09T19:00:50Z</time>
      </trkpt>
      <trkpt lat="39.62492" lon="-7.6522">
        <ele>115.0832</ele>
        <time>2021-07-09T19:01:01Z</time>
      </trkpt>
      <trkpt lat="39.62498" lon="-7.65161">
        <ele>103.4964</ele>
        <time>2021-07-09T19:01:12Z</time>
      </trkpt>
      <trkpt lat="39.62461" lon="-7.6523">
        <ele>116.495</ele>
        <time>2021-07-09T19:01:23Z</time>
      </trkpt>
      <trkpt lat="39.62413" lon="-7.65234">
        <ele>113.8894</ele>
        <time>2021-07-09T19:01:34Z</time>
      </trkpt>
      <trkpt lat="39.62407" lon="-7.65235">
        <ele>112.854</ele>
        <time>2021-07-09T19:01:58Z</time>
      </trkpt>
      <trkpt lat="39.62336" lon="-7.65225">
        <ele>109.1612</ele>
        <time>2021-07-09T19:02:09Z</time>
      </trkpt>
      <trkpt lat="39.62274" lon="-7.65179">
        <ele>106.3528</ele>
        <time>2021-07-09T19:02:20Z</time>
      </trkpt>
      <trkpt lat="39.62215" lon="-7.65131">
        <ele>103.1111</ele>
        <time>2021-07-09T19:02:31Z</time>
      </trkpt>
      <trkpt lat="39.6221" lon="-7.65039">
        <ele>97.08558</ele>
        <time>2021-07-09T19:02:42Z</time>
      </trkpt>
      <trkpt lat="39.6223" lon="-7.64963">
        <ele>90.5852</ele>
        <time>2021-07-09T19:02:53Z</time>
      </trkpt>
      <trkpt lat="39.62234" lon="-7.64919">
        <ele>83.56979</ele>
        <time>2021-07-09T19:03:04Z</time>
      </trkpt>
      <trkpt lat="39.6227" lon="-7.64868">
        <ele>74.16729</ele>
        <time>2021-07-09T19:03:15Z</time>
      </trkpt>
      <trkpt lat="39.62251" lon="-7.64818">
        <ele>91.10158</ele>
        <time>2021-07-09T19:03:26Z</time>
      </trkpt>
      <trkpt lat="39.6219" lon="-7.64854">
        <ele>91.28966</ele>
        <time>2021-07-09T19:03:37Z</time>
      </trkpt>
      <trkpt lat="39.62224" lon="-7.64801">
        <ele>97.36604</ele>
        <time>2021-07-09T19:03:48Z</time>
      </trkpt>
      <trkpt lat="39.62214" lon="-7.64736">
        <ele>104.8508</ele>
        <time>2021-07-09T19:03:59Z</time>
      </trkpt>
      <trkpt lat="39.62132" lon="-7.64639">
        <ele>109.1131</ele>
        <time>2021-07-09T19:04:10Z</time>
      </trkpt>
      <trkpt lat="39.62067" lon="-7.64504">
        <ele>111.5294</ele>
        <time>2021-07-09T19:04:21Z</time>
      </trkpt>
      <trkpt lat="39.62011" lon="-7.64371">
        <ele>118.4007</ele>
        <time>2021-07-09T19:04:32Z</time>
      </trkpt>
      <trkpt lat="39.61984" lon="-7.6426">
        <ele>113.882</ele>
        <time>2021-07-09T19:04:43Z</time>
      </trkpt>
      <trkpt lat="39.61946" lon="-7.64168">
        <ele>108.7294</ele>
        <time>2021-07-09T19:04:54Z</time>
      </trkpt>
      <trkpt lat="39.61905" lon="-7.64109">
        <ele>113.1217</ele>
        <time>2021-07-09T19:05:05Z</time>
      </trkpt>
      <trkpt lat="39.61892" lon="-7.64014">
        <ele>113.4618</ele>
        <time>2021-07-09T19:05:16Z</time>
      </trkpt>
      <trkpt lat="39.61854" lon="-7.63986">
        <ele>110.6968</ele>
        <time>2021-07-09T19:05:27Z</time>
      </trkpt>
      <trkpt lat="39.61818" lon="-7.63915">
        <ele>110.121</ele>
        <time>2021-07-09T19:05:38Z</time>
      </trkpt>
      <trkpt lat="39.61781" lon="-7.63872">
        <ele>113.2096</ele>
        <time>2021-07-09T19:05:49Z</time>
      </trkpt>
      <trkpt lat="39.61737" lon="-7.63797">
        <ele>117.4133</ele>
        <time>2021-07-09T19:06:00Z</time>
      </trkpt>
      <trkpt lat="39.61658" lon="-7.63774">
        <ele>130.2933</ele>
        <time>2021-07-09T19:06:11Z</time>
      </trkpt>
      <trkpt lat="39.61678" lon="-7.63737">
        <ele>135.9877</ele>
        <time>2021-07-09T19:06:22Z</time>
      </trkpt>
      <trkpt lat="39.61657" lon="-7.637">
        <ele>135.2381</ele>
        <time>2021-07-09T19:06:33Z</time>
      </trkpt>
      <trkpt lat="39.61568" lon="-7.63726">
        <ele>140.1216</ele>
        <time>2021-07-09T19:06:44Z</time>
      </trkpt>
      <trkpt lat="39.61489" lon="-7.63686">
        <ele>144.7426</ele>
        <time>2021-07-09T19:06:55Z</time>
      </trkpt>
      <trkpt lat="39.61406" lon="-7.63555">
        <ele>150.5029</ele>
        <time>2021-07-09T19:07:06Z</time>
      </trkpt>
      <trkpt lat="39.61373" lon="-7.63453">
        <ele>132.7406</ele>
        <time>2021-07-09T19:07:17Z</time>
      </trkpt>
      <trkpt lat="39.61343" lon="-7.63345">
        <ele>138.6916</ele>
        <time>2021-07-09T19:07:28Z</time>
      </trkpt>
      <trkpt lat="39.61333" lon="-7.63238">
        <ele>170.9972</ele>
        <time>2021-07-09T19:07:39Z</time>
      </trkpt>
      <trkpt lat="39.61283" lon="-7.63107">
        <ele>175.9852</ele>
        <time>2021-07-09T19:07:50Z</time>
      </trkpt>
      <trkpt lat="39.61257" lon="-7.6297">
        <ele>164.8529</ele>
        <time>2021-07-09T19:08:01Z</time>
      </trkpt>
      <trkpt lat="39.61262" lon="-7.62874">
        <ele>167.4844</ele>
        <time>2021-07-09T19:08:12Z</time>
      </trkpt>
      <trkpt lat="39.61242" lon="-7.62737">
        <ele>179.9374</ele>
        <time>2021-07-09T19:08:23Z</time>
      </trkpt>
      <trkpt lat="39.61189" lon="-7.62623">
        <ele>182.3923</ele>
        <time>2021-07-09T19:08:34Z</time>
      </trkpt>
      <trkpt lat="39.61113" lon="-7.62518">
        <ele>192.039</ele>
        <time>2021-07-09T19:08:45Z</time>
      </trkpt>
      <trkpt lat="39.61057" lon="-7.62396">
        <ele>199.5117</ele>
        <time>2021-07-09T19:08:56Z</time>
      </trkpt>
      <trkpt lat="39.60999" lon="-7.62297">
        <ele>201.7877</ele>
        <time>2021-07-09T19:09:07Z</time>
      </trkpt>
      <trkpt lat="39.60934" lon="-7.62232">
        <ele>208.7473</ele>
        <time>2021-07-09T19:09:18Z</time>
      </trkpt>
      <trkpt lat="39.60884" lon="-7.62118">
        <ele>226.0314</ele>
        <time>2021-07-09T19:09:29Z</time>
      </trkpt>
      <trkpt lat="39.60863" lon="-7.62028">
        <ele>221.385</ele>
        <time>2021-07-09T19:09:40Z</time>
      </trkpt>
      <trkpt lat="39.6082" lon="-7.61953">
        <ele>221.6693</ele>
        <time>2021-07-09T19:09:51Z</time>
      </trkpt>
      <trkpt lat="39.60841" lon="-7.61873">
        <ele>221.0141</ele>
        <time>2021-07-09T19:10:02Z</time>
      </trkpt>
      <trkpt lat="39.60864" lon="-7.61794">
        <ele>227.6026</ele>
        <time>2021-07-09T19:10:13Z</time>
      </trkpt>
      <trkpt lat="39.60797" lon="-7.61689">
        <ele>226.7201</ele>
        <time>2021-07-09T19:10:24Z</time>
      </trkpt>
      <trkpt lat="39.60766" lon="-7.61537">
        <ele>232.4339</ele>
        <time>2021-07-09T19:10:35Z</time>
      </trkpt>
      <trkpt lat="39.60771" lon="-7.61413">
        <ele>233.1443</ele>
        <time>2021-07-09T19:10:46Z</time>
      </trkpt>
      <trkpt lat="39.60786" lon="-7.61283">
        <ele>234.9332</ele>
        <time>2021-07-09T19:10:57Z</time>
      </trkpt>
      <trkpt lat="39.60815" lon="-7.61176">
        <ele>239.7439</ele>
        <time>2021-07-09T19:11:08Z</time>
      </trkpt>
      <trkpt lat="39.6081" lon="-7.61136">
        <ele>237.509</ele>
        <time>2021-07-09T19:11:19Z</time>
      </trkpt>
      <trkpt lat="39.60747" lon="-7.61113">
        <ele>239.3017</ele>
        <time>2021-07-09T19:11:30Z</time>
      </trkpt>
      <trkpt lat="39.60747" lon="-7.60914">
        <ele>230.3897</ele>
        <time>2021-07-09T19:11:41Z</time>
      </trkpt>
      <trkpt lat="39.60744" lon="-7.60634">
        <ele>231.4204</ele>
        <time>2021-07-09T19:11:52Z</time>
      </trkpt>
      <trkpt lat="39.60704" lon="-7.60386">
        <ele>241.899</ele>
        <time>2021-07-09T19:12:03Z</time>
      </trkpt>
      <trkpt lat="39.607" lon="-7.60238">
        <ele>250.0424</ele>
        <time>2021-07-09T19:12:14Z</time>
      </trkpt>
      <trkpt lat="39.60652" lon="-7.60175">
        <ele>238.7436</ele>
        <time>2021-07-09T19:12:25Z</time>
      </trkpt>
      <trkpt lat="39.60603" lon="-7.60119">
        <ele>234.0079</ele>
        <time>2021-07-09T19:12:36Z</time>
      </trkpt>
      <trkpt lat="39.60547" lon="-7.60061">
        <ele>228.9241</ele>
        <time>2021-07-09T19:12:47Z</time>
      </trkpt>
      <trkpt lat="39.60504" lon="-7.59978">
        <ele>228.8888</ele>
        <time>2021-07-09T19:12:58Z</time>
      </trkpt>
      <trkpt lat="39.60456" lon="-7.59908">
        <ele>229.3343</ele>
        <time>2021-07-09T19:13:09Z</time>
      </trkpt>
      <trkpt lat="39.60403" lon="-7.59866">
        <ele>224.7479</ele>
        <time>2021-07-09T19:13:20Z</time>
      </trkpt>
      <trkpt lat="39.60357" lon="-7.59812">
        <ele>221.3752</ele>
        <time>2021-07-09T19:13:31Z</time>
      </trkpt>
      <trkpt lat="39.60287" lon="-7.59775">
        <ele>231.899</ele>
        <time>2021-07-09T19:13:42Z</time>
      </trkpt>
      <trkpt lat="39.60215" lon="-7.59744">
        <ele>240.1202</ele>
        <time>2021-07-09T19:13:53Z</time>
      </trkpt>
      <trkpt lat="39.60114" lon="-7.59734">
        <ele>247.7899</ele>
        <time>2021-07-09T19:14:04Z</time>
      </trkpt>
      <trkpt lat="39.60048" lon="-7.59702">
        <ele>251.4344</ele>
        <time>2021-07-09T19:14:15Z</time>
      </trkpt>
      <trkpt lat="39.5996" lon="-7.59743">
        <ele>243.4808</ele>
        <time>2021-07-09T19:14:26Z</time>
      </trkpt>
      <trkpt lat="39.59886" lon="-7.59773">
        <ele>232.5164</ele>
        <time>2021-07-09T19:14:37Z</time>
      </trkpt>
      <trkpt lat="39.59805" lon="-7.59825">
        <ele>233.2045</ele>
        <time>2021-07-09T19:14:48Z</time>
      </trkpt>
      <trkpt lat="39.59779" lon="-7.59934">
        <ele>226.499</ele>
        <time>2021-07-09T19:14:59Z</time>
      </trkpt>
      <trkpt lat="39.59729" lon="-7.59962">
        <ele>224.6844</ele>
        <time>2021-07-09T19:15:10Z</time>
      </trkpt>
      <trkpt lat="39.5967" lon="-7.59982">
        <ele>220.215</ele>
        <time>2021-07-09T19:15:21Z</time>
      </trkpt>
      <trkpt lat="39.59622" lon="-7.59987">
        <ele>216.9677</ele>
        <time>2021-07-09T19:15:32Z</time>
      </trkpt>
      <trkpt lat="39.59549" lon="-7.59992">
        <ele>221.7359</ele>
        <time>2021-07-09T19:15:43Z</time>
      </trkpt>
      <trkpt lat="39.59483" lon="-7.59989">
        <ele>223.1542</ele>
        <time>2021-07-09T19:15:54Z</time>
      </trkpt>
      <trkpt lat="39.5942" lon="-7.59959">
        <ele>223.2829</ele>
        <time>2021-07-09T19:16:05Z</time>
      </trkpt>
      <trkpt lat="39.59352" lon="-7.59996">
        <ele>221.2027</ele>
        <time>2021-07-09T19:16:16Z</time>
      </trkpt>
      <trkpt lat="39.5927" lon="-7.60064">
        <ele>202.7117</ele>
        <time>2021-07-09T19:16:27Z</time>
      </trkpt>
      <trkpt lat="39.59215" lon="-7.60121">
        <ele>192.4775</ele>
        <time>2021-07-09T19:16:38Z</time>
      </trkpt>
      <trkpt lat="39.59186" lon="-7.60146">
        <ele>190.1084</ele>
        <time>2021-07-09T19:16:49Z</time>
      </trkpt>
      <trkpt lat="39.59154" lon="-7.60179">
        <ele>187.6097</ele>
        <time>2021-07-09T19:17:00Z</time>
      </trkpt>
      <trkpt lat="39.59132" lon="-7.60191">
        <ele>186.527</ele>
        <time>2021-07-09T19:17:11Z</time>
      </trkpt>
      <trkpt lat="39.59117" lon="-7.60184">
        <ele>187.4007</ele>
        <time>2021-07-09T19:17:22Z</time>
      </trkpt>
      <trkpt lat="39.59104" lon="-7.60165">
        <ele>185.0283</ele>
        <time>2021-07-09T19:17:33Z</time>
      </trkpt>
      <trkpt lat="39.59087" lon="-7.60175">
        <ele>181.7319</ele>
        <time>2021-07-09T19:17:44Z</time>
      </trkpt>
      <trkpt lat="39.59071" lon="-7.60216">
        <ele>176.9557</ele>
        <time>2021-07-09T19:17:55Z</time>
      </trkpt>
      <trkpt lat="39.59049" lon="-7.60214">
        <ele>171.0034</ele>
        <time>2021-07-09T19:18:06Z</time>
      </trkpt>
      <trkpt lat="39.58987" lon="-7.6025">
        <ele>177.3684</ele>
        <time>2021-07-09T19:18:17Z</time>
      </trkpt>
      <trkpt lat="39.5894" lon="-7.60287">
        <ele>206.163</ele>
        <time>2021-07-09T19:18:28Z</time>
      </trkpt>
      <trkpt lat="39.58878" lon="-7.60282">
        <ele>216.1479</ele>
        <time>2021-07-09T19:18:39Z</time>
      </trkpt>
      <trkpt lat="39.58812" lon="-7.60271">
        <ele>233.4093</ele>
        <time>2021-07-09T19:18:50Z</time>
      </trkpt>
      <trkpt lat="39.58795" lon="-7.60268">
        <ele>232.6388</ele>
        <time>2021-07-09T19:19:01Z</time>
      </trkpt>
      <trkpt lat="39.58786" lon="-7.60264">
        <ele>232.0387</ele>
        <time>2021-07-09T19:19:37Z</time>
      </trkpt>
      <trkpt lat="39.58698" lon="-7.60262">
        <ele>241.4795</ele>
        <time>2021-07-09T19:19:48Z</time>
      </trkpt>
      <trkpt lat="39.58632" lon="-7.60264">
        <ele>236.6313</ele>
        <time>2021-07-09T19:19:59Z</time>
      </trkpt>
      <trkpt lat="39.5856" lon="-7.60317">
        <ele>238.7288</ele>
        <time>2021-07-09T19:20:10Z</time>
      </trkpt>
      <trkpt lat="39.5848" lon="-7.60268">
        <ele>240.984</ele>
        <time>2021-07-09T19:20:21Z</time>
      </trkpt>
      <trkpt lat="39.58405" lon="-7.60249">
        <ele>241.9647</ele>
        <time>2021-07-09T19:20:32Z</time>
      </trkpt>
      <trkpt lat="39.58356" lon="-7.60252">
        <ele>251.6986</ele>
        <time>2021-07-09T19:20:43Z</time>
      </trkpt>
      <trkpt lat="39.58268" lon="-7.60283">
        <ele>260.6112</ele>
        <time>2021-07-09T19:20:54Z</time>
      </trkpt>
      <trkpt lat="39.58188" lon="-7.60293">
        <ele>261.7966</ele>
        <time>2021-07-09T19:21:05Z</time>
      </trkpt>
      <trkpt lat="39.58142" lon="-7.60169">
        <ele>263.1013</ele>
        <time>2021-07-09T19:21:16Z</time>
      </trkpt>
      <trkpt lat="39.58095" lon="-7.60029">
        <ele>266.4205</ele>
        <time>2021-07-09T19:21:27Z</time>
      </trkpt>
      <trkpt lat="39.58061" lon="-7.59905">
        <ele>269.6947</ele>
        <time>2021-07-09T19:21:38Z</time>
      </trkpt>
      <trkpt lat="39.58015" lon="-7.59833">
        <ele>278.2649</ele>
        <time>2021-07-09T19:21:49Z</time>
      </trkpt>
      <trkpt lat="39.57943" lon="-7.59777">
        <ele>280.2901</ele>
        <time>2021-07-09T19:22:00Z</time>
      </trkpt>
      <trkpt lat="39.57898" lon="-7.59689">
        <ele>280.6126</ele>
        <time>2021-07-09T19:22:11Z</time>
      </trkpt>
      <trkpt lat="39.57865" lon="-7.59624">
        <ele>287.3242</ele>
        <time>2021-07-09T19:22:22Z</time>
      </trkpt>
      <trkpt lat="39.57803" lon="-7.59651">
        <ele>290.8056</ele>
        <time>2021-07-09T19:22:33Z</time>
      </trkpt>
      <trkpt lat="39.57779" lon="-7.59652">
        <ele>290.7868</ele>
        <time>2021-07-09T19:22:44Z</time>
      </trkpt>
      <trkpt lat="39.57824" lon="-7.59656">
        <ele>285.8413</ele>
        <time>2021-07-09T19:22:55Z</time>
      </trkpt>
      <trkpt lat="39.57763" lon="-7.59724">
        <ele>283.9387</ele>
        <time>2021-07-09T19:23:06Z</time>
      </trkpt>
      <trkpt lat="39.57662" lon="-7.59765">
        <ele>285.4267</ele>
        <time>2021-07-09T19:23:17Z</time>
      </trkpt>
      <trkpt lat="39.57598" lon="-7.59814">
        <ele>276.5633</ele>
        <time>2021-07-09T19:23:28Z</time>
      </trkpt>
      <trkpt lat="39.57515" lon="-7.59858">
        <ele>281.3054</ele>
        <time>2021-07-09T19:23:39Z</time>
      </trkpt>
      <trkpt lat="39.57433" lon="-7.59901">
        <ele>286.2318</ele>
        <time>2021-07-09T19:23:50Z</time>
      </trkpt>
      <trkpt lat="39.57365" lon="-7.5992">
        <ele>294.0406</ele>
        <time>2021-07-09T19:24:01Z</time>
      </trkpt>
      <trkpt lat="39.57356" lon="-7.60016">
        <ele>291.1506</ele>
        <time>2021-07-09T19:24:12Z</time>
      </trkpt>
      <trkpt lat="39.57372" lon="-7.60253">
        <ele>285.9626</ele>
        <time>2021-07-09T19:24:23Z</time>
      </trkpt>
      <trkpt lat="39.5737" lon="-7.60248">
        <ele>284.7914</ele>
        <time>2021-07-09T19:24:34Z</time>
      </trkpt>
      <trkpt lat="39.57311" lon="-7.60253">
        <ele>278.7533</ele>
        <time>2021-07-09T19:24:45Z</time>
      </trkpt>
      <trkpt lat="39.57207" lon="-7.6017">
        <ele>273.3488</ele>
        <time>2021-07-09T19:24:56Z</time>
      </trkpt>
      <trkpt lat="39.57118" lon="-7.60086">
        <ele>279.6503</ele>
        <time>2021-07-09T19:25:07Z</time>
      </trkpt>
      <trkpt lat="39.57045" lon="-7.6003">
        <ele>289.5595</ele>
        <time>2021-07-09T19:25:18Z</time>
      </trkpt>
      <trkpt lat="39.56983" lon="-7.60005">
        <ele>288.0986</ele>
        <time>2021-07-09T19:25:29Z</time>
      </trkpt>
      <trkpt lat="39.56867" lon="-7.60002">
        <ele>280.7031</ele>
        <time>2021-07-09T19:25:40Z</time>
      </trkpt>
      <trkpt lat="39.56781" lon="-7.60012">
        <ele>278.0846</ele>
        <time>2021-07-09T19:25:51Z</time>
      </trkpt>
      <trkpt lat="39.56786" lon="-7.60011">
        <ele>278.1581</ele>
        <time>2021-07-09T19:26:03Z</time>
      </trkpt>
      <trkpt lat="39.56798" lon="-7.59994">
        <ele>278.292</ele>
        <time>2021-07-09T19:26:14Z</time>
      </trkpt>
      <trkpt lat="39.56711" lon="-7.59932">
        <ele>273.3619</ele>
        <time>2021-07-09T19:26:25Z</time>
      </trkpt>
      <trkpt lat="39.56613" lon="-7.5985">
        <ele>273.3569</ele>
        <time>2021-07-09T19:26:36Z</time>
      </trkpt>
      <trkpt lat="39.56524" lon="-7.59805">
        <ele>262.5895</ele>
        <time>2021-07-09T19:26:47Z</time>
      </trkpt>
      <trkpt lat="39.56425" lon="-7.59782">
        <ele>261.6507</ele>
        <time>2021-07-09T19:26:58Z</time>
      </trkpt>
      <trkpt lat="39.5631" lon="-7.59755">
        <ele>271.7766</ele>
        <time>2021-07-09T19:27:09Z</time>
      </trkpt>
      <trkpt lat="39.56172" lon="-7.59721">
        <ele>274.7953</ele>
        <time>2021-07-09T19:27:20Z</time>
      </trkpt>
      <trkpt lat="39.56076" lon="-7.59739">
        <ele>272.5736</ele>
        <time>2021-07-09T19:27:31Z</time>
      </trkpt>
      <trkpt lat="39.5598" lon="-7.59717">
        <ele>271.0265</ele>
        <time>2021-07-09T19:27:42Z</time>
      </trkpt>
      <trkpt lat="39.55913" lon="-7.59702">
        <ele>266.8769</ele>
        <time>2021-07-09T19:27:53Z</time>
      </trkpt>
      <trkpt lat="39.55909" lon="-7.59695">
        <ele>264.024</ele>
        <time>2021-07-09T19:28:04Z</time>
      </trkpt>
      <trkpt lat="39.5588" lon="-7.5965">
        <ele>262.9861</ele>
        <time>2021-07-09T19:28:15Z</time>
      </trkpt>
      <trkpt lat="39.55833" lon="-7.59602">
        <ele>255.8553</ele>
        <time>2021-07-09T19:28:26Z</time>
      </trkpt>
      <trkpt lat="39.55768" lon="-7.59575">
        <ele>255.3565</ele>
        <time>2021-07-09T19:28:37Z</time>
      </trkpt>
      <trkpt lat="39.55699" lon="-7.59556">
        <ele>253.9229</ele>
        <time>2021-07-09T19:28:48Z</time>
      </trkpt>
      <trkpt lat="39.5562" lon="-7.59504">
        <ele>254.1129</ele>
        <time>2021-07-09T19:28:59Z</time>
      </trkpt>
      <trkpt lat="39.5553" lon="-7.59529">
        <ele>258.4322</ele>
        <time>2021-07-09T19:29:10Z</time>
      </trkpt>
      <trkpt lat="39.55458" lon="-7.59522">
        <ele>268.151</ele>
        <time>2021-07-09T19:29:21Z</time>
      </trkpt>
      <trkpt lat="39.55357" lon="-7.5948">
        <ele>268.9589</ele>
        <time>2021-07-09T19:29:32Z</time>
      </trkpt>
      <trkpt lat="39.55276" lon="-7.59416">
        <ele>264.3369</ele>
        <time>2021-07-09T19:29:43Z</time>
      </trkpt>
      <trkpt lat="39.55196" lon="-7.59358">
        <ele>254.1852</ele>
        <time>2021-07-09T19:29:54Z</time>
      </trkpt>
      <trkpt lat="39.55116" lon="-7.59329">
        <ele>250.0956</ele>
        <time>2021-07-09T19:30:05Z</time>
      </trkpt>
      <trkpt lat="39.55043" lon="-7.59303">
        <ele>247.2258</ele>
        <time>2021-07-09T19:30:16Z</time>
      </trkpt>
      <trkpt lat="39.55036" lon="-7.59298">
        <ele>246.7685</ele>
        <time>2021-07-09T19:30:27Z</time>
      </trkpt>
      <trkpt lat="39.54979" lon="-7.59349">
        <ele>246.4924</ele>
        <time>2021-07-09T19:30:38Z</time>
      </trkpt>
      <trkpt lat="39.5479" lon="-7.59351">
        <ele>249.3122</ele>
        <time>2021-07-09T19:30:49Z</time>
      </trkpt>
      <trkpt lat="39.54624" lon="-7.59498">
        <ele>262.9287</ele>
        <time>2021-07-09T19:31:00Z</time>
      </trkpt>
      <trkpt lat="39.54435" lon="-7.59694">
        <ele>271.4636</ele>
        <time>2021-07-09T19:31:11Z</time>
      </trkpt>
      <trkpt lat="39.54259" lon="-7.59877">
        <ele>272.2674</ele>
        <time>2021-07-09T19:31:22Z</time>
      </trkpt>
      <trkpt lat="39.54151" lon="-7.59946">
        <ele>268.9639</ele>
        <time>2021-07-09T19:31:33Z</time>
      </trkpt>
      <trkpt lat="39.5407" lon="-7.60047">
        <ele>263.3008</ele>
        <time>2021-07-09T19:31:44Z</time>
      </trkpt>
      <trkpt lat="39.54061" lon="-7.59965">
        <ele>270.0352</ele>
        <time>2021-07-09T19:31:55Z</time>
      </trkpt>
      <trkpt lat="39.54093" lon="-7.59832">
        <ele>282.677</ele>
        <time>2021-07-09T19:32:06Z</time>
      </trkpt>
      <trkpt lat="39.54096" lon="-7.59722">
        <ele>295.4647</ele>
        <time>2021-07-09T19:32:17Z</time>
      </trkpt>
      <trkpt lat="39.54119" lon="-7.59635">
        <ele>289.7815</ele>
        <time>2021-07-09T19:32:28Z</time>
      </trkpt>
      <trkpt lat="39.54131" lon="-7.59541">
        <ele>281.7583</ele>
        <time>2021-07-09T19:32:39Z</time>
      </trkpt>
      <trkpt lat="39.54144" lon="-7.59491">
        <ele>277.5864</ele>
        <time>2021-07-09T19:32:50Z</time>
      </trkpt>
      <trkpt lat="39.54094" lon="-7.59465">
        <ele>278.0287</ele>
        <time>2021-07-09T19:33:01Z</time>
      </trkpt>
      <trkpt lat="39.54039" lon="-7.59426">
        <ele>279.0688</ele>
        <time>2021-07-09T19:33:12Z</time>
      </trkpt>
      <trkpt lat="39.53994" lon="-7.5936">
        <ele>279.3656</ele>
        <time>2021-07-09T19:33:23Z</time>
      </trkpt>
      <trkpt lat="39.53961" lon="-7.59285">
        <ele>280.4282</ele>
        <time>2021-07-09T19:33:34Z</time>
      </trkpt>
      <trkpt lat="39.53915" lon="-7.59201">
        <ele>281.4682</ele>
        <time>2021-07-09T19:33:45Z</time>
      </trkpt>
      <trkpt lat="39.53885" lon="-7.59127">
        <ele>281.9372</ele>
        <time>2021-07-09T19:33:56Z</time>
      </trkpt>
      <trkpt lat="39.53826" lon="-7.58959">
        <ele>284.6773</ele>
        <time>2021-07-09T19:34:07Z</time>
      </trkpt>
      <trkpt lat="39.53771" lon="-7.58798">
        <ele>282.9615</ele>
        <time>2021-07-09T19:34:18Z</time>
      </trkpt>
      <trkpt lat="39.53693" lon="-7.58693">
        <ele>287.5391</ele>
        <time>2021-07-09T19:34:29Z</time>
      </trkpt>
      <trkpt lat="39.53704" lon="-7.58535">
        <ele>287.7268</ele>
        <time>2021-07-09T19:34:40Z</time>
      </trkpt>
      <trkpt lat="39.53706" lon="-7.58528">
        <ele>288.4918</ele>
        <time>2021-07-09T19:34:51Z</time>
      </trkpt>
      <trkpt lat="39.53708" lon="-7.58522">
        <ele>287.581</ele>
        <time>2021-07-09T19:35:15Z</time>
      </trkpt>
      <trkpt lat="39.53754" lon="-7.5844">
        <ele>283.4245</ele>
        <time>2021-07-09T19:35:26Z</time>
      </trkpt>
      <trkpt lat="39.53771" lon="-7.58414">
        <ele>283.2806</ele>
        <time>2021-07-09T19:35:37Z</time>
      </trkpt>
      <trkpt lat="39.53774" lon="-7.58411">
        <ele>284.363</ele>
        <time>2021-07-09T19:36:31Z</time>
      </trkpt>
      <trkpt lat="39.53847" lon="-7.58348">
        <ele>287.4179</ele>
        <time>2021-07-09T19:36:42Z</time>
      </trkpt>
      <trkpt lat="39.53899" lon="-7.58248">
        <ele>291.1507</ele>
        <time>2021-07-09T19:36:53Z</time>
      </trkpt>
      <trkpt lat="39.53978" lon="-7.5816">
        <ele>295.2203</ele>
        <time>2021-07-09T19:37:04Z</time>
      </trkpt>
      <trkpt lat="39.54044" lon="-7.58125">
        <ele>295.3025</ele>
        <time>2021-07-09T19:37:15Z</time>
      </trkpt>
      <trkpt lat="39.54064" lon="-7.58009">
        <ele>299.7438</ele>
        <time>2021-07-09T19:37:26Z</time>
      </trkpt>
      <trkpt lat="39.54105" lon="-7.57929">
        <ele>304.6671</ele>
        <time>2021-07-09T19:37:37Z</time>
      </trkpt>
      <trkpt lat="39.5412" lon="-7.57822">
        <ele>302.0995</ele>
        <time>2021-07-09T19:37:48Z</time>
      </trkpt>
      <trkpt lat="39.54129" lon="-7.57692">
        <ele>300.7324</ele>
        <time>2021-07-09T19:37:59Z</time>
      </trkpt>
      <trkpt lat="39.54153" lon="-7.57571">
        <ele>303.5996</ele>
        <time>2021-07-09T19:38:10Z</time>
      </trkpt>
      <trkpt lat="39.54207" lon="-7.57479">
        <ele>308.6636</ele>
        <time>2021-07-09T19:38:21Z</time>
      </trkpt>
      <trkpt lat="39.54243" lon="-7.57362">
        <ele>309.1324</ele>
        <time>2021-07-09T19:38:32Z</time>
      </trkpt>
      <trkpt lat="39.54269" lon="-7.57229">
        <ele>310.6648</ele>
        <time>2021-07-09T19:38:43Z</time>
      </trkpt>
      <trkpt lat="39.54256" lon="-7.57101">
        <ele>311.2639</ele>
        <time>2021-07-09T19:38:54Z</time>
      </trkpt>
      <trkpt lat="39.54231" lon="-7.56955">
        <ele>312.7694</ele>
        <time>2021-07-09T19:39:05Z</time>
      </trkpt>
      <trkpt lat="39.5423" lon="-7.56811">
        <ele>312.5728</ele>
        <time>2021-07-09T19:39:16Z</time>
      </trkpt>
      <trkpt lat="39.5423" lon="-7.56677">
        <ele>313.7906</ele>
        <time>2021-07-09T19:39:27Z</time>
      </trkpt>
      <trkpt lat="39.54228" lon="-7.56621">
        <ele>316.6516</ele>
        <time>2021-07-09T19:39:38Z</time>
      </trkpt>
      <trkpt lat="39.54228" lon="-7.56613">
        <ele>315.0791</ele>
        <time>2021-07-09T19:39:58Z</time>
      </trkpt>
      <trkpt lat="39.54227" lon="-7.56608">
        <ele>314.6039</ele>
        <time>2021-07-09T19:40:23Z</time>
      </trkpt>
      <trkpt lat="39.5423" lon="-7.56461">
        <ele>316.1802</ele>
        <time>2021-07-09T19:40:34Z</time>
      </trkpt>
      <trkpt lat="39.54231" lon="-7.56298">
        <ele>314.7011</ele>
        <time>2021-07-09T19:40:45Z</time>
      </trkpt>
      <trkpt lat="39.54239" lon="-7.56217">
        <ele>316.3373</ele>
        <time>2021-07-09T19:40:56Z</time>
      </trkpt>
      <trkpt lat="39.54189" lon="-7.56038">
        <ele>318.9677</ele>
        <time>2021-07-09T19:41:07Z</time>
      </trkpt>
      <trkpt lat="39.54108" lon="-7.55887">
        <ele>322.5398</ele>
        <time>2021-07-09T19:41:18Z</time>
      </trkpt>
      <trkpt lat="39.54053" lon="-7.55694">
        <ele>318.7717</ele>
        <time>2021-07-09T19:41:29Z</time>
      </trkpt>
      <trkpt lat="39.54018" lon="-7.55499">
        <ele>318.2423</ele>
        <time>2021-07-09T19:41:40Z</time>
      </trkpt>
      <trkpt lat="39.53973" lon="-7.5536">
        <ele>317.7916</ele>
        <time>2021-07-09T19:41:51Z</time>
      </trkpt>
      <trkpt lat="39.539" lon="-7.55249">
        <ele>318.0239</ele>
        <time>2021-07-09T19:42:02Z</time>
      </trkpt>
      <trkpt lat="39.53849" lon="-7.55135">
        <ele>317.4037</ele>
        <time>2021-07-09T19:42:13Z</time>
      </trkpt>
      <trkpt lat="39.53771" lon="-7.55004">
        <ele>317.1665</ele>
        <time>2021-07-09T19:42:24Z</time>
      </trkpt>
      <trkpt lat="39.5374" lon="-7.54829">
        <ele>317.7193</ele>
        <time>2021-07-09T19:42:35Z</time>
      </trkpt>
      <trkpt lat="39.53698" lon="-7.54643">
        <ele>316.9403</ele>
        <time>2021-07-09T19:42:46Z</time>
      </trkpt>
      <trkpt lat="39.53664" lon="-7.54459">
        <ele>319.8204</ele>
        <time>2021-07-09T19:42:57Z</time>
      </trkpt>
      <trkpt lat="39.53612" lon="-7.54274">
        <ele>314.6592</ele>
        <time>2021-07-09T19:43:08Z</time>
      </trkpt>
      <trkpt lat="39.53599" lon="-7.54123">
        <ele>309.4889</ele>
        <time>2021-07-09T19:43:19Z</time>
      </trkpt>
      <trkpt lat="39.53583" lon="-7.53941">
        <ele>307.1715</ele>
        <time>2021-07-09T19:43:30Z</time>
      </trkpt>
      <trkpt lat="39.53556" lon="-7.5375">
        <ele>313.0919</ele>
        <time>2021-07-09T19:43:41Z</time>
      </trkpt>
      <trkpt lat="39.5349" lon="-7.53577">
        <ele>316.199</ele>
        <time>2021-07-09T19:43:52Z</time>
      </trkpt>
      <trkpt lat="39.5346" lon="-7.53407">
        <ele>317.4755</ele>
        <time>2021-07-09T19:44:03Z</time>
      </trkpt>
      <trkpt lat="39.53477" lon="-7.53248">
        <ele>317.9398</ele>
        <time>2021-07-09T19:44:14Z</time>
      </trkpt>
      <trkpt lat="39.5337" lon="-7.53152">
        <ele>315.0579</ele>
        <time>2021-07-09T19:44:25Z</time>
      </trkpt>
      <trkpt lat="39.53263" lon="-7.53125">
        <ele>307.6873</ele>
        <time>2021-07-09T19:44:36Z</time>
      </trkpt>
      <trkpt lat="39.53133" lon="-7.53126">
        <ele>302.8615</ele>
        <time>2021-07-09T19:44:47Z</time>
      </trkpt>
      <trkpt lat="39.5301" lon="-7.53129">
        <ele>299.2345</ele>
        <time>2021-07-09T19:44:58Z</time>
      </trkpt>
      <trkpt lat="39.52921" lon="-7.53065">
        <ele>298.0927</ele>
        <time>2021-07-09T19:45:09Z</time>
      </trkpt>
      <trkpt lat="39.52813" lon="-7.53014">
        <ele>306.138</ele>
        <time>2021-07-09T19:45:20Z</time>
      </trkpt>
      <trkpt lat="39.52768" lon="-7.52909">
        <ele>318.4284</ele>
        <time>2021-07-09T19:45:31Z</time>
      </trkpt>
      <trkpt lat="39.52701" lon="-7.52823">
        <ele>319.3168</ele>
        <time>2021-07-09T19:45:42Z</time>
      </trkpt>
      <trkpt lat="39.52584" lon="-7.52755">
        <ele>311.7738</ele>
        <time>2021-07-09T19:45:53Z</time>
      </trkpt>
      <trkpt lat="39.5248" lon="-7.52694">
        <ele>305.3257</ele>
        <time>2021-07-09T19:46:04Z</time>
      </trkpt>
      <trkpt lat="39.52379" lon="-7.52634">
        <ele>303.8168</ele>
        <time>2021-07-09T19:46:15Z</time>
      </trkpt>
      <trkpt lat="39.5225" lon="-7.52556">
        <ele>303.9855</ele>
        <time>2021-07-09T19:46:26Z</time>
      </trkpt>
      <trkpt lat="39.52121" lon="-7.52503">
        <ele>316.0279</ele>
        <time>2021-07-09T19:46:37Z</time>
      </trkpt>
      <trkpt lat="39.5209" lon="-7.5249">
        <ele>317.3797</ele>
        <time>2021-07-09T19:46:48Z</time>
      </trkpt>
      <trkpt lat="39.52087" lon="-7.52532">
        <ele>319.415</ele>
        <time>2021-07-09T19:46:59Z</time>
      </trkpt>
      <trkpt lat="39.52084" lon="-7.52532">
        <ele>320.0836</ele>
        <time>2021-07-09T19:47:17Z</time>
      </trkpt>
      <trkpt lat="39.51992" lon="-7.5252">
        <ele>326.6469</ele>
        <time>2021-07-09T19:47:28Z</time>
      </trkpt>
      <trkpt lat="39.51895" lon="-7.52554">
        <ele>332.2478</ele>
        <time>2021-07-09T19:47:39Z</time>
      </trkpt>
      <trkpt lat="39.51785" lon="-7.52637">
        <ele>339.8601</ele>
        <time>2021-07-09T19:47:50Z</time>
      </trkpt>
      <trkpt lat="39.51688" lon="-7.5271">
        <ele>344.7214</ele>
        <time>2021-07-09T19:48:01Z</time>
      </trkpt>
      <trkpt lat="39.51582" lon="-7.52727">
        <ele>351.7187</ele>
        <time>2021-07-09T19:48:12Z</time>
      </trkpt>
      <trkpt lat="39.51516" lon="-7.52691">
        <ele>352.4572</ele>
        <time>2021-07-09T19:48:23Z</time>
      </trkpt>
      <trkpt lat="39.51458" lon="-7.52682">
        <ele>349.0859</ele>
        <time>2021-07-09T19:48:34Z</time>
      </trkpt>
      <trkpt lat="39.51414" lon="-7.52623">
        <ele>348.6384</ele>
        <time>2021-07-09T19:48:45Z</time>
      </trkpt>
      <trkpt lat="39.51342" lon="-7.52483">
        <ele>346.0119</ele>
        <time>2021-07-09T19:48:56Z</time>
      </trkpt>
      <trkpt lat="39.51275" lon="-7.52394">
        <ele>347.6307</ele>
        <time>2021-07-09T19:49:07Z</time>
      </trkpt>
      <trkpt lat="39.51277" lon="-7.52393">
        <ele>347.2659</ele>
        <time>2021-07-09T19:50:07Z</time>
      </trkpt>
      <trkpt lat="39.51262" lon="-7.52408">
        <ele>347.7828</ele>
        <time>2021-07-09T19:50:18Z</time>
      </trkpt>
      <trkpt lat="39.51135" lon="-7.5251">
        <ele>352.0046</ele>
        <time>2021-07-09T19:50:29Z</time>
      </trkpt>
      <trkpt lat="39.50988" lon="-7.52535">
        <ele>354.7705</ele>
        <time>2021-07-09T19:50:40Z</time>
      </trkpt>
      <trkpt lat="39.50928" lon="-7.52547">
        <ele>357.0413</ele>
        <time>2021-07-09T19:50:51Z</time>
      </trkpt>
      <trkpt lat="39.50809" lon="-7.52448">
        <ele>361.7507</ele>
        <time>2021-07-09T19:51:02Z</time>
      </trkpt>
      <trkpt lat="39.50662" lon="-7.5253">
        <ele>364.2926</ele>
        <time>2021-07-09T19:51:13Z</time>
      </trkpt>
      <trkpt lat="39.50496" lon="-7.52624">
        <ele>364.3293</ele>
        <time>2021-07-09T19:51:24Z</time>
      </trkpt>
      <trkpt lat="39.50386" lon="-7.5274">
        <ele>365.1402</ele>
        <time>2021-07-09T19:51:35Z</time>
      </trkpt>
      <trkpt lat="39.50279" lon="-7.52876">
        <ele>369.0789</ele>
        <time>2021-07-09T19:51:46Z</time>
      </trkpt>
      <trkpt lat="39.50119" lon="-7.52941">
        <ele>368.2943</ele>
        <time>2021-07-09T19:51:57Z</time>
      </trkpt>
      <trkpt lat="39.4999" lon="-7.53114">
        <ele>366.5374</ele>
        <time>2021-07-09T19:52:08Z</time>
      </trkpt>
      <trkpt lat="39.49907" lon="-7.53277">
        <ele>365.1719</ele>
        <time>2021-07-09T19:52:19Z</time>
      </trkpt>
      <trkpt lat="39.49822" lon="-7.53536">
        <ele>363.5199</ele>
        <time>2021-07-09T19:52:30Z</time>
      </trkpt>
      <trkpt lat="39.49794" lon="-7.53767">
        <ele>358.9172</ele>
        <time>2021-07-09T19:52:41Z</time>
      </trkpt>
      <trkpt lat="39.49717" lon="-7.54008">
        <ele>352.7043</ele>
        <time>2021-07-09T19:52:52Z</time>
      </trkpt>
      <trkpt lat="39.49621" lon="-7.54179">
        <ele>349.6441</ele>
        <time>2021-07-09T19:53:03Z</time>
      </trkpt>
      <trkpt lat="39.49394" lon="-7.54223">
        <ele>349.8621</ele>
        <time>2021-07-09T19:53:14Z</time>
      </trkpt>
      <trkpt lat="39.49153" lon="-7.54316">
        <ele>341.345</ele>
        <time>2021-07-09T19:53:25Z</time>
      </trkpt>
      <trkpt lat="39.48934" lon="-7.54407">
        <ele>337.882</ele>
        <time>2021-07-09T19:53:36Z</time>
      </trkpt>
      <trkpt lat="39.48739" lon="-7.54496">
        <ele>331.5666</ele>
        <time>2021-07-09T19:53:47Z</time>
      </trkpt>
      <trkpt lat="39.4854" lon="-7.54656">
        <ele>328.4208</ele>
        <time>2021-07-09T19:53:58Z</time>
      </trkpt>
      <trkpt lat="39.48342" lon="-7.54803">
        <ele>318.6482</ele>
        <time>2021-07-09T19:54:09Z</time>
      </trkpt>
      <trkpt lat="39.48206" lon="-7.5494">
        <ele>314.958</ele>
        <time>2021-07-09T19:54:20Z</time>
      </trkpt>
      <trkpt lat="39.48163" lon="-7.54971">
        <ele>313.4047</ele>
        <time>2021-07-09T19:54:31Z</time>
      </trkpt>
      <trkpt lat="39.48155" lon="-7.54974">
        <ele>318.8024</ele>
        <time>2021-07-09T19:54:49Z</time>
      </trkpt>
      <trkpt lat="39.48194" lon="-7.54946">
        <ele>317.5939</ele>
        <time>2021-07-09T19:55:00Z</time>
      </trkpt>
      <trkpt lat="39.48279" lon="-7.54857">
        <ele>317.2383</ele>
        <time>2021-07-09T19:55:11Z</time>
      </trkpt>
      <trkpt lat="39.48275" lon="-7.5486">
        <ele>318.655</ele>
        <time>2021-07-09T19:55:22Z</time>
      </trkpt>
      <trkpt lat="39.48153" lon="-7.5497">
        <ele>316.6207</ele>
        <time>2021-07-09T19:55:33Z</time>
      </trkpt>
      <trkpt lat="39.48051" lon="-7.55101">
        <ele>314.941</ele>
        <time>2021-07-09T19:55:44Z</time>
      </trkpt>
      <trkpt lat="39.47922" lon="-7.55118">
        <ele>311.8843</ele>
        <time>2021-07-09T19:55:55Z</time>
      </trkpt>
      <trkpt lat="39.47769" lon="-7.55279">
        <ele>314.0419</ele>
        <time>2021-07-09T19:56:06Z</time>
      </trkpt>
      <trkpt lat="39.47689" lon="-7.55462">
        <ele>315.4977</ele>
        <time>2021-07-09T19:56:17Z</time>
      </trkpt>
      <trkpt lat="39.47689" lon="-7.55669">
        <ele>316.3049</ele>
        <time>2021-07-09T19:56:28Z</time>
      </trkpt>
      <trkpt lat="39.47787" lon="-7.55915">
        <ele>323.9131</ele>
        <time>2021-07-09T19:56:39Z</time>
      </trkpt>
      <trkpt lat="39.47759" lon="-7.56126">
        <ele>333.6993</ele>
        <time>2021-07-09T19:56:50Z</time>
      </trkpt>
      <trkpt lat="39.47656" lon="-7.56259">
        <ele>331.8121</ele>
        <time>2021-07-09T19:57:01Z</time>
      </trkpt>
      <trkpt lat="39.47412" lon="-7.56262">
        <ele>334.6772</ele>
        <time>2021-07-09T19:57:12Z</time>
      </trkpt>
      <trkpt lat="39.47213" lon="-7.5627">
        <ele>326.6867</ele>
        <time>2021-07-09T19:57:23Z</time>
      </trkpt>
      <trkpt lat="39.47103" lon="-7.56187">
        <ele>326.8456</ele>
        <time>2021-07-09T19:57:34Z</time>
      </trkpt>
      <trkpt lat="39.46998" lon="-7.5595">
        <ele>319.1973</ele>
        <time>2021-07-09T19:57:45Z</time>
      </trkpt>
      <trkpt lat="39.4688" lon="-7.55812">
        <ele>317.8097</ele>
        <time>2021-07-09T19:57:56Z</time>
      </trkpt>
      <trkpt lat="39.46714" lon="-7.55685">
        <ele>326.5641</ele>
        <time>2021-07-09T19:58:07Z</time>
      </trkpt>
      <trkpt lat="39.46596" lon="-7.55543">
        <ele>328.3245</ele>
        <time>2021-07-09T19:58:18Z</time>
      </trkpt>
      <trkpt lat="39.46495" lon="-7.5536">
        <ele>328.557</ele>
        <time>2021-07-09T19:58:29Z</time>
      </trkpt>
      <trkpt lat="39.46366" lon="-7.55266">
        <ele>324.4602</ele>
        <time>2021-07-09T19:58:40Z</time>
      </trkpt>
      <trkpt lat="39.46339" lon="-7.55112">
        <ele>320.1234</ele>
        <time>2021-07-09T19:58:51Z</time>
      </trkpt>
      <trkpt lat="39.46289" lon="-7.54984">
        <ele>316.296</ele>
        <time>2021-07-09T19:59:02Z</time>
      </trkpt>
      <trkpt lat="39.46275" lon="-7.54884">
        <ele>316.106</ele>
        <time>2021-07-09T19:59:13Z</time>
      </trkpt>
      <trkpt lat="39.46387" lon="-7.54777">
        <ele>316.3401</ele>
        <time>2021-07-09T19:59:24Z</time>
      </trkpt>
      <trkpt lat="39.46385" lon="-7.54599">
        <ele>316.9053</ele>
        <time>2021-07-09T19:59:35Z</time>
      </trkpt>
      <trkpt lat="39.46361" lon="-7.54475">
        <ele>314.6335</ele>
        <time>2021-07-09T19:59:46Z</time>
      </trkpt>
      <trkpt lat="39.46337" lon="-7.54407">
        <ele>311.5769</ele>
        <time>2021-07-09T19:59:57Z</time>
      </trkpt>
      <trkpt lat="39.46396" lon="-7.54409">
        <ele>314.5568</ele>
        <time>2021-07-09T20:00:08Z</time>
      </trkpt>
      <trkpt lat="39.46436" lon="-7.54398">
        <ele>310.7903</ele>
        <time>2021-07-09T20:00:19Z</time>
      </trkpt>
      <trkpt lat="39.46454" lon="-7.54392">
        <ele>309.5402</ele>
        <time>2021-07-09T20:00:30Z</time>
      </trkpt>
      <trkpt lat="39.46463" lon="-7.54413">
        <ele>310.7708</ele>
        <time>2021-07-09T20:00:41Z</time>
      </trkpt>
      <trkpt lat="39.46452" lon="-7.5439">
        <ele>310.1215</ele>
        <time>2021-07-09T20:00:52Z</time>
      </trkpt>
      <trkpt lat="39.46446" lon="-7.54396">
        <ele>311.1065</ele>
        <time>2021-07-09T20:01:03Z</time>
      </trkpt>
      <trkpt lat="39.46446" lon="-7.54398">
        <ele>314.2334</ele>
        <time>2021-07-09T20:02:02Z</time>
      </trkpt>
      <trkpt lat="39.46442" lon="-7.54399">
        <ele>314.2049</ele>
        <time>2021-07-09T20:02:16Z</time>
      </trkpt>
      <trkpt lat="39.46456" lon="-7.54391">
        <ele>313.2911</ele>
        <time>2021-07-09T20:02:27Z</time>
      </trkpt>
      <trkpt lat="39.4648" lon="-7.54443">
        <ele>311.1262</ele>
        <time>2021-07-09T20:02:38Z</time>
      </trkpt>
      <trkpt lat="39.46502" lon="-7.54487">
        <ele>310.306</ele>
        <time>2021-07-09T20:02:49Z</time>
      </trkpt>
      <trkpt lat="39.46515" lon="-7.54497">
        <ele>310.897</ele>
        <time>2021-07-09T20:03:00Z</time>
      </trkpt>
      <trkpt lat="39.46511" lon="-7.54496">
        <ele>312.7123</ele>
        <time>2021-07-09T20:03:30Z</time>
      </trkpt>
    </trkseg>
  </trk>
</gpx>